<?xml version='1.0' encoding='UTF-8'?><gpx version="1.1" creator="JPX - https://github.com/jenetics/jpx" xmlns="http://www.topografix.com/GPX/1/1"><trk><trkseg><trkpt lat="41.3608792" lon="13.1690738"><ele>3.0</ele><time>2026-04-02T13:01:50.042Z</time></trkpt><trkpt lat="41.3609636" lon="13.1690629"><ele>3.0</ele><time>2026-04-02T13:01:51.047Z</time></trkpt><trkpt lat="41.3610622" lon="13.1690533"><ele>3.0</ele><time>2026-04-02T13:01:52.111Z</time></trkpt><trkpt lat="41.3611749" lon="13.1690561"><ele>3.0</ele><time>2026-04-02T13:01:53.066Z</time></trkpt><trkpt lat="41.3612916" lon="13.1690626"><ele>3.0</ele><time>2026-04-02T13:01:54.065Z</time></trkpt><trkpt lat="41.3614064" lon="13.1690667"><ele>3.0</ele><time>2026-04-02T13:01:55.094Z</time></trkpt><trkpt lat="41.3615228" lon="13.1690697"><ele>3.0</ele><time>2026-04-02T13:01:56.061Z</time></trkpt><trkpt lat="41.3616388" lon="13.1690734"><ele>3.0</ele><time>2026-04-02T13:01:57.049Z</time></trkpt><trkpt lat="41.3617574" lon="13.1690784"><ele>3.0</ele><time>2026-04-02T13:01:58.045Z</time></trkpt><trkpt lat="41.3618734" lon="13.1690893"><ele>3.0</ele><time>2026-04-02T13:01:59.059Z</time></trkpt><trkpt lat="41.3619885" lon="13.1690946"><ele>3.0</ele><time>2026-04-02T13:02:00.059Z</time></trkpt><trkpt lat="41.3621026" lon="13.169098"><ele>3.0</ele><time>2026-04-02T13:02:01.057Z</time></trkpt><trkpt lat="41.3622204" lon="13.1691008"><ele>3.0</ele><time>2026-04-02T13:02:02.067Z</time></trkpt><trkpt lat="41.3623332" lon="13.1691074"><ele>3.0</ele><time>2026-04-02T13:02:03.04Z</time></trkpt><trkpt lat="41.3624337" lon="13.1691174"><ele>3.0</ele><time>2026-04-02T13:02:04.053Z</time></trkpt><trkpt lat="41.3625283" lon="13.1691264"><ele>3.0</ele><time>2026-04-02T13:02:05.049Z</time></trkpt><trkpt lat="41.3626149" lon="13.1691367"><ele>3.0</ele><time>2026-04-02T13:02:06.065Z</time></trkpt><trkpt lat="41.3627027" lon="13.1691486"><ele>3.0</ele><time>2026-04-02T13:02:07.065Z</time></trkpt><trkpt lat="41.3627992" lon="13.1691614"><ele>3.0</ele><time>2026-04-02T13:02:08.051Z</time></trkpt><trkpt lat="41.3628984" lon="13.1691739"><ele>3.0</ele><time>2026-04-02T13:02:09.056Z</time></trkpt><trkpt lat="41.3630011" lon="13.1691865"><ele>3.0</ele><time>2026-04-02T13:02:10.043Z</time></trkpt><trkpt lat="41.3631064" lon="13.1692021"><ele>3.0</ele><time>2026-04-02T13:02:11.041Z</time></trkpt><trkpt lat="41.3632129" lon="13.1692239"><ele>3.0</ele><time>2026-04-02T13:02:12.038Z</time></trkpt><trkpt lat="41.3633215" lon="13.1692465"><ele>3.0</ele><time>2026-04-02T13:02:13.042Z</time></trkpt><trkpt lat="41.3634343" lon="13.1692683"><ele>3.0</ele><time>2026-04-02T13:02:14.066Z</time></trkpt><trkpt lat="41.363549" lon="13.1692906"><ele>3.0</ele><time>2026-04-02T13:02:15.054Z</time></trkpt><trkpt lat="41.3636653" lon="13.1693093"><ele>3.0</ele><time>2026-04-02T13:02:16.061Z</time></trkpt><trkpt lat="41.3637803" lon="13.1693269"><ele>2.6</ele><time>2026-04-02T13:02:17.05Z</time></trkpt><trkpt lat="41.3638926" lon="13.1693462"><ele>2.1999999999999997</ele><time>2026-04-02T13:02:18.052Z</time></trkpt><trkpt lat="41.363996" lon="13.1693669"><ele>1.8</ele><time>2026-04-02T13:02:19.081Z</time></trkpt><trkpt lat="41.3640969" lon="13.1693902"><ele>1.4</ele><time>2026-04-02T13:02:20.06Z</time></trkpt><trkpt lat="41.3641859" lon="13.1694149"><ele>1.0</ele><time>2026-04-02T13:02:21.053Z</time></trkpt><trkpt lat="41.364275" lon="13.1694454"><ele>1.0</ele><time>2026-04-02T13:02:22.039Z</time></trkpt><trkpt lat="41.3643728" lon="13.1694774"><ele>1.0</ele><time>2026-04-02T13:02:23.061Z</time></trkpt><trkpt lat="41.3644775" lon="13.1695089"><ele>1.0</ele><time>2026-04-02T13:02:24.062Z</time></trkpt><trkpt lat="41.3645812" lon="13.1695472"><ele>1.0</ele><time>2026-04-02T13:02:25.053Z</time></trkpt><trkpt lat="41.3646784" lon="13.1695894"><ele>1.0</ele><time>2026-04-02T13:02:26.061Z</time></trkpt><trkpt lat="41.364756" lon="13.1696291"><ele>1.2000000000000002</ele><time>2026-04-02T13:02:27.047Z</time></trkpt><trkpt lat="41.3648637" lon="13.1696549"><ele>1.4000000000000001</ele><time>2026-04-02T13:02:29.051Z</time></trkpt><trkpt lat="41.3649959" lon="13.16961"><ele>1.6</ele><time>2026-04-02T13:02:31.049Z</time></trkpt><trkpt lat="41.3650821" lon="13.1695724"><ele>1.8</ele><time>2026-04-02T13:02:32.045Z</time></trkpt><trkpt lat="41.3651837" lon="13.1695337"><ele>2.0</ele><time>2026-04-02T13:02:33.048Z</time></trkpt><trkpt lat="41.3652925" lon="13.1694953"><ele>2.0</ele><time>2026-04-02T13:02:34.05Z</time></trkpt><trkpt lat="41.3654061" lon="13.169454"><ele>2.0</ele><time>2026-04-02T13:02:35.062Z</time></trkpt><trkpt lat="41.3655196" lon="13.1694113"><ele>2.0</ele><time>2026-04-02T13:02:36.046Z</time></trkpt><trkpt lat="41.3656311" lon="13.1693661"><ele>2.0</ele><time>2026-04-02T13:02:37.049Z</time></trkpt><trkpt lat="41.3657424" lon="13.1693256"><ele>2.0</ele><time>2026-04-02T13:02:38.052Z</time></trkpt><trkpt lat="41.3658526" lon="13.1692916"><ele>2.0</ele><time>2026-04-02T13:02:39.047Z</time></trkpt><trkpt lat="41.3659544" lon="13.1692676"><ele>2.0</ele><time>2026-04-02T13:02:40.045Z</time></trkpt><trkpt lat="41.3660522" lon="13.1692556"><ele>2.0</ele><time>2026-04-02T13:02:41.046Z</time></trkpt><trkpt lat="41.3661499" lon="13.1692599"><ele>2.0</ele><time>2026-04-02T13:02:42.057Z</time></trkpt><trkpt lat="41.3662497" lon="13.1692797"><ele>2.0</ele><time>2026-04-02T13:02:43.069Z</time></trkpt><trkpt lat="41.3663543" lon="13.1693118"><ele>2.0</ele><time>2026-04-02T13:02:44.051Z</time></trkpt><trkpt lat="41.3664581" lon="13.1693542"><ele>2.0</ele><time>2026-04-02T13:02:45.049Z</time></trkpt><trkpt lat="41.3665612" lon="13.1694027"><ele>2.0</ele><time>2026-04-02T13:02:46.044Z</time></trkpt><trkpt lat="41.3666655" lon="13.1694541"><ele>2.0</ele><time>2026-04-02T13:02:47.048Z</time></trkpt><trkpt lat="41.3667735" lon="13.169508"><ele>2.25</ele><time>2026-04-02T13:02:48.051Z</time></trkpt><trkpt lat="41.3668854" lon="13.1695631"><ele>2.5</ele><time>2026-04-02T13:02:49.046Z</time></trkpt><trkpt lat="41.3669998" lon="13.1696228"><ele>2.75</ele><time>2026-04-02T13:02:50.049Z</time></trkpt><trkpt lat="41.3671134" lon="13.1696836"><ele>3.0</ele><time>2026-04-02T13:02:51.045Z</time></trkpt><trkpt lat="41.367228" lon="13.1697431"><ele>3.0</ele><time>2026-04-02T13:02:52.045Z</time></trkpt><trkpt lat="41.3673409" lon="13.1698012"><ele>3.0</ele><time>2026-04-02T13:02:53.045Z</time></trkpt><trkpt lat="41.3674518" lon="13.1698606"><ele>3.0</ele><time>2026-04-02T13:02:54.043Z</time></trkpt><trkpt lat="41.367557" lon="13.169925"><ele>3.0</ele><time>2026-04-02T13:02:55.045Z</time></trkpt><trkpt lat="41.3676553" lon="13.1700019"><ele>3.0</ele><time>2026-04-02T13:02:56.049Z</time></trkpt><trkpt lat="41.3677469" lon="13.1700939"><ele>3.0</ele><time>2026-04-02T13:02:57.041Z</time></trkpt><trkpt lat="41.3678351" lon="13.1702"><ele>3.0</ele><time>2026-04-02T13:02:58.047Z</time></trkpt><trkpt lat="41.3679203" lon="13.1703184"><ele>3.0</ele><time>2026-04-02T13:02:59.042Z</time></trkpt><trkpt lat="41.3680069" lon="13.1704445"><ele>3.0</ele><time>2026-04-02T13:03:00.05Z</time></trkpt><trkpt lat="41.3680935" lon="13.1705717"><ele>3.0</ele><time>2026-04-02T13:03:01.047Z</time></trkpt><trkpt lat="41.3681794" lon="13.1706974"><ele>3.0</ele><time>2026-04-02T13:03:02.051Z</time></trkpt><trkpt lat="41.368265" lon="13.1708221"><ele>3.0</ele><time>2026-04-02T13:03:03.058Z</time></trkpt><trkpt lat="41.3683503" lon="13.1709469"><ele>2.75</ele><time>2026-04-02T13:03:04.051Z</time></trkpt><trkpt lat="41.3684342" lon="13.171072"><ele>2.5</ele><time>2026-04-02T13:03:05.057Z</time></trkpt><trkpt lat="41.3685165" lon="13.1711957"><ele>2.25</ele><time>2026-04-02T13:03:06.052Z</time></trkpt><trkpt lat="41.3685959" lon="13.1713149"><ele>2.0</ele><time>2026-04-02T13:03:07.055Z</time></trkpt><trkpt lat="41.3686705" lon="13.1714267"><ele>2.0</ele><time>2026-04-02T13:03:08.052Z</time></trkpt><trkpt lat="41.3687396" lon="13.171529"><ele>2.0</ele><time>2026-04-02T13:03:09.048Z</time></trkpt><trkpt lat="41.3688166" lon="13.1716201"><ele>2.0</ele><time>2026-04-02T13:03:10.045Z</time></trkpt><trkpt lat="41.368906" lon="13.1716976"><ele>2.0</ele><time>2026-04-02T13:03:11.051Z</time></trkpt><trkpt lat="41.3690031" lon="13.1717686"><ele>2.0</ele><time>2026-04-02T13:03:12.05Z</time></trkpt><trkpt lat="41.3691035" lon="13.1718399"><ele>2.25</ele><time>2026-04-02T13:03:13.049Z</time></trkpt><trkpt lat="41.3692066" lon="13.1719164"><ele>2.5</ele><time>2026-04-02T13:03:14.051Z</time></trkpt><trkpt lat="41.3693095" lon="13.171992"><ele>2.75</ele><time>2026-04-02T13:03:15.051Z</time></trkpt><trkpt lat="41.3694132" lon="13.1720674"><ele>3.0</ele><time>2026-04-02T13:03:16.053Z</time></trkpt><trkpt lat="41.3695174" lon="13.1721427"><ele>3.0</ele><time>2026-04-02T13:03:17.062Z</time></trkpt><trkpt lat="41.3696173" lon="13.1722204"><ele>3.0</ele><time>2026-04-02T13:03:18.054Z</time></trkpt><trkpt lat="41.3697105" lon="13.1722942"><ele>3.0</ele><time>2026-04-02T13:03:19.048Z</time></trkpt><trkpt lat="41.3697878" lon="13.1723604"><ele>3.0</ele><time>2026-04-02T13:03:20.051Z</time></trkpt><trkpt lat="41.3698566" lon="13.172418"><ele>3.0</ele><time>2026-04-02T13:03:21.051Z</time></trkpt><trkpt lat="41.3699525" lon="13.1724821"><ele>3.1666666666666665</ele><time>2026-04-02T13:03:23.053Z</time></trkpt><trkpt lat="41.3700388" lon="13.1725319"><ele>3.333333333333333</ele><time>2026-04-02T13:03:25.058Z</time></trkpt><trkpt lat="41.3701436" lon="13.1726156"><ele>3.5</ele><time>2026-04-02T13:03:27.061Z</time></trkpt><trkpt lat="41.3702002" lon="13.1726645"><ele>3.6666666666666665</ele><time>2026-04-02T13:03:28.054Z</time></trkpt><trkpt lat="41.3702568" lon="13.1727148"><ele>3.833333333333333</ele><time>2026-04-02T13:03:29.05Z</time></trkpt><trkpt lat="41.3703205" lon="13.1727684"><ele>4.0</ele><time>2026-04-02T13:03:30.058Z</time></trkpt><trkpt lat="41.3703876" lon="13.1728257"><ele>3.9999999999999996</ele><time>2026-04-02T13:03:31.054Z</time></trkpt><trkpt lat="41.3704564" lon="13.1728847"><ele>4.0</ele><time>2026-04-02T13:03:32.057Z</time></trkpt><trkpt lat="41.3705202" lon="13.1729396"><ele>4.0</ele><time>2026-04-02T13:03:33.065Z</time></trkpt><trkpt lat="41.3705779" lon="13.172988"><ele>4.0</ele><time>2026-04-02T13:03:34.054Z</time></trkpt><trkpt lat="41.3706501" lon="13.1730526"><ele>3.9999999999999996</ele><time>2026-04-02T13:03:36.05Z</time></trkpt><trkpt lat="41.3707096" lon="13.173106"><ele>4.0</ele><time>2026-04-02T13:03:38.066Z</time></trkpt><trkpt lat="41.3707782" lon="13.173166"><ele>4.4</ele><time>2026-04-02T13:03:40.051Z</time></trkpt><trkpt lat="41.3708643" lon="13.1732478"><ele>4.800000000000001</ele><time>2026-04-02T13:03:42.05Z</time></trkpt><trkpt lat="41.370923" lon="13.173299"><ele>5.199999999999999</ele><time>2026-04-02T13:03:43.052Z</time></trkpt><trkpt lat="41.3709905" lon="13.1733628"><ele>5.6</ele><time>2026-04-02T13:03:44.061Z</time></trkpt><trkpt lat="41.3710679" lon="13.1734409"><ele>6.0</ele><time>2026-04-02T13:03:45.063Z</time></trkpt><trkpt lat="41.3711557" lon="13.1735303"><ele>6.0</ele><time>2026-04-02T13:03:46.055Z</time></trkpt><trkpt lat="41.3712583" lon="13.1736336"><ele>6.0</ele><time>2026-04-02T13:03:47.049Z</time></trkpt><trkpt lat="41.3713668" lon="13.1737425"><ele>6.0</ele><time>2026-04-02T13:03:48.049Z</time></trkpt><trkpt lat="41.3714805" lon="13.1738585"><ele>6.0</ele><time>2026-04-02T13:03:49.05Z</time></trkpt><trkpt lat="41.3715971" lon="13.1739836"><ele>5.333333333333333</ele><time>2026-04-02T13:03:50.053Z</time></trkpt><trkpt lat="41.3717146" lon="13.1741136"><ele>4.666666666666666</ele><time>2026-04-02T13:03:51.055Z</time></trkpt><trkpt lat="41.3718295" lon="13.1742441"><ele>4.0</ele><time>2026-04-02T13:03:52.061Z</time></trkpt><trkpt lat="41.3719457" lon="13.1743792"><ele>4.0</ele><time>2026-04-02T13:03:53.048Z</time></trkpt><trkpt lat="41.3720623" lon="13.1745135"><ele>4.0</ele><time>2026-04-02T13:03:54.059Z</time></trkpt><trkpt lat="41.3721728" lon="13.174643"><ele>4.0</ele><time>2026-04-02T13:03:55.051Z</time></trkpt><trkpt lat="41.372277" lon="13.1747693"><ele>4.0</ele><time>2026-04-02T13:03:56.061Z</time></trkpt><trkpt lat="41.3723764" lon="13.1748912"><ele>4.0</ele><time>2026-04-02T13:03:57.049Z</time></trkpt><trkpt lat="41.3724755" lon="13.1750121"><ele>4.0</ele><time>2026-04-02T13:03:58.051Z</time></trkpt><trkpt lat="41.372574" lon="13.1751334"><ele>4.0</ele><time>2026-04-02T13:03:59.053Z</time></trkpt><trkpt lat="41.3726734" lon="13.1752553"><ele>4.0</ele><time>2026-04-02T13:04:00.043Z</time></trkpt><trkpt lat="41.37277" lon="13.1753775"><ele>4.0</ele><time>2026-04-02T13:04:01.056Z</time></trkpt><trkpt lat="41.3728628" lon="13.175496"><ele>4.0</ele><time>2026-04-02T13:04:02.045Z</time></trkpt><trkpt lat="41.3729534" lon="13.1756131"><ele>4.0</ele><time>2026-04-02T13:04:03.054Z</time></trkpt><trkpt lat="41.3730434" lon="13.1757253"><ele>4.0</ele><time>2026-04-02T13:04:04.052Z</time></trkpt><trkpt lat="41.3731239" lon="13.1758287"><ele>3.8000000000000003</ele><time>2026-04-02T13:04:05.051Z</time></trkpt><trkpt lat="41.3731936" lon="13.1759228"><ele>3.6000000000000005</ele><time>2026-04-02T13:04:06.05Z</time></trkpt><trkpt lat="41.3732565" lon="13.1760034"><ele>3.4</ele><time>2026-04-02T13:04:07.052Z</time></trkpt><trkpt lat="41.3733093" lon="13.1760716"><ele>3.2</ele><time>2026-04-02T13:04:08.053Z</time></trkpt><trkpt lat="41.3733759" lon="13.1761568"><ele>3.0</ele><time>2026-04-02T13:04:10.049Z</time></trkpt><trkpt lat="41.3734906" lon="13.1762945"><ele>3.0</ele><time>2026-04-02T13:05:01.094Z</time></trkpt><trkpt lat="41.3735633" lon="13.176388"><ele>3.0</ele><time>2026-04-02T13:05:02.07Z</time></trkpt><trkpt lat="41.3736418" lon="13.1764894"><ele>3.0</ele><time>2026-04-02T13:05:03.059Z</time></trkpt><trkpt lat="41.3737225" lon="13.1766047"><ele>3.0</ele><time>2026-04-02T13:05:04.051Z</time></trkpt><trkpt lat="41.3738055" lon="13.1767281"><ele>3.25</ele><time>2026-04-02T13:05:05.065Z</time></trkpt><trkpt lat="41.3738958" lon="13.1768641"><ele>3.5</ele><time>2026-04-02T13:05:06.066Z</time></trkpt><trkpt lat="41.3739856" lon="13.1769968"><ele>3.75</ele><time>2026-04-02T13:05:07.063Z</time></trkpt><trkpt lat="41.3740779" lon="13.1771275"><ele>4.0</ele><time>2026-04-02T13:05:08.065Z</time></trkpt><trkpt lat="41.374175" lon="13.1772595"><ele>4.0</ele><time>2026-04-02T13:05:09.066Z</time></trkpt><trkpt lat="41.3742749" lon="13.1773939"><ele>4.0</ele><time>2026-04-02T13:05:10.1Z</time></trkpt><trkpt lat="41.3743776" lon="13.1775282"><ele>4.0</ele><time>2026-04-02T13:05:11.078Z</time></trkpt><trkpt lat="41.3744785" lon="13.1776634"><ele>4.0</ele><time>2026-04-02T13:05:12.046Z</time></trkpt><trkpt lat="41.3745814" lon="13.1778008"><ele>4.0</ele><time>2026-04-02T13:05:13.053Z</time></trkpt><trkpt lat="41.3746861" lon="13.1779388"><ele>4.0</ele><time>2026-04-02T13:05:14.055Z</time></trkpt><trkpt lat="41.3747906" lon="13.1780776"><ele>4.0</ele><time>2026-04-02T13:05:15.054Z</time></trkpt><trkpt lat="41.3748969" lon="13.1782181"><ele>4.0</ele><time>2026-04-02T13:05:16.054Z</time></trkpt><trkpt lat="41.3750046" lon="13.1783598"><ele>3.333333333333333</ele><time>2026-04-02T13:05:17.054Z</time></trkpt><trkpt lat="41.3751122" lon="13.1785013"><ele>2.6666666666666665</ele><time>2026-04-02T13:05:18.058Z</time></trkpt><trkpt lat="41.3752205" lon="13.178644"><ele>2.0</ele><time>2026-04-02T13:05:19.048Z</time></trkpt><trkpt lat="41.3753298" lon="13.1787887"><ele>2.0</ele><time>2026-04-02T13:05:20.051Z</time></trkpt><trkpt lat="41.3754386" lon="13.1789316"><ele>2.0</ele><time>2026-04-02T13:05:21.049Z</time></trkpt><trkpt lat="41.3755465" lon="13.1790729"><ele>2.0</ele><time>2026-04-02T13:05:22.047Z</time></trkpt><trkpt lat="41.3756529" lon="13.1792125"><ele>2.5</ele><time>2026-04-02T13:05:23.04Z</time></trkpt><trkpt lat="41.3757561" lon="13.1793501"><ele>3.0</ele><time>2026-04-02T13:05:24.051Z</time></trkpt><trkpt lat="41.3758548" lon="13.1794819"><ele>3.5</ele><time>2026-04-02T13:05:25.05Z</time></trkpt><trkpt lat="41.3759592" lon="13.1796157"><ele>4.0</ele><time>2026-04-02T13:05:26.056Z</time></trkpt><trkpt lat="41.3760619" lon="13.1797519"><ele>4.25</ele><time>2026-04-02T13:05:27.053Z</time></trkpt><trkpt lat="41.3761612" lon="13.1798918"><ele>4.5</ele><time>2026-04-02T13:05:28.056Z</time></trkpt><trkpt lat="41.3762665" lon="13.1800324"><ele>4.75</ele><time>2026-04-02T13:05:29.05Z</time></trkpt><trkpt lat="41.3763736" lon="13.1801753"><ele>5.0</ele><time>2026-04-02T13:05:30.044Z</time></trkpt><trkpt lat="41.3764794" lon="13.1803177"><ele>5.0</ele><time>2026-04-02T13:05:31.053Z</time></trkpt><trkpt lat="41.3765846" lon="13.180461"><ele>5.0</ele><time>2026-04-02T13:05:32.051Z</time></trkpt><trkpt lat="41.3766906" lon="13.1806041"><ele>5.0</ele><time>2026-04-02T13:05:33.048Z</time></trkpt><trkpt lat="41.3767987" lon="13.1807479"><ele>5.0</ele><time>2026-04-02T13:05:34.06Z</time></trkpt><trkpt lat="41.376912" lon="13.1808907"><ele>5.0</ele><time>2026-04-02T13:05:35.051Z</time></trkpt><trkpt lat="41.3770214" lon="13.1810338"><ele>5.0</ele><time>2026-04-02T13:05:36.05Z</time></trkpt><trkpt lat="41.3771309" lon="13.1811729"><ele>5.0</ele><time>2026-04-02T13:05:37.051Z</time></trkpt><trkpt lat="41.3772434" lon="13.1813141"><ele>5.0</ele><time>2026-04-02T13:05:38.061Z</time></trkpt><trkpt lat="41.3773561" lon="13.1814477"><ele>5.0</ele><time>2026-04-02T13:05:39.05Z</time></trkpt><trkpt lat="41.3774672" lon="13.1815804"><ele>5.0</ele><time>2026-04-02T13:05:40.051Z</time></trkpt><trkpt lat="41.3775727" lon="13.1817118"><ele>5.0</ele><time>2026-04-02T13:05:41.047Z</time></trkpt><trkpt lat="41.3776772" lon="13.1818372"><ele>5.0</ele><time>2026-04-02T13:05:42.06Z</time></trkpt><trkpt lat="41.3777852" lon="13.1819447"><ele>5.0</ele><time>2026-04-02T13:05:43.057Z</time></trkpt><trkpt lat="41.3779049" lon="13.1820317"><ele>5.25</ele><time>2026-04-02T13:05:44.056Z</time></trkpt><trkpt lat="41.3780267" lon="13.182086"><ele>5.5</ele><time>2026-04-02T13:05:45.05Z</time></trkpt><trkpt lat="41.3781644" lon="13.1821137"><ele>5.75</ele><time>2026-04-02T13:05:46.049Z</time></trkpt><trkpt lat="41.3783112" lon="13.1821292"><ele>6.0</ele><time>2026-04-02T13:05:47.06Z</time></trkpt><trkpt lat="41.3784588" lon="13.1821513"><ele>6.0</ele><time>2026-04-02T13:05:48.054Z</time></trkpt><trkpt lat="41.3786095" lon="13.1821924"><ele>6.0</ele><time>2026-04-02T13:05:49.054Z</time></trkpt><trkpt lat="41.3787626" lon="13.1822302"><ele>6.0</ele><time>2026-04-02T13:05:50.054Z</time></trkpt><trkpt lat="41.3789102" lon="13.1822754"><ele>5.666666666666667</ele><time>2026-04-02T13:05:51.057Z</time></trkpt><trkpt lat="41.3790588" lon="13.182325"><ele>5.333333333333334</ele><time>2026-04-02T13:05:52.056Z</time></trkpt><trkpt lat="41.3792087" lon="13.1823735"><ele>5.0</ele><time>2026-04-02T13:05:53.056Z</time></trkpt><trkpt lat="41.3793574" lon="13.1824239"><ele>5.0</ele><time>2026-04-02T13:05:54.062Z</time></trkpt><trkpt lat="41.3795082" lon="13.1824748"><ele>5.0</ele><time>2026-04-02T13:05:55.053Z</time></trkpt><trkpt lat="41.3796581" lon="13.1825303"><ele>5.0</ele><time>2026-04-02T13:05:56.051Z</time></trkpt><trkpt lat="41.3798082" lon="13.1825849"><ele>4.333333333333334</ele><time>2026-04-02T13:05:57.052Z</time></trkpt><trkpt lat="41.3799563" lon="13.1826369"><ele>3.666666666666667</ele><time>2026-04-02T13:05:58.056Z</time></trkpt><trkpt lat="41.3801054" lon="13.1826887"><ele>3.0</ele><time>2026-04-02T13:05:59.052Z</time></trkpt><trkpt lat="41.3802583" lon="13.1827413"><ele>3.0</ele><time>2026-04-02T13:06:00.051Z</time></trkpt><trkpt lat="41.3804129" lon="13.1827904"><ele>3.0</ele><time>2026-04-02T13:06:01.052Z</time></trkpt><trkpt lat="41.3805653" lon="13.182841"><ele>3.0</ele><time>2026-04-02T13:06:02.057Z</time></trkpt><trkpt lat="41.3807119" lon="13.1828982"><ele>3.25</ele><time>2026-04-02T13:06:03.051Z</time></trkpt><trkpt lat="41.3808477" lon="13.1829415"><ele>3.5</ele><time>2026-04-02T13:06:04.059Z</time></trkpt><trkpt lat="41.3809725" lon="13.1829842"><ele>3.75</ele><time>2026-04-02T13:06:05.048Z</time></trkpt><trkpt lat="41.3810976" lon="13.1830271"><ele>4.0</ele><time>2026-04-02T13:06:06.058Z</time></trkpt><trkpt lat="41.3812228" lon="13.183072"><ele>4.5</ele><time>2026-04-02T13:06:07.062Z</time></trkpt><trkpt lat="41.3813499" lon="13.1831162"><ele>5.0</ele><time>2026-04-02T13:06:08.064Z</time></trkpt><trkpt lat="41.3814726" lon="13.183159"><ele>5.5</ele><time>2026-04-02T13:06:09.054Z</time></trkpt><trkpt lat="41.3815872" lon="13.1831997"><ele>6.0</ele><time>2026-04-02T13:06:10.054Z</time></trkpt><trkpt lat="41.3816932" lon="13.183233"><ele>6.0</ele><time>2026-04-02T13:06:11.056Z</time></trkpt><trkpt lat="41.3818025" lon="13.1832704"><ele>6.0</ele><time>2026-04-02T13:06:12.051Z</time></trkpt><trkpt lat="41.3819129" lon="13.1833096"><ele>6.0</ele><time>2026-04-02T13:06:13.049Z</time></trkpt><trkpt lat="41.3820205" lon="13.183346"><ele>6.0</ele><time>2026-04-02T13:06:14.049Z</time></trkpt><trkpt lat="41.3821278" lon="13.1833799"><ele>6.0</ele><time>2026-04-02T13:06:15.049Z</time></trkpt><trkpt lat="41.382232" lon="13.1834165"><ele>5.8</ele><time>2026-04-02T13:06:16.059Z</time></trkpt><trkpt lat="41.3823367" lon="13.1834494"><ele>5.6</ele><time>2026-04-02T13:06:17.051Z</time></trkpt><trkpt lat="41.3824421" lon="13.1834766"><ele>5.4</ele><time>2026-04-02T13:06:18.054Z</time></trkpt><trkpt lat="41.382549" lon="13.1835015"><ele>5.2</ele><time>2026-04-02T13:06:19.059Z</time></trkpt><trkpt lat="41.3826475" lon="13.1835297"><ele>5.0</ele><time>2026-04-02T13:06:20.058Z</time></trkpt><trkpt lat="41.3827402" lon="13.1835651"><ele>5.0</ele><time>2026-04-02T13:06:21.058Z</time></trkpt><trkpt lat="41.3828363" lon="13.1835932"><ele>5.0</ele><time>2026-04-02T13:06:22.054Z</time></trkpt><trkpt lat="41.38294" lon="13.1836357"><ele>5.0</ele><time>2026-04-02T13:06:23.05Z</time></trkpt><trkpt lat="41.3830595" lon="13.1836759"><ele>5.0</ele><time>2026-04-02T13:06:24.049Z</time></trkpt><trkpt lat="41.383186" lon="13.183724"><ele>5.5</ele><time>2026-04-02T13:06:25.048Z</time></trkpt><trkpt lat="41.3833146" lon="13.1837743"><ele>6.0</ele><time>2026-04-02T13:06:26.054Z</time></trkpt><trkpt lat="41.3834516" lon="13.1838195"><ele>6.5</ele><time>2026-04-02T13:06:27.056Z</time></trkpt><trkpt lat="41.3835946" lon="13.1838701"><ele>7.0</ele><time>2026-04-02T13:06:28.046Z</time></trkpt><trkpt lat="41.3837434" lon="13.183923"><ele>6.666666666666667</ele><time>2026-04-02T13:06:29.052Z</time></trkpt><trkpt lat="41.3838922" lon="13.1839803"><ele>6.333333333333334</ele><time>2026-04-02T13:06:30.047Z</time></trkpt><trkpt lat="41.3840452" lon="13.1840334"><ele>6.0</ele><time>2026-04-02T13:06:31.056Z</time></trkpt><trkpt lat="41.3842024" lon="13.1840874"><ele>6.0</ele><time>2026-04-02T13:06:32.057Z</time></trkpt><trkpt lat="41.3843631" lon="13.1841436"><ele>6.0</ele><time>2026-04-02T13:06:33.061Z</time></trkpt><trkpt lat="41.3845391" lon="13.1841925"><ele>6.0</ele><time>2026-04-02T13:06:34.05Z</time></trkpt><trkpt lat="41.3847014" lon="13.18424"><ele>6.333333333333334</ele><time>2026-04-02T13:06:35.05Z</time></trkpt><trkpt lat="41.3848621" lon="13.1842915"><ele>6.666666666666667</ele><time>2026-04-02T13:06:36.052Z</time></trkpt><trkpt lat="41.3850258" lon="13.1843403"><ele>7.0</ele><time>2026-04-02T13:06:37.052Z</time></trkpt><trkpt lat="41.385184" lon="13.184387"><ele>7.0</ele><time>2026-04-02T13:06:38.059Z</time></trkpt><trkpt lat="41.385342" lon="13.1844365"><ele>7.0</ele><time>2026-04-02T13:06:39.054Z</time></trkpt><trkpt lat="41.3854971" lon="13.1844866"><ele>7.0</ele><time>2026-04-02T13:06:40.055Z</time></trkpt><trkpt lat="41.3856504" lon="13.1845386"><ele>7.333333333333334</ele><time>2026-04-02T13:06:41.06Z</time></trkpt><trkpt lat="41.3858044" lon="13.1845925"><ele>7.666666666666666</ele><time>2026-04-02T13:06:42.058Z</time></trkpt><trkpt lat="41.3859581" lon="13.1846377"><ele>8.0</ele><time>2026-04-02T13:06:43.057Z</time></trkpt><trkpt lat="41.3861087" lon="13.1846868"><ele>8.0</ele><time>2026-04-02T13:06:44.051Z</time></trkpt><trkpt lat="41.3862646" lon="13.1847394"><ele>8.0</ele><time>2026-04-02T13:06:45.059Z</time></trkpt><trkpt lat="41.3864215" lon="13.184797"><ele>8.0</ele><time>2026-04-02T13:06:46.05Z</time></trkpt><trkpt lat="41.3865772" lon="13.1848509"><ele>7.0</ele><time>2026-04-02T13:06:47.065Z</time></trkpt><trkpt lat="41.3867292" lon="13.1849037"><ele>6.0</ele><time>2026-04-02T13:06:48.052Z</time></trkpt><trkpt lat="41.3868763" lon="13.1849596"><ele>5.0</ele><time>2026-04-02T13:06:49.054Z</time></trkpt><trkpt lat="41.3870228" lon="13.1850093"><ele>5.0</ele><time>2026-04-02T13:06:50.058Z</time></trkpt><trkpt lat="41.3871672" lon="13.1850599"><ele>5.0</ele><time>2026-04-02T13:06:51.051Z</time></trkpt><trkpt lat="41.3873085" lon="13.185115"><ele>5.0</ele><time>2026-04-02T13:06:52.054Z</time></trkpt><trkpt lat="41.3874476" lon="13.1851685"><ele>5.0</ele><time>2026-04-02T13:06:53.05Z</time></trkpt><trkpt lat="41.387588" lon="13.1852218"><ele>5.0</ele><time>2026-04-02T13:06:54.055Z</time></trkpt><trkpt lat="41.387728" lon="13.1852766"><ele>5.0</ele><time>2026-04-02T13:06:55.057Z</time></trkpt><trkpt lat="41.3878666" lon="13.1853337"><ele>5.0</ele><time>2026-04-02T13:06:56.055Z</time></trkpt><trkpt lat="41.3880013" lon="13.185396"><ele>5.0</ele><time>2026-04-02T13:06:57.057Z</time></trkpt><trkpt lat="41.3881354" lon="13.1854561"><ele>5.0</ele><time>2026-04-02T13:06:58.052Z</time></trkpt><trkpt lat="41.3882723" lon="13.1855127"><ele>5.0</ele><time>2026-04-02T13:06:59.051Z</time></trkpt><trkpt lat="41.3884077" lon="13.1855688"><ele>5.0</ele><time>2026-04-02T13:07:00.052Z</time></trkpt><trkpt lat="41.3885442" lon="13.1856266"><ele>5.0</ele><time>2026-04-02T13:07:01.055Z</time></trkpt><trkpt lat="41.3886836" lon="13.1856871"><ele>5.0</ele><time>2026-04-02T13:07:02.058Z</time></trkpt><trkpt lat="41.3888265" lon="13.1857484"><ele>5.0</ele><time>2026-04-02T13:07:03.049Z</time></trkpt><trkpt lat="41.3889721" lon="13.1858086"><ele>5.0</ele><time>2026-04-02T13:07:04.046Z</time></trkpt><trkpt lat="41.3891187" lon="13.1858681"><ele>5.333333333333334</ele><time>2026-04-02T13:07:05.052Z</time></trkpt><trkpt lat="41.3892648" lon="13.1859297"><ele>5.666666666666667</ele><time>2026-04-02T13:07:06.053Z</time></trkpt><trkpt lat="41.3894121" lon="13.1859924"><ele>6.0</ele><time>2026-04-02T13:07:07.054Z</time></trkpt><trkpt lat="41.3895609" lon="13.1860543"><ele>6.666666666666666</ele><time>2026-04-02T13:07:08.053Z</time></trkpt><trkpt lat="41.3897123" lon="13.1861167"><ele>7.333333333333333</ele><time>2026-04-02T13:07:09.055Z</time></trkpt><trkpt lat="41.3898686" lon="13.1861806"><ele>8.0</ele><time>2026-04-02T13:07:10.058Z</time></trkpt><trkpt lat="41.3900302" lon="13.1862479"><ele>8.0</ele><time>2026-04-02T13:07:11.058Z</time></trkpt><trkpt lat="41.3901943" lon="13.1863177"><ele>8.0</ele><time>2026-04-02T13:07:12.054Z</time></trkpt><trkpt lat="41.3903605" lon="13.1863875"><ele>8.0</ele><time>2026-04-02T13:07:13.059Z</time></trkpt><trkpt lat="41.3905286" lon="13.1864561"><ele>7.666666666666666</ele><time>2026-04-02T13:07:14.054Z</time></trkpt><trkpt lat="41.390691" lon="13.1865219"><ele>7.333333333333334</ele><time>2026-04-02T13:07:15.06Z</time></trkpt><trkpt lat="41.3908392" lon="13.1865831"><ele>7.0</ele><time>2026-04-02T13:07:16.065Z</time></trkpt><trkpt lat="41.3909744" lon="13.1866386"><ele>7.0</ele><time>2026-04-02T13:07:17.051Z</time></trkpt><trkpt lat="41.3910962" lon="13.1866889"><ele>6.999999999999999</ele><time>2026-04-02T13:07:18.058Z</time></trkpt><trkpt lat="41.3911992" lon="13.1867321"><ele>6.999999999999999</ele><time>2026-04-02T13:07:19.051Z</time></trkpt><trkpt lat="41.3912815" lon="13.1867679"><ele>7.0</ele><time>2026-04-02T13:07:20.056Z</time></trkpt><trkpt lat="41.3913518" lon="13.186801"><ele>7.0</ele><time>2026-04-02T13:07:21.055Z</time></trkpt><trkpt lat="41.3914132" lon="13.1868291"><ele>6.8</ele><time>2026-04-02T13:07:22.056Z</time></trkpt><trkpt lat="41.3915149" lon="13.186878"><ele>6.6</ele><time>2026-04-02T13:07:24.051Z</time></trkpt><trkpt lat="41.391589" lon="13.1869242"><ele>6.3999999999999995</ele><time>2026-04-02T13:07:26.056Z</time></trkpt><trkpt lat="41.3916771" lon="13.1869715"><ele>6.199999999999999</ele><time>2026-04-02T13:07:28.078Z</time></trkpt><trkpt lat="41.3917499" lon="13.1870009"><ele>6.0</ele><time>2026-04-02T13:07:29.057Z</time></trkpt><trkpt lat="41.3918393" lon="13.1870329"><ele>6.0</ele><time>2026-04-02T13:07:30.059Z</time></trkpt><trkpt lat="41.3919378" lon="13.187066"><ele>6.0</ele><time>2026-04-02T13:07:31.053Z</time></trkpt><trkpt lat="41.3920526" lon="13.1871015"><ele>6.0</ele><time>2026-04-02T13:07:32.049Z</time></trkpt><trkpt lat="41.3921732" lon="13.1871389"><ele>6.0</ele><time>2026-04-02T13:07:33.049Z</time></trkpt><trkpt lat="41.3923057" lon="13.1871896"><ele>6.25</ele><time>2026-04-02T13:07:34.06Z</time></trkpt><trkpt lat="41.3924442" lon="13.18724"><ele>6.5</ele><time>2026-04-02T13:07:35.051Z</time></trkpt><trkpt lat="41.3925884" lon="13.1872893"><ele>6.75</ele><time>2026-04-02T13:07:36.056Z</time></trkpt><trkpt lat="41.3927342" lon="13.1873408"><ele>7.0</ele><time>2026-04-02T13:07:37.047Z</time></trkpt><trkpt lat="41.3928867" lon="13.1873944"><ele>7.25</ele><time>2026-04-02T13:07:38.049Z</time></trkpt><trkpt lat="41.3930314" lon="13.1874455"><ele>7.5</ele><time>2026-04-02T13:07:39.044Z</time></trkpt><trkpt lat="41.3931704" lon="13.1874903"><ele>7.75</ele><time>2026-04-02T13:07:40.051Z</time></trkpt><trkpt lat="41.3933041" lon="13.1875271"><ele>8.0</ele><time>2026-04-02T13:07:41.055Z</time></trkpt><trkpt lat="41.3934364" lon="13.1875639"><ele>8.0</ele><time>2026-04-02T13:07:42.053Z</time></trkpt><trkpt lat="41.3935735" lon="13.1876016"><ele>8.0</ele><time>2026-04-02T13:07:43.046Z</time></trkpt><trkpt lat="41.3937081" lon="13.1876502"><ele>8.0</ele><time>2026-04-02T13:07:44.054Z</time></trkpt><trkpt lat="41.3938415" lon="13.1876989"><ele>8.0</ele><time>2026-04-02T13:07:45.055Z</time></trkpt><trkpt lat="41.3939711" lon="13.1877389"><ele>8.0</ele><time>2026-04-02T13:07:46.05Z</time></trkpt><trkpt lat="41.3940986" lon="13.1877856"><ele>8.0</ele><time>2026-04-02T13:07:47.054Z</time></trkpt><trkpt lat="41.3942287" lon="13.18784"><ele>8.0</ele><time>2026-04-02T13:07:48.047Z</time></trkpt><trkpt lat="41.3943573" lon="13.1878935"><ele>8.0</ele><time>2026-04-02T13:07:49.049Z</time></trkpt><trkpt lat="41.3944856" lon="13.1879451"><ele>8.0</ele><time>2026-04-02T13:07:50.056Z</time></trkpt><trkpt lat="41.3946133" lon="13.1879922"><ele>8.0</ele><time>2026-04-02T13:07:51.052Z</time></trkpt><trkpt lat="41.3947394" lon="13.1880439"><ele>8.0</ele><time>2026-04-02T13:07:52.044Z</time></trkpt><trkpt lat="41.3948715" lon="13.1880928"><ele>8.0</ele><time>2026-04-02T13:07:53.051Z</time></trkpt><trkpt lat="41.395003" lon="13.1881464"><ele>8.25</ele><time>2026-04-02T13:07:54.054Z</time></trkpt><trkpt lat="41.3951334" lon="13.1881963"><ele>8.5</ele><time>2026-04-02T13:07:55.045Z</time></trkpt><trkpt lat="41.3952636" lon="13.1882481"><ele>8.75</ele><time>2026-04-02T13:07:56.054Z</time></trkpt><trkpt lat="41.395387" lon="13.1882994"><ele>9.0</ele><time>2026-04-02T13:07:57.051Z</time></trkpt><trkpt lat="41.3955115" lon="13.1883511"><ele>9.0</ele><time>2026-04-02T13:07:58.045Z</time></trkpt><trkpt lat="41.395635" lon="13.1884052"><ele>9.0</ele><time>2026-04-02T13:07:59.046Z</time></trkpt><trkpt lat="41.3957621" lon="13.188458"><ele>9.0</ele><time>2026-04-02T13:08:00.046Z</time></trkpt><trkpt lat="41.3958892" lon="13.1885062"><ele>9.0</ele><time>2026-04-02T13:08:01.047Z</time></trkpt><trkpt lat="41.39602" lon="13.1885524"><ele>9.0</ele><time>2026-04-02T13:08:02.049Z</time></trkpt><trkpt lat="41.3961491" lon="13.1885963"><ele>9.0</ele><time>2026-04-02T13:08:03.051Z</time></trkpt><trkpt lat="41.3962785" lon="13.1886421"><ele>9.0</ele><time>2026-04-02T13:08:04.044Z</time></trkpt><trkpt lat="41.3964095" lon="13.1886878"><ele>9.0</ele><time>2026-04-02T13:08:05.051Z</time></trkpt><trkpt lat="41.3965333" lon="13.1887376"><ele>8.75</ele><time>2026-04-02T13:08:06.053Z</time></trkpt><trkpt lat="41.3966633" lon="13.1887951"><ele>8.5</ele><time>2026-04-02T13:08:07.049Z</time></trkpt><trkpt lat="41.3967912" lon="13.188852"><ele>8.25</ele><time>2026-04-02T13:08:08.045Z</time></trkpt><trkpt lat="41.3969204" lon="13.1889088"><ele>8.0</ele><time>2026-04-02T13:08:09.063Z</time></trkpt><trkpt lat="41.3970527" lon="13.1889656"><ele>8.5</ele><time>2026-04-02T13:08:10.052Z</time></trkpt><trkpt lat="41.3971822" lon="13.1890119"><ele>9.0</ele><time>2026-04-02T13:08:11.047Z</time></trkpt><trkpt lat="41.397304" lon="13.1890618"><ele>9.5</ele><time>2026-04-02T13:08:12.043Z</time></trkpt><trkpt lat="41.397431" lon="13.1891133"><ele>10.0</ele><time>2026-04-02T13:08:13.044Z</time></trkpt><trkpt lat="41.3975608" lon="13.189166"><ele>10.0</ele><time>2026-04-02T13:08:14.046Z</time></trkpt><trkpt lat="41.3976872" lon="13.1892211"><ele>10.0</ele><time>2026-04-02T13:08:15.045Z</time></trkpt><trkpt lat="41.3978123" lon="13.1892624"><ele>10.0</ele><time>2026-04-02T13:08:16.047Z</time></trkpt><trkpt lat="41.3979376" lon="13.1893143"><ele>10.0</ele><time>2026-04-02T13:08:17.046Z</time></trkpt><trkpt lat="41.3980664" lon="13.1893668"><ele>9.5</ele><time>2026-04-02T13:08:18.044Z</time></trkpt><trkpt lat="41.3981958" lon="13.1894182"><ele>9.0</ele><time>2026-04-02T13:08:19.042Z</time></trkpt><trkpt lat="41.398328" lon="13.1894678"><ele>8.5</ele><time>2026-04-02T13:08:20.046Z</time></trkpt><trkpt lat="41.3984593" lon="13.1895224"><ele>8.0</ele><time>2026-04-02T13:08:21.041Z</time></trkpt><trkpt lat="41.3985941" lon="13.189575"><ele>8.0</ele><time>2026-04-02T13:08:22.049Z</time></trkpt><trkpt lat="41.398726" lon="13.1896246"><ele>8.0</ele><time>2026-04-02T13:08:23.043Z</time></trkpt><trkpt lat="41.3988513" lon="13.1896712"><ele>8.0</ele><time>2026-04-02T13:08:24.051Z</time></trkpt><trkpt lat="41.3989821" lon="13.1897229"><ele>8.0</ele><time>2026-04-02T13:08:25.047Z</time></trkpt><trkpt lat="41.399115" lon="13.1897703"><ele>8.25</ele><time>2026-04-02T13:08:26.043Z</time></trkpt><trkpt lat="41.3992503" lon="13.1898126"><ele>8.5</ele><time>2026-04-02T13:08:27.044Z</time></trkpt><trkpt lat="41.3993794" lon="13.1898667"><ele>8.75</ele><time>2026-04-02T13:08:28.043Z</time></trkpt><trkpt lat="41.3995138" lon="13.1899207"><ele>9.0</ele><time>2026-04-02T13:08:29.045Z</time></trkpt><trkpt lat="41.3996372" lon="13.1899791"><ele>9.0</ele><time>2026-04-02T13:08:30.043Z</time></trkpt><trkpt lat="41.3997597" lon="13.190031"><ele>9.0</ele><time>2026-04-02T13:08:31.049Z</time></trkpt><trkpt lat="41.3998874" lon="13.1900872"><ele>9.0</ele><time>2026-04-02T13:08:32.048Z</time></trkpt><trkpt lat="41.4000136" lon="13.1901414"><ele>9.0</ele><time>2026-04-02T13:08:33.039Z</time></trkpt><trkpt lat="41.4001324" lon="13.1901845"><ele>9.0</ele><time>2026-04-02T13:08:34.051Z</time></trkpt><trkpt lat="41.4002367" lon="13.1902203"><ele>9.0</ele><time>2026-04-02T13:08:35.045Z</time></trkpt><trkpt lat="41.4003315" lon="13.1902641"><ele>9.0</ele><time>2026-04-02T13:08:36.045Z</time></trkpt><trkpt lat="41.4004166" lon="13.1902908"><ele>9.0</ele><time>2026-04-02T13:08:37.045Z</time></trkpt><trkpt lat="41.4004853" lon="13.1902963"><ele>9.0</ele><time>2026-04-02T13:08:38.049Z</time></trkpt><trkpt lat="41.400555" lon="13.1902655"><ele>9.0</ele><time>2026-04-02T13:08:39.047Z</time></trkpt><trkpt lat="41.4006118" lon="13.1902272"><ele>9.166666666666666</ele><time>2026-04-02T13:08:40.058Z</time></trkpt><trkpt lat="41.4006699" lon="13.1901494"><ele>9.333333333333334</ele><time>2026-04-02T13:08:42.052Z</time></trkpt><trkpt lat="41.4007197" lon="13.1900876"><ele>9.5</ele><time>2026-04-02T13:08:44.06Z</time></trkpt><trkpt lat="41.4007669" lon="13.1900261"><ele>9.666666666666668</ele><time>2026-04-02T13:08:46.056Z</time></trkpt><trkpt lat="41.4008233" lon="13.1899474"><ele>9.833333333333334</ele><time>2026-04-02T13:08:48.055Z</time></trkpt><trkpt lat="41.4008718" lon="13.1898791"><ele>10.0</ele><time>2026-04-02T13:08:50.062Z</time></trkpt><trkpt lat="41.4009384" lon="13.189789"><ele>9.666666666666668</ele><time>2026-04-02T13:08:52.056Z</time></trkpt><trkpt lat="41.4009949" lon="13.1897448"><ele>9.333333333333334</ele><time>2026-04-02T13:08:54.058Z</time></trkpt><trkpt lat="41.4010696" lon="13.1896698"><ele>9.0</ele><time>2026-04-02T13:09:10.057Z</time></trkpt><trkpt lat="41.4011397" lon="13.1895875"><ele>8.666666666666666</ele><time>2026-04-02T13:09:12.063Z</time></trkpt><trkpt lat="41.401227" lon="13.189464"><ele>8.333333333333332</ele><time>2026-04-02T13:09:14.053Z</time></trkpt><trkpt lat="41.4012702" lon="13.1893998"><ele>8.0</ele><time>2026-04-02T13:09:15.055Z</time></trkpt><trkpt lat="41.4013293" lon="13.1893133"><ele>7.999999999999999</ele><time>2026-04-02T13:09:17.055Z</time></trkpt><trkpt lat="41.4013381" lon="13.1894119"><ele>8.0</ele><time>2026-04-02T13:09:27.061Z</time></trkpt><trkpt lat="41.4012743" lon="13.1895051"><ele>8.0</ele><time>2026-04-02T13:09:29.046Z</time></trkpt><trkpt lat="41.4011979" lon="13.1896221"><ele>8.0</ele><time>2026-04-02T13:09:31.063Z</time></trkpt><trkpt lat="41.4011513" lon="13.1897018"><ele>7.999999999999999</ele><time>2026-04-02T13:09:32.056Z</time></trkpt><trkpt lat="41.4011041" lon="13.1897967"><ele>8.0</ele><time>2026-04-02T13:09:33.057Z</time></trkpt><trkpt lat="41.4010603" lon="13.1899046"><ele>8.4</ele><time>2026-04-02T13:09:34.054Z</time></trkpt><trkpt lat="41.4010077" lon="13.1900141"><ele>8.8</ele><time>2026-04-02T13:09:35.052Z</time></trkpt><trkpt lat="41.4009467" lon="13.1901248"><ele>9.2</ele><time>2026-04-02T13:09:36.055Z</time></trkpt><trkpt lat="41.4008934" lon="13.1902253"><ele>9.6</ele><time>2026-04-02T13:09:37.053Z</time></trkpt><trkpt lat="41.4008613" lon="13.1903129"><ele>10.0</ele><time>2026-04-02T13:09:38.056Z</time></trkpt><trkpt lat="41.4008621" lon="13.1904557"><ele>10.0</ele><time>2026-04-02T13:09:40.063Z</time></trkpt><trkpt lat="41.4009321" lon="13.1905574"><ele>10.0</ele><time>2026-04-02T13:09:42.047Z</time></trkpt><trkpt lat="41.4010114" lon="13.1905897"><ele>10.0</ele><time>2026-04-02T13:09:43.061Z</time></trkpt><trkpt lat="41.4011006" lon="13.1906236"><ele>10.0</ele><time>2026-04-02T13:09:44.049Z</time></trkpt><trkpt lat="41.401192" lon="13.1906636"><ele>10.0</ele><time>2026-04-02T13:09:45.061Z</time></trkpt><trkpt lat="41.4012948" lon="13.1907057"><ele>9.75</ele><time>2026-04-02T13:09:46.052Z</time></trkpt><trkpt lat="41.4014098" lon="13.1907531"><ele>9.5</ele><time>2026-04-02T13:09:47.054Z</time></trkpt><trkpt lat="41.4015373" lon="13.1908077"><ele>9.25</ele><time>2026-04-02T13:09:48.056Z</time></trkpt><trkpt lat="41.4016696" lon="13.1908649"><ele>9.0</ele><time>2026-04-02T13:09:49.049Z</time></trkpt><trkpt lat="41.4017998" lon="13.1909217"><ele>9.0</ele><time>2026-04-02T13:09:50.059Z</time></trkpt><trkpt lat="41.4019344" lon="13.1909785"><ele>9.0</ele><time>2026-04-02T13:09:51.05Z</time></trkpt><trkpt lat="41.4020732" lon="13.1910352"><ele>9.0</ele><time>2026-04-02T13:09:52.048Z</time></trkpt><trkpt lat="41.4022145" lon="13.1910968"><ele>9.0</ele><time>2026-04-02T13:09:53.056Z</time></trkpt><trkpt lat="41.4023596" lon="13.1911631"><ele>9.0</ele><time>2026-04-02T13:09:54.053Z</time></trkpt><trkpt lat="41.4025066" lon="13.1912288"><ele>9.0</ele><time>2026-04-02T13:09:55.059Z</time></trkpt><trkpt lat="41.4026567" lon="13.1912934"><ele>9.0</ele><time>2026-04-02T13:09:56.051Z</time></trkpt><trkpt lat="41.4028123" lon="13.1913602"><ele>9.0</ele><time>2026-04-02T13:09:57.059Z</time></trkpt><trkpt lat="41.4029731" lon="13.1914271"><ele>9.0</ele><time>2026-04-02T13:09:58.062Z</time></trkpt><trkpt lat="41.4031283" lon="13.1914936"><ele>9.0</ele><time>2026-04-02T13:09:59.053Z</time></trkpt><trkpt lat="41.4032792" lon="13.1915769"><ele>9.0</ele><time>2026-04-02T13:10:00.056Z</time></trkpt><trkpt lat="41.4034402" lon="13.1916628"><ele>9.0</ele><time>2026-04-02T13:10:01.049Z</time></trkpt><trkpt lat="41.4036011" lon="13.1917529"><ele>9.0</ele><time>2026-04-02T13:10:02.055Z</time></trkpt><trkpt lat="41.4037664" lon="13.1918422"><ele>9.0</ele><time>2026-04-02T13:10:03.048Z</time></trkpt><trkpt lat="41.4039344" lon="13.1919307"><ele>9.0</ele><time>2026-04-02T13:10:04.05Z</time></trkpt><trkpt lat="41.4041018" lon="13.1920188"><ele>9.0</ele><time>2026-04-02T13:10:05.053Z</time></trkpt><trkpt lat="41.4042699" lon="13.1921098"><ele>9.0</ele><time>2026-04-02T13:10:06.051Z</time></trkpt><trkpt lat="41.4044392" lon="13.1922023"><ele>9.0</ele><time>2026-04-02T13:10:07.056Z</time></trkpt><trkpt lat="41.4046123" lon="13.1922952"><ele>9.0</ele><time>2026-04-02T13:10:08.061Z</time></trkpt><trkpt lat="41.4047861" lon="13.1923885"><ele>8.666666666666666</ele><time>2026-04-02T13:10:09.049Z</time></trkpt><trkpt lat="41.4049575" lon="13.1924838"><ele>8.333333333333332</ele><time>2026-04-02T13:10:10.052Z</time></trkpt><trkpt lat="41.4051265" lon="13.1925813"><ele>8.0</ele><time>2026-04-02T13:10:11.052Z</time></trkpt><trkpt lat="41.4052848" lon="13.1926726"><ele>8.0</ele><time>2026-04-02T13:10:12.049Z</time></trkpt><trkpt lat="41.4054318" lon="13.1927537"><ele>8.0</ele><time>2026-04-02T13:10:13.051Z</time></trkpt><trkpt lat="41.405578" lon="13.1928314"><ele>8.0</ele><time>2026-04-02T13:10:14.054Z</time></trkpt><trkpt lat="41.4057253" lon="13.1929038"><ele>8.666666666666666</ele><time>2026-04-02T13:10:15.054Z</time></trkpt><trkpt lat="41.4058776" lon="13.1929634"><ele>9.333333333333334</ele><time>2026-04-02T13:10:16.052Z</time></trkpt><trkpt lat="41.4060343" lon="13.1930073"><ele>10.0</ele><time>2026-04-02T13:10:17.053Z</time></trkpt><trkpt lat="41.4061947" lon="13.1930347"><ele>9.666666666666668</ele><time>2026-04-02T13:10:18.061Z</time></trkpt><trkpt lat="41.4063584" lon="13.1930414"><ele>9.333333333333334</ele><time>2026-04-02T13:10:19.052Z</time></trkpt><trkpt lat="41.4065254" lon="13.1930342"><ele>9.0</ele><time>2026-04-02T13:10:20.048Z</time></trkpt><trkpt lat="41.4066941" lon="13.1930273"><ele>9.0</ele><time>2026-04-02T13:10:21.051Z</time></trkpt><trkpt lat="41.406864" lon="13.1930209"><ele>9.0</ele><time>2026-04-02T13:10:22.051Z</time></trkpt><trkpt lat="41.4070331" lon="13.1929977"><ele>9.0</ele><time>2026-04-02T13:10:23.053Z</time></trkpt><trkpt lat="41.407207" lon="13.1929491"><ele>9.0</ele><time>2026-04-02T13:10:24.063Z</time></trkpt><trkpt lat="41.4073807" lon="13.1928859"><ele>9.0</ele><time>2026-04-02T13:10:25.072Z</time></trkpt><trkpt lat="41.4075536" lon="13.1928113"><ele>9.0</ele><time>2026-04-02T13:10:26.043Z</time></trkpt><trkpt lat="41.4077298" lon="13.1927293"><ele>9.0</ele><time>2026-04-02T13:10:27.052Z</time></trkpt><trkpt lat="41.4079079" lon="13.1926436"><ele>9.0</ele><time>2026-04-02T13:10:28.057Z</time></trkpt><trkpt lat="41.4080874" lon="13.1925546"><ele>9.0</ele><time>2026-04-02T13:10:29.053Z</time></trkpt><trkpt lat="41.4082703" lon="13.1924645"><ele>9.0</ele><time>2026-04-02T13:10:30.054Z</time></trkpt><trkpt lat="41.4084564" lon="13.192375"><ele>9.0</ele><time>2026-04-02T13:10:31.052Z</time></trkpt><trkpt lat="41.4086426" lon="13.1922854"><ele>9.0</ele><time>2026-04-02T13:10:32.05Z</time></trkpt><trkpt lat="41.4088291" lon="13.1921967"><ele>9.666666666666666</ele><time>2026-04-02T13:10:33.053Z</time></trkpt><trkpt lat="41.4090168" lon="13.192109"><ele>10.333333333333332</ele><time>2026-04-02T13:10:34.055Z</time></trkpt><trkpt lat="41.4092029" lon="13.1920188"><ele>11.0</ele><time>2026-04-02T13:10:35.051Z</time></trkpt><trkpt lat="41.4093881" lon="13.1919299"><ele>11.0</ele><time>2026-04-02T13:10:36.053Z</time></trkpt><trkpt lat="41.4095697" lon="13.1918413"><ele>11.0</ele><time>2026-04-02T13:10:37.046Z</time></trkpt><trkpt lat="41.4097516" lon="13.1917509"><ele>11.0</ele><time>2026-04-02T13:10:38.056Z</time></trkpt><trkpt lat="41.4099316" lon="13.1916626"><ele>10.666666666666666</ele><time>2026-04-02T13:10:39.054Z</time></trkpt><trkpt lat="41.4101113" lon="13.1915773"><ele>10.333333333333334</ele><time>2026-04-02T13:10:40.055Z</time></trkpt><trkpt lat="41.4102892" lon="13.1914917"><ele>10.0</ele><time>2026-04-02T13:10:41.05Z</time></trkpt><trkpt lat="41.4104662" lon="13.1913976"><ele>10.666666666666668</ele><time>2026-04-02T13:10:42.048Z</time></trkpt><trkpt lat="41.4106401" lon="13.1912963"><ele>11.333333333333334</ele><time>2026-04-02T13:10:43.044Z</time></trkpt><trkpt lat="41.4108133" lon="13.1911906"><ele>12.0</ele><time>2026-04-02T13:10:44.056Z</time></trkpt><trkpt lat="41.4109856" lon="13.1910839"><ele>12.0</ele><time>2026-04-02T13:10:45.066Z</time></trkpt><trkpt lat="41.411158" lon="13.1909764"><ele>12.0</ele><time>2026-04-02T13:10:46.055Z</time></trkpt><trkpt lat="41.4113297" lon="13.1908679"><ele>12.0</ele><time>2026-04-02T13:10:47.057Z</time></trkpt><trkpt lat="41.4115018" lon="13.1907597"><ele>12.0</ele><time>2026-04-02T13:10:48.051Z</time></trkpt><trkpt lat="41.4116744" lon="13.1906532"><ele>12.0</ele><time>2026-04-02T13:10:49.053Z</time></trkpt><trkpt lat="41.4118459" lon="13.1905471"><ele>12.0</ele><time>2026-04-02T13:10:50.059Z</time></trkpt><trkpt lat="41.4120119" lon="13.1904471"><ele>12.0</ele><time>2026-04-02T13:10:51.047Z</time></trkpt><trkpt lat="41.4121637" lon="13.1903522"><ele>12.0</ele><time>2026-04-02T13:10:52.051Z</time></trkpt><trkpt lat="41.4123082" lon="13.1902561"><ele>12.0</ele><time>2026-04-02T13:10:53.049Z</time></trkpt><trkpt lat="41.4124553" lon="13.1901647"><ele>12.0</ele><time>2026-04-02T13:10:54.057Z</time></trkpt><trkpt lat="41.4126084" lon="13.190085"><ele>12.0</ele><time>2026-04-02T13:10:55.056Z</time></trkpt><trkpt lat="41.4127667" lon="13.1900098"><ele>12.0</ele><time>2026-04-02T13:10:56.047Z</time></trkpt><trkpt lat="41.4129282" lon="13.1899366"><ele>12.0</ele><time>2026-04-02T13:10:57.052Z</time></trkpt><trkpt lat="41.4130891" lon="13.1898625"><ele>12.0</ele><time>2026-04-02T13:10:58.061Z</time></trkpt><trkpt lat="41.4132474" lon="13.1897823"><ele>12.0</ele><time>2026-04-02T13:10:59.047Z</time></trkpt><trkpt lat="41.4133961" lon="13.1896949"><ele>12.25</ele><time>2026-04-02T13:11:00.051Z</time></trkpt><trkpt lat="41.4135316" lon="13.189605"><ele>12.5</ele><time>2026-04-02T13:11:01.062Z</time></trkpt><trkpt lat="41.4136547" lon="13.1895204"><ele>12.75</ele><time>2026-04-02T13:11:02.058Z</time></trkpt><trkpt lat="41.4137655" lon="13.1894435"><ele>13.0</ele><time>2026-04-02T13:11:03.051Z</time></trkpt><trkpt lat="41.4138688" lon="13.1893729"><ele>12.4</ele><time>2026-04-02T13:11:04.061Z</time></trkpt><trkpt lat="41.4139649" lon="13.1893072"><ele>11.8</ele><time>2026-04-02T13:11:05.055Z</time></trkpt><trkpt lat="41.4140578" lon="13.1892415"><ele>11.2</ele><time>2026-04-02T13:11:06.048Z</time></trkpt><trkpt lat="41.4141518" lon="13.1891778"><ele>10.6</ele><time>2026-04-02T13:11:07.044Z</time></trkpt><trkpt lat="41.4142475" lon="13.1891154"><ele>10.0</ele><time>2026-04-02T13:11:08.06Z</time></trkpt><trkpt lat="41.4143442" lon="13.1890523"><ele>10.166666666666668</ele><time>2026-04-02T13:11:09.049Z</time></trkpt><trkpt lat="41.4144403" lon="13.188994"><ele>10.333333333333334</ele><time>2026-04-02T13:11:10.055Z</time></trkpt><trkpt lat="41.4145281" lon="13.1889365"><ele>10.5</ele><time>2026-04-02T13:11:11.052Z</time></trkpt><trkpt lat="41.4146047" lon="13.1888841"><ele>10.666666666666666</ele><time>2026-04-02T13:11:12.06Z</time></trkpt><trkpt lat="41.4146676" lon="13.1888486"><ele>10.833333333333332</ele><time>2026-04-02T13:11:13.055Z</time></trkpt><trkpt lat="41.4147459" lon="13.1887987"><ele>11.0</ele><time>2026-04-02T13:11:15.05Z</time></trkpt><trkpt lat="41.4148254" lon="13.188739"><ele>11.0</ele><time>2026-04-02T13:11:17.063Z</time></trkpt><trkpt lat="41.4149318" lon="13.1886671"><ele>11.0</ele><time>2026-04-02T13:11:19.05Z</time></trkpt><trkpt lat="41.4149894" lon="13.1886294"><ele>11.0</ele><time>2026-04-02T13:11:20.055Z</time></trkpt><trkpt lat="41.4150524" lon="13.1885884"><ele>11.0</ele><time>2026-04-02T13:11:21.051Z</time></trkpt><trkpt lat="41.4151273" lon="13.1885385"><ele>11.0</ele><time>2026-04-02T13:11:22.057Z</time></trkpt><trkpt lat="41.4152143" lon="13.1884734"><ele>11.0</ele><time>2026-04-02T13:11:23.047Z</time></trkpt><trkpt lat="41.4153112" lon="13.1883976"><ele>11.0</ele><time>2026-04-02T13:11:24.051Z</time></trkpt><trkpt lat="41.4154159" lon="13.1883278"><ele>11.0</ele><time>2026-04-02T13:11:25.047Z</time></trkpt><trkpt lat="41.4155269" lon="13.1882674"><ele>11.0</ele><time>2026-04-02T13:11:26.054Z</time></trkpt><trkpt lat="41.4156526" lon="13.1882179"><ele>11.0</ele><time>2026-04-02T13:11:27.051Z</time></trkpt><trkpt lat="41.415785" lon="13.1881813"><ele>11.0</ele><time>2026-04-02T13:11:28.048Z</time></trkpt><trkpt lat="41.4159239" lon="13.1881637"><ele>11.0</ele><time>2026-04-02T13:11:29.064Z</time></trkpt><trkpt lat="41.4160654" lon="13.1881614"><ele>11.0</ele><time>2026-04-02T13:11:30.052Z</time></trkpt><trkpt lat="41.4162037" lon="13.188166"><ele>11.0</ele><time>2026-04-02T13:11:31.061Z</time></trkpt><trkpt lat="41.4163368" lon="13.1881827"><ele>10.5</ele><time>2026-04-02T13:11:32.055Z</time></trkpt><trkpt lat="41.4164574" lon="13.1882133"><ele>10.0</ele><time>2026-04-02T13:11:33.06Z</time></trkpt><trkpt lat="41.4165653" lon="13.1882543"><ele>9.5</ele><time>2026-04-02T13:11:34.056Z</time></trkpt><trkpt lat="41.416668" lon="13.1883054"><ele>9.0</ele><time>2026-04-02T13:11:35.058Z</time></trkpt><trkpt lat="41.416769" lon="13.1883642"><ele>9.0</ele><time>2026-04-02T13:11:36.061Z</time></trkpt><trkpt lat="41.4168739" lon="13.1884293"><ele>9.0</ele><time>2026-04-02T13:11:37.05Z</time></trkpt><trkpt lat="41.4169768" lon="13.1885077"><ele>9.0</ele><time>2026-04-02T13:11:38.053Z</time></trkpt><trkpt lat="41.4170826" lon="13.1885883"><ele>9.0</ele><time>2026-04-02T13:11:39.052Z</time></trkpt><trkpt lat="41.4171949" lon="13.1886657"><ele>9.5</ele><time>2026-04-02T13:11:40.054Z</time></trkpt><trkpt lat="41.4173097" lon="13.1887435"><ele>10.0</ele><time>2026-04-02T13:11:41.053Z</time></trkpt><trkpt lat="41.4174248" lon="13.1888209"><ele>10.5</ele><time>2026-04-02T13:11:42.052Z</time></trkpt><trkpt lat="41.4175348" lon="13.1888983"><ele>11.0</ele><time>2026-04-02T13:11:43.063Z</time></trkpt><trkpt lat="41.4176368" lon="13.1889654"><ele>11.166666666666666</ele><time>2026-04-02T13:11:44.052Z</time></trkpt><trkpt lat="41.4177292" lon="13.1890306"><ele>11.333333333333332</ele><time>2026-04-02T13:11:45.054Z</time></trkpt><trkpt lat="41.4178107" lon="13.1890926"><ele>11.5</ele><time>2026-04-02T13:11:46.054Z</time></trkpt><trkpt lat="41.4178837" lon="13.1891436"><ele>11.666666666666666</ele><time>2026-04-02T13:11:47.051Z</time></trkpt><trkpt lat="41.4179483" lon="13.1891859"><ele>11.833333333333334</ele><time>2026-04-02T13:11:48.054Z</time></trkpt><trkpt lat="41.418008" lon="13.1892158"><ele>12.0</ele><time>2026-04-02T13:11:49.058Z</time></trkpt><trkpt lat="41.4181269" lon="13.1891973"><ele>12.0</ele><time>2026-04-02T13:11:51.062Z</time></trkpt><trkpt lat="41.4181882" lon="13.1891348"><ele>12.0</ele><time>2026-04-02T13:11:52.06Z</time></trkpt><trkpt lat="41.4182476" lon="13.1890423"><ele>12.0</ele><time>2026-04-02T13:11:53.053Z</time></trkpt><trkpt lat="41.4183142" lon="13.1889411"><ele>12.0</ele><time>2026-04-02T13:11:54.051Z</time></trkpt><trkpt lat="41.4183954" lon="13.1888311"><ele>12.0</ele><time>2026-04-02T13:11:55.057Z</time></trkpt><trkpt lat="41.4184787" lon="13.1887207"><ele>12.0</ele><time>2026-04-02T13:11:56.05Z</time></trkpt><trkpt lat="41.4185661" lon="13.1885994"><ele>12.0</ele><time>2026-04-02T13:11:57.064Z</time></trkpt><trkpt lat="41.4186554" lon="13.1884718"><ele>12.0</ele><time>2026-04-02T13:11:58.055Z</time></trkpt><trkpt lat="41.4187568" lon="13.1883361"><ele>12.0</ele><time>2026-04-02T13:11:59.047Z</time></trkpt><trkpt lat="41.4188639" lon="13.1881937"><ele>11.333333333333334</ele><time>2026-04-02T13:12:00.06Z</time></trkpt><trkpt lat="41.418973" lon="13.1880356"><ele>10.666666666666668</ele><time>2026-04-02T13:12:01.058Z</time></trkpt><trkpt lat="41.4190833" lon="13.1878728"><ele>10.0</ele><time>2026-04-02T13:12:02.056Z</time></trkpt><trkpt lat="41.4191943" lon="13.1877127"><ele>10.0</ele><time>2026-04-02T13:12:03.053Z</time></trkpt><trkpt lat="41.4193125" lon="13.1875492"><ele>10.0</ele><time>2026-04-02T13:12:04.05Z</time></trkpt><trkpt lat="41.4194344" lon="13.1873886"><ele>10.0</ele><time>2026-04-02T13:12:05.058Z</time></trkpt><trkpt lat="41.4195572" lon="13.1872216"><ele>10.0</ele><time>2026-04-02T13:12:06.053Z</time></trkpt><trkpt lat="41.419682" lon="13.1870483"><ele>10.0</ele><time>2026-04-02T13:12:07.053Z</time></trkpt><trkpt lat="41.4198066" lon="13.1868717"><ele>10.0</ele><time>2026-04-02T13:12:08.054Z</time></trkpt><trkpt lat="41.4199334" lon="13.1866927"><ele>10.0</ele><time>2026-04-02T13:12:09.05Z</time></trkpt><trkpt lat="41.4200626" lon="13.1865134"><ele>10.0</ele><time>2026-04-02T13:12:10.05Z</time></trkpt><trkpt lat="41.4201926" lon="13.1863332"><ele>10.0</ele><time>2026-04-02T13:12:11.053Z</time></trkpt><trkpt lat="41.4203221" lon="13.1861521"><ele>10.0</ele><time>2026-04-02T13:12:12.056Z</time></trkpt><trkpt lat="41.4204531" lon="13.1859694"><ele>10.0</ele><time>2026-04-02T13:12:13.053Z</time></trkpt><trkpt lat="41.4205848" lon="13.1857858"><ele>10.0</ele><time>2026-04-02T13:12:14.056Z</time></trkpt><trkpt lat="41.4207178" lon="13.1856019"><ele>10.0</ele><time>2026-04-02T13:12:15.053Z</time></trkpt><trkpt lat="41.4208496" lon="13.1854183"><ele>10.0</ele><time>2026-04-02T13:12:16.05Z</time></trkpt><trkpt lat="41.4209797" lon="13.1852367"><ele>10.0</ele><time>2026-04-02T13:12:17.049Z</time></trkpt><trkpt lat="41.421111" lon="13.1850574"><ele>10.0</ele><time>2026-04-02T13:12:18.045Z</time></trkpt><trkpt lat="41.4212414" lon="13.1848775"><ele>10.0</ele><time>2026-04-02T13:12:19.052Z</time></trkpt><trkpt lat="41.4213694" lon="13.1846987"><ele>10.0</ele><time>2026-04-02T13:12:20.05Z</time></trkpt><trkpt lat="41.4214952" lon="13.184523"><ele>10.0</ele><time>2026-04-02T13:12:21.051Z</time></trkpt><trkpt lat="41.4216206" lon="13.1843492"><ele>10.0</ele><time>2026-04-02T13:12:22.055Z</time></trkpt><trkpt lat="41.4217455" lon="13.1841742"><ele>10.0</ele><time>2026-04-02T13:12:23.048Z</time></trkpt><trkpt lat="41.4218718" lon="13.1839959"><ele>10.333333333333334</ele><time>2026-04-02T13:12:24.05Z</time></trkpt><trkpt lat="41.4219899" lon="13.1838272"><ele>10.666666666666666</ele><time>2026-04-02T13:12:25.048Z</time></trkpt><trkpt lat="41.4220984" lon="13.1836715"><ele>11.0</ele><time>2026-04-02T13:12:26.049Z</time></trkpt><trkpt lat="41.4222034" lon="13.1835241"><ele>11.0</ele><time>2026-04-02T13:12:27.056Z</time></trkpt><trkpt lat="41.4223096" lon="13.1833812"><ele>11.0</ele><time>2026-04-02T13:12:28.058Z</time></trkpt><trkpt lat="41.4224154" lon="13.1832333"><ele>11.0</ele><time>2026-04-02T13:12:29.05Z</time></trkpt><trkpt lat="41.422531" lon="13.1830755"><ele>11.0</ele><time>2026-04-02T13:12:30.052Z</time></trkpt><trkpt lat="41.422644" lon="13.1829153"><ele>11.0</ele><time>2026-04-02T13:12:31.045Z</time></trkpt><trkpt lat="41.422755" lon="13.1827593"><ele>11.0</ele><time>2026-04-02T13:12:32.061Z</time></trkpt><trkpt lat="41.4228593" lon="13.1826166"><ele>11.0</ele><time>2026-04-02T13:12:33.051Z</time></trkpt><trkpt lat="41.4229504" lon="13.18248"><ele>11.0</ele><time>2026-04-02T13:12:34.057Z</time></trkpt><trkpt lat="41.4230279" lon="13.1823508"><ele>11.0</ele><time>2026-04-02T13:12:35.05Z</time></trkpt><trkpt lat="41.4230946" lon="13.182225"><ele>11.0</ele><time>2026-04-02T13:12:36.052Z</time></trkpt><trkpt lat="41.4231529" lon="13.1821056"><ele>11.5</ele><time>2026-04-02T13:12:37.053Z</time></trkpt><trkpt lat="41.4232047" lon="13.1819954"><ele>12.0</ele><time>2026-04-02T13:12:38.057Z</time></trkpt><trkpt lat="41.4232522" lon="13.1818988"><ele>12.5</ele><time>2026-04-02T13:12:39.05Z</time></trkpt><trkpt lat="41.4232954" lon="13.1818158"><ele>13.0</ele><time>2026-04-02T13:12:40.052Z</time></trkpt><trkpt lat="41.4233359" lon="13.1817489"><ele>13.500000000000002</ele><time>2026-04-02T13:12:41.058Z</time></trkpt><trkpt lat="41.4234391" lon="13.1816769"><ele>14.0</ele><time>2026-04-02T13:12:43.045Z</time></trkpt><trkpt lat="41.4235456" lon="13.1817174"><ele>14.0</ele><time>2026-04-02T13:12:45.052Z</time></trkpt><trkpt lat="41.4237013" lon="13.1818324"><ele>14.0</ele><time>2026-04-02T13:12:47.051Z</time></trkpt><trkpt lat="41.4237995" lon="13.1819004"><ele>14.0</ele><time>2026-04-02T13:12:48.054Z</time></trkpt><trkpt lat="41.4239049" lon="13.1819854"><ele>14.0</ele><time>2026-04-02T13:12:49.057Z</time></trkpt><trkpt lat="41.4240126" lon="13.1820791"><ele>13.75</ele><time>2026-04-02T13:12:50.045Z</time></trkpt><trkpt lat="41.4241265" lon="13.1821892"><ele>13.5</ele><time>2026-04-02T13:12:51.058Z</time></trkpt><trkpt lat="41.4242292" lon="13.1823005"><ele>13.25</ele><time>2026-04-02T13:12:52.064Z</time></trkpt><trkpt lat="41.4243245" lon="13.1824262"><ele>13.0</ele><time>2026-04-02T13:12:53.055Z</time></trkpt><trkpt lat="41.4244133" lon="13.1825774"><ele>13.0</ele><time>2026-04-02T13:12:54.053Z</time></trkpt><trkpt lat="41.4244942" lon="13.182737"><ele>13.0</ele><time>2026-04-02T13:12:55.055Z</time></trkpt><trkpt lat="41.424579" lon="13.1828967"><ele>13.0</ele><time>2026-04-02T13:12:56.056Z</time></trkpt><trkpt lat="41.4246674" lon="13.1830645"><ele>13.0</ele><time>2026-04-02T13:12:57.053Z</time></trkpt><trkpt lat="41.4247584" lon="13.1832297"><ele>13.666666666666666</ele><time>2026-04-02T13:12:58.054Z</time></trkpt><trkpt lat="41.4248499" lon="13.1833942"><ele>14.333333333333332</ele><time>2026-04-02T13:12:59.05Z</time></trkpt><trkpt lat="41.4249484" lon="13.1835525"><ele>15.0</ele><time>2026-04-02T13:13:00.054Z</time></trkpt><trkpt lat="41.4250777" lon="13.1837036"><ele>15.0</ele><time>2026-04-02T13:13:01.059Z</time></trkpt><trkpt lat="41.4252125" lon="13.1838453"><ele>15.0</ele><time>2026-04-02T13:13:02.054Z</time></trkpt><trkpt lat="41.4253494" lon="13.1839869"><ele>15.0</ele><time>2026-04-02T13:13:03.05Z</time></trkpt><trkpt lat="41.4254935" lon="13.1841281"><ele>14.666666666666668</ele><time>2026-04-02T13:13:04.052Z</time></trkpt><trkpt lat="41.4256377" lon="13.1842624"><ele>14.333333333333334</ele><time>2026-04-02T13:13:05.057Z</time></trkpt><trkpt lat="41.4257888" lon="13.1844128"><ele>14.0</ele><time>2026-04-02T13:13:06.051Z</time></trkpt><trkpt lat="41.4259375" lon="13.1845488"><ele>14.0</ele><time>2026-04-02T13:13:07.051Z</time></trkpt><trkpt lat="41.4260863" lon="13.1846866"><ele>14.0</ele><time>2026-04-02T13:13:08.053Z</time></trkpt><trkpt lat="41.426236" lon="13.1848276"><ele>14.0</ele><time>2026-04-02T13:13:09.054Z</time></trkpt><trkpt lat="41.4263884" lon="13.1849687"><ele>13.666666666666668</ele><time>2026-04-02T13:13:10.057Z</time></trkpt><trkpt lat="41.4265402" lon="13.1851086"><ele>13.333333333333332</ele><time>2026-04-02T13:13:11.048Z</time></trkpt><trkpt lat="41.4266904" lon="13.1852493"><ele>13.0</ele><time>2026-04-02T13:13:12.051Z</time></trkpt><trkpt lat="41.4268424" lon="13.1853908"><ele>13.0</ele><time>2026-04-02T13:13:13.035Z</time></trkpt><trkpt lat="41.4269949" lon="13.185532"><ele>13.0</ele><time>2026-04-02T13:13:14.045Z</time></trkpt><trkpt lat="41.4271484" lon="13.1856699"><ele>13.0</ele><time>2026-04-02T13:13:15.044Z</time></trkpt><trkpt lat="41.4272981" lon="13.1858099"><ele>14.0</ele><time>2026-04-02T13:13:16.049Z</time></trkpt><trkpt lat="41.4274438" lon="13.1859457"><ele>15.0</ele><time>2026-04-02T13:13:17.045Z</time></trkpt><trkpt lat="41.427592" lon="13.1860844"><ele>16.0</ele><time>2026-04-02T13:13:18.046Z</time></trkpt><trkpt lat="41.4277438" lon="13.1862176"><ele>16.0</ele><time>2026-04-02T13:13:19.044Z</time></trkpt><trkpt lat="41.4278957" lon="13.1863428"><ele>16.0</ele><time>2026-04-02T13:13:20.054Z</time></trkpt><trkpt lat="41.4280432" lon="13.1864768"><ele>16.0</ele><time>2026-04-02T13:13:21.049Z</time></trkpt><trkpt lat="41.4281904" lon="13.1866044"><ele>16.666666666666664</ele><time>2026-04-02T13:13:22.048Z</time></trkpt><trkpt lat="41.4283406" lon="13.1867402"><ele>17.333333333333332</ele><time>2026-04-02T13:13:23.054Z</time></trkpt><trkpt lat="41.4284878" lon="13.1868727"><ele>18.0</ele><time>2026-04-02T13:13:24.053Z</time></trkpt><trkpt lat="41.4286318" lon="13.1870059"><ele>18.0</ele><time>2026-04-02T13:13:25.045Z</time></trkpt><trkpt lat="41.4287786" lon="13.1871348"><ele>18.0</ele><time>2026-04-02T13:13:26.051Z</time></trkpt><trkpt lat="41.4289264" lon="13.187264"><ele>18.0</ele><time>2026-04-02T13:13:27.053Z</time></trkpt><trkpt lat="41.4290785" lon="13.1873885"><ele>17.0</ele><time>2026-04-02T13:13:28.048Z</time></trkpt><trkpt lat="41.4292321" lon="13.1875126"><ele>16.0</ele><time>2026-04-02T13:13:29.056Z</time></trkpt><trkpt lat="41.4293882" lon="13.1876274"><ele>15.0</ele><time>2026-04-02T13:13:30.053Z</time></trkpt><trkpt lat="41.4295464" lon="13.1877319"><ele>15.0</ele><time>2026-04-02T13:13:31.052Z</time></trkpt><trkpt lat="41.4297092" lon="13.1878323"><ele>15.0</ele><time>2026-04-02T13:13:32.053Z</time></trkpt><trkpt lat="41.4298751" lon="13.1879223"><ele>15.0</ele><time>2026-04-02T13:13:33.062Z</time></trkpt><trkpt lat="41.4300468" lon="13.1880085"><ele>15.0</ele><time>2026-04-02T13:13:34.049Z</time></trkpt><trkpt lat="41.430224" lon="13.1880687"><ele>15.0</ele><time>2026-04-02T13:13:35.055Z</time></trkpt><trkpt lat="41.4304045" lon="13.1881072"><ele>15.0</ele><time>2026-04-02T13:13:36.051Z</time></trkpt><trkpt lat="41.430588" lon="13.1881385"><ele>15.0</ele><time>2026-04-02T13:13:37.047Z</time></trkpt><trkpt lat="41.4307717" lon="13.1881624"><ele>15.0</ele><time>2026-04-02T13:13:38.054Z</time></trkpt><trkpt lat="41.4309495" lon="13.1881822"><ele>15.0</ele><time>2026-04-02T13:13:39.055Z</time></trkpt><trkpt lat="41.4311299" lon="13.1882022"><ele>15.0</ele><time>2026-04-02T13:13:40.048Z</time></trkpt><trkpt lat="41.431304" lon="13.1882214"><ele>15.0</ele><time>2026-04-02T13:13:41.055Z</time></trkpt><trkpt lat="41.4314727" lon="13.1882387"><ele>15.0</ele><time>2026-04-02T13:13:42.056Z</time></trkpt><trkpt lat="41.4316441" lon="13.1882696"><ele>15.0</ele><time>2026-04-02T13:13:43.049Z</time></trkpt><trkpt lat="41.4318121" lon="13.1883218"><ele>15.0</ele><time>2026-04-02T13:13:44.056Z</time></trkpt><trkpt lat="41.4319774" lon="13.1883844"><ele>15.0</ele><time>2026-04-02T13:13:45.056Z</time></trkpt><trkpt lat="41.4321381" lon="13.188464"><ele>15.0</ele><time>2026-04-02T13:13:46.054Z</time></trkpt><trkpt lat="41.4322969" lon="13.1885625"><ele>15.0</ele><time>2026-04-02T13:13:47.053Z</time></trkpt><trkpt lat="41.4324517" lon="13.1886727"><ele>15.0</ele><time>2026-04-02T13:13:48.06Z</time></trkpt><trkpt lat="41.4326054" lon="13.1887916"><ele>15.0</ele><time>2026-04-02T13:13:49.057Z</time></trkpt><trkpt lat="41.4327601" lon="13.1889114"><ele>15.0</ele><time>2026-04-02T13:13:50.054Z</time></trkpt><trkpt lat="41.4329154" lon="13.1890283"><ele>15.0</ele><time>2026-04-02T13:13:51.051Z</time></trkpt><trkpt lat="41.4330707" lon="13.1891469"><ele>16.0</ele><time>2026-04-02T13:13:52.06Z</time></trkpt><trkpt lat="41.4332222" lon="13.1892672"><ele>17.0</ele><time>2026-04-02T13:13:53.07Z</time></trkpt><trkpt lat="41.4333732" lon="13.1893861"><ele>18.0</ele><time>2026-04-02T13:13:54.059Z</time></trkpt><trkpt lat="41.4335226" lon="13.1895041"><ele>18.0</ele><time>2026-04-02T13:13:55.053Z</time></trkpt><trkpt lat="41.4336715" lon="13.1896196"><ele>18.0</ele><time>2026-04-02T13:13:56.053Z</time></trkpt><trkpt lat="41.4338215" lon="13.1897326"><ele>18.0</ele><time>2026-04-02T13:13:57.061Z</time></trkpt><trkpt lat="41.4339705" lon="13.1898454"><ele>18.333333333333332</ele><time>2026-04-02T13:13:58.056Z</time></trkpt><trkpt lat="41.434119" lon="13.1899582"><ele>18.666666666666664</ele><time>2026-04-02T13:13:59.071Z</time></trkpt><trkpt lat="41.4342699" lon="13.190071"><ele>19.0</ele><time>2026-04-02T13:14:00.058Z</time></trkpt><trkpt lat="41.4344188" lon="13.190184"><ele>19.0</ele><time>2026-04-02T13:14:01.053Z</time></trkpt><trkpt lat="41.434562" lon="13.190291"><ele>19.0</ele><time>2026-04-02T13:14:02.062Z</time></trkpt><trkpt lat="41.4346987" lon="13.1903841"><ele>19.0</ele><time>2026-04-02T13:14:03.06Z</time></trkpt><trkpt lat="41.4348402" lon="13.1904836"><ele>20.0</ele><time>2026-04-02T13:14:04.049Z</time></trkpt><trkpt lat="41.4349757" lon="13.1905857"><ele>21.0</ele><time>2026-04-02T13:14:05.062Z</time></trkpt><trkpt lat="41.4351155" lon="13.1906742"><ele>22.0</ele><time>2026-04-02T13:14:06.049Z</time></trkpt><trkpt lat="41.435253" lon="13.1907737"><ele>22.0</ele><time>2026-04-02T13:14:07.05Z</time></trkpt><trkpt lat="41.43539" lon="13.1908726"><ele>22.0</ele><time>2026-04-02T13:14:08.056Z</time></trkpt><trkpt lat="41.435533" lon="13.1909648"><ele>22.0</ele><time>2026-04-02T13:14:09.048Z</time></trkpt><trkpt lat="41.4356776" lon="13.1910526"><ele>24.25</ele><time>2026-04-02T13:14:10.047Z</time></trkpt><trkpt lat="41.4358042" lon="13.1911458"><ele>26.5</ele><time>2026-04-02T13:14:11.048Z</time></trkpt><trkpt lat="41.4359215" lon="13.1912331"><ele>28.75</ele><time>2026-04-02T13:14:12.05Z</time></trkpt><trkpt lat="41.4360259" lon="13.1913215"><ele>31.0</ele><time>2026-04-02T13:14:13.046Z</time></trkpt><trkpt lat="41.4361196" lon="13.1914105"><ele>31.0</ele><time>2026-04-02T13:14:14.052Z</time></trkpt><trkpt lat="41.4361992" lon="13.1914782"><ele>31.0</ele><time>2026-04-02T13:14:15.049Z</time></trkpt><trkpt lat="41.4362606" lon="13.1915378"><ele>31.0</ele><time>2026-04-02T13:14:16.054Z</time></trkpt><trkpt lat="41.4363428" lon="13.1916134"><ele>31.0</ele><time>2026-04-02T13:14:18.055Z</time></trkpt><trkpt lat="41.4364307" lon="13.1916861"><ele>31.0</ele><time>2026-04-02T13:14:26.049Z</time></trkpt><trkpt lat="41.4365164" lon="13.1916791"><ele>30.666666666666668</ele><time>2026-04-02T13:14:28.047Z</time></trkpt><trkpt lat="41.4365985" lon="13.1916186"><ele>30.333333333333336</ele><time>2026-04-02T13:14:30.05Z</time></trkpt><trkpt lat="41.4366463" lon="13.1915036"><ele>30.0</ele><time>2026-04-02T13:14:32.047Z</time></trkpt><trkpt lat="41.4366438" lon="13.1913619"><ele>29.666666666666664</ele><time>2026-04-02T13:14:34.052Z</time></trkpt><trkpt lat="41.4366238" lon="13.1912813"><ele>29.333333333333332</ele><time>2026-04-02T13:14:35.058Z</time></trkpt><trkpt lat="41.4366082" lon="13.1911954"><ele>29.0</ele><time>2026-04-02T13:14:36.045Z</time></trkpt><trkpt lat="41.4365948" lon="13.1910418"><ele>30.0</ele><time>2026-04-02T13:14:38.055Z</time></trkpt><trkpt lat="41.436649" lon="13.19089"><ele>31.0</ele><time>2026-04-02T13:14:40.05Z</time></trkpt><trkpt lat="41.4367024" lon="13.1908214"><ele>32.0</ele><time>2026-04-02T13:14:41.047Z</time></trkpt><trkpt lat="41.4367858" lon="13.1907696"><ele>33.0</ele><time>2026-04-02T13:14:43.048Z</time></trkpt><trkpt lat="41.4368738" lon="13.190772"><ele>34.0</ele><time>2026-04-02T13:14:45.061Z</time></trkpt><trkpt lat="41.4369485" lon="13.190708"><ele>35.0</ele><time>2026-04-02T13:14:47.043Z</time></trkpt><trkpt lat="41.4370192" lon="13.1905894"><ele>36.0</ele><time>2026-04-02T13:14:49.044Z</time></trkpt><trkpt lat="41.4370706" lon="13.1905359"><ele>37.0</ele><time>2026-04-02T13:14:50.045Z</time></trkpt><trkpt lat="41.4371212" lon="13.1904855"><ele>38.0</ele><time>2026-04-02T13:14:51.049Z</time></trkpt><trkpt lat="41.437188" lon="13.1904215"><ele>39.0</ele><time>2026-04-02T13:14:52.049Z</time></trkpt><trkpt lat="41.4372382" lon="13.1903613"><ele>40.0</ele><time>2026-04-02T13:14:53.051Z</time></trkpt><trkpt lat="41.4373342" lon="13.1902743"><ele>40.16666666666667</ele><time>2026-04-02T13:14:55.062Z</time></trkpt><trkpt lat="41.437445" lon="13.1902728"><ele>40.333333333333336</ele><time>2026-04-02T13:14:57.055Z</time></trkpt><trkpt lat="41.4375113" lon="13.1902544"><ele>40.5</ele><time>2026-04-02T13:14:58.048Z</time></trkpt><trkpt lat="41.4376121" lon="13.1902197"><ele>40.666666666666664</ele><time>2026-04-02T13:15:00.047Z</time></trkpt><trkpt lat="41.4376946" lon="13.1902052"><ele>40.83333333333333</ele><time>2026-04-02T13:15:01.045Z</time></trkpt><trkpt lat="41.4377696" lon="13.1901805"><ele>41.0</ele><time>2026-04-02T13:15:02.044Z</time></trkpt><trkpt lat="41.4379064" lon="13.1901477"><ele>41.5</ele><time>2026-04-02T13:15:04.046Z</time></trkpt><trkpt lat="41.4379778" lon="13.1900951"><ele>42.0</ele><time>2026-04-02T13:15:05.055Z</time></trkpt><trkpt lat="41.4380382" lon="13.1900166"><ele>42.5</ele><time>2026-04-02T13:15:06.043Z</time></trkpt><trkpt lat="41.438106" lon="13.1899529"><ele>43.0</ele><time>2026-04-02T13:15:07.049Z</time></trkpt><trkpt lat="41.4381834" lon="13.1899066"><ele>43.5</ele><time>2026-04-02T13:15:08.046Z</time></trkpt><trkpt lat="41.4382571" lon="13.1898506"><ele>44.0</ele><time>2026-04-02T13:15:09.047Z</time></trkpt><trkpt lat="41.438333" lon="13.1897931"><ele>44.83333333333333</ele><time>2026-04-02T13:15:10.046Z</time></trkpt><trkpt lat="41.4384009" lon="13.1897359"><ele>45.666666666666664</ele><time>2026-04-02T13:15:11.048Z</time></trkpt><trkpt lat="41.438453" lon="13.189682"><ele>46.5</ele><time>2026-04-02T13:15:12.052Z</time></trkpt><trkpt lat="41.4385254" lon="13.189645"><ele>47.33333333333333</ele><time>2026-04-02T13:15:13.049Z</time></trkpt><trkpt lat="41.438587" lon="13.1896238"><ele>48.166666666666664</ele><time>2026-04-02T13:15:14.051Z</time></trkpt><trkpt lat="41.4386952" lon="13.1896104"><ele>49.0</ele><time>2026-04-02T13:15:16.053Z</time></trkpt><trkpt lat="41.4387693" lon="13.1895984"><ele>49.400000000000006</ele><time>2026-04-02T13:15:17.053Z</time></trkpt><trkpt lat="41.4388555" lon="13.189575"><ele>49.8</ele><time>2026-04-02T13:15:18.044Z</time></trkpt><trkpt lat="41.4389295" lon="13.1895605"><ele>50.2</ele><time>2026-04-02T13:15:19.048Z</time></trkpt><trkpt lat="41.4390102" lon="13.189553"><ele>50.599999999999994</ele><time>2026-04-02T13:15:20.051Z</time></trkpt><trkpt lat="41.4391126" lon="13.1895555"><ele>51.0</ele><time>2026-04-02T13:15:21.047Z</time></trkpt><trkpt lat="41.439219" lon="13.1895499"><ele>51.0</ele><time>2026-04-02T13:15:22.046Z</time></trkpt><trkpt lat="41.4393174" lon="13.1895333"><ele>51.0</ele><time>2026-04-02T13:15:23.049Z</time></trkpt><trkpt lat="41.4394084" lon="13.1895121"><ele>51.0</ele><time>2026-04-02T13:15:24.045Z</time></trkpt><trkpt lat="41.4394949" lon="13.1894865"><ele>51.0</ele><time>2026-04-02T13:15:25.047Z</time></trkpt><trkpt lat="41.4395778" lon="13.1894461"><ele>51.0</ele><time>2026-04-02T13:15:26.044Z</time></trkpt><trkpt lat="41.4396433" lon="13.1894017"><ele>51.0</ele><time>2026-04-02T13:15:27.046Z</time></trkpt><trkpt lat="41.4397016" lon="13.1893623"><ele>51.333333333333336</ele><time>2026-04-02T13:15:28.056Z</time></trkpt><trkpt lat="41.4397474" lon="13.189241"><ele>51.66666666666667</ele><time>2026-04-02T13:15:29.047Z</time></trkpt><trkpt lat="41.4397938" lon="13.1891724"><ele>52.0</ele><time>2026-04-02T13:15:30.044Z</time></trkpt><trkpt lat="41.4398541" lon="13.189117"><ele>52.333333333333336</ele><time>2026-04-02T13:15:31.055Z</time></trkpt><trkpt lat="41.4399392" lon="13.1890411"><ele>52.66666666666667</ele><time>2026-04-02T13:15:33.048Z</time></trkpt><trkpt lat="41.4399554" lon="13.1889588"><ele>53.0</ele><time>2026-04-02T13:15:34.06Z</time></trkpt><trkpt lat="41.4399722" lon="13.1888756"><ele>55.25</ele><time>2026-04-02T13:15:35.054Z</time></trkpt><trkpt lat="41.4400141" lon="13.1888063"><ele>57.5</ele><time>2026-04-02T13:15:36.047Z</time></trkpt><trkpt lat="41.4400939" lon="13.1886945"><ele>59.75</ele><time>2026-04-02T13:15:38.052Z</time></trkpt><trkpt lat="41.4402065" lon="13.1886258"><ele>62.0</ele><time>2026-04-02T13:15:40.056Z</time></trkpt><trkpt lat="41.4403586" lon="13.1885402"><ele>62.00000000000001</ele><time>2026-04-02T13:15:42.053Z</time></trkpt><trkpt lat="41.4404238" lon="13.1884878"><ele>62.0</ele><time>2026-04-02T13:15:43.055Z</time></trkpt><trkpt lat="41.4404981" lon="13.1884539"><ele>62.0</ele><time>2026-04-02T13:15:44.054Z</time></trkpt><trkpt lat="41.4405891" lon="13.1883851"><ele>62.0</ele><time>2026-04-02T13:15:45.061Z</time></trkpt><trkpt lat="41.4406682" lon="13.1883115"><ele>62.00000000000001</ele><time>2026-04-02T13:15:46.056Z</time></trkpt><trkpt lat="41.4407409" lon="13.1882388"><ele>62.0</ele><time>2026-04-02T13:15:47.048Z</time></trkpt><trkpt lat="41.4408156" lon="13.1881742"><ele>63.2</ele><time>2026-04-02T13:15:48.059Z</time></trkpt><trkpt lat="41.4408908" lon="13.1881271"><ele>64.4</ele><time>2026-04-02T13:15:49.066Z</time></trkpt><trkpt lat="41.4410207" lon="13.1880682"><ele>65.6</ele><time>2026-04-02T13:15:51.051Z</time></trkpt><trkpt lat="41.4411076" lon="13.1880658"><ele>66.8</ele><time>2026-04-02T13:15:52.046Z</time></trkpt><trkpt lat="41.4411902" lon="13.1880714"><ele>68.0</ele><time>2026-04-02T13:15:53.058Z</time></trkpt><trkpt lat="41.4412806" lon="13.1880746"><ele>67.4</ele><time>2026-04-02T13:15:54.042Z</time></trkpt><trkpt lat="41.4413729" lon="13.1880841"><ele>66.8</ele><time>2026-04-02T13:15:55.052Z</time></trkpt><trkpt lat="41.441474" lon="13.1881282"><ele>66.2</ele><time>2026-04-02T13:15:56.044Z</time></trkpt><trkpt lat="41.4415792" lon="13.1881733"><ele>65.6</ele><time>2026-04-02T13:15:57.047Z</time></trkpt><trkpt lat="41.4416597" lon="13.1882132"><ele>65.0</ele><time>2026-04-02T13:15:58.062Z</time></trkpt><trkpt lat="41.4417132" lon="13.1882647"><ele>63.50000000000001</ele><time>2026-04-02T13:15:59.049Z</time></trkpt><trkpt lat="41.4418012" lon="13.1883294"><ele>62.0</ele><time>2026-04-02T13:16:01.055Z</time></trkpt><trkpt lat="41.44186" lon="13.1883617"><ele>60.5</ele><time>2026-04-02T13:16:02.049Z</time></trkpt><trkpt lat="41.4419346" lon="13.1884084"><ele>59.0</ele><time>2026-04-02T13:16:03.05Z</time></trkpt><trkpt lat="41.4420032" lon="13.1884473"><ele>57.50000000000001</ele><time>2026-04-02T13:16:04.046Z</time></trkpt><trkpt lat="41.4421128" lon="13.1884902"><ele>56.0</ele><time>2026-04-02T13:16:06.047Z</time></trkpt><trkpt lat="41.4422413" lon="13.1884575"><ele>56.00000000000001</ele><time>2026-04-02T13:16:08.056Z</time></trkpt><trkpt lat="41.4423151" lon="13.1884142"><ele>56.0</ele><time>2026-04-02T13:16:09.052Z</time></trkpt><trkpt lat="41.4423784" lon="13.1883571"><ele>56.0</ele><time>2026-04-02T13:16:10.047Z</time></trkpt><trkpt lat="41.4424385" lon="13.188331"><ele>56.0</ele><time>2026-04-02T13:16:11.045Z</time></trkpt><trkpt lat="41.4425612" lon="13.1883224"><ele>56.00000000000001</ele><time>2026-04-02T13:16:13.057Z</time></trkpt><trkpt lat="41.4426352" lon="13.1883111"><ele>56.0</ele><time>2026-04-02T13:16:14.049Z</time></trkpt><trkpt lat="41.4427121" lon="13.1882727"><ele>56.00000000000001</ele><time>2026-04-02T13:16:15.054Z</time></trkpt><trkpt lat="41.4427761" lon="13.1882223"><ele>56.0</ele><time>2026-04-02T13:16:16.052Z</time></trkpt><trkpt lat="41.4428484" lon="13.1881855"><ele>56.0</ele><time>2026-04-02T13:16:17.043Z</time></trkpt><trkpt lat="41.4429331" lon="13.1881485"><ele>56.0</ele><time>2026-04-02T13:16:18.045Z</time></trkpt><trkpt lat="41.4430225" lon="13.1881105"><ele>56.00000000000001</ele><time>2026-04-02T13:16:19.045Z</time></trkpt><trkpt lat="41.4431021" lon="13.1880774"><ele>56.0</ele><time>2026-04-02T13:16:20.046Z</time></trkpt><trkpt lat="41.4431831" lon="13.1880474"><ele>57.16666666666667</ele><time>2026-04-02T13:16:21.05Z</time></trkpt><trkpt lat="41.4432543" lon="13.1880158"><ele>58.333333333333336</ele><time>2026-04-02T13:16:22.049Z</time></trkpt><trkpt lat="41.4433255" lon="13.187982"><ele>59.5</ele><time>2026-04-02T13:16:23.05Z</time></trkpt><trkpt lat="41.4434012" lon="13.1879497"><ele>60.66666666666667</ele><time>2026-04-02T13:16:24.048Z</time></trkpt><trkpt lat="41.4434988" lon="13.1879183"><ele>61.833333333333336</ele><time>2026-04-02T13:16:26.056Z</time></trkpt><trkpt lat="41.4435761" lon="13.1878964"><ele>63.0</ele><time>2026-04-02T13:16:30.051Z</time></trkpt><trkpt lat="41.4436362" lon="13.1878622"><ele>63.0</ele><time>2026-04-02T13:16:33.055Z</time></trkpt><trkpt lat="41.4437067" lon="13.1878269"><ele>63.0</ele><time>2026-04-02T13:16:35.055Z</time></trkpt><trkpt lat="41.4438024" lon="13.1877749"><ele>63.0</ele><time>2026-04-02T13:16:37.051Z</time></trkpt><trkpt lat="41.4439415" lon="13.1877603"><ele>63.0</ele><time>2026-04-02T13:16:39.049Z</time></trkpt><trkpt lat="41.4440355" lon="13.1877636"><ele>63.0</ele><time>2026-04-02T13:16:40.045Z</time></trkpt><trkpt lat="41.4441374" lon="13.1877574"><ele>63.75</ele><time>2026-04-02T13:16:41.045Z</time></trkpt><trkpt lat="41.4442443" lon="13.1877226"><ele>64.5</ele><time>2026-04-02T13:16:42.047Z</time></trkpt><trkpt lat="41.4443648" lon="13.1876873"><ele>65.25</ele><time>2026-04-02T13:16:43.053Z</time></trkpt><trkpt lat="41.4444875" lon="13.1876361"><ele>66.0</ele><time>2026-04-02T13:16:44.052Z</time></trkpt><trkpt lat="41.4446044" lon="13.1875738"><ele>66.0</ele><time>2026-04-02T13:16:45.047Z</time></trkpt><trkpt lat="41.444707" lon="13.1875175"><ele>66.0</ele><time>2026-04-02T13:16:46.048Z</time></trkpt><trkpt lat="41.4448008" lon="13.1874808"><ele>66.0</ele><time>2026-04-02T13:16:47.05Z</time></trkpt><trkpt lat="41.4448807" lon="13.187441"><ele>66.0</ele><time>2026-04-02T13:16:48.047Z</time></trkpt><trkpt lat="41.4449734" lon="13.1874175"><ele>66.0</ele><time>2026-04-02T13:16:49.045Z</time></trkpt><trkpt lat="41.4450425" lon="13.187397"><ele>66.0</ele><time>2026-04-02T13:16:50.051Z</time></trkpt><trkpt lat="41.4451166" lon="13.1873914"><ele>66.0</ele><time>2026-04-02T13:16:51.051Z</time></trkpt><trkpt lat="41.4452065" lon="13.1873936"><ele>66.0</ele><time>2026-04-02T13:16:52.046Z</time></trkpt><trkpt lat="41.4452893" lon="13.1873906"><ele>66.0</ele><time>2026-04-02T13:16:53.048Z</time></trkpt><trkpt lat="41.4453585" lon="13.1873913"><ele>66.0</ele><time>2026-04-02T13:16:54.042Z</time></trkpt><trkpt lat="41.4454418" lon="13.1874007"><ele>66.0</ele><time>2026-04-02T13:16:55.048Z</time></trkpt><trkpt lat="41.4455408" lon="13.187423"><ele>66.0</ele><time>2026-04-02T13:16:56.049Z</time></trkpt><trkpt lat="41.4456141" lon="13.1874441"><ele>66.0</ele><time>2026-04-02T13:16:57.05Z</time></trkpt><trkpt lat="41.4456769" lon="13.1874508"><ele>66.0</ele><time>2026-04-02T13:16:58.053Z</time></trkpt><trkpt lat="41.4457456" lon="13.1874099"><ele>66.0</ele><time>2026-04-02T13:16:59.049Z</time></trkpt><trkpt lat="41.4458042" lon="13.1873434"><ele>66.0</ele><time>2026-04-02T13:17:00.048Z</time></trkpt><trkpt lat="41.4458579" lon="13.1872718"><ele>66.0</ele><time>2026-04-02T13:17:01.051Z</time></trkpt><trkpt lat="41.445907" lon="13.1871937"><ele>66.0</ele><time>2026-04-02T13:17:02.055Z</time></trkpt><trkpt lat="41.4459449" lon="13.1871255"><ele>67.5</ele><time>2026-04-02T13:17:03.047Z</time></trkpt><trkpt lat="41.4460124" lon="13.1869928"><ele>69.0</ele><time>2026-04-02T13:17:05.047Z</time></trkpt><trkpt lat="41.4460344" lon="13.1869139"><ele>70.5</ele><time>2026-04-02T13:17:06.056Z</time></trkpt><trkpt lat="41.4460465" lon="13.1868285"><ele>72.0</ele><time>2026-04-02T13:17:07.045Z</time></trkpt><trkpt lat="41.4460512" lon="13.1867351"><ele>73.5</ele><time>2026-04-02T13:17:08.049Z</time></trkpt><trkpt lat="41.4460579" lon="13.1866502"><ele>75.0</ele><time>2026-04-02T13:17:09.049Z</time></trkpt><trkpt lat="41.4460762" lon="13.186554"><ele>75.6</ele><time>2026-04-02T13:17:10.054Z</time></trkpt><trkpt lat="41.4461129" lon="13.1864774"><ele>76.2</ele><time>2026-04-02T13:17:11.042Z</time></trkpt><trkpt lat="41.4461732" lon="13.1863521"><ele>76.8</ele><time>2026-04-02T13:17:13.044Z</time></trkpt><trkpt lat="41.4462254" lon="13.1862308"><ele>77.4</ele><time>2026-04-02T13:17:15.056Z</time></trkpt><trkpt lat="41.4462823" lon="13.186084"><ele>78.0</ele><time>2026-04-02T13:17:17.058Z</time></trkpt><trkpt lat="41.4463102" lon="13.1859992"><ele>78.0</ele><time>2026-04-02T13:17:18.053Z</time></trkpt><trkpt lat="41.4463393" lon="13.1858957"><ele>78.0</ele><time>2026-04-02T13:17:19.055Z</time></trkpt><trkpt lat="41.4463649" lon="13.1858116"><ele>78.0</ele><time>2026-04-02T13:17:20.052Z</time></trkpt><trkpt lat="41.4464202" lon="13.1857014"><ele>78.0</ele><time>2026-04-02T13:17:22.052Z</time></trkpt><trkpt lat="41.4465014" lon="13.1856951"><ele>78.0</ele><time>2026-04-02T13:17:24.065Z</time></trkpt><trkpt lat="41.4466126" lon="13.1855889"><ele>80.16666666666667</ele><time>2026-04-02T13:17:26.057Z</time></trkpt><trkpt lat="41.4466636" lon="13.1855116"><ele>82.33333333333333</ele><time>2026-04-02T13:17:27.041Z</time></trkpt><trkpt lat="41.4467136" lon="13.1854546"><ele>84.5</ele><time>2026-04-02T13:17:28.05Z</time></trkpt><trkpt lat="41.44678" lon="13.1853912"><ele>86.66666666666666</ele><time>2026-04-02T13:17:30.059Z</time></trkpt><trkpt lat="41.4468362" lon="13.1852993"><ele>88.83333333333333</ele><time>2026-04-02T13:17:32.066Z</time></trkpt><trkpt lat="41.4468886" lon="13.1851685"><ele>91.0</ele><time>2026-04-02T13:17:34.042Z</time></trkpt><trkpt lat="41.4469244" lon="13.185039"><ele>91.0</ele><time>2026-04-02T13:17:36.049Z</time></trkpt><trkpt lat="41.4469306" lon="13.1848996"><ele>91.0</ele><time>2026-04-02T13:17:38.049Z</time></trkpt><trkpt lat="41.4469323" lon="13.1847874"><ele>91.0</ele><time>2026-04-02T13:17:40.057Z</time></trkpt><trkpt lat="41.446894" lon="13.1846997"><ele>91.0</ele><time>2026-04-02T13:17:42.058Z</time></trkpt><trkpt lat="41.4468659" lon="13.1846147"><ele>91.0</ele><time>2026-04-02T13:17:44.06Z</time></trkpt><trkpt lat="41.4468586" lon="13.1845101"><ele>91.0</ele><time>2026-04-02T13:17:46.045Z</time></trkpt><trkpt lat="41.4468244" lon="13.1843723"><ele>91.66666666666666</ele><time>2026-04-02T13:17:48.054Z</time></trkpt><trkpt lat="41.4468262" lon="13.1842785"><ele>92.33333333333333</ele><time>2026-04-02T13:17:49.053Z</time></trkpt><trkpt lat="41.4468482" lon="13.1841946"><ele>93.0</ele><time>2026-04-02T13:17:50.048Z</time></trkpt><trkpt lat="41.4468871" lon="13.1841009"><ele>93.66666666666667</ele><time>2026-04-02T13:17:52.049Z</time></trkpt><trkpt lat="41.4469041" lon="13.1840044"><ele>94.33333333333334</ele><time>2026-04-02T13:17:54.051Z</time></trkpt><trkpt lat="41.4469058" lon="13.1838464"><ele>95.0</ele><time>2026-04-02T13:17:56.045Z</time></trkpt><trkpt lat="41.4469057" lon="13.1837451"><ele>95.0</ele><time>2026-04-02T13:17:57.056Z</time></trkpt><trkpt lat="41.4468998" lon="13.1836421"><ele>95.0</ele><time>2026-04-02T13:17:58.045Z</time></trkpt><trkpt lat="41.4468952" lon="13.1835483"><ele>95.0</ele><time>2026-04-02T13:17:59.047Z</time></trkpt><trkpt lat="41.4468914" lon="13.1834514"><ele>95.0</ele><time>2026-04-02T13:18:00.046Z</time></trkpt><trkpt lat="41.4468883" lon="13.1833607"><ele>95.0</ele><time>2026-04-02T13:18:01.061Z</time></trkpt><trkpt lat="41.4468827" lon="13.1832134"><ele>95.0</ele><time>2026-04-02T13:18:03.052Z</time></trkpt><trkpt lat="41.4468905" lon="13.1830497"><ele>95.0</ele><time>2026-04-02T13:18:05.05Z</time></trkpt><trkpt lat="41.4469106" lon="13.1829677"><ele>95.0</ele><time>2026-04-02T13:18:06.05Z</time></trkpt><trkpt lat="41.446931" lon="13.1828611"><ele>95.0</ele><time>2026-04-02T13:18:07.047Z</time></trkpt><trkpt lat="41.4469535" lon="13.182755"><ele>95.0</ele><time>2026-04-02T13:18:08.054Z</time></trkpt><trkpt lat="41.4470088" lon="13.1826515"><ele>95.0</ele><time>2026-04-02T13:18:10.055Z</time></trkpt><trkpt lat="41.4470978" lon="13.182685"><ele>95.0</ele><time>2026-04-02T13:18:20.055Z</time></trkpt><trkpt lat="41.4471991" lon="13.1827825"><ele>95.0</ele><time>2026-04-02T13:18:22.055Z</time></trkpt><trkpt lat="41.4472648" lon="13.182846"><ele>95.0</ele><time>2026-04-02T13:18:23.047Z</time></trkpt><trkpt lat="41.4473405" lon="13.1829138"><ele>95.0</ele><time>2026-04-02T13:18:24.053Z</time></trkpt><trkpt lat="41.4474245" lon="13.1830058"><ele>95.0</ele><time>2026-04-02T13:18:25.052Z</time></trkpt><trkpt lat="41.4475103" lon="13.1830952"><ele>95.0</ele><time>2026-04-02T13:18:26.05Z</time></trkpt><trkpt lat="41.4476015" lon="13.183188"><ele>94.25</ele><time>2026-04-02T13:18:27.052Z</time></trkpt><trkpt lat="41.4477023" lon="13.1832925"><ele>93.5</ele><time>2026-04-02T13:18:28.058Z</time></trkpt><trkpt lat="41.4478061" lon="13.1833939"><ele>92.75</ele><time>2026-04-02T13:18:29.046Z</time></trkpt><trkpt lat="41.4479017" lon="13.1834836"><ele>92.0</ele><time>2026-04-02T13:18:30.054Z</time></trkpt><trkpt lat="41.4479808" lon="13.1835587"><ele>93.19999999999999</ele><time>2026-04-02T13:18:31.053Z</time></trkpt><trkpt lat="41.4480441" lon="13.1836175"><ele>94.4</ele><time>2026-04-02T13:18:32.06Z</time></trkpt><trkpt lat="41.4480959" lon="13.1836658"><ele>95.6</ele><time>2026-04-02T13:18:33.05Z</time></trkpt><trkpt lat="41.4482088" lon="13.1837581"><ele>96.80000000000001</ele><time>2026-04-02T13:18:35.046Z</time></trkpt><trkpt lat="41.4482784" lon="13.1838191"><ele>98.0</ele><time>2026-04-02T13:18:36.047Z</time></trkpt><trkpt lat="41.4483547" lon="13.1838946"><ele>98.0</ele><time>2026-04-02T13:18:37.05Z</time></trkpt><trkpt lat="41.4484392" lon="13.1839784"><ele>98.0</ele><time>2026-04-02T13:18:38.054Z</time></trkpt><trkpt lat="41.4485364" lon="13.1840668"><ele>98.0</ele><time>2026-04-02T13:18:39.052Z</time></trkpt><trkpt lat="41.4486337" lon="13.1841712"><ele>98.0</ele><time>2026-04-02T13:18:40.05Z</time></trkpt><trkpt lat="41.4487295" lon="13.1842828"><ele>98.0</ele><time>2026-04-02T13:18:41.05Z</time></trkpt><trkpt lat="41.4488243" lon="13.1844095"><ele>98.0</ele><time>2026-04-02T13:18:42.041Z</time></trkpt><trkpt lat="41.4489225" lon="13.1845398"><ele>98.0</ele><time>2026-04-02T13:18:43.045Z</time></trkpt><trkpt lat="41.4490147" lon="13.1846824"><ele>98.0</ele><time>2026-04-02T13:18:44.051Z</time></trkpt><trkpt lat="41.4490831" lon="13.184844"><ele>97.60000000000001</ele><time>2026-04-02T13:18:45.064Z</time></trkpt><trkpt lat="41.4491293" lon="13.1849976"><ele>97.2</ele><time>2026-04-02T13:18:46.05Z</time></trkpt><trkpt lat="41.4491702" lon="13.1851421"><ele>96.8</ele><time>2026-04-02T13:18:47.048Z</time></trkpt><trkpt lat="41.4492082" lon="13.1852507"><ele>96.4</ele><time>2026-04-02T13:18:48.047Z</time></trkpt><trkpt lat="41.4492458" lon="13.1853511"><ele>96.0</ele><time>2026-04-02T13:18:49.067Z</time></trkpt><trkpt lat="41.4492986" lon="13.1854176"><ele>96.0</ele><time>2026-04-02T13:18:50.051Z</time></trkpt><trkpt lat="41.4493512" lon="13.185486"><ele>96.0</ele><time>2026-04-02T13:18:51.054Z</time></trkpt><trkpt lat="41.449414" lon="13.1855292"><ele>96.0</ele><time>2026-04-02T13:18:52.056Z</time></trkpt><trkpt lat="41.4494905" lon="13.1855882"><ele>96.0</ele><time>2026-04-02T13:18:53.054Z</time></trkpt><trkpt lat="41.4495642" lon="13.1856513"><ele>96.0</ele><time>2026-04-02T13:18:54.046Z</time></trkpt><trkpt lat="41.4496125" lon="13.1857315"><ele>96.0</ele><time>2026-04-02T13:18:55.057Z</time></trkpt><trkpt lat="41.4497009" lon="13.1858057"><ele>96.83333333333333</ele><time>2026-04-02T13:18:57.054Z</time></trkpt><trkpt lat="41.4498206" lon="13.1857765"><ele>97.66666666666666</ele><time>2026-04-02T13:18:59.055Z</time></trkpt><trkpt lat="41.4498852" lon="13.1857382"><ele>98.5</ele><time>2026-04-02T13:19:00.058Z</time></trkpt><trkpt lat="41.4499501" lon="13.1857002"><ele>99.33333333333333</ele><time>2026-04-02T13:19:01.051Z</time></trkpt><trkpt lat="41.4500284" lon="13.1856614"><ele>100.16666666666666</ele><time>2026-04-02T13:19:02.055Z</time></trkpt><trkpt lat="41.4501003" lon="13.1856242"><ele>101.0</ele><time>2026-04-02T13:19:03.057Z</time></trkpt><trkpt lat="41.4501738" lon="13.1855855"><ele>101.8</ele><time>2026-04-02T13:19:04.049Z</time></trkpt><trkpt lat="41.4502345" lon="13.1855499"><ele>102.6</ele><time>2026-04-02T13:19:05.06Z</time></trkpt><trkpt lat="41.4503434" lon="13.1855104"><ele>103.4</ele><time>2026-04-02T13:19:07.065Z</time></trkpt><trkpt lat="41.4504357" lon="13.1855911"><ele>104.2</ele><time>2026-04-02T13:19:09.057Z</time></trkpt><trkpt lat="41.4505062" lon="13.1856899"><ele>105.0</ele><time>2026-04-02T13:19:11.058Z</time></trkpt><trkpt lat="41.450604" lon="13.1857286"><ele>105.0</ele><time>2026-04-02T13:19:13.058Z</time></trkpt><trkpt lat="41.4506852" lon="13.1857298"><ele>105.0</ele><time>2026-04-02T13:19:16.073Z</time></trkpt><trkpt lat="41.4507689" lon="13.1857204"><ele>105.0</ele><time>2026-04-02T13:19:20.055Z</time></trkpt><trkpt lat="41.4508335" lon="13.1857632"><ele>105.0</ele><time>2026-04-02T13:19:23.052Z</time></trkpt><trkpt lat="41.4508991" lon="13.1857956"><ele>105.0</ele><time>2026-04-02T13:19:26.049Z</time></trkpt><trkpt lat="41.4509698" lon="13.1858355"><ele>105.0</ele><time>2026-04-02T13:19:28.049Z</time></trkpt><trkpt lat="41.451037" lon="13.1858846"><ele>105.0</ele><time>2026-04-02T13:19:30.061Z</time></trkpt><trkpt lat="41.4511" lon="13.185923"><ele>105.0</ele><time>2026-04-02T13:19:32.051Z</time></trkpt><trkpt lat="41.4511704" lon="13.1859611"><ele>105.0</ele><time>2026-04-02T13:19:34.061Z</time></trkpt><trkpt lat="41.4512353" lon="13.1859832"><ele>105.0</ele><time>2026-04-02T13:19:36.06Z</time></trkpt><trkpt lat="41.4513216" lon="13.1860101"><ele>105.0</ele><time>2026-04-02T13:19:39.049Z</time></trkpt><trkpt lat="41.4513871" lon="13.1860133"><ele>105.0</ele><time>2026-04-02T13:19:41.053Z</time></trkpt><trkpt lat="41.45145" lon="13.1859984"><ele>105.0</ele><time>2026-04-02T13:19:43.049Z</time></trkpt><trkpt lat="41.4515163" lon="13.1859495"><ele>103.8</ele><time>2026-04-02T13:19:55.056Z</time></trkpt><trkpt lat="41.4515852" lon="13.1858958"><ele>102.6</ele><time>2026-04-02T13:19:58.065Z</time></trkpt><trkpt lat="41.4516603" lon="13.1859048"><ele>101.4</ele><time>2026-04-02T13:20:01.061Z</time></trkpt><trkpt lat="41.451729" lon="13.1859572"><ele>100.2</ele><time>2026-04-02T13:20:03.06Z</time></trkpt><trkpt lat="41.4518375" lon="13.1860517"><ele>99.0</ele><time>2026-04-02T13:20:05.065Z</time></trkpt><trkpt lat="41.4519174" lon="13.1861152"><ele>99.0</ele><time>2026-04-02T13:20:06.055Z</time></trkpt><trkpt lat="41.4520028" lon="13.1861799"><ele>99.0</ele><time>2026-04-02T13:20:07.055Z</time></trkpt><trkpt lat="41.4520827" lon="13.1862443"><ele>99.0</ele><time>2026-04-02T13:20:08.058Z</time></trkpt><trkpt lat="41.4521679" lon="13.1863053"><ele>99.0</ele><time>2026-04-02T13:20:09.049Z</time></trkpt><trkpt lat="41.4522433" lon="13.186361"><ele>99.0</ele><time>2026-04-02T13:20:10.046Z</time></trkpt><trkpt lat="41.4523098" lon="13.1863994"><ele>99.0</ele><time>2026-04-02T13:20:11.048Z</time></trkpt><trkpt lat="41.4524051" lon="13.1864138"><ele>98.83333333333333</ele><time>2026-04-02T13:20:13.057Z</time></trkpt><trkpt lat="41.452488" lon="13.1863734"><ele>98.66666666666666</ele><time>2026-04-02T13:20:15.054Z</time></trkpt><trkpt lat="41.4525426" lon="13.1862953"><ele>98.5</ele><time>2026-04-02T13:20:17.065Z</time></trkpt><trkpt lat="41.4525653" lon="13.1862147"><ele>98.33333333333333</ele><time>2026-04-02T13:20:20.057Z</time></trkpt><trkpt lat="41.4525889" lon="13.1860848"><ele>98.16666666666666</ele><time>2026-04-02T13:20:44.06Z</time></trkpt><trkpt lat="41.4526025" lon="13.1859863"><ele>98.0</ele><time>2026-04-02T13:20:45.055Z</time></trkpt><trkpt lat="41.4526175" lon="13.1858755"><ele>97.99999999999999</ele><time>2026-04-02T13:20:46.058Z</time></trkpt><trkpt lat="41.4526187" lon="13.185751"><ele>98.0</ele><time>2026-04-02T13:20:47.053Z</time></trkpt><trkpt lat="41.4526218" lon="13.1856534"><ele>98.0</ele><time>2026-04-02T13:20:48.053Z</time></trkpt><trkpt lat="41.4526294" lon="13.1855082"><ele>98.0</ele><time>2026-04-02T13:20:50.051Z</time></trkpt><trkpt lat="41.4526237" lon="13.1854102"><ele>97.99999999999999</ele><time>2026-04-02T13:20:51.06Z</time></trkpt><trkpt lat="41.4526298" lon="13.1852951"><ele>98.0</ele><time>2026-04-02T13:20:52.056Z</time></trkpt><trkpt lat="41.452636" lon="13.1851964"><ele>97.33333333333333</ele><time>2026-04-02T13:20:53.057Z</time></trkpt><trkpt lat="41.4526145" lon="13.1850318"><ele>96.66666666666666</ele><time>2026-04-02T13:20:55.05Z</time></trkpt><trkpt lat="41.4525733" lon="13.1849355"><ele>96.0</ele><time>2026-04-02T13:20:56.056Z</time></trkpt><trkpt lat="41.4525209" lon="13.1848613"><ele>95.33333333333333</ele><time>2026-04-02T13:20:57.049Z</time></trkpt><trkpt lat="41.4524672" lon="13.1848168"><ele>94.66666666666666</ele><time>2026-04-02T13:20:58.05Z</time></trkpt><trkpt lat="41.4524021" lon="13.1847708"><ele>94.0</ele><time>2026-04-02T13:20:59.051Z</time></trkpt><trkpt lat="41.4523412" lon="13.1847274"><ele>94.0</ele><time>2026-04-02T13:21:00.052Z</time></trkpt><trkpt lat="41.4523139" lon="13.1846041"><ele>94.0</ele><time>2026-04-02T13:21:02.054Z</time></trkpt><trkpt lat="41.4523311" lon="13.1844599"><ele>94.0</ele><time>2026-04-02T13:21:04.048Z</time></trkpt><trkpt lat="41.4523392" lon="13.1843684"><ele>94.0</ele><time>2026-04-02T13:21:05.05Z</time></trkpt><trkpt lat="41.4523467" lon="13.1842753"><ele>94.0</ele><time>2026-04-02T13:21:07.05Z</time></trkpt><trkpt lat="41.4524114" lon="13.1842543"><ele>94.0</ele><time>2026-04-02T13:21:09.058Z</time></trkpt><trkpt lat="41.4525208" lon="13.1843248"><ele>94.0</ele><time>2026-04-02T13:21:11.048Z</time></trkpt><trkpt lat="41.4525838" lon="13.1843585"><ele>94.0</ele><time>2026-04-02T13:21:12.052Z</time></trkpt><trkpt lat="41.4527024" lon="13.1843311"><ele>94.0</ele><time>2026-04-02T13:21:14.045Z</time></trkpt><trkpt lat="41.4527833" lon="13.1843451"><ele>94.0</ele><time>2026-04-02T13:21:15.052Z</time></trkpt><trkpt lat="41.4528811" lon="13.1844352"><ele>94.0</ele><time>2026-04-02T13:21:16.054Z</time></trkpt><trkpt lat="41.4529652" lon="13.1845313"><ele>94.5</ele><time>2026-04-02T13:21:17.045Z</time></trkpt><trkpt lat="41.4530446" lon="13.1846235"><ele>95.0</ele><time>2026-04-02T13:21:18.06Z</time></trkpt><trkpt lat="41.4531065" lon="13.1847042"><ele>95.5</ele><time>2026-04-02T13:21:19.052Z</time></trkpt><trkpt lat="41.4531591" lon="13.1847802"><ele>96.0</ele><time>2026-04-02T13:21:20.052Z</time></trkpt><trkpt lat="41.4532046" lon="13.1848524"><ele>96.50000000000001</ele><time>2026-04-02T13:21:21.052Z</time></trkpt><trkpt lat="41.4532479" lon="13.1849185"><ele>97.0</ele><time>2026-04-02T13:21:22.047Z</time></trkpt><trkpt lat="41.4533395" lon="13.1850116"><ele>97.0</ele><time>2026-04-02T13:21:24.05Z</time></trkpt><trkpt lat="41.4534381" lon="13.1850471"><ele>97.0</ele><time>2026-04-02T13:21:26.042Z</time></trkpt><trkpt lat="41.4535034" lon="13.1850191"><ele>97.0</ele><time>2026-04-02T13:21:27.043Z</time></trkpt><trkpt lat="41.4535764" lon="13.1849557"><ele>97.0</ele><time>2026-04-02T13:21:28.052Z</time></trkpt><trkpt lat="41.4536567" lon="13.1848596"><ele>97.0</ele><time>2026-04-02T13:21:29.049Z</time></trkpt><trkpt lat="41.4537306" lon="13.184727"><ele>98.0</ele><time>2026-04-02T13:21:30.048Z</time></trkpt><trkpt lat="41.4538012" lon="13.1845802"><ele>99.0</ele><time>2026-04-02T13:21:31.048Z</time></trkpt><trkpt lat="41.453863" lon="13.1844222"><ele>100.0</ele><time>2026-04-02T13:21:32.051Z</time></trkpt><trkpt lat="41.4539244" lon="13.1842746"><ele>101.0</ele><time>2026-04-02T13:21:33.046Z</time></trkpt><trkpt lat="41.4539802" lon="13.1841268"><ele>103.0</ele><time>2026-04-02T13:21:34.051Z</time></trkpt><trkpt lat="41.4540335" lon="13.1839869"><ele>105.0</ele><time>2026-04-02T13:21:35.044Z</time></trkpt><trkpt lat="41.4540772" lon="13.1838689"><ele>107.0</ele><time>2026-04-02T13:21:36.04Z</time></trkpt><trkpt lat="41.4541207" lon="13.183745"><ele>109.0</ele><time>2026-04-02T13:21:37.049Z</time></trkpt><trkpt lat="41.4541606" lon="13.1836086"><ele>111.0</ele><time>2026-04-02T13:21:38.049Z</time></trkpt><trkpt lat="41.4541981" lon="13.1834769"><ele>111.0</ele><time>2026-04-02T13:21:39.05Z</time></trkpt><trkpt lat="41.4542217" lon="13.1833368"><ele>111.0</ele><time>2026-04-02T13:21:40.049Z</time></trkpt><trkpt lat="41.4542448" lon="13.1831912"><ele>111.0</ele><time>2026-04-02T13:21:41.054Z</time></trkpt><trkpt lat="41.4542529" lon="13.1830389"><ele>111.0</ele><time>2026-04-02T13:21:42.054Z</time></trkpt><trkpt lat="41.4542589" lon="13.1828871"><ele>111.0</ele><time>2026-04-02T13:21:43.044Z</time></trkpt><trkpt lat="41.4542754" lon="13.1827361"><ele>113.4</ele><time>2026-04-02T13:21:44.053Z</time></trkpt><trkpt lat="41.4543084" lon="13.1825959"><ele>115.8</ele><time>2026-04-02T13:21:45.05Z</time></trkpt><trkpt lat="41.4543382" lon="13.1824555"><ele>118.20000000000002</ele><time>2026-04-02T13:21:46.053Z</time></trkpt><trkpt lat="41.4543632" lon="13.1823091"><ele>120.60000000000001</ele><time>2026-04-02T13:21:47.052Z</time></trkpt><trkpt lat="41.4543883" lon="13.1821727"><ele>123.0</ele><time>2026-04-02T13:21:48.052Z</time></trkpt><trkpt lat="41.4544293" lon="13.1820581"><ele>123.60000000000001</ele><time>2026-04-02T13:21:49.046Z</time></trkpt><trkpt lat="41.4544837" lon="13.1819567"><ele>124.20000000000002</ele><time>2026-04-02T13:21:50.048Z</time></trkpt><trkpt lat="41.4545432" lon="13.1818457"><ele>124.8</ele><time>2026-04-02T13:21:51.045Z</time></trkpt><trkpt lat="41.45461" lon="13.181734"><ele>125.4</ele><time>2026-04-02T13:21:52.051Z</time></trkpt><trkpt lat="41.4546734" lon="13.1816328"><ele>126.0</ele><time>2026-04-02T13:21:53.053Z</time></trkpt><trkpt lat="41.4547531" lon="13.1815467"><ele>126.6</ele><time>2026-04-02T13:21:54.055Z</time></trkpt><trkpt lat="41.4548439" lon="13.1814804"><ele>127.19999999999999</ele><time>2026-04-02T13:21:55.057Z</time></trkpt><trkpt lat="41.4549239" lon="13.1814303"><ele>127.80000000000001</ele><time>2026-04-02T13:21:56.052Z</time></trkpt><trkpt lat="41.4549968" lon="13.1813949"><ele>128.4</ele><time>2026-04-02T13:21:57.063Z</time></trkpt><trkpt lat="41.4551018" lon="13.1813546"><ele>129.0</ele><time>2026-04-02T13:21:59.057Z</time></trkpt><trkpt lat="41.4551981" lon="13.1813274"><ele>129.0</ele><time>2026-04-02T13:22:01.062Z</time></trkpt><trkpt lat="41.45532" lon="13.1812841"><ele>129.0</ele><time>2026-04-02T13:22:03.043Z</time></trkpt><trkpt lat="41.4553873" lon="13.1812595"><ele>129.0</ele><time>2026-04-02T13:22:04.054Z</time></trkpt><trkpt lat="41.4554553" lon="13.1812391"><ele>129.0</ele><time>2026-04-02T13:22:05.043Z</time></trkpt><trkpt lat="41.4555223" lon="13.1812211"><ele>129.0</ele><time>2026-04-02T13:22:06.049Z</time></trkpt><trkpt lat="41.455586" lon="13.1812178"><ele>129.0</ele><time>2026-04-02T13:22:07.053Z</time></trkpt><trkpt lat="41.4556694" lon="13.1812553"><ele>127.0</ele><time>2026-04-02T13:22:08.062Z</time></trkpt><trkpt lat="41.4557583" lon="13.1812954"><ele>125.0</ele><time>2026-04-02T13:22:09.054Z</time></trkpt><trkpt lat="41.4558547" lon="13.1813327"><ele>123.0</ele><time>2026-04-02T13:22:10.052Z</time></trkpt><trkpt lat="41.4559581" lon="13.1813971"><ele>121.0</ele><time>2026-04-02T13:22:11.049Z</time></trkpt><trkpt lat="41.4560625" lon="13.1814451"><ele>119.0</ele><time>2026-04-02T13:22:12.044Z</time></trkpt><trkpt lat="41.456163" lon="13.1815041"><ele>119.0</ele><time>2026-04-02T13:22:13.056Z</time></trkpt><trkpt lat="41.4562671" lon="13.1815667"><ele>119.0</ele><time>2026-04-02T13:22:14.051Z</time></trkpt><trkpt lat="41.456377" lon="13.1816259"><ele>119.0</ele><time>2026-04-02T13:22:15.053Z</time></trkpt><trkpt lat="41.4564821" lon="13.181685"><ele>119.0</ele><time>2026-04-02T13:22:16.054Z</time></trkpt><trkpt lat="41.4565865" lon="13.181738"><ele>117.0</ele><time>2026-04-02T13:22:17.056Z</time></trkpt><trkpt lat="41.4566937" lon="13.1817669"><ele>115.0</ele><time>2026-04-02T13:22:18.045Z</time></trkpt><trkpt lat="41.4567999" lon="13.1817738"><ele>113.0</ele><time>2026-04-02T13:22:19.055Z</time></trkpt><trkpt lat="41.4569146" lon="13.1817518"><ele>111.0</ele><time>2026-04-02T13:22:20.054Z</time></trkpt><trkpt lat="41.4570299" lon="13.1817075"><ele>111.19999999999999</ele><time>2026-04-02T13:22:21.053Z</time></trkpt><trkpt lat="41.4571328" lon="13.1816578"><ele>111.39999999999999</ele><time>2026-04-02T13:22:22.042Z</time></trkpt><trkpt lat="41.4572312" lon="13.1815956"><ele>111.6</ele><time>2026-04-02T13:22:23.05Z</time></trkpt><trkpt lat="41.4573266" lon="13.1815189"><ele>111.8</ele><time>2026-04-02T13:22:24.042Z</time></trkpt><trkpt lat="41.4574218" lon="13.1814334"><ele>112.0</ele><time>2026-04-02T13:22:25.05Z</time></trkpt><trkpt lat="41.4575151" lon="13.1813411"><ele>112.0</ele><time>2026-04-02T13:22:26.049Z</time></trkpt><trkpt lat="41.4576031" lon="13.1812406"><ele>111.99999999999999</ele><time>2026-04-02T13:22:27.045Z</time></trkpt><trkpt lat="41.4576799" lon="13.1811383"><ele>111.99999999999999</ele><time>2026-04-02T13:22:28.05Z</time></trkpt><trkpt lat="41.4577432" lon="13.1810406"><ele>112.0</ele><time>2026-04-02T13:22:29.051Z</time></trkpt><trkpt lat="41.4578058" lon="13.1809419"><ele>112.0</ele><time>2026-04-02T13:22:30.046Z</time></trkpt><trkpt lat="41.4578454" lon="13.1808198"><ele>112.0</ele><time>2026-04-02T13:22:31.051Z</time></trkpt><trkpt lat="41.4578901" lon="13.1806887"><ele>111.99999999999999</ele><time>2026-04-02T13:22:32.049Z</time></trkpt><trkpt lat="41.457939" lon="13.1805592"><ele>111.99999999999999</ele><time>2026-04-02T13:22:33.046Z</time></trkpt><trkpt lat="41.4579884" lon="13.1804294"><ele>112.0</ele><time>2026-04-02T13:22:34.038Z</time></trkpt><trkpt lat="41.4580267" lon="13.1802933"><ele>112.0</ele><time>2026-04-02T13:22:35.047Z</time></trkpt><trkpt lat="41.4580503" lon="13.180156"><ele>113.39999999999999</ele><time>2026-04-02T13:22:36.052Z</time></trkpt><trkpt lat="41.4580528" lon="13.1800174"><ele>114.79999999999998</ele><time>2026-04-02T13:22:37.049Z</time></trkpt><trkpt lat="41.4580378" lon="13.1798835"><ele>116.2</ele><time>2026-04-02T13:22:38.053Z</time></trkpt><trkpt lat="41.4580047" lon="13.1797575"><ele>117.6</ele><time>2026-04-02T13:22:39.044Z</time></trkpt><trkpt lat="41.457983" lon="13.1796455"><ele>119.0</ele><time>2026-04-02T13:22:40.055Z</time></trkpt><trkpt lat="41.4579783" lon="13.1795401"><ele>119.0</ele><time>2026-04-02T13:22:41.037Z</time></trkpt><trkpt lat="41.4579967" lon="13.1794353"><ele>119.0</ele><time>2026-04-02T13:22:42.04Z</time></trkpt><trkpt lat="41.4580433" lon="13.1793304"><ele>119.0</ele><time>2026-04-02T13:22:43.047Z</time></trkpt><trkpt lat="41.4581037" lon="13.179222"><ele>119.0</ele><time>2026-04-02T13:22:44.051Z</time></trkpt><trkpt lat="41.4581566" lon="13.1791063"><ele>119.0</ele><time>2026-04-02T13:22:45.047Z</time></trkpt><trkpt lat="41.4582051" lon="13.1789814"><ele>118.4</ele><time>2026-04-02T13:22:46.049Z</time></trkpt><trkpt lat="41.4582458" lon="13.178852"><ele>117.80000000000001</ele><time>2026-04-02T13:22:47.046Z</time></trkpt><trkpt lat="41.4582822" lon="13.1787162"><ele>117.19999999999999</ele><time>2026-04-02T13:22:48.056Z</time></trkpt><trkpt lat="41.4583165" lon="13.1785824"><ele>116.6</ele><time>2026-04-02T13:22:49.051Z</time></trkpt><trkpt lat="41.4583491" lon="13.1784521"><ele>116.0</ele><time>2026-04-02T13:22:50.056Z</time></trkpt><trkpt lat="41.4583741" lon="13.1783189"><ele>115.6</ele><time>2026-04-02T13:22:51.053Z</time></trkpt><trkpt lat="41.458389" lon="13.1781806"><ele>115.19999999999999</ele><time>2026-04-02T13:22:52.052Z</time></trkpt><trkpt lat="41.4584141" lon="13.1780416"><ele>114.80000000000001</ele><time>2026-04-02T13:22:53.064Z</time></trkpt><trkpt lat="41.4584467" lon="13.1779067"><ele>114.4</ele><time>2026-04-02T13:22:54.05Z</time></trkpt><trkpt lat="41.4584764" lon="13.1777712"><ele>114.0</ele><time>2026-04-02T13:22:55.046Z</time></trkpt><trkpt lat="41.4585017" lon="13.1776354"><ele>114.0</ele><time>2026-04-02T13:22:56.046Z</time></trkpt><trkpt lat="41.458526" lon="13.1775012"><ele>114.0</ele><time>2026-04-02T13:22:57.047Z</time></trkpt><trkpt lat="41.4585418" lon="13.1773636"><ele>114.0</ele><time>2026-04-02T13:22:58.053Z</time></trkpt><trkpt lat="41.4585515" lon="13.1772233"><ele>114.0</ele><time>2026-04-02T13:22:59.043Z</time></trkpt><trkpt lat="41.4585537" lon="13.1770825"><ele>114.0</ele><time>2026-04-02T13:23:00.049Z</time></trkpt><trkpt lat="41.4585463" lon="13.1769451"><ele>114.4</ele><time>2026-04-02T13:23:01.047Z</time></trkpt><trkpt lat="41.458533" lon="13.1768107"><ele>114.80000000000001</ele><time>2026-04-02T13:23:02.05Z</time></trkpt><trkpt lat="41.4585203" lon="13.1766821"><ele>115.19999999999999</ele><time>2026-04-02T13:23:03.045Z</time></trkpt><trkpt lat="41.4585094" lon="13.1765586"><ele>115.6</ele><time>2026-04-02T13:23:04.046Z</time></trkpt><trkpt lat="41.4584817" lon="13.1764407"><ele>116.0</ele><time>2026-04-02T13:23:05.068Z</time></trkpt><trkpt lat="41.4584537" lon="13.1763265"><ele>117.19999999999999</ele><time>2026-04-02T13:23:06.051Z</time></trkpt><trkpt lat="41.4584299" lon="13.1762263"><ele>118.39999999999999</ele><time>2026-04-02T13:23:07.053Z</time></trkpt><trkpt lat="41.4584184" lon="13.1760773"><ele>119.6</ele><time>2026-04-02T13:23:09.051Z</time></trkpt><trkpt lat="41.4583467" lon="13.1759305"><ele>120.8</ele><time>2026-04-02T13:23:11.048Z</time></trkpt><trkpt lat="41.458292" lon="13.175858"><ele>122.0</ele><time>2026-04-02T13:23:12.05Z</time></trkpt><trkpt lat="41.4582337" lon="13.1757918"><ele>121.99999999999999</ele><time>2026-04-02T13:23:13.049Z</time></trkpt><trkpt lat="41.4581783" lon="13.1757298"><ele>122.0</ele><time>2026-04-02T13:23:14.055Z</time></trkpt><trkpt lat="41.4581101" lon="13.1756913"><ele>122.0</ele><time>2026-04-02T13:23:15.053Z</time></trkpt><trkpt lat="41.458037" lon="13.1756793"><ele>122.0</ele><time>2026-04-02T13:23:16.056Z</time></trkpt><trkpt lat="41.4579583" lon="13.1756773"><ele>121.99999999999999</ele><time>2026-04-02T13:23:17.046Z</time></trkpt><trkpt lat="41.4578827" lon="13.1756743"><ele>122.0</ele><time>2026-04-02T13:23:18.06Z</time></trkpt><trkpt lat="41.4578057" lon="13.1756691"><ele>124.57142857142856</ele><time>2026-04-02T13:23:19.046Z</time></trkpt><trkpt lat="41.4577345" lon="13.1756466"><ele>127.14285714285714</ele><time>2026-04-02T13:23:20.048Z</time></trkpt><trkpt lat="41.4576635" lon="13.1756046"><ele>129.71428571428572</ele><time>2026-04-02T13:23:21.049Z</time></trkpt><trkpt lat="41.4575978" lon="13.1755669"><ele>132.28571428571428</ele><time>2026-04-02T13:23:22.041Z</time></trkpt><trkpt lat="41.457533" lon="13.1755361"><ele>134.85714285714286</ele><time>2026-04-02T13:23:23.045Z</time></trkpt><trkpt lat="41.4574702" lon="13.1755131"><ele>137.42857142857142</ele><time>2026-04-02T13:23:24.046Z</time></trkpt><trkpt lat="41.4574066" lon="13.1755011"><ele>140.0</ele><time>2026-04-02T13:23:25.056Z</time></trkpt><trkpt lat="41.4573308" lon="13.175485"><ele>140.0</ele><time>2026-04-02T13:23:26.048Z</time></trkpt><trkpt lat="41.4572435" lon="13.1754547"><ele>140.0</ele><time>2026-04-02T13:23:27.045Z</time></trkpt><trkpt lat="41.4571672" lon="13.1754314"><ele>140.0</ele><time>2026-04-02T13:23:28.047Z</time></trkpt><trkpt lat="41.4571054" lon="13.1754095"><ele>140.0</ele><time>2026-04-02T13:23:29.043Z</time></trkpt><trkpt lat="41.457005" lon="13.1753691"><ele>140.0</ele><time>2026-04-02T13:23:31.065Z</time></trkpt><trkpt lat="41.4569545" lon="13.1753187"><ele>140.0</ele><time>2026-04-02T13:23:37.05Z</time></trkpt><trkpt lat="41.4569754" lon="13.1752373"><ele>140.0</ele><time>2026-04-02T13:23:41.058Z</time></trkpt><trkpt lat="41.4570217" lon="13.1751298"><ele>140.0</ele><time>2026-04-02T13:23:48.048Z</time></trkpt><trkpt lat="41.4570872" lon="13.175002"><ele>140.0</ele><time>2026-04-02T13:23:50.05Z</time></trkpt><trkpt lat="41.4571243" lon="13.1749293"><ele>140.0</ele><time>2026-04-02T13:23:51.051Z</time></trkpt><trkpt lat="41.4571852" lon="13.1747966"><ele>140.0</ele><time>2026-04-02T13:23:53.051Z</time></trkpt><trkpt lat="41.4572653" lon="13.1746846"><ele>141.5</ele><time>2026-04-02T13:23:55.05Z</time></trkpt><trkpt lat="41.4573175" lon="13.1746134"><ele>143.0</ele><time>2026-04-02T13:23:56.054Z</time></trkpt><trkpt lat="41.4573438" lon="13.1745282"><ele>144.5</ele><time>2026-04-02T13:23:57.05Z</time></trkpt><trkpt lat="41.4573619" lon="13.1744178"><ele>146.0</ele><time>2026-04-02T13:23:58.049Z</time></trkpt><trkpt lat="41.4573744" lon="13.1743073"><ele>147.5</ele><time>2026-04-02T13:23:59.051Z</time></trkpt><trkpt lat="41.4573853" lon="13.1742098"><ele>149.0</ele><time>2026-04-02T13:24:00.052Z</time></trkpt><trkpt lat="41.4573961" lon="13.1740715"><ele>149.66666666666666</ele><time>2026-04-02T13:24:02.045Z</time></trkpt><trkpt lat="41.4574119" lon="13.1739879"><ele>150.33333333333331</ele><time>2026-04-02T13:24:04.064Z</time></trkpt><trkpt lat="41.4574083" lon="13.1738911"><ele>151.0</ele><time>2026-04-02T13:24:09.05Z</time></trkpt><trkpt lat="41.4574028" lon="13.1737735"><ele>151.66666666666666</ele><time>2026-04-02T13:24:11.044Z</time></trkpt><trkpt lat="41.4574028" lon="13.1736298"><ele>152.33333333333334</ele><time>2026-04-02T13:24:13.047Z</time></trkpt><trkpt lat="41.4573756" lon="13.1734797"><ele>153.0</ele><time>2026-04-02T13:24:15.049Z</time></trkpt><trkpt lat="41.4573425" lon="13.1734032"><ele>153.0</ele><time>2026-04-02T13:24:16.072Z</time></trkpt><trkpt lat="41.4572978" lon="13.1733245"><ele>153.0</ele><time>2026-04-02T13:24:17.044Z</time></trkpt><trkpt lat="41.4572464" lon="13.1732395"><ele>153.0</ele><time>2026-04-02T13:24:18.039Z</time></trkpt><trkpt lat="41.4571914" lon="13.1731604"><ele>153.0</ele><time>2026-04-02T13:24:19.048Z</time></trkpt><trkpt lat="41.4571389" lon="13.1730935"><ele>153.0</ele><time>2026-04-02T13:24:20.05Z</time></trkpt><trkpt lat="41.4570913" lon="13.1730378"><ele>153.0</ele><time>2026-04-02T13:24:21.045Z</time></trkpt><trkpt lat="41.4569855" lon="13.17297"><ele>156.0</ele><time>2026-04-02T13:24:23.048Z</time></trkpt><trkpt lat="41.4569222" lon="13.1729391"><ele>159.0</ele><time>2026-04-02T13:24:24.049Z</time></trkpt><trkpt lat="41.456813" lon="13.1728678"><ele>162.0</ele><time>2026-04-02T13:24:26.048Z</time></trkpt><trkpt lat="41.4567584" lon="13.172819"><ele>165.0</ele><time>2026-04-02T13:24:27.05Z</time></trkpt><trkpt lat="41.456638" lon="13.1727547"><ele>168.0</ele><time>2026-04-02T13:24:29.049Z</time></trkpt><trkpt lat="41.456519" lon="13.1726701"><ele>168.0</ele><time>2026-04-02T13:24:31.045Z</time></trkpt><trkpt lat="41.4564679" lon="13.1726099"><ele>168.0</ele><time>2026-04-02T13:24:32.056Z</time></trkpt><trkpt lat="41.4564302" lon="13.1725269"><ele>168.0</ele><time>2026-04-02T13:24:33.05Z</time></trkpt><trkpt lat="41.4563905" lon="13.1724583"><ele>168.0</ele><time>2026-04-02T13:24:34.051Z</time></trkpt><trkpt lat="41.4563125" lon="13.1723665"><ele>168.0</ele><time>2026-04-02T13:24:36.048Z</time></trkpt><trkpt lat="41.456237" lon="13.1723104"><ele>168.0</ele><time>2026-04-02T13:24:38.058Z</time></trkpt><trkpt lat="41.4561566" lon="13.1722668"><ele>171.2</ele><time>2026-04-02T13:24:40.062Z</time></trkpt><trkpt lat="41.4560452" lon="13.1722417"><ele>174.4</ele><time>2026-04-02T13:24:42.051Z</time></trkpt><trkpt lat="41.4559451" lon="13.1722232"><ele>177.6</ele><time>2026-04-02T13:24:44.049Z</time></trkpt><trkpt lat="41.4558471" lon="13.1721663"><ele>180.79999999999998</ele><time>2026-04-02T13:24:46.05Z</time></trkpt><trkpt lat="41.4557744" lon="13.1720498"><ele>184.0</ele><time>2026-04-02T13:24:48.051Z</time></trkpt><trkpt lat="41.4557233" lon="13.1719153"><ele>184.0</ele><time>2026-04-02T13:24:50.055Z</time></trkpt><trkpt lat="41.4556908" lon="13.1718303"><ele>184.0</ele><time>2026-04-02T13:24:51.051Z</time></trkpt><trkpt lat="41.4556364" lon="13.1716767"><ele>184.0</ele><time>2026-04-02T13:24:53.051Z</time></trkpt><trkpt lat="41.4556001" lon="13.1715936"><ele>184.0</ele><time>2026-04-02T13:24:54.044Z</time></trkpt><trkpt lat="41.4555597" lon="13.1714982"><ele>184.0</ele><time>2026-04-02T13:24:55.042Z</time></trkpt><trkpt lat="41.4555144" lon="13.1713874"><ele>184.0</ele><time>2026-04-02T13:24:56.047Z</time></trkpt><trkpt lat="41.4554882" lon="13.1712669"><ele>186.0</ele><time>2026-04-02T13:24:57.042Z</time></trkpt><trkpt lat="41.4554479" lon="13.1711619"><ele>188.0</ele><time>2026-04-02T13:24:58.049Z</time></trkpt><trkpt lat="41.4554108" lon="13.1710728"><ele>190.0</ele><time>2026-04-02T13:24:59.045Z</time></trkpt><trkpt lat="41.455362" lon="13.1709829"><ele>192.0</ele><time>2026-04-02T13:25:00.046Z</time></trkpt><trkpt lat="41.4552986" lon="13.1708889"><ele>193.99999999999997</ele><time>2026-04-02T13:25:01.046Z</time></trkpt><trkpt lat="41.4552382" lon="13.1708011"><ele>196.0</ele><time>2026-04-02T13:25:02.046Z</time></trkpt><trkpt lat="41.4551846" lon="13.1707225"><ele>196.4</ele><time>2026-04-02T13:25:03.046Z</time></trkpt><trkpt lat="41.4551295" lon="13.170643"><ele>196.8</ele><time>2026-04-02T13:25:04.05Z</time></trkpt><trkpt lat="41.4550649" lon="13.1705684"><ele>197.20000000000002</ele><time>2026-04-02T13:25:05.05Z</time></trkpt><trkpt lat="41.4550007" lon="13.1705008"><ele>197.60000000000002</ele><time>2026-04-02T13:25:06.046Z</time></trkpt><trkpt lat="41.4549438" lon="13.1704371"><ele>198.0</ele><time>2026-04-02T13:25:07.042Z</time></trkpt><trkpt lat="41.4548457" lon="13.1703201"><ele>198.0</ele><time>2026-04-02T13:25:09.048Z</time></trkpt><trkpt lat="41.4547951" lon="13.1702516"><ele>198.0</ele><time>2026-04-02T13:25:10.045Z</time></trkpt><trkpt lat="41.454759" lon="13.1701684"><ele>198.0</ele><time>2026-04-02T13:25:11.043Z</time></trkpt><trkpt lat="41.4547115" lon="13.1701028"><ele>198.0</ele><time>2026-04-02T13:25:12.046Z</time></trkpt><trkpt lat="41.4546447" lon="13.170062"><ele>198.0</ele><time>2026-04-02T13:25:13.041Z</time></trkpt><trkpt lat="41.4545833" lon="13.1700211"><ele>198.0</ele><time>2026-04-02T13:25:14.046Z</time></trkpt><trkpt lat="41.4545284" lon="13.1699685"><ele>198.0</ele><time>2026-04-02T13:25:15.042Z</time></trkpt><trkpt lat="41.4544814" lon="13.1699108"><ele>198.71428571428572</ele><time>2026-04-02T13:25:16.045Z</time></trkpt><trkpt lat="41.4544308" lon="13.1698478"><ele>199.42857142857142</ele><time>2026-04-02T13:25:17.041Z</time></trkpt><trkpt lat="41.4543819" lon="13.1697788"><ele>200.14285714285714</ele><time>2026-04-02T13:25:18.04Z</time></trkpt><trkpt lat="41.4543445" lon="13.169707"><ele>200.85714285714286</ele><time>2026-04-02T13:25:19.051Z</time></trkpt><trkpt lat="41.4542989" lon="13.1695869"><ele>201.57142857142856</ele><time>2026-04-02T13:25:21.055Z</time></trkpt><trkpt lat="41.4543391" lon="13.1695198"><ele>202.28571428571428</ele><time>2026-04-02T13:25:33.048Z</time></trkpt><trkpt lat="41.4544038" lon="13.1695525"><ele>203.0</ele><time>2026-04-02T13:25:35.083Z</time></trkpt><trkpt lat="41.4544688" lon="13.1696336"><ele>203.00000000000003</ele><time>2026-04-02T13:25:37.045Z</time></trkpt><trkpt lat="41.4545207" lon="13.169693"><ele>203.0</ele><time>2026-04-02T13:25:38.053Z</time></trkpt><trkpt lat="41.4545703" lon="13.1697519"><ele>203.0</ele><time>2026-04-02T13:25:39.05Z</time></trkpt><trkpt lat="41.4546532" lon="13.1698294"><ele>203.0</ele><time>2026-04-02T13:25:41.044Z</time></trkpt><trkpt lat="41.4547469" lon="13.1698739"><ele>203.00000000000003</ele><time>2026-04-02T13:25:43.056Z</time></trkpt><trkpt lat="41.4548327" lon="13.1699494"><ele>203.0</ele><time>2026-04-02T13:25:45.048Z</time></trkpt><trkpt lat="41.4549028" lon="13.1700305"><ele>202.16666666666669</ele><time>2026-04-02T13:25:47.048Z</time></trkpt><trkpt lat="41.4549772" lon="13.170124"><ele>201.33333333333334</ele><time>2026-04-02T13:25:49.044Z</time></trkpt><trkpt lat="41.4550278" lon="13.1701791"><ele>200.5</ele><time>2026-04-02T13:25:51.047Z</time></trkpt><trkpt lat="41.4551028" lon="13.1701477"><ele>199.66666666666669</ele><time>2026-04-02T13:25:54.053Z</time></trkpt><trkpt lat="41.4551529" lon="13.1700548"><ele>198.83333333333334</ele><time>2026-04-02T13:25:56.047Z</time></trkpt><trkpt lat="41.4551942" lon="13.1699756"><ele>198.0</ele><time>2026-04-02T13:25:58.05Z</time></trkpt><trkpt lat="41.4552191" lon="13.1698864"><ele>199.0</ele><time>2026-04-02T13:26:00.044Z</time></trkpt><trkpt lat="41.4552287" lon="13.1697938"><ele>200.0</ele><time>2026-04-02T13:26:02.05Z</time></trkpt><trkpt lat="41.4552033" lon="13.1697163"><ele>201.0</ele><time>2026-04-02T13:26:04.056Z</time></trkpt><trkpt lat="41.4552558" lon="13.1696507"><ele>202.0</ele><time>2026-04-02T13:26:07.053Z</time></trkpt><trkpt lat="41.4552386" lon="13.1695083"><ele>203.0</ele><time>2026-04-02T13:26:10.056Z</time></trkpt><trkpt lat="41.4552264" lon="13.1694237"><ele>204.0</ele><time>2026-04-02T13:26:11.047Z</time></trkpt><trkpt lat="41.4552131" lon="13.169339"><ele>205.0</ele><time>2026-04-02T13:26:12.05Z</time></trkpt><trkpt lat="41.4552009" lon="13.1692322"><ele>204.99999999999997</ele><time>2026-04-02T13:26:14.049Z</time></trkpt><trkpt lat="41.4551521" lon="13.1691649"><ele>205.0</ele><time>2026-04-02T13:26:17.046Z</time></trkpt><trkpt lat="41.4550901" lon="13.1691309"><ele>205.0</ele><time>2026-04-02T13:26:19.041Z</time></trkpt><trkpt lat="41.4549901" lon="13.1690803"><ele>205.0</ele><time>2026-04-02T13:26:21.059Z</time></trkpt><trkpt lat="41.4548879" lon="13.1690247"><ele>204.99999999999997</ele><time>2026-04-02T13:26:23.051Z</time></trkpt><trkpt lat="41.4548549" lon="13.1689144"><ele>205.0</ele><time>2026-04-02T13:26:25.046Z</time></trkpt><trkpt lat="41.4548488" lon="13.168823"><ele>204.99999999999997</ele><time>2026-04-02T13:26:27.051Z</time></trkpt><trkpt lat="41.4548074" lon="13.1687358"><ele>205.0</ele><time>2026-04-02T13:26:29.051Z</time></trkpt><trkpt lat="41.4547447" lon="13.1686676"><ele>205.0</ele><time>2026-04-02T13:26:31.057Z</time></trkpt><trkpt lat="41.4546703" lon="13.1686479"><ele>205.0</ele><time>2026-04-02T13:26:33.054Z</time></trkpt><trkpt lat="41.4546069" lon="13.1686486"><ele>204.99999999999997</ele><time>2026-04-02T13:26:35.043Z</time></trkpt><trkpt lat="41.4545422" lon="13.1685795"><ele>205.0</ele><time>2026-04-02T13:26:37.053Z</time></trkpt><trkpt lat="41.4544894" lon="13.1684509"><ele>206.0</ele><time>2026-04-02T13:26:39.056Z</time></trkpt><trkpt lat="41.4544703" lon="13.1683184"><ele>207.0</ele><time>2026-04-02T13:26:41.059Z</time></trkpt><trkpt lat="41.4544985" lon="13.1682057"><ele>208.0</ele><time>2026-04-02T13:26:43.049Z</time></trkpt><trkpt lat="41.4545163" lon="13.1681135"><ele>209.0</ele><time>2026-04-02T13:26:45.049Z</time></trkpt><trkpt lat="41.4544995" lon="13.167983"><ele>210.0</ele><time>2026-04-02T13:26:47.056Z</time></trkpt><trkpt lat="41.4544424" lon="13.1678836"><ele>210.6</ele><time>2026-04-02T13:26:49.051Z</time></trkpt><trkpt lat="41.4543679" lon="13.167837"><ele>211.2</ele><time>2026-04-02T13:26:52.05Z</time></trkpt><trkpt lat="41.4543417" lon="13.1677539"><ele>211.8</ele><time>2026-04-02T13:26:55.045Z</time></trkpt><trkpt lat="41.454247" lon="13.1677901"><ele>212.4</ele><time>2026-04-02T13:26:59.046Z</time></trkpt><trkpt lat="41.4541327" lon="13.167853"><ele>213.0</ele><time>2026-04-02T13:27:01.047Z</time></trkpt><trkpt lat="41.4540458" lon="13.1679216"><ele>213.0</ele><time>2026-04-02T13:27:03.048Z</time></trkpt><trkpt lat="41.4539824" lon="13.1679632"><ele>213.0</ele><time>2026-04-02T13:27:04.054Z</time></trkpt><trkpt lat="41.4539132" lon="13.1680104"><ele>213.0</ele><time>2026-04-02T13:27:05.053Z</time></trkpt><trkpt lat="41.4538421" lon="13.1680592"><ele>213.0</ele><time>2026-04-02T13:27:06.042Z</time></trkpt><trkpt lat="41.4537681" lon="13.1681102"><ele>213.0</ele><time>2026-04-02T13:27:07.044Z</time></trkpt><trkpt lat="41.453688" lon="13.1681684"><ele>213.0</ele><time>2026-04-02T13:27:08.045Z</time></trkpt><trkpt lat="41.4535981" lon="13.1682257"><ele>212.60000000000002</ele><time>2026-04-02T13:27:09.048Z</time></trkpt><trkpt lat="41.4534984" lon="13.168271"><ele>212.20000000000002</ele><time>2026-04-02T13:27:10.055Z</time></trkpt><trkpt lat="41.4533955" lon="13.1683267"><ele>211.8</ele><time>2026-04-02T13:27:11.049Z</time></trkpt><trkpt lat="41.4532935" lon="13.1683841"><ele>211.4</ele><time>2026-04-02T13:27:12.049Z</time></trkpt><trkpt lat="41.453193" lon="13.1684424"><ele>211.0</ele><time>2026-04-02T13:27:13.049Z</time></trkpt><trkpt lat="41.4530927" lon="13.1684933"><ele>211.0</ele><time>2026-04-02T13:27:14.05Z</time></trkpt><trkpt lat="41.4529905" lon="13.1685454"><ele>211.0</ele><time>2026-04-02T13:27:15.049Z</time></trkpt><trkpt lat="41.45288" lon="13.1685838"><ele>211.0</ele><time>2026-04-02T13:27:16.054Z</time></trkpt><trkpt lat="41.4527687" lon="13.1686231"><ele>211.0</ele><time>2026-04-02T13:27:17.048Z</time></trkpt><trkpt lat="41.452652" lon="13.1686544"><ele>211.8</ele><time>2026-04-02T13:27:18.042Z</time></trkpt><trkpt lat="41.4525399" lon="13.1686892"><ele>212.60000000000002</ele><time>2026-04-02T13:27:19.048Z</time></trkpt><trkpt lat="41.4524384" lon="13.1687203"><ele>213.4</ele><time>2026-04-02T13:27:20.048Z</time></trkpt><trkpt lat="41.4523473" lon="13.168745"><ele>214.2</ele><time>2026-04-02T13:27:21.051Z</time></trkpt><trkpt lat="41.4522732" lon="13.1687752"><ele>215.0</ele><time>2026-04-02T13:27:22.053Z</time></trkpt><trkpt lat="41.4521958" lon="13.1688124"><ele>215.66666666666669</ele><time>2026-04-02T13:27:24.046Z</time></trkpt><trkpt lat="41.4521184" lon="13.1688479"><ele>216.33333333333334</ele><time>2026-04-02T13:27:29.046Z</time></trkpt><trkpt lat="41.4520337" lon="13.1688917"><ele>217.0</ele><time>2026-04-02T13:27:31.053Z</time></trkpt><trkpt lat="41.4519721" lon="13.1689238"><ele>217.66666666666669</ele><time>2026-04-02T13:27:32.055Z</time></trkpt><trkpt lat="41.4518982" lon="13.1689648"><ele>218.33333333333334</ele><time>2026-04-02T13:27:33.054Z</time></trkpt><trkpt lat="41.4518151" lon="13.1690102"><ele>219.0</ele><time>2026-04-02T13:27:34.048Z</time></trkpt><trkpt lat="41.4517414" lon="13.169046"><ele>219.0</ele><time>2026-04-02T13:27:35.044Z</time></trkpt><trkpt lat="41.4516788" lon="13.1690684"><ele>219.0</ele><time>2026-04-02T13:27:37.047Z</time></trkpt><trkpt lat="41.4515979" lon="13.1691166"><ele>219.0</ele><time>2026-04-02T13:27:43.052Z</time></trkpt><trkpt lat="41.4515353" lon="13.1691587"><ele>219.0</ele><time>2026-04-02T13:27:44.045Z</time></trkpt><trkpt lat="41.4514664" lon="13.1692044"><ele>219.0</ele><time>2026-04-02T13:27:45.069Z</time></trkpt><trkpt lat="41.4513813" lon="13.1692448"><ele>219.0</ele><time>2026-04-02T13:27:46.047Z</time></trkpt><trkpt lat="41.4512893" lon="13.1692899"><ele>218.25</ele><time>2026-04-02T13:27:47.043Z</time></trkpt><trkpt lat="41.4511845" lon="13.1693559"><ele>217.5</ele><time>2026-04-02T13:27:48.046Z</time></trkpt><trkpt lat="41.4510793" lon="13.1694209"><ele>216.75</ele><time>2026-04-02T13:27:49.051Z</time></trkpt><trkpt lat="41.4509777" lon="13.1694744"><ele>216.0</ele><time>2026-04-02T13:27:50.042Z</time></trkpt><trkpt lat="41.4508712" lon="13.1695333"><ele>216.0</ele><time>2026-04-02T13:27:51.043Z</time></trkpt><trkpt lat="41.4507741" lon="13.1695949"><ele>216.00000000000003</ele><time>2026-04-02T13:27:52.047Z</time></trkpt><trkpt lat="41.4506843" lon="13.16966"><ele>216.00000000000003</ele><time>2026-04-02T13:27:53.047Z</time></trkpt><trkpt lat="41.4505979" lon="13.1697286"><ele>216.0</ele><time>2026-04-02T13:27:54.048Z</time></trkpt><trkpt lat="41.4505254" lon="13.1697855"><ele>216.0</ele><time>2026-04-02T13:27:55.042Z</time></trkpt><trkpt lat="41.4504677" lon="13.1698486"><ele>213.66666666666666</ele><time>2026-04-02T13:27:56.044Z</time></trkpt><trkpt lat="41.4504021" lon="13.1699099"><ele>211.33333333333331</ele><time>2026-04-02T13:27:57.047Z</time></trkpt><trkpt lat="41.4503439" lon="13.1699707"><ele>209.0</ele><time>2026-04-02T13:27:58.042Z</time></trkpt><trkpt lat="41.4502892" lon="13.1700307"><ele>206.66666666666666</ele><time>2026-04-02T13:27:59.052Z</time></trkpt><trkpt lat="41.4502315" lon="13.1700874"><ele>204.33333333333331</ele><time>2026-04-02T13:28:00.045Z</time></trkpt><trkpt lat="41.4501403" lon="13.1701746"><ele>202.0</ele><time>2026-04-02T13:28:02.048Z</time></trkpt><trkpt lat="41.4500763" lon="13.1702384"><ele>202.0</ele><time>2026-04-02T13:28:04.054Z</time></trkpt><trkpt lat="41.4500015" lon="13.1703442"><ele>202.0</ele><time>2026-04-02T13:28:06.058Z</time></trkpt><trkpt lat="41.4499633" lon="13.1704254"><ele>202.0</ele><time>2026-04-02T13:28:07.047Z</time></trkpt><trkpt lat="41.4499232" lon="13.1705322"><ele>202.0</ele><time>2026-04-02T13:28:08.044Z</time></trkpt><trkpt lat="41.4498789" lon="13.170669"><ele>202.0</ele><time>2026-04-02T13:28:09.054Z</time></trkpt><trkpt lat="41.4498496" lon="13.1708124"><ele>199.8</ele><time>2026-04-02T13:28:10.044Z</time></trkpt><trkpt lat="41.4498296" lon="13.1709717"><ele>197.6</ele><time>2026-04-02T13:28:11.041Z</time></trkpt><trkpt lat="41.4498239" lon="13.1711175"><ele>195.4</ele><time>2026-04-02T13:28:12.045Z</time></trkpt><trkpt lat="41.4498336" lon="13.1712613"><ele>193.20000000000002</ele><time>2026-04-02T13:28:13.049Z</time></trkpt><trkpt lat="41.4498522" lon="13.1713988"><ele>191.0</ele><time>2026-04-02T13:28:14.049Z</time></trkpt><trkpt lat="41.4498731" lon="13.1715371"><ele>190.4</ele><time>2026-04-02T13:28:15.051Z</time></trkpt><trkpt lat="41.4498894" lon="13.1716821"><ele>189.8</ele><time>2026-04-02T13:28:16.044Z</time></trkpt><trkpt lat="41.4499044" lon="13.1718246"><ele>189.20000000000002</ele><time>2026-04-02T13:28:17.047Z</time></trkpt><trkpt lat="41.4499171" lon="13.1719663"><ele>188.60000000000002</ele><time>2026-04-02T13:28:18.046Z</time></trkpt><trkpt lat="41.4499296" lon="13.1721076"><ele>188.0</ele><time>2026-04-02T13:28:19.051Z</time></trkpt><trkpt lat="41.4499277" lon="13.1722484"><ele>187.75</ele><time>2026-04-02T13:28:20.046Z</time></trkpt><trkpt lat="41.4498924" lon="13.1723879"><ele>187.5</ele><time>2026-04-02T13:28:21.049Z</time></trkpt><trkpt lat="41.4498376" lon="13.1725432"><ele>187.25</ele><time>2026-04-02T13:28:22.045Z</time></trkpt><trkpt lat="41.4497811" lon="13.1727064"><ele>187.0</ele><time>2026-04-02T13:28:23.05Z</time></trkpt><trkpt lat="41.4497139" lon="13.1728545"><ele>187.0</ele><time>2026-04-02T13:28:24.052Z</time></trkpt><trkpt lat="41.4496511" lon="13.1729991"><ele>187.0</ele><time>2026-04-02T13:28:25.059Z</time></trkpt><trkpt lat="41.4495988" lon="13.1731368"><ele>187.0</ele><time>2026-04-02T13:28:26.054Z</time></trkpt><trkpt lat="41.4495512" lon="13.1732662"><ele>187.0</ele><time>2026-04-02T13:28:27.049Z</time></trkpt><trkpt lat="41.4495214" lon="13.1733885"><ele>187.0</ele><time>2026-04-02T13:28:28.055Z</time></trkpt><trkpt lat="41.4494989" lon="13.1735048"><ele>182.39999999999998</ele><time>2026-04-02T13:28:29.052Z</time></trkpt><trkpt lat="41.4494772" lon="13.1735996"><ele>177.79999999999998</ele><time>2026-04-02T13:28:30.05Z</time></trkpt><trkpt lat="41.4494097" lon="13.1737201"><ele>173.2</ele><time>2026-04-02T13:28:32.055Z</time></trkpt><trkpt lat="41.4493285" lon="13.1737371"><ele>168.6</ele><time>2026-04-02T13:28:34.044Z</time></trkpt><trkpt lat="41.4492716" lon="13.1736168"><ele>164.0</ele><time>2026-04-02T13:28:36.069Z</time></trkpt><trkpt lat="41.4492243" lon="13.173471"><ele>164.0</ele><time>2026-04-02T13:28:38.058Z</time></trkpt><trkpt lat="41.4491264" lon="13.1734524"><ele>164.0</ele><time>2026-04-02T13:28:40.058Z</time></trkpt><trkpt lat="41.4490634" lon="13.1735799"><ele>164.0</ele><time>2026-04-02T13:28:42.056Z</time></trkpt><trkpt lat="41.4490443" lon="13.1737473"><ele>164.0</ele><time>2026-04-02T13:28:44.055Z</time></trkpt><trkpt lat="41.4490315" lon="13.1738351"><ele>164.0</ele><time>2026-04-02T13:28:45.052Z</time></trkpt><trkpt lat="41.4490216" lon="13.173927"><ele>163.66666666666666</ele><time>2026-04-02T13:28:46.058Z</time></trkpt><trkpt lat="41.44901" lon="13.1740353"><ele>163.33333333333331</ele><time>2026-04-02T13:28:47.058Z</time></trkpt><trkpt lat="41.4489982" lon="13.1741363"><ele>163.0</ele><time>2026-04-02T13:28:48.054Z</time></trkpt><trkpt lat="41.4489627" lon="13.1742274"><ele>162.66666666666666</ele><time>2026-04-02T13:28:49.053Z</time></trkpt><trkpt lat="41.448913" lon="13.1743086"><ele>162.33333333333334</ele><time>2026-04-02T13:28:50.052Z</time></trkpt><trkpt lat="41.448852" lon="13.1743836"><ele>162.0</ele><time>2026-04-02T13:28:51.054Z</time></trkpt><trkpt lat="41.4487856" lon="13.1744579"><ele>159.5</ele><time>2026-04-02T13:28:52.05Z</time></trkpt><trkpt lat="41.4487227" lon="13.1745261"><ele>157.0</ele><time>2026-04-02T13:28:53.049Z</time></trkpt><trkpt lat="41.4486632" lon="13.1745912"><ele>154.5</ele><time>2026-04-02T13:28:54.051Z</time></trkpt><trkpt lat="41.4486098" lon="13.1746451"><ele>152.0</ele><time>2026-04-02T13:28:55.052Z</time></trkpt><trkpt lat="41.4485215" lon="13.1747041"><ele>149.5</ele><time>2026-04-02T13:28:57.051Z</time></trkpt><trkpt lat="41.4484715" lon="13.1745828"><ele>147.0</ele><time>2026-04-02T13:28:59.063Z</time></trkpt><trkpt lat="41.4485275" lon="13.17444"><ele>147.0</ele><time>2026-04-02T13:29:01.056Z</time></trkpt><trkpt lat="41.4485642" lon="13.1743667"><ele>147.0</ele><time>2026-04-02T13:29:02.046Z</time></trkpt><trkpt lat="41.4485672" lon="13.174278"><ele>147.0</ele><time>2026-04-02T13:29:03.046Z</time></trkpt><trkpt lat="41.4485674" lon="13.1741837"><ele>147.0</ele><time>2026-04-02T13:29:04.051Z</time></trkpt><trkpt lat="41.4485404" lon="13.1740963"><ele>147.0</ele><time>2026-04-02T13:29:05.053Z</time></trkpt><trkpt lat="41.4485145" lon="13.1740006"><ele>147.0</ele><time>2026-04-02T13:29:06.047Z</time></trkpt><trkpt lat="41.4484938" lon="13.1739054"><ele>147.0</ele><time>2026-04-02T13:29:07.055Z</time></trkpt><trkpt lat="41.4484341" lon="13.1737679"><ele>147.2</ele><time>2026-04-02T13:29:09.048Z</time></trkpt><trkpt lat="41.4483304" lon="13.1737054"><ele>147.39999999999998</ele><time>2026-04-02T13:29:11.048Z</time></trkpt><trkpt lat="41.4482707" lon="13.1737574"><ele>147.60000000000002</ele><time>2026-04-02T13:29:12.045Z</time></trkpt><trkpt lat="41.4482054" lon="13.1738278"><ele>147.8</ele><time>2026-04-02T13:29:13.052Z</time></trkpt><trkpt lat="41.448129" lon="13.1739024"><ele>148.0</ele><time>2026-04-02T13:29:14.046Z</time></trkpt><trkpt lat="41.4480338" lon="13.1739671"><ele>144.0</ele><time>2026-04-02T13:29:15.052Z</time></trkpt><trkpt lat="41.4479297" lon="13.1740333"><ele>140.0</ele><time>2026-04-02T13:29:16.045Z</time></trkpt><trkpt lat="41.4478151" lon="13.1740925"><ele>136.0</ele><time>2026-04-02T13:29:17.043Z</time></trkpt><trkpt lat="41.4477074" lon="13.1741486"><ele>132.0</ele><time>2026-04-02T13:29:18.057Z</time></trkpt><trkpt lat="41.4476089" lon="13.1742089"><ele>132.0</ele><time>2026-04-02T13:29:19.045Z</time></trkpt><trkpt lat="41.4475216" lon="13.1742584"><ele>132.0</ele><time>2026-04-02T13:29:20.047Z</time></trkpt><trkpt lat="41.447428" lon="13.1742889"><ele>132.0</ele><time>2026-04-02T13:29:21.05Z</time></trkpt><trkpt lat="41.4473325" lon="13.1743156"><ele>132.0</ele><time>2026-04-02T13:29:22.046Z</time></trkpt><trkpt lat="41.44723" lon="13.1743169"><ele>132.0</ele><time>2026-04-02T13:29:23.046Z</time></trkpt><trkpt lat="41.4471366" lon="13.174324"><ele>131.5</ele><time>2026-04-02T13:29:24.045Z</time></trkpt><trkpt lat="41.4470515" lon="13.1743306"><ele>131.0</ele><time>2026-04-02T13:29:25.049Z</time></trkpt><trkpt lat="41.4469781" lon="13.1743573"><ele>130.5</ele><time>2026-04-02T13:29:26.054Z</time></trkpt><trkpt lat="41.4469183" lon="13.1744143"><ele>130.0</ele><time>2026-04-02T13:29:27.05Z</time></trkpt><trkpt lat="41.4468719" lon="13.174491"><ele>129.5</ele><time>2026-04-02T13:29:28.054Z</time></trkpt><trkpt lat="41.4468425" lon="13.1745851"><ele>129.0</ele><time>2026-04-02T13:29:29.05Z</time></trkpt><trkpt lat="41.4468172" lon="13.1746925"><ele>129.0</ele><time>2026-04-02T13:29:30.064Z</time></trkpt><trkpt lat="41.4467865" lon="13.1748093"><ele>129.0</ele><time>2026-04-02T13:29:31.053Z</time></trkpt><trkpt lat="41.4467461" lon="13.1749344"><ele>129.0</ele><time>2026-04-02T13:29:32.051Z</time></trkpt><trkpt lat="41.4467047" lon="13.1750655"><ele>129.0</ele><time>2026-04-02T13:29:33.056Z</time></trkpt><trkpt lat="41.4466472" lon="13.1752021"><ele>129.0</ele><time>2026-04-02T13:29:34.055Z</time></trkpt><trkpt lat="41.4465826" lon="13.1753461"><ele>127.0</ele><time>2026-04-02T13:29:35.045Z</time></trkpt><trkpt lat="41.4465138" lon="13.1754877"><ele>125.0</ele><time>2026-04-02T13:29:36.047Z</time></trkpt><trkpt lat="41.4464411" lon="13.1756259"><ele>123.0</ele><time>2026-04-02T13:29:37.049Z</time></trkpt><trkpt lat="41.4463651" lon="13.1757623"><ele>121.0</ele><time>2026-04-02T13:29:38.048Z</time></trkpt><trkpt lat="41.4462862" lon="13.1758966"><ele>120.0</ele><time>2026-04-02T13:29:39.048Z</time></trkpt><trkpt lat="41.4461977" lon="13.1760234"><ele>119.0</ele><time>2026-04-02T13:29:40.053Z</time></trkpt><trkpt lat="41.4461023" lon="13.1761388"><ele>118.0</ele><time>2026-04-02T13:29:41.044Z</time></trkpt><trkpt lat="41.4460079" lon="13.1762522"><ele>117.0</ele><time>2026-04-02T13:29:42.058Z</time></trkpt><trkpt lat="41.4459328" lon="13.1763694"><ele>117.0</ele><time>2026-04-02T13:29:43.063Z</time></trkpt><trkpt lat="41.4458807" lon="13.1764929"><ele>116.99999999999999</ele><time>2026-04-02T13:29:44.054Z</time></trkpt><trkpt lat="41.4458479" lon="13.1766263"><ele>116.99999999999999</ele><time>2026-04-02T13:29:45.051Z</time></trkpt><trkpt lat="41.445827" lon="13.1767678"><ele>117.0</ele><time>2026-04-02T13:29:46.054Z</time></trkpt><trkpt lat="41.4458158" lon="13.1769152"><ele>117.0</ele><time>2026-04-02T13:29:47.052Z</time></trkpt><trkpt lat="41.4458133" lon="13.1770705"><ele>116.75</ele><time>2026-04-02T13:29:48.049Z</time></trkpt><trkpt lat="41.4458181" lon="13.177234"><ele>116.5</ele><time>2026-04-02T13:29:49.053Z</time></trkpt><trkpt lat="41.4458266" lon="13.1774064"><ele>116.25</ele><time>2026-04-02T13:29:50.048Z</time></trkpt><trkpt lat="41.4458354" lon="13.17758"><ele>116.0</ele><time>2026-04-02T13:29:51.051Z</time></trkpt><trkpt lat="41.4458494" lon="13.1777529"><ele>115.19999999999999</ele><time>2026-04-02T13:29:52.056Z</time></trkpt><trkpt lat="41.4458645" lon="13.1779036"><ele>114.39999999999999</ele><time>2026-04-02T13:29:53.048Z</time></trkpt><trkpt lat="41.4458808" lon="13.1780521"><ele>113.6</ele><time>2026-04-02T13:29:54.051Z</time></trkpt><trkpt lat="41.4458964" lon="13.1781945"><ele>112.8</ele><time>2026-04-02T13:29:55.054Z</time></trkpt><trkpt lat="41.4459099" lon="13.1783409"><ele>112.0</ele><time>2026-04-02T13:29:56.05Z</time></trkpt><trkpt lat="41.4459171" lon="13.1784898"><ele>112.0</ele><time>2026-04-02T13:29:57.053Z</time></trkpt><trkpt lat="41.4459181" lon="13.1786297"><ele>111.99999999999999</ele><time>2026-04-02T13:29:58.055Z</time></trkpt><trkpt lat="41.4459158" lon="13.1787635"><ele>111.99999999999999</ele><time>2026-04-02T13:29:59.053Z</time></trkpt><trkpt lat="41.4459145" lon="13.178895"><ele>112.0</ele><time>2026-04-02T13:30:00.052Z</time></trkpt><trkpt lat="41.4459154" lon="13.1790238"><ele>112.0</ele><time>2026-04-02T13:30:01.05Z</time></trkpt><trkpt lat="41.4459273" lon="13.1791521"><ele>112.39999999999999</ele><time>2026-04-02T13:30:02.051Z</time></trkpt><trkpt lat="41.4459464" lon="13.1792788"><ele>112.79999999999998</ele><time>2026-04-02T13:30:03.052Z</time></trkpt><trkpt lat="41.4459666" lon="13.179405"><ele>113.2</ele><time>2026-04-02T13:30:04.049Z</time></trkpt><trkpt lat="41.4459898" lon="13.1795352"><ele>113.6</ele><time>2026-04-02T13:30:05.048Z</time></trkpt><trkpt lat="41.446017" lon="13.179661"><ele>114.0</ele><time>2026-04-02T13:30:06.052Z</time></trkpt><trkpt lat="41.4460423" lon="13.1797788"><ele>113.4</ele><time>2026-04-02T13:30:07.054Z</time></trkpt><trkpt lat="41.4460788" lon="13.1798862"><ele>112.80000000000001</ele><time>2026-04-02T13:30:08.059Z</time></trkpt><trkpt lat="41.4461281" lon="13.1799902"><ele>112.19999999999999</ele><time>2026-04-02T13:30:09.049Z</time></trkpt><trkpt lat="41.4461833" lon="13.1800889"><ele>111.6</ele><time>2026-04-02T13:30:10.05Z</time></trkpt><trkpt lat="41.4462383" lon="13.1801843"><ele>111.0</ele><time>2026-04-02T13:30:11.051Z</time></trkpt><trkpt lat="41.4462898" lon="13.1802776"><ele>109.33333333333333</ele><time>2026-04-02T13:30:12.051Z</time></trkpt><trkpt lat="41.4463382" lon="13.1803682"><ele>107.66666666666666</ele><time>2026-04-02T13:30:13.047Z</time></trkpt><trkpt lat="41.446385" lon="13.1804511"><ele>106.0</ele><time>2026-04-02T13:30:14.049Z</time></trkpt><trkpt lat="41.4464302" lon="13.1805297"><ele>104.33333333333333</ele><time>2026-04-02T13:30:15.059Z</time></trkpt><trkpt lat="41.4464727" lon="13.1806022"><ele>102.66666666666666</ele><time>2026-04-02T13:30:16.047Z</time></trkpt><trkpt lat="41.4465081" lon="13.1806721"><ele>101.0</ele><time>2026-04-02T13:30:17.055Z</time></trkpt><trkpt lat="41.44657" lon="13.1807917"><ele>100.99999999999999</ele><time>2026-04-02T13:30:19.047Z</time></trkpt><trkpt lat="41.4466164" lon="13.1809012"><ele>101.0</ele><time>2026-04-02T13:30:21.057Z</time></trkpt><trkpt lat="41.4466307" lon="13.1809957"><ele>101.0</ele><time>2026-04-02T13:30:23.052Z</time></trkpt><trkpt lat="41.4466807" lon="13.1808959"><ele>101.0</ele><time>2026-04-02T13:30:32.045Z</time></trkpt><trkpt lat="41.4467502" lon="13.1808305"><ele>100.99999999999999</ele><time>2026-04-02T13:31:14.055Z</time></trkpt><trkpt lat="41.4468217" lon="13.1807647"><ele>101.0</ele><time>2026-04-02T13:31:16.043Z</time></trkpt><trkpt lat="41.446883" lon="13.1806929"><ele>100.66666666666666</ele><time>2026-04-02T13:31:19.053Z</time></trkpt><trkpt lat="41.446952" lon="13.180603"><ele>100.33333333333333</ele><time>2026-04-02T13:31:21.072Z</time></trkpt><trkpt lat="41.4470011" lon="13.1805477"><ele>100.0</ele><time>2026-04-02T13:31:22.064Z</time></trkpt><trkpt lat="41.4470581" lon="13.1804842"><ele>99.66666666666666</ele><time>2026-04-02T13:31:23.057Z</time></trkpt><trkpt lat="41.447117" lon="13.1804324"><ele>99.33333333333333</ele><time>2026-04-02T13:31:24.05Z</time></trkpt><trkpt lat="41.4471854" lon="13.180385"><ele>99.0</ele><time>2026-04-02T13:31:25.057Z</time></trkpt><trkpt lat="41.4472557" lon="13.1803452"><ele>99.0</ele><time>2026-04-02T13:31:26.041Z</time></trkpt><trkpt lat="41.4473199" lon="13.1803162"><ele>99.0</ele><time>2026-04-02T13:31:27.059Z</time></trkpt><trkpt lat="41.4473976" lon="13.1803067"><ele>99.0</ele><time>2026-04-02T13:31:29.052Z</time></trkpt><trkpt lat="41.4474731" lon="13.1803625"><ele>99.0</ele><time>2026-04-02T13:31:32.048Z</time></trkpt><trkpt lat="41.4475275" lon="13.1804137"><ele>99.0</ele><time>2026-04-02T13:31:35.06Z</time></trkpt><trkpt lat="41.4474833" lon="13.180347"><ele>99.0</ele><time>2026-04-02T13:31:44.056Z</time></trkpt><trkpt lat="41.4474104" lon="13.1803201"><ele>99.0</ele><time>2026-04-02T13:31:46.055Z</time></trkpt><trkpt lat="41.4473482" lon="13.1803006"><ele>99.0</ele><time>2026-04-02T13:31:48.059Z</time></trkpt><trkpt lat="41.4472725" lon="13.1803128"><ele>99.0</ele><time>2026-04-02T13:31:51.049Z</time></trkpt><trkpt lat="41.4472097" lon="13.1803757"><ele>99.0</ele><time>2026-04-02T13:31:59.054Z</time></trkpt><trkpt lat="41.4472877" lon="13.1803125"><ele>99.0</ele><time>2026-04-02T13:32:10.05Z</time></trkpt><trkpt lat="41.4473784" lon="13.180285"><ele>99.0</ele><time>2026-04-02T13:32:12.045Z</time></trkpt><trkpt lat="41.4474408" lon="13.1802382"><ele>99.0</ele><time>2026-04-02T13:32:16.052Z</time></trkpt><trkpt lat="41.4474994" lon="13.1801929"><ele>99.0</ele><time>2026-04-02T13:32:19.049Z</time></trkpt><trkpt lat="41.4474463" lon="13.1802464"><ele>99.0</ele><time>2026-04-02T13:32:31.044Z</time></trkpt><trkpt lat="41.4473512" lon="13.1802946"><ele>99.0</ele><time>2026-04-02T13:32:33.045Z</time></trkpt><trkpt lat="41.4472423" lon="13.1803439"><ele>99.0</ele><time>2026-04-02T13:32:35.05Z</time></trkpt><trkpt lat="41.4471839" lon="13.1803783"><ele>99.0</ele><time>2026-04-02T13:32:36.045Z</time></trkpt><trkpt lat="41.4471221" lon="13.1804186"><ele>99.0</ele><time>2026-04-02T13:32:37.046Z</time></trkpt><trkpt lat="41.447065" lon="13.1804665"><ele>98.66666666666667</ele><time>2026-04-02T13:32:38.053Z</time></trkpt><trkpt lat="41.4470097" lon="13.1805227"><ele>98.33333333333334</ele><time>2026-04-02T13:32:39.049Z</time></trkpt><trkpt lat="41.4469248" lon="13.1806251"><ele>98.0</ele><time>2026-04-02T13:32:41.046Z</time></trkpt><trkpt lat="41.4468632" lon="13.1806979"><ele>97.66666666666667</ele><time>2026-04-02T13:32:43.042Z</time></trkpt><trkpt lat="41.4467943" lon="13.1807794"><ele>97.33333333333334</ele><time>2026-04-02T13:32:46.05Z</time></trkpt><trkpt lat="41.4467183" lon="13.1807984"><ele>97.0</ele><time>2026-04-02T13:32:48.051Z</time></trkpt><trkpt lat="41.4466464" lon="13.1807939"><ele>97.00000000000001</ele><time>2026-04-02T13:32:50.051Z</time></trkpt><trkpt lat="41.4465714" lon="13.180755"><ele>97.0</ele><time>2026-04-02T13:32:52.044Z</time></trkpt><trkpt lat="41.4465251" lon="13.180694"><ele>97.0</ele><time>2026-04-02T13:32:53.051Z</time></trkpt><trkpt lat="41.44648" lon="13.180607"><ele>97.0</ele><time>2026-04-02T13:32:54.05Z</time></trkpt><trkpt lat="41.4464247" lon="13.1805101"><ele>97.00000000000001</ele><time>2026-04-02T13:32:55.047Z</time></trkpt><trkpt lat="41.4463641" lon="13.1804075"><ele>97.0</ele><time>2026-04-02T13:32:56.044Z</time></trkpt><trkpt lat="41.4463037" lon="13.1803007"><ele>99.8</ele><time>2026-04-02T13:32:57.049Z</time></trkpt><trkpt lat="41.4462444" lon="13.1801828"><ele>102.6</ele><time>2026-04-02T13:32:58.041Z</time></trkpt><trkpt lat="41.4461789" lon="13.1800569"><ele>105.39999999999999</ele><time>2026-04-02T13:32:59.046Z</time></trkpt><trkpt lat="41.4461171" lon="13.1799271"><ele>108.19999999999999</ele><time>2026-04-02T13:33:00.056Z</time></trkpt><trkpt lat="41.4460584" lon="13.1797993"><ele>111.0</ele><time>2026-04-02T13:33:01.049Z</time></trkpt><trkpt lat="41.4460101" lon="13.1796728"><ele>111.19999999999999</ele><time>2026-04-02T13:33:02.046Z</time></trkpt><trkpt lat="41.445973" lon="13.1795398"><ele>111.39999999999999</ele><time>2026-04-02T13:33:03.068Z</time></trkpt><trkpt lat="41.4459471" lon="13.17939"><ele>111.6</ele><time>2026-04-02T13:33:04.068Z</time></trkpt><trkpt lat="41.4459237" lon="13.1792454"><ele>111.8</ele><time>2026-04-02T13:33:05.044Z</time></trkpt><trkpt lat="41.445912" lon="13.1791056"><ele>112.0</ele><time>2026-04-02T13:33:06.048Z</time></trkpt><trkpt lat="41.4459064" lon="13.1789689"><ele>112.0</ele><time>2026-04-02T13:33:07.042Z</time></trkpt><trkpt lat="41.4459072" lon="13.1788345"><ele>111.99999999999999</ele><time>2026-04-02T13:33:08.044Z</time></trkpt><trkpt lat="41.4459009" lon="13.1786975"><ele>111.99999999999999</ele><time>2026-04-02T13:33:09.049Z</time></trkpt><trkpt lat="41.4459059" lon="13.1785517"><ele>112.0</ele><time>2026-04-02T13:33:10.051Z</time></trkpt><trkpt lat="41.4459042" lon="13.1784108"><ele>112.0</ele><time>2026-04-02T13:33:11.046Z</time></trkpt><trkpt lat="41.4458968" lon="13.1782657"><ele>112.0</ele><time>2026-04-02T13:33:12.051Z</time></trkpt><trkpt lat="41.4458834" lon="13.1781215"><ele>112.0</ele><time>2026-04-02T13:33:13.044Z</time></trkpt><trkpt lat="41.445869" lon="13.1779764"><ele>112.0</ele><time>2026-04-02T13:33:14.052Z</time></trkpt><trkpt lat="41.445854" lon="13.1778255"><ele>112.0</ele><time>2026-04-02T13:33:15.048Z</time></trkpt><trkpt lat="41.4458403" lon="13.1776614"><ele>112.0</ele><time>2026-04-02T13:33:16.049Z</time></trkpt><trkpt lat="41.4458277" lon="13.1774995"><ele>112.0</ele><time>2026-04-02T13:33:17.047Z</time></trkpt><trkpt lat="41.445818" lon="13.1773355"><ele>112.0</ele><time>2026-04-02T13:33:18.09Z</time></trkpt><trkpt lat="41.4458094" lon="13.1771729"><ele>112.0</ele><time>2026-04-02T13:33:19.052Z</time></trkpt><trkpt lat="41.4458062" lon="13.1770042"><ele>112.8</ele><time>2026-04-02T13:33:20.047Z</time></trkpt><trkpt lat="41.4458021" lon="13.1768484"><ele>113.6</ele><time>2026-04-02T13:33:21.052Z</time></trkpt><trkpt lat="41.4458136" lon="13.1767167"><ele>114.39999999999999</ele><time>2026-04-02T13:33:22.05Z</time></trkpt><trkpt lat="41.4458381" lon="13.176594"><ele>115.19999999999999</ele><time>2026-04-02T13:33:23.052Z</time></trkpt><trkpt lat="41.4458703" lon="13.1764787"><ele>116.0</ele><time>2026-04-02T13:33:24.047Z</time></trkpt><trkpt lat="41.4459139" lon="13.1763763"><ele>116.19999999999999</ele><time>2026-04-02T13:33:25.052Z</time></trkpt><trkpt lat="41.4459726" lon="13.1762868"><ele>116.39999999999999</ele><time>2026-04-02T13:33:26.051Z</time></trkpt><trkpt lat="41.4460428" lon="13.1762044"><ele>116.6</ele><time>2026-04-02T13:33:27.056Z</time></trkpt><trkpt lat="41.4461166" lon="13.1761187"><ele>116.8</ele><time>2026-04-02T13:33:28.052Z</time></trkpt><trkpt lat="41.4461895" lon="13.1760258"><ele>117.0</ele><time>2026-04-02T13:33:29.044Z</time></trkpt><trkpt lat="41.4462612" lon="13.1759225"><ele>118.0</ele><time>2026-04-02T13:33:30.055Z</time></trkpt><trkpt lat="41.4463289" lon="13.1758129"><ele>119.0</ele><time>2026-04-02T13:33:31.042Z</time></trkpt><trkpt lat="41.4463971" lon="13.1756949"><ele>120.0</ele><time>2026-04-02T13:33:32.051Z</time></trkpt><trkpt lat="41.4464645" lon="13.175568"><ele>121.0</ele><time>2026-04-02T13:33:33.051Z</time></trkpt><trkpt lat="41.446534" lon="13.1754358"><ele>121.0</ele><time>2026-04-02T13:33:34.048Z</time></trkpt><trkpt lat="41.446605" lon="13.1752997"><ele>121.0</ele><time>2026-04-02T13:33:35.042Z</time></trkpt><trkpt lat="41.4509032" lon="13.1695366"><ele>140.0</ele><time>2026-04-02T13:35:32.048Z</time></trkpt><trkpt lat="41.4510003" lon="13.1694817"><ele>159.0</ele><time>2026-04-02T13:35:33.045Z</time></trkpt><trkpt lat="41.4511082" lon="13.1694224"><ele>178.00000000000003</ele><time>2026-04-02T13:35:34.037Z</time></trkpt><trkpt lat="41.451204" lon="13.1693655"><ele>197.0</ele><time>2026-04-02T13:35:35.049Z</time></trkpt><trkpt lat="41.4513037" lon="13.1693086"><ele>216.0</ele><time>2026-04-02T13:35:36.037Z</time></trkpt><trkpt lat="41.4513983" lon="13.1692582"><ele>216.60000000000002</ele><time>2026-04-02T13:35:37.049Z</time></trkpt><trkpt lat="41.4514888" lon="13.1692173"><ele>217.20000000000002</ele><time>2026-04-02T13:35:38.039Z</time></trkpt><trkpt lat="41.4515596" lon="13.1691798"><ele>217.79999999999998</ele><time>2026-04-02T13:35:39.042Z</time></trkpt><trkpt lat="41.4516557" lon="13.1691169"><ele>218.39999999999998</ele><time>2026-04-02T13:35:41.046Z</time></trkpt><trkpt lat="41.4516566" lon="13.1690228"><ele>219.0</ele><time>2026-04-02T13:35:43.064Z</time></trkpt><trkpt lat="41.4515463" lon="13.1688165"><ele>219.5</ele><time>2026-04-02T13:35:46.048Z</time></trkpt><trkpt lat="41.4514999" lon="13.1687434"><ele>220.0</ele><time>2026-04-02T13:35:47.042Z</time></trkpt><trkpt lat="41.4514456" lon="13.1686652"><ele>220.5</ele><time>2026-04-02T13:35:48.04Z</time></trkpt><trkpt lat="41.4513858" lon="13.1685808"><ele>221.0</ele><time>2026-04-02T13:35:49.056Z</time></trkpt><trkpt lat="41.4513328" lon="13.1684935"><ele>221.5</ele><time>2026-04-02T13:35:50.051Z</time></trkpt><trkpt lat="41.4512786" lon="13.1684045"><ele>222.0</ele><time>2026-04-02T13:35:51.045Z</time></trkpt><trkpt lat="41.4512281" lon="13.1683089"><ele>223.0</ele><time>2026-04-02T13:35:52.048Z</time></trkpt><trkpt lat="41.4511823" lon="13.1682143"><ele>224.0</ele><time>2026-04-02T13:35:53.043Z</time></trkpt><trkpt lat="41.4511383" lon="13.1681209"><ele>225.0</ele><time>2026-04-02T13:35:54.05Z</time></trkpt><trkpt lat="41.4510962" lon="13.1680359"><ele>226.0</ele><time>2026-04-02T13:35:55.055Z</time></trkpt><trkpt lat="41.4510589" lon="13.1679518"><ele>227.0</ele><time>2026-04-02T13:35:56.042Z</time></trkpt><trkpt lat="41.4510163" lon="13.1678698"><ele>228.0</ele><time>2026-04-02T13:35:57.056Z</time></trkpt><trkpt lat="41.4509794" lon="13.167798"><ele>228.4</ele><time>2026-04-02T13:35:58.04Z</time></trkpt><trkpt lat="41.4509145" lon="13.1676789"><ele>228.8</ele><time>2026-04-02T13:36:00.046Z</time></trkpt><trkpt lat="41.4508485" lon="13.1676418"><ele>229.2</ele><time>2026-04-02T13:36:02.061Z</time></trkpt><trkpt lat="41.4507368" lon="13.1676586"><ele>229.6</ele><time>2026-04-02T13:36:04.053Z</time></trkpt><trkpt lat="41.4505902" lon="13.1676788"><ele>230.0</ele><time>2026-04-02T13:36:06.045Z</time></trkpt><trkpt lat="41.4505148" lon="13.1676909"><ele>228.0</ele><time>2026-04-02T13:36:07.042Z</time></trkpt><trkpt lat="41.4504422" lon="13.1676926"><ele>226.0</ele><time>2026-04-02T13:36:08.051Z</time></trkpt><trkpt lat="41.4503468" lon="13.1676744"><ele>224.0</ele><time>2026-04-02T13:36:10.045Z</time></trkpt><trkpt lat="41.4502552" lon="13.1676175"><ele>222.0</ele><time>2026-04-02T13:36:12.082Z</time></trkpt><trkpt lat="41.4501613" lon="13.1675554"><ele>220.0</ele><time>2026-04-02T13:36:14.053Z</time></trkpt><trkpt lat="41.4500921" lon="13.1675058"><ele>220.0</ele><time>2026-04-02T13:36:16.047Z</time></trkpt><trkpt lat="41.4500699" lon="13.1674228"><ele>220.0</ele><time>2026-04-02T13:36:19.041Z</time></trkpt><trkpt lat="41.4500898" lon="13.1675101"><ele>220.0</ele><time>2026-04-02T13:36:29.047Z</time></trkpt><trkpt lat="41.4502891" lon="13.1676548"><ele>220.0</ele><time>2026-04-02T13:36:33.051Z</time></trkpt><trkpt lat="41.450349" lon="13.1676829"><ele>220.0</ele><time>2026-04-02T13:36:34.049Z</time></trkpt><trkpt lat="41.450473" lon="13.1677119"><ele>221.66666666666666</ele><time>2026-04-02T13:36:36.049Z</time></trkpt><trkpt lat="41.4505448" lon="13.1677012"><ele>223.33333333333331</ele><time>2026-04-02T13:36:37.046Z</time></trkpt><trkpt lat="41.4506134" lon="13.1676902"><ele>225.0</ele><time>2026-04-02T13:36:38.044Z</time></trkpt><trkpt lat="41.4507286" lon="13.1676646"><ele>226.66666666666669</ele><time>2026-04-02T13:36:40.046Z</time></trkpt><trkpt lat="41.4508257" lon="13.1676627"><ele>228.33333333333334</ele><time>2026-04-02T13:36:42.052Z</time></trkpt><trkpt lat="41.450906" lon="13.1677006"><ele>230.0</ele><time>2026-04-02T13:36:44.05Z</time></trkpt><trkpt lat="41.4509671" lon="13.1677926"><ele>230.0</ele><time>2026-04-02T13:36:46.051Z</time></trkpt><trkpt lat="41.4510303" lon="13.1679208"><ele>230.0</ele><time>2026-04-02T13:36:48.046Z</time></trkpt><trkpt lat="41.4510911" lon="13.1680426"><ele>230.0</ele><time>2026-04-02T13:36:50.049Z</time></trkpt><trkpt lat="41.4512107" lon="13.168281"><ele>230.0</ele><time>2026-04-02T13:36:54.045Z</time></trkpt><trkpt lat="41.4512828" lon="13.168396"><ele>228.85714285714283</ele><time>2026-04-02T13:36:56.046Z</time></trkpt><trkpt lat="41.4513279" lon="13.1684619"><ele>227.71428571428572</ele><time>2026-04-02T13:36:57.039Z</time></trkpt><trkpt lat="41.4513776" lon="13.1685371"><ele>226.57142857142856</ele><time>2026-04-02T13:36:58.041Z</time></trkpt><trkpt lat="41.4514318" lon="13.1686159"><ele>225.42857142857142</ele><time>2026-04-02T13:36:59.047Z</time></trkpt><trkpt lat="41.4514843" lon="13.1686982"><ele>224.28571428571428</ele><time>2026-04-02T13:37:00.045Z</time></trkpt><trkpt lat="41.4515376" lon="13.168774"><ele>223.14285714285714</ele><time>2026-04-02T13:37:01.047Z</time></trkpt><trkpt lat="41.4515833" lon="13.1688411"><ele>222.0</ele><time>2026-04-02T13:37:02.04Z</time></trkpt><trkpt lat="41.451635" lon="13.1689578"><ele>222.0</ele><time>2026-04-02T13:37:04.038Z</time></trkpt><trkpt lat="41.4516651" lon="13.169036"><ele>222.0</ele><time>2026-04-02T13:37:06.055Z</time></trkpt><trkpt lat="41.4517285" lon="13.1690908"><ele>222.0</ele><time>2026-04-02T13:37:10.042Z</time></trkpt><trkpt lat="41.4518122" lon="13.1690384"><ele>222.0</ele><time>2026-04-02T13:37:12.049Z</time></trkpt><trkpt lat="41.4520056" lon="13.1689234"><ele>222.0</ele><time>2026-04-02T13:37:15.044Z</time></trkpt><trkpt lat="41.45207" lon="13.1688896"><ele>220.25</ele><time>2026-04-02T13:37:16.045Z</time></trkpt><trkpt lat="41.4521677" lon="13.1688568"><ele>218.5</ele><time>2026-04-02T13:37:18.052Z</time></trkpt><trkpt lat="41.4523322" lon="13.1687685"><ele>216.75</ele><time>2026-04-02T13:38:11.043Z</time></trkpt><trkpt lat="41.4524308" lon="13.1686938"><ele>215.0</ele><time>2026-04-02T13:38:13.043Z</time></trkpt><trkpt lat="41.4525142" lon="13.1686582"><ele>215.0</ele><time>2026-04-02T13:38:14.039Z</time></trkpt><trkpt lat="41.452617" lon="13.1686266"><ele>215.0</ele><time>2026-04-02T13:38:15.039Z</time></trkpt><trkpt lat="41.4527224" lon="13.168599"><ele>215.0</ele><time>2026-04-02T13:38:16.037Z</time></trkpt><trkpt lat="41.4528339" lon="13.168567"><ele>215.0</ele><time>2026-04-02T13:38:17.056Z</time></trkpt><trkpt lat="41.4529566" lon="13.1685016"><ele>214.0</ele><time>2026-04-02T13:38:18.037Z</time></trkpt><trkpt lat="41.4530767" lon="13.1684541"><ele>213.0</ele><time>2026-04-02T13:38:19.044Z</time></trkpt><trkpt lat="41.4532052" lon="13.1683954"><ele>212.0</ele><time>2026-04-02T13:38:20.038Z</time></trkpt><trkpt lat="41.4533346" lon="13.1683348"><ele>211.0</ele><time>2026-04-02T13:38:21.044Z</time></trkpt><trkpt lat="41.453469" lon="13.1682645"><ele>211.0</ele><time>2026-04-02T13:38:22.044Z</time></trkpt><trkpt lat="41.4536019" lon="13.1681947"><ele>211.0</ele><time>2026-04-02T13:38:23.043Z</time></trkpt><trkpt lat="41.4537299" lon="13.1681132"><ele>211.0</ele><time>2026-04-02T13:38:24.041Z</time></trkpt><trkpt lat="41.4538552" lon="13.1680259"><ele>211.0</ele><time>2026-04-02T13:38:25.049Z</time></trkpt><trkpt lat="41.4539741" lon="13.1679396"><ele>211.5</ele><time>2026-04-02T13:38:26.049Z</time></trkpt><trkpt lat="41.4540842" lon="13.1678573"><ele>212.0</ele><time>2026-04-02T13:38:27.048Z</time></trkpt><trkpt lat="41.4541912" lon="13.1677829"><ele>212.5</ele><time>2026-04-02T13:38:28.069Z</time></trkpt><trkpt lat="41.4542909" lon="13.1677057"><ele>213.0</ele><time>2026-04-02T13:38:29.04Z</time></trkpt><trkpt lat="41.4543814" lon="13.1676353"><ele>213.0</ele><time>2026-04-02T13:38:30.045Z</time></trkpt><trkpt lat="41.4544665" lon="13.1675698"><ele>213.0</ele><time>2026-04-02T13:38:31.042Z</time></trkpt><trkpt lat="41.4545539" lon="13.1675001"><ele>213.0</ele><time>2026-04-02T13:38:32.044Z</time></trkpt><trkpt lat="41.4546381" lon="13.1674333"><ele>213.0</ele><time>2026-04-02T13:38:33.047Z</time></trkpt><trkpt lat="41.4547203" lon="13.1673647"><ele>213.0</ele><time>2026-04-02T13:38:34.057Z</time></trkpt><trkpt lat="41.4548078" lon="13.1672939"><ele>210.60000000000002</ele><time>2026-04-02T13:38:35.051Z</time></trkpt><trkpt lat="41.4549066" lon="13.1672486"><ele>208.20000000000002</ele><time>2026-04-02T13:38:36.044Z</time></trkpt><trkpt lat="41.4550053" lon="13.1672042"><ele>205.8</ele><time>2026-04-02T13:38:37.057Z</time></trkpt><trkpt lat="41.4551108" lon="13.167157"><ele>203.4</ele><time>2026-04-02T13:38:38.053Z</time></trkpt><trkpt lat="41.4552136" lon="13.1671099"><ele>201.0</ele><time>2026-04-02T13:38:39.111Z</time></trkpt><trkpt lat="41.4553126" lon="13.1670649"><ele>201.0</ele><time>2026-04-02T13:38:40.053Z</time></trkpt><trkpt lat="41.4554097" lon="13.1670186"><ele>201.0</ele><time>2026-04-02T13:38:41.045Z</time></trkpt><trkpt lat="41.4555078" lon="13.1669705"><ele>201.0</ele><time>2026-04-02T13:38:42.054Z</time></trkpt><trkpt lat="41.4556015" lon="13.1669268"><ele>201.0</ele><time>2026-04-02T13:38:43.056Z</time></trkpt><trkpt lat="41.4557057" lon="13.166889"><ele>201.0</ele><time>2026-04-02T13:38:44.048Z</time></trkpt><trkpt lat="41.4558076" lon="13.1668585"><ele>199.8</ele><time>2026-04-02T13:38:45.055Z</time></trkpt><trkpt lat="41.4559087" lon="13.1668596"><ele>198.60000000000002</ele><time>2026-04-02T13:38:46.055Z</time></trkpt><trkpt lat="41.4559922" lon="13.1668745"><ele>197.4</ele><time>2026-04-02T13:38:47.053Z</time></trkpt><trkpt lat="41.4560832" lon="13.1668918"><ele>196.2</ele><time>2026-04-02T13:38:48.054Z</time></trkpt><trkpt lat="41.4561794" lon="13.1669079"><ele>195.0</ele><time>2026-04-02T13:38:49.053Z</time></trkpt><trkpt lat="41.4562732" lon="13.1669167"><ele>193.4</ele><time>2026-04-02T13:38:50.062Z</time></trkpt><trkpt lat="41.4563668" lon="13.1668995"><ele>191.8</ele><time>2026-04-02T13:38:51.06Z</time></trkpt><trkpt lat="41.4564658" lon="13.166874"><ele>190.2</ele><time>2026-04-02T13:38:52.049Z</time></trkpt><trkpt lat="41.4565679" lon="13.1668507"><ele>188.6</ele><time>2026-04-02T13:38:53.053Z</time></trkpt><trkpt lat="41.4566722" lon="13.1668147"><ele>187.0</ele><time>2026-04-02T13:38:54.046Z</time></trkpt><trkpt lat="41.4567923" lon="13.1667677"><ele>187.0</ele><time>2026-04-02T13:38:55.046Z</time></trkpt><trkpt lat="41.4569116" lon="13.1667241"><ele>187.0</ele><time>2026-04-02T13:38:56.045Z</time></trkpt><trkpt lat="41.4570286" lon="13.1666968"><ele>187.0</ele><time>2026-04-02T13:38:57.046Z</time></trkpt><trkpt lat="41.4571413" lon="13.1666837"><ele>187.0</ele><time>2026-04-02T13:38:58.052Z</time></trkpt><trkpt lat="41.4572532" lon="13.1666729"><ele>184.5</ele><time>2026-04-02T13:38:59.046Z</time></trkpt><trkpt lat="41.4573698" lon="13.1666624"><ele>182.0</ele><time>2026-04-02T13:39:00.044Z</time></trkpt><trkpt lat="41.4574804" lon="13.1666534"><ele>179.5</ele><time>2026-04-02T13:39:01.051Z</time></trkpt><trkpt lat="41.4575947" lon="13.1666445"><ele>177.0</ele><time>2026-04-02T13:39:02.048Z</time></trkpt><trkpt lat="41.4577189" lon="13.1666282"><ele>177.0</ele><time>2026-04-02T13:39:03.039Z</time></trkpt><trkpt lat="41.45784" lon="13.1666117"><ele>177.0</ele><time>2026-04-02T13:39:04.047Z</time></trkpt><trkpt lat="41.4579493" lon="13.1665962"><ele>177.0</ele><time>2026-04-02T13:39:05.041Z</time></trkpt><trkpt lat="41.4580449" lon="13.1665921"><ele>177.0</ele><time>2026-04-02T13:39:06.038Z</time></trkpt><trkpt lat="41.4581247" lon="13.1665908"><ele>177.0</ele><time>2026-04-02T13:39:07.068Z</time></trkpt><trkpt lat="41.4582283" lon="13.1665416"><ele>176.2</ele><time>2026-04-02T13:39:09.044Z</time></trkpt><trkpt lat="41.4582507" lon="13.166395"><ele>175.39999999999998</ele><time>2026-04-02T13:39:11.052Z</time></trkpt><trkpt lat="41.4582233" lon="13.1662938"><ele>174.60000000000002</ele><time>2026-04-02T13:39:12.051Z</time></trkpt><trkpt lat="41.4581815" lon="13.1661854"><ele>173.8</ele><time>2026-04-02T13:39:13.049Z</time></trkpt><trkpt lat="41.4581328" lon="13.1660696"><ele>173.0</ele><time>2026-04-02T13:39:14.043Z</time></trkpt><trkpt lat="41.4580817" lon="13.165937"><ele>173.0</ele><time>2026-04-02T13:39:15.049Z</time></trkpt><trkpt lat="41.4580286" lon="13.1657934"><ele>173.0</ele><time>2026-04-02T13:39:16.053Z</time></trkpt><trkpt lat="41.4579685" lon="13.1656394"><ele>173.0</ele><time>2026-04-02T13:39:17.05Z</time></trkpt><trkpt lat="41.4579041" lon="13.1654737"><ele>173.0</ele><time>2026-04-02T13:39:18.046Z</time></trkpt><trkpt lat="41.4578411" lon="13.1653131"><ele>175.0</ele><time>2026-04-02T13:39:19.06Z</time></trkpt><trkpt lat="41.4577761" lon="13.1651519"><ele>177.0</ele><time>2026-04-02T13:39:20.045Z</time></trkpt><trkpt lat="41.4577104" lon="13.1649819"><ele>179.0</ele><time>2026-04-02T13:39:21.049Z</time></trkpt><trkpt lat="41.4576437" lon="13.1648082"><ele>181.0</ele><time>2026-04-02T13:39:22.048Z</time></trkpt><trkpt lat="41.4575761" lon="13.1646371"><ele>181.0</ele><time>2026-04-02T13:39:23.045Z</time></trkpt><trkpt lat="41.4575134" lon="13.1644739"><ele>181.0</ele><time>2026-04-02T13:39:24.068Z</time></trkpt><trkpt lat="41.4574563" lon="13.1643227"><ele>181.0</ele><time>2026-04-02T13:39:25.054Z</time></trkpt><trkpt lat="41.4574003" lon="13.1641746"><ele>181.0</ele><time>2026-04-02T13:39:26.044Z</time></trkpt><trkpt lat="41.4573448" lon="13.1640304"><ele>180.75</ele><time>2026-04-02T13:39:27.052Z</time></trkpt><trkpt lat="41.457285" lon="13.1638921"><ele>180.5</ele><time>2026-04-02T13:39:28.059Z</time></trkpt><trkpt lat="41.457212" lon="13.1637675"><ele>180.25</ele><time>2026-04-02T13:39:29.055Z</time></trkpt><trkpt lat="41.457139" lon="13.1636441"><ele>180.0</ele><time>2026-04-02T13:39:30.054Z</time></trkpt><trkpt lat="41.4570266" lon="13.1635604"><ele>180.0</ele><time>2026-04-02T13:39:31.048Z</time></trkpt><trkpt lat="41.4568965" lon="13.1634951"><ele>180.0</ele><time>2026-04-02T13:39:32.044Z</time></trkpt><trkpt lat="41.4567546" lon="13.1634344"><ele>180.0</ele><time>2026-04-02T13:39:33.068Z</time></trkpt><trkpt lat="41.4566048" lon="13.1633746"><ele>180.0</ele><time>2026-04-02T13:39:34.046Z</time></trkpt><trkpt lat="41.4564536" lon="13.1633139"><ele>180.0</ele><time>2026-04-02T13:39:35.04Z</time></trkpt><trkpt lat="41.4563022" lon="13.1632565"><ele>180.0</ele><time>2026-04-02T13:39:36.04Z</time></trkpt><trkpt lat="41.4561444" lon="13.1632032"><ele>180.0</ele><time>2026-04-02T13:39:37.058Z</time></trkpt><trkpt lat="41.4559716" lon="13.1631792"><ele>181.0</ele><time>2026-04-02T13:39:38.042Z</time></trkpt><trkpt lat="41.4557994" lon="13.1631708"><ele>182.0</ele><time>2026-04-02T13:39:39.043Z</time></trkpt><trkpt lat="41.4556287" lon="13.1631757"><ele>183.0</ele><time>2026-04-02T13:39:40.04Z</time></trkpt><trkpt lat="41.4554583" lon="13.1631832"><ele>184.0</ele><time>2026-04-02T13:39:41.039Z</time></trkpt><trkpt lat="41.455288" lon="13.1631811"><ele>185.0</ele><time>2026-04-02T13:39:42.041Z</time></trkpt><trkpt lat="41.4551177" lon="13.16318"><ele>186.0</ele><time>2026-04-02T13:39:43.064Z</time></trkpt><trkpt lat="41.4549422" lon="13.163149"><ele>186.0</ele><time>2026-04-02T13:39:44.046Z</time></trkpt><trkpt lat="41.4547781" lon="13.1631089"><ele>186.0</ele><time>2026-04-02T13:39:45.044Z</time></trkpt><trkpt lat="41.4546371" lon="13.1630582"><ele>186.0</ele><time>2026-04-02T13:39:46.058Z</time></trkpt><trkpt lat="41.4544967" lon="13.1629964"><ele>185.5</ele><time>2026-04-02T13:39:47.066Z</time></trkpt><trkpt lat="41.4543523" lon="13.1629461"><ele>185.0</ele><time>2026-04-02T13:39:48.046Z</time></trkpt><trkpt lat="41.4542028" lon="13.1629075"><ele>184.5</ele><time>2026-04-02T13:39:49.062Z</time></trkpt><trkpt lat="41.4540613" lon="13.1628846"><ele>184.0</ele><time>2026-04-02T13:39:50.047Z</time></trkpt><trkpt lat="41.4539342" lon="13.1628659"><ele>184.0</ele><time>2026-04-02T13:39:51.043Z</time></trkpt><trkpt lat="41.4538217" lon="13.1628296"><ele>184.0</ele><time>2026-04-02T13:39:52.043Z</time></trkpt><trkpt lat="41.453724" lon="13.1627757"><ele>184.0</ele><time>2026-04-02T13:39:53.054Z</time></trkpt><trkpt lat="41.4536414" lon="13.1627008"><ele>184.0</ele><time>2026-04-02T13:39:54.042Z</time></trkpt><trkpt lat="41.453578" lon="13.1626176"><ele>184.0</ele><time>2026-04-02T13:39:55.05Z</time></trkpt><trkpt lat="41.4535377" lon="13.162531"><ele>185.16666666666669</ele><time>2026-04-02T13:39:56.044Z</time></trkpt><trkpt lat="41.453515" lon="13.1624469"><ele>186.33333333333334</ele><time>2026-04-02T13:39:57.044Z</time></trkpt><trkpt lat="41.4535025" lon="13.1623616"><ele>187.5</ele><time>2026-04-02T13:39:58.058Z</time></trkpt><trkpt lat="41.4534891" lon="13.1622764"><ele>188.66666666666666</ele><time>2026-04-02T13:39:59.045Z</time></trkpt><trkpt lat="41.4534643" lon="13.1621854"><ele>189.83333333333331</ele><time>2026-04-02T13:40:00.047Z</time></trkpt><trkpt lat="41.4534196" lon="13.162086"><ele>191.0</ele><time>2026-04-02T13:40:01.042Z</time></trkpt><trkpt lat="41.4533605" lon="13.1619794"><ele>192.0</ele><time>2026-04-02T13:40:02.04Z</time></trkpt><trkpt lat="41.4532997" lon="13.1618733"><ele>193.0</ele><time>2026-04-02T13:40:03.041Z</time></trkpt><trkpt lat="41.4532478" lon="13.161776"><ele>194.0</ele><time>2026-04-02T13:40:04.062Z</time></trkpt><trkpt lat="41.4532059" lon="13.1616861"><ele>195.0</ele><time>2026-04-02T13:40:05.042Z</time></trkpt><trkpt lat="41.4531809" lon="13.1615879"><ele>196.00000000000003</ele><time>2026-04-02T13:40:06.044Z</time></trkpt><trkpt lat="41.4531696" lon="13.1614807"><ele>197.0</ele><time>2026-04-02T13:40:07.044Z</time></trkpt><trkpt lat="41.4531708" lon="13.1613577"><ele>198.39999999999998</ele><time>2026-04-02T13:40:08.045Z</time></trkpt><trkpt lat="41.4531673" lon="13.1612234"><ele>199.79999999999998</ele><time>2026-04-02T13:40:09.048Z</time></trkpt><trkpt lat="41.453152" lon="13.1610922"><ele>201.2</ele><time>2026-04-02T13:40:10.046Z</time></trkpt><trkpt lat="41.4531206" lon="13.1609753"><ele>202.6</ele><time>2026-04-02T13:40:11.042Z</time></trkpt><trkpt lat="41.4530731" lon="13.1608665"><ele>204.0</ele><time>2026-04-02T13:40:12.053Z</time></trkpt><trkpt lat="41.4530167" lon="13.1607681"><ele>205.0</ele><time>2026-04-02T13:40:13.044Z</time></trkpt><trkpt lat="41.452966" lon="13.1606949"><ele>206.0</ele><time>2026-04-02T13:40:14.054Z</time></trkpt><trkpt lat="41.4529105" lon="13.1606032"><ele>207.0</ele><time>2026-04-02T13:40:16.044Z</time></trkpt><trkpt lat="41.4529744" lon="13.1605242"><ele>208.0</ele><time>2026-04-02T13:40:19.046Z</time></trkpt><trkpt lat="41.4530717" lon="13.1604907"><ele>209.0</ele><time>2026-04-02T13:40:21.043Z</time></trkpt><trkpt lat="41.4531445" lon="13.1604852"><ele>210.0</ele><time>2026-04-02T13:40:22.058Z</time></trkpt><trkpt lat="41.4532272" lon="13.1604654"><ele>210.0</ele><time>2026-04-02T13:40:23.045Z</time></trkpt><trkpt lat="41.4533064" lon="13.1604226"><ele>210.0</ele><time>2026-04-02T13:40:24.041Z</time></trkpt><trkpt lat="41.4533897" lon="13.1603804"><ele>210.0</ele><time>2026-04-02T13:40:25.053Z</time></trkpt><trkpt lat="41.4534594" lon="13.1603635"><ele>210.0</ele><time>2026-04-02T13:40:26.046Z</time></trkpt><trkpt lat="41.4535499" lon="13.1603605"><ele>210.0</ele><time>2026-04-02T13:40:27.043Z</time></trkpt><trkpt lat="41.4536466" lon="13.1603884"><ele>210.0</ele><time>2026-04-02T13:40:28.04Z</time></trkpt><trkpt lat="41.4537367" lon="13.1604133"><ele>211.0</ele><time>2026-04-02T13:40:29.051Z</time></trkpt><trkpt lat="41.4538407" lon="13.1604305"><ele>212.0</ele><time>2026-04-02T13:40:30.04Z</time></trkpt><trkpt lat="41.453942" lon="13.1604459"><ele>213.0</ele><time>2026-04-02T13:40:31.044Z</time></trkpt><trkpt lat="41.4540369" lon="13.1604687"><ele>214.0</ele><time>2026-04-02T13:40:32.041Z</time></trkpt><trkpt lat="41.4541309" lon="13.1604678"><ele>215.0</ele><time>2026-04-02T13:40:33.047Z</time></trkpt><trkpt lat="41.4542228" lon="13.1604839"><ele>215.00000000000003</ele><time>2026-04-02T13:40:34.046Z</time></trkpt><trkpt lat="41.4543083" lon="13.160509"><ele>215.0</ele><time>2026-04-02T13:40:35.044Z</time></trkpt><trkpt lat="41.454395" lon="13.160518"><ele>215.0</ele><time>2026-04-02T13:40:36.048Z</time></trkpt><trkpt lat="41.4544783" lon="13.1605397"><ele>215.0</ele><time>2026-04-02T13:40:37.056Z</time></trkpt><trkpt lat="41.4545567" lon="13.1605691"><ele>215.00000000000003</ele><time>2026-04-02T13:40:38.05Z</time></trkpt><trkpt lat="41.4546408" lon="13.1606022"><ele>215.0</ele><time>2026-04-02T13:40:39.053Z</time></trkpt><trkpt lat="41.4547151" lon="13.1606064"><ele>214.66666666666669</ele><time>2026-04-02T13:40:40.048Z</time></trkpt><trkpt lat="41.4547992" lon="13.160619"><ele>214.33333333333334</ele><time>2026-04-02T13:40:41.071Z</time></trkpt><trkpt lat="41.4548903" lon="13.1606327"><ele>214.0</ele><time>2026-04-02T13:40:42.045Z</time></trkpt><trkpt lat="41.4549714" lon="13.1606565"><ele>213.66666666666669</ele><time>2026-04-02T13:40:43.044Z</time></trkpt><trkpt lat="41.4550611" lon="13.1606842"><ele>213.33333333333334</ele><time>2026-04-02T13:40:44.044Z</time></trkpt><trkpt lat="41.4551368" lon="13.16071"><ele>213.0</ele><time>2026-04-02T13:40:45.05Z</time></trkpt><trkpt lat="41.4552065" lon="13.1607271"><ele>211.83333333333334</ele><time>2026-04-02T13:40:46.047Z</time></trkpt><trkpt lat="41.4552738" lon="13.1607234"><ele>210.66666666666669</ele><time>2026-04-02T13:40:47.05Z</time></trkpt><trkpt lat="41.4553907" lon="13.160766"><ele>209.5</ele><time>2026-04-02T13:40:49.045Z</time></trkpt><trkpt lat="41.4554509" lon="13.1608244"><ele>208.33333333333334</ele><time>2026-04-02T13:40:50.042Z</time></trkpt><trkpt lat="41.4555015" lon="13.1608769"><ele>207.16666666666669</ele><time>2026-04-02T13:40:51.062Z</time></trkpt><trkpt lat="41.455551" lon="13.1609556"><ele>206.0</ele><time>2026-04-02T13:40:52.049Z</time></trkpt><trkpt lat="41.4556032" lon="13.1610452"><ele>204.8</ele><time>2026-04-02T13:40:53.047Z</time></trkpt><trkpt lat="41.4556468" lon="13.1611113"><ele>203.60000000000002</ele><time>2026-04-02T13:40:54.049Z</time></trkpt><trkpt lat="41.45573" lon="13.1611983"><ele>202.4</ele><time>2026-04-02T13:40:56.054Z</time></trkpt><trkpt lat="41.4557978" lon="13.1612634"><ele>201.2</ele><time>2026-04-02T13:40:58.05Z</time></trkpt><trkpt lat="41.4558876" lon="13.161231"><ele>200.0</ele><time>2026-04-02T13:41:00.063Z</time></trkpt><trkpt lat="41.455949" lon="13.1611222"><ele>200.0</ele><time>2026-04-02T13:41:02.046Z</time></trkpt><trkpt lat="41.4559906" lon="13.1610586"><ele>200.0</ele><time>2026-04-02T13:41:03.048Z</time></trkpt><trkpt lat="41.456078" lon="13.1609696"><ele>200.0</ele><time>2026-04-02T13:41:05.049Z</time></trkpt><trkpt lat="41.4561108" lon="13.1608488"><ele>200.0</ele><time>2026-04-02T13:41:07.068Z</time></trkpt><trkpt lat="41.4561364" lon="13.1606862"><ele>200.0</ele><time>2026-04-02T13:41:09.048Z</time></trkpt><trkpt lat="41.4561528" lon="13.1606018"><ele>200.66666666666669</ele><time>2026-04-02T13:41:10.065Z</time></trkpt><trkpt lat="41.4561823" lon="13.1604925"><ele>201.33333333333334</ele><time>2026-04-02T13:41:12.046Z</time></trkpt><trkpt lat="41.4561965" lon="13.1603966"><ele>202.0</ele><time>2026-04-02T13:41:14.053Z</time></trkpt><trkpt lat="41.4562393" lon="13.1602764"><ele>202.66666666666669</ele><time>2026-04-02T13:41:20.05Z</time></trkpt><trkpt lat="41.456237" lon="13.1601922"><ele>203.33333333333334</ele><time>2026-04-02T13:41:21.054Z</time></trkpt><trkpt lat="41.456247" lon="13.1600707"><ele>204.0</ele><time>2026-04-02T13:41:24.058Z</time></trkpt><trkpt lat="41.4562494" lon="13.159971"><ele>203.66666666666666</ele><time>2026-04-02T13:41:26.055Z</time></trkpt><trkpt lat="41.4562538" lon="13.1598642"><ele>203.33333333333331</ele><time>2026-04-02T13:41:28.047Z</time></trkpt><trkpt lat="41.4562804" lon="13.1597377"><ele>203.0</ele><time>2026-04-02T13:41:34.047Z</time></trkpt><trkpt lat="41.4563159" lon="13.1595881"><ele>202.66666666666666</ele><time>2026-04-02T13:41:39.043Z</time></trkpt><trkpt lat="41.4563118" lon="13.1594958"><ele>202.33333333333331</ele><time>2026-04-02T13:41:40.047Z</time></trkpt><trkpt lat="41.4563003" lon="13.1593945"><ele>202.0</ele><time>2026-04-02T13:42:33.052Z</time></trkpt><trkpt lat="41.4562924" lon="13.159288"><ele>201.33333333333331</ele><time>2026-04-02T13:42:36.059Z</time></trkpt><trkpt lat="41.4562886" lon="13.1591544"><ele>200.66666666666666</ele><time>2026-04-02T13:42:39.054Z</time></trkpt><trkpt lat="41.4563204" lon="13.1590497"><ele>200.0</ele><time>2026-04-02T13:42:41.049Z</time></trkpt><trkpt lat="41.4563547" lon="13.1589669"><ele>199.33333333333331</ele><time>2026-04-02T13:42:43.046Z</time></trkpt><trkpt lat="41.4564055" lon="13.1588815"><ele>198.66666666666666</ele><time>2026-04-02T13:42:45.049Z</time></trkpt><trkpt lat="41.4564649" lon="13.1587616"><ele>198.0</ele><time>2026-04-02T13:42:47.058Z</time></trkpt><trkpt lat="41.4564946" lon="13.1586836"><ele>198.0</ele><time>2026-04-02T13:42:48.04Z</time></trkpt><trkpt lat="41.4565175" lon="13.1585912"><ele>198.0</ele><time>2026-04-02T13:42:49.041Z</time></trkpt><trkpt lat="41.456563" lon="13.1584599"><ele>198.0</ele><time>2026-04-02T13:42:51.055Z</time></trkpt><trkpt lat="41.4566397" lon="13.1583682"><ele>198.0</ele><time>2026-04-02T13:42:53.054Z</time></trkpt><trkpt lat="41.4567202" lon="13.1582892"><ele>198.0</ele><time>2026-04-02T13:42:55.046Z</time></trkpt><trkpt lat="41.4567921" lon="13.1582032"><ele>198.2</ele><time>2026-04-02T13:42:57.049Z</time></trkpt><trkpt lat="41.4568596" lon="13.1581144"><ele>198.4</ele><time>2026-04-02T13:42:59.056Z</time></trkpt><trkpt lat="41.4569388" lon="13.1580084"><ele>198.6</ele><time>2026-04-02T13:43:01.049Z</time></trkpt><trkpt lat="41.4570208" lon="13.1579056"><ele>198.79999999999998</ele><time>2026-04-02T13:43:03.045Z</time></trkpt><trkpt lat="41.4570691" lon="13.1578454"><ele>199.0</ele><time>2026-04-02T13:43:04.049Z</time></trkpt><trkpt lat="41.4571414" lon="13.1577339"><ele>198.99999999999997</ele><time>2026-04-02T13:43:06.054Z</time></trkpt><trkpt lat="41.4571725" lon="13.1576321"><ele>199.0</ele><time>2026-04-02T13:43:08.048Z</time></trkpt><trkpt lat="41.4571272" lon="13.1575438"><ele>199.0</ele><time>2026-04-02T13:43:20.055Z</time></trkpt><trkpt lat="41.4570722" lon="13.1574496"><ele>199.0</ele><time>2026-04-02T13:43:22.048Z</time></trkpt><trkpt lat="41.4570314" lon="13.1573579"><ele>198.99999999999997</ele><time>2026-04-02T13:43:24.049Z</time></trkpt><trkpt lat="41.4569767" lon="13.1572508"><ele>199.0</ele><time>2026-04-02T13:43:26.042Z</time></trkpt><trkpt lat="41.4569301" lon="13.1571302"><ele>198.66666666666666</ele><time>2026-04-02T13:43:28.052Z</time></trkpt><trkpt lat="41.4569079" lon="13.1570375"><ele>198.33333333333331</ele><time>2026-04-02T13:43:29.05Z</time></trkpt><trkpt lat="41.4568982" lon="13.1569527"><ele>198.0</ele><time>2026-04-02T13:43:30.045Z</time></trkpt><trkpt lat="41.4568931" lon="13.1568627"><ele>197.66666666666669</ele><time>2026-04-02T13:43:31.051Z</time></trkpt><trkpt lat="41.4568828" lon="13.1567771"><ele>197.33333333333334</ele><time>2026-04-02T13:43:32.041Z</time></trkpt><trkpt lat="41.4568677" lon="13.1566067"><ele>197.0</ele><time>2026-04-02T13:43:34.05Z</time></trkpt><trkpt lat="41.4568611" lon="13.1565222"><ele>197.0</ele><time>2026-04-02T13:43:35.046Z</time></trkpt><trkpt lat="41.4568644" lon="13.1563768"><ele>197.0</ele><time>2026-04-02T13:43:37.045Z</time></trkpt><trkpt lat="41.4568847" lon="13.1562513"><ele>197.0</ele><time>2026-04-02T13:43:39.044Z</time></trkpt><trkpt lat="41.4569281" lon="13.156139"><ele>197.0</ele><time>2026-04-02T13:43:41.041Z</time></trkpt><trkpt lat="41.4569703" lon="13.1560607"><ele>197.0</ele><time>2026-04-02T13:43:42.051Z</time></trkpt><trkpt lat="41.4570212" lon="13.1559714"><ele>197.00000000000003</ele><time>2026-04-02T13:43:43.042Z</time></trkpt><trkpt lat="41.4570597" lon="13.1558903"><ele>197.0</ele><time>2026-04-02T13:43:44.04Z</time></trkpt><trkpt lat="41.4570979" lon="13.1558081"><ele>197.0</ele><time>2026-04-02T13:43:45.054Z</time></trkpt><trkpt lat="41.4571364" lon="13.155711"><ele>197.0</ele><time>2026-04-02T13:43:46.04Z</time></trkpt><trkpt lat="41.4571717" lon="13.1556041"><ele>197.00000000000003</ele><time>2026-04-02T13:43:47.036Z</time></trkpt><trkpt lat="41.4572057" lon="13.155492"><ele>197.0</ele><time>2026-04-02T13:43:48.058Z</time></trkpt><trkpt lat="41.457239" lon="13.1553708"><ele>195.14285714285714</ele><time>2026-04-02T13:43:49.042Z</time></trkpt><trkpt lat="41.4572621" lon="13.1552653"><ele>193.28571428571428</ele><time>2026-04-02T13:43:50.045Z</time></trkpt><trkpt lat="41.4572685" lon="13.1551598"><ele>191.42857142857144</ele><time>2026-04-02T13:43:51.055Z</time></trkpt><trkpt lat="41.4572593" lon="13.155053"><ele>189.57142857142856</ele><time>2026-04-02T13:43:52.05Z</time></trkpt><trkpt lat="41.4572601" lon="13.1549512"><ele>187.7142857142857</ele><time>2026-04-02T13:43:53.046Z</time></trkpt><trkpt lat="41.45726" lon="13.1548666"><ele>185.85714285714286</ele><time>2026-04-02T13:43:54.055Z</time></trkpt><trkpt lat="41.457271" lon="13.154779"><ele>184.0</ele><time>2026-04-02T13:43:55.047Z</time></trkpt><trkpt lat="41.4573293" lon="13.1546353"><ele>184.0</ele><time>2026-04-02T13:43:57.045Z</time></trkpt><trkpt lat="41.4574145" lon="13.1545311"><ele>184.0</ele><time>2026-04-02T13:43:59.048Z</time></trkpt><trkpt lat="41.4574686" lon="13.1544169"><ele>184.0</ele><time>2026-04-02T13:44:01.049Z</time></trkpt><trkpt lat="41.4574644" lon="13.1542697"><ele>184.0</ele><time>2026-04-02T13:44:03.048Z</time></trkpt><trkpt lat="41.4574428" lon="13.1541842"><ele>184.0</ele><time>2026-04-02T13:44:04.065Z</time></trkpt><trkpt lat="41.4574178" lon="13.1540981"><ele>185.16666666666669</ele><time>2026-04-02T13:44:05.047Z</time></trkpt><trkpt lat="41.4573956" lon="13.1540194"><ele>186.33333333333334</ele><time>2026-04-02T13:44:06.052Z</time></trkpt><trkpt lat="41.4573836" lon="13.1538927"><ele>187.5</ele><time>2026-04-02T13:44:08.051Z</time></trkpt><trkpt lat="41.4574067" lon="13.1537765"><ele>188.66666666666666</ele><time>2026-04-02T13:44:10.046Z</time></trkpt><trkpt lat="41.4573647" lon="13.1536938"><ele>189.83333333333331</ele><time>2026-04-02T13:44:12.053Z</time></trkpt><trkpt lat="41.4572979" lon="13.1535668"><ele>191.0</ele><time>2026-04-02T13:44:14.051Z</time></trkpt><trkpt lat="41.4572432" lon="13.1534699"><ele>191.0</ele><time>2026-04-02T13:44:15.044Z</time></trkpt><trkpt lat="41.4571829" lon="13.1533791"><ele>191.0</ele><time>2026-04-02T13:44:16.042Z</time></trkpt><trkpt lat="41.4571291" lon="13.1532739"><ele>191.0</ele><time>2026-04-02T13:44:17.041Z</time></trkpt><trkpt lat="41.4570895" lon="13.1531796"><ele>191.0</ele><time>2026-04-02T13:44:18.041Z</time></trkpt><trkpt lat="41.4570473" lon="13.1530844"><ele>191.0</ele><time>2026-04-02T13:44:19.039Z</time></trkpt><trkpt lat="41.4570138" lon="13.1529853"><ele>191.0</ele><time>2026-04-02T13:44:20.047Z</time></trkpt><trkpt lat="41.4569803" lon="13.1528874"><ele>191.0</ele><time>2026-04-02T13:44:21.043Z</time></trkpt><trkpt lat="41.4569454" lon="13.1527516"><ele>191.0</ele><time>2026-04-02T13:44:22.057Z</time></trkpt><trkpt lat="41.4569186" lon="13.1525965"><ele>191.0</ele><time>2026-04-02T13:44:23.045Z</time></trkpt><trkpt lat="41.4568863" lon="13.1524596"><ele>191.0</ele><time>2026-04-02T13:44:24.041Z</time></trkpt><trkpt lat="41.4568477" lon="13.1523305"><ele>191.0</ele><time>2026-04-02T13:44:25.044Z</time></trkpt><trkpt lat="41.4567969" lon="13.1521996"><ele>191.0</ele><time>2026-04-02T13:44:26.047Z</time></trkpt><trkpt lat="41.4567603" lon="13.1520879"><ele>191.0</ele><time>2026-04-02T13:44:27.038Z</time></trkpt><trkpt lat="41.4567325" lon="13.1519768"><ele>191.0</ele><time>2026-04-02T13:44:28.054Z</time></trkpt><trkpt lat="41.4567095" lon="13.1518637"><ele>191.0</ele><time>2026-04-02T13:44:29.063Z</time></trkpt><trkpt lat="41.4566865" lon="13.1517524"><ele>191.0</ele><time>2026-04-02T13:44:30.059Z</time></trkpt><trkpt lat="41.456659" lon="13.1516084"><ele>190.5</ele><time>2026-04-02T13:44:32.05Z</time></trkpt><trkpt lat="41.4565753" lon="13.1515111"><ele>190.0</ele><time>2026-04-02T13:44:34.049Z</time></trkpt><trkpt lat="41.4565092" lon="13.1514648"><ele>189.5</ele><time>2026-04-02T13:44:35.049Z</time></trkpt><trkpt lat="41.456455" lon="13.1514149"><ele>189.0</ele><time>2026-04-02T13:44:36.061Z</time></trkpt><trkpt lat="41.4563967" lon="13.1513654"><ele>188.5</ele><time>2026-04-02T13:44:37.057Z</time></trkpt><trkpt lat="41.4563472" lon="13.1512857"><ele>188.0</ele><time>2026-04-02T13:44:39.044Z</time></trkpt><trkpt lat="41.4563954" lon="13.1512119"><ele>188.0</ele><time>2026-04-02T13:44:41.058Z</time></trkpt><trkpt lat="41.4564261" lon="13.1510501"><ele>188.0</ele><time>2026-04-02T13:44:43.045Z</time></trkpt><trkpt lat="41.4564239" lon="13.1509492"><ele>188.0</ele><time>2026-04-02T13:44:44.058Z</time></trkpt><trkpt lat="41.4564169" lon="13.1508266"><ele>188.0</ele><time>2026-04-02T13:44:45.049Z</time></trkpt><trkpt lat="41.4564092" lon="13.1506936"><ele>188.0</ele><time>2026-04-02T13:44:46.055Z</time></trkpt><trkpt lat="41.4564053" lon="13.1505469"><ele>187.25</ele><time>2026-04-02T13:44:47.042Z</time></trkpt><trkpt lat="41.4564053" lon="13.1503817"><ele>186.5</ele><time>2026-04-02T13:44:48.053Z</time></trkpt><trkpt lat="41.4564052" lon="13.1502157"><ele>185.75</ele><time>2026-04-02T13:44:49.053Z</time></trkpt><trkpt lat="41.4564062" lon="13.1500547"><ele>185.0</ele><time>2026-04-02T13:44:50.046Z</time></trkpt><trkpt lat="41.4564071" lon="13.1499061"><ele>184.66666666666666</ele><time>2026-04-02T13:44:51.052Z</time></trkpt><trkpt lat="41.4564166" lon="13.1497745"><ele>184.33333333333331</ele><time>2026-04-02T13:44:52.04Z</time></trkpt><trkpt lat="41.456426" lon="13.1496689"><ele>184.0</ele><time>2026-04-02T13:44:53.045Z</time></trkpt><trkpt lat="41.4564677" lon="13.1495856"><ele>183.66666666666666</ele><time>2026-04-02T13:44:54.081Z</time></trkpt><trkpt lat="41.4565277" lon="13.149538"><ele>183.33333333333334</ele><time>2026-04-02T13:44:55.046Z</time></trkpt><trkpt lat="41.4565921" lon="13.1494866"><ele>183.0</ele><time>2026-04-02T13:44:56.053Z</time></trkpt><trkpt lat="41.4566725" lon="13.1494344"><ele>183.0</ele><time>2026-04-02T13:44:57.043Z</time></trkpt><trkpt lat="41.4567407" lon="13.1493628"><ele>183.0</ele><time>2026-04-02T13:44:58.045Z</time></trkpt><trkpt lat="41.4568124" lon="13.149282"><ele>183.0</ele><time>2026-04-02T13:44:59.041Z</time></trkpt><trkpt lat="41.4568494" lon="13.1491508"><ele>183.0</ele><time>2026-04-02T13:45:00.045Z</time></trkpt><trkpt lat="41.4568869" lon="13.1490076"><ele>183.0</ele><time>2026-04-02T13:45:01.046Z</time></trkpt><trkpt lat="41.4569018" lon="13.1488354"><ele>181.5</ele><time>2026-04-02T13:45:02.043Z</time></trkpt><trkpt lat="41.456921" lon="13.1486429"><ele>180.0</ele><time>2026-04-02T13:45:03.046Z</time></trkpt><trkpt lat="41.4569335" lon="13.1484554"><ele>178.5</ele><time>2026-04-02T13:45:04.053Z</time></trkpt><trkpt lat="41.4569547" lon="13.1482543"><ele>177.0</ele><time>2026-04-02T13:45:05.052Z</time></trkpt><trkpt lat="41.4569754" lon="13.1480501"><ele>175.25</ele><time>2026-04-02T13:45:06.05Z</time></trkpt><trkpt lat="41.456993" lon="13.1478505"><ele>173.5</ele><time>2026-04-02T13:45:07.045Z</time></trkpt><trkpt lat="41.4570135" lon="13.1476545"><ele>171.75</ele><time>2026-04-02T13:45:08.058Z</time></trkpt><trkpt lat="41.4570373" lon="13.1474617"><ele>170.0</ele><time>2026-04-02T13:45:09.052Z</time></trkpt><trkpt lat="41.4570681" lon="13.1472721"><ele>167.66666666666666</ele><time>2026-04-02T13:45:10.046Z</time></trkpt><trkpt lat="41.4571092" lon="13.1470808"><ele>165.33333333333334</ele><time>2026-04-02T13:45:11.049Z</time></trkpt><trkpt lat="41.4571627" lon="13.1468909"><ele>163.0</ele><time>2026-04-02T13:45:12.049Z</time></trkpt><trkpt lat="41.4572276" lon="13.1467032"><ele>169.0</ele><time>2026-04-02T13:45:13.047Z</time></trkpt><trkpt lat="41.4572964" lon="13.1465213"><ele>175.0</ele><time>2026-04-02T13:45:14.038Z</time></trkpt><trkpt lat="41.4573692" lon="13.146342"><ele>181.0</ele><time>2026-04-02T13:45:15.045Z</time></trkpt><trkpt lat="41.4574487" lon="13.146171"><ele>181.0</ele><time>2026-04-02T13:45:16.044Z</time></trkpt><trkpt lat="41.4575396" lon="13.1460083"><ele>181.0</ele><time>2026-04-02T13:45:17.059Z</time></trkpt><trkpt lat="41.4576311" lon="13.1458501"><ele>181.0</ele><time>2026-04-02T13:45:18.042Z</time></trkpt><trkpt lat="41.4577339" lon="13.145693"><ele>184.0</ele><time>2026-04-02T13:45:19.051Z</time></trkpt><trkpt lat="41.4578379" lon="13.1455319"><ele>187.0</ele><time>2026-04-02T13:45:20.042Z</time></trkpt><trkpt lat="41.4579436" lon="13.1453817"><ele>190.0</ele><time>2026-04-02T13:45:21.058Z</time></trkpt><trkpt lat="41.4580541" lon="13.1452271"><ele>190.0</ele><time>2026-04-02T13:45:22.048Z</time></trkpt><trkpt lat="41.4581574" lon="13.1450739"><ele>190.0</ele><time>2026-04-02T13:45:23.052Z</time></trkpt><trkpt lat="41.4582627" lon="13.1449255"><ele>190.0</ele><time>2026-04-02T13:45:24.043Z</time></trkpt><trkpt lat="41.4583696" lon="13.1447741"><ele>187.0</ele><time>2026-04-02T13:45:25.065Z</time></trkpt><trkpt lat="41.4584651" lon="13.1446395"><ele>184.0</ele><time>2026-04-02T13:45:26.047Z</time></trkpt><trkpt lat="41.4585504" lon="13.144508"><ele>181.0</ele><time>2026-04-02T13:45:27.049Z</time></trkpt><trkpt lat="41.4586177" lon="13.1443565"><ele>178.0</ele><time>2026-04-02T13:45:28.053Z</time></trkpt><trkpt lat="41.4586847" lon="13.1441918"><ele>175.25</ele><time>2026-04-02T13:45:29.047Z</time></trkpt><trkpt lat="41.4587322" lon="13.1440013"><ele>172.5</ele><time>2026-04-02T13:45:30.045Z</time></trkpt><trkpt lat="41.4587686" lon="13.1438173"><ele>169.75</ele><time>2026-04-02T13:45:31.059Z</time></trkpt><trkpt lat="41.458818" lon="13.1436278"><ele>167.0</ele><time>2026-04-02T13:45:32.05Z</time></trkpt><trkpt lat="41.4588722" lon="13.1434541"><ele>175.0</ele><time>2026-04-02T13:45:33.042Z</time></trkpt><trkpt lat="41.4589318" lon="13.1432684"><ele>183.0</ele><time>2026-04-02T13:45:34.053Z</time></trkpt><trkpt lat="41.4589891" lon="13.1430745"><ele>191.0</ele><time>2026-04-02T13:45:35.048Z</time></trkpt><trkpt lat="41.4590452" lon="13.1428698"><ele>191.0</ele><time>2026-04-02T13:45:36.047Z</time></trkpt><trkpt lat="41.4590876" lon="13.1426705"><ele>191.0</ele><time>2026-04-02T13:45:37.046Z</time></trkpt><trkpt lat="41.4591388" lon="13.142459"><ele>191.0</ele><time>2026-04-02T13:45:38.054Z</time></trkpt><trkpt lat="41.4591861" lon="13.1422479"><ele>187.33333333333331</ele><time>2026-04-02T13:45:39.046Z</time></trkpt><trkpt lat="41.4592356" lon="13.1420361"><ele>183.66666666666666</ele><time>2026-04-02T13:45:40.037Z</time></trkpt><trkpt lat="41.4592977" lon="13.141815"><ele>180.0</ele><time>2026-04-02T13:45:41.04Z</time></trkpt><trkpt lat="41.4593667" lon="13.1415829"><ele>176.66666666666666</ele><time>2026-04-02T13:45:42.054Z</time></trkpt><trkpt lat="41.4594307" lon="13.1413679"><ele>173.33333333333331</ele><time>2026-04-02T13:45:43.039Z</time></trkpt><trkpt lat="41.4595022" lon="13.141162"><ele>170.0</ele><time>2026-04-02T13:45:44.044Z</time></trkpt><trkpt lat="41.459572" lon="13.1409563"><ele>175.33333333333331</ele><time>2026-04-02T13:45:45.047Z</time></trkpt><trkpt lat="41.4596485" lon="13.1407559"><ele>180.66666666666666</ele><time>2026-04-02T13:45:46.058Z</time></trkpt><trkpt lat="41.4597295" lon="13.1405599"><ele>186.0</ele><time>2026-04-02T13:45:47.047Z</time></trkpt><trkpt lat="41.4598246" lon="13.1403641"><ele>186.0</ele><time>2026-04-02T13:45:48.043Z</time></trkpt><trkpt lat="41.4599272" lon="13.1401644"><ele>186.0</ele><time>2026-04-02T13:45:49.057Z</time></trkpt><trkpt lat="41.4600292" lon="13.1399718"><ele>186.0</ele><time>2026-04-02T13:45:50.05Z</time></trkpt><trkpt lat="41.4601301" lon="13.1397739"><ele>182.33333333333334</ele><time>2026-04-02T13:45:51.047Z</time></trkpt><trkpt lat="41.460234" lon="13.1395809"><ele>178.66666666666669</ele><time>2026-04-02T13:45:52.049Z</time></trkpt><trkpt lat="41.4603372" lon="13.1393921"><ele>175.0</ele><time>2026-04-02T13:45:53.045Z</time></trkpt><trkpt lat="41.4604372" lon="13.1392034"><ele>179.0</ele><time>2026-04-02T13:45:54.053Z</time></trkpt><trkpt lat="41.4605361" lon="13.1390246"><ele>183.0</ele><time>2026-04-02T13:45:55.051Z</time></trkpt><trkpt lat="41.4606349" lon="13.1388344"><ele>187.0</ele><time>2026-04-02T13:45:56.056Z</time></trkpt><trkpt lat="41.4607313" lon="13.1386499"><ele>187.0</ele><time>2026-04-02T13:45:57.055Z</time></trkpt><trkpt lat="41.4608291" lon="13.1384696"><ele>187.0</ele><time>2026-04-02T13:45:58.051Z</time></trkpt><trkpt lat="41.4609292" lon="13.138299"><ele>187.0</ele><time>2026-04-02T13:45:59.066Z</time></trkpt><trkpt lat="41.4610387" lon="13.1381233"><ele>191.66666666666669</ele><time>2026-04-02T13:46:00.048Z</time></trkpt><trkpt lat="41.461148" lon="13.1379487"><ele>196.33333333333334</ele><time>2026-04-02T13:46:01.054Z</time></trkpt><trkpt lat="41.4612585" lon="13.1377758"><ele>201.0</ele><time>2026-04-02T13:46:02.052Z</time></trkpt><trkpt lat="41.4613686" lon="13.1376094"><ele>201.0</ele><time>2026-04-02T13:46:03.046Z</time></trkpt><trkpt lat="41.4614787" lon="13.1374301"><ele>201.0</ele><time>2026-04-02T13:46:04.068Z</time></trkpt><trkpt lat="41.4615933" lon="13.137262"><ele>201.0</ele><time>2026-04-02T13:46:05.053Z</time></trkpt><trkpt lat="41.461711" lon="13.1370905"><ele>194.33333333333334</ele><time>2026-04-02T13:46:06.046Z</time></trkpt><trkpt lat="41.4618262" lon="13.1369201"><ele>187.66666666666669</ele><time>2026-04-02T13:46:07.042Z</time></trkpt><trkpt lat="41.4619397" lon="13.1367507"><ele>181.0</ele><time>2026-04-02T13:46:08.042Z</time></trkpt><trkpt lat="41.4620541" lon="13.1365872"><ele>185.66666666666669</ele><time>2026-04-02T13:46:09.04Z</time></trkpt><trkpt lat="41.4621687" lon="13.1364162"><ele>190.33333333333334</ele><time>2026-04-02T13:46:10.043Z</time></trkpt><trkpt lat="41.4622786" lon="13.1362487"><ele>195.0</ele><time>2026-04-02T13:46:11.059Z</time></trkpt><trkpt lat="41.4623839" lon="13.1360777"><ele>195.0</ele><time>2026-04-02T13:46:12.04Z</time></trkpt><trkpt lat="41.462482" lon="13.1358918"><ele>195.0</ele><time>2026-04-02T13:46:13.041Z</time></trkpt><trkpt lat="41.4625723" lon="13.1356888"><ele>195.0</ele><time>2026-04-02T13:46:14.046Z</time></trkpt><trkpt lat="41.4626596" lon="13.1354773"><ele>191.66666666666666</ele><time>2026-04-02T13:46:15.061Z</time></trkpt><trkpt lat="41.4627464" lon="13.1352625"><ele>188.33333333333331</ele><time>2026-04-02T13:46:16.042Z</time></trkpt><trkpt lat="41.462834" lon="13.1350454"><ele>185.0</ele><time>2026-04-02T13:46:17.049Z</time></trkpt><trkpt lat="41.4629204" lon="13.1348295"><ele>191.0</ele><time>2026-04-02T13:46:18.041Z</time></trkpt><trkpt lat="41.4630035" lon="13.1346178"><ele>197.0</ele><time>2026-04-02T13:46:19.065Z</time></trkpt><trkpt lat="41.463081" lon="13.1344065"><ele>203.0</ele><time>2026-04-02T13:46:20.046Z</time></trkpt><trkpt lat="41.4631688" lon="13.1341923"><ele>200.0</ele><time>2026-04-02T13:46:21.044Z</time></trkpt><trkpt lat="41.4632547" lon="13.1339922"><ele>197.0</ele><time>2026-04-02T13:46:22.047Z</time></trkpt><trkpt lat="41.4633369" lon="13.1337951"><ele>194.0</ele><time>2026-04-02T13:46:23.04Z</time></trkpt><trkpt lat="41.4634151" lon="13.133617"><ele>194.0</ele><time>2026-04-02T13:46:24.058Z</time></trkpt><trkpt lat="41.463482" lon="13.1334467"><ele>194.0</ele><time>2026-04-02T13:46:25.039Z</time></trkpt><trkpt lat="41.4635323" lon="13.1332797"><ele>194.0</ele><time>2026-04-02T13:46:26.043Z</time></trkpt><trkpt lat="41.4635813" lon="13.1331065"><ele>194.0</ele><time>2026-04-02T13:46:27.051Z</time></trkpt><trkpt lat="41.4636274" lon="13.1329406"><ele>193.25</ele><time>2026-04-02T13:46:28.044Z</time></trkpt><trkpt lat="41.4636741" lon="13.1327801"><ele>192.5</ele><time>2026-04-02T13:46:29.047Z</time></trkpt><trkpt lat="41.463727" lon="13.1326357"><ele>191.75</ele><time>2026-04-02T13:46:30.045Z</time></trkpt><trkpt lat="41.4637892" lon="13.1325054"><ele>191.0</ele><time>2026-04-02T13:46:31.055Z</time></trkpt><trkpt lat="41.4638605" lon="13.1323884"><ele>190.0</ele><time>2026-04-02T13:46:32.047Z</time></trkpt><trkpt lat="41.4639491" lon="13.1322578"><ele>189.0</ele><time>2026-04-02T13:46:33.046Z</time></trkpt><trkpt lat="41.4640401" lon="13.1321312"><ele>188.0</ele><time>2026-04-02T13:46:34.053Z</time></trkpt><trkpt lat="41.4641317" lon="13.1320083"><ele>187.0</ele><time>2026-04-02T13:46:35.046Z</time></trkpt><trkpt lat="41.4642073" lon="13.1319059"><ele>187.0</ele><time>2026-04-02T13:46:36.042Z</time></trkpt><trkpt lat="41.4642821" lon="13.1318086"><ele>187.0</ele><time>2026-04-02T13:46:37.048Z</time></trkpt><trkpt lat="41.4643497" lon="13.1317263"><ele>187.0</ele><time>2026-04-02T13:46:38.041Z</time></trkpt><trkpt lat="41.4644091" lon="13.1316633"><ele>187.0</ele><time>2026-04-02T13:46:39.04Z</time></trkpt><trkpt lat="41.4644619" lon="13.1315456"><ele>187.0</ele><time>2026-04-02T13:46:41.058Z</time></trkpt><trkpt lat="41.4643946" lon="13.1314818"><ele>186.6</ele><time>2026-04-02T13:46:44.061Z</time></trkpt><trkpt lat="41.4643157" lon="13.1315315"><ele>186.2</ele><time>2026-04-02T13:46:46.051Z</time></trkpt><trkpt lat="41.4642537" lon="13.1315541"><ele>185.8</ele><time>2026-04-02T13:46:47.047Z</time></trkpt><trkpt lat="41.4641412" lon="13.1315381"><ele>185.4</ele><time>2026-04-02T13:46:49.045Z</time></trkpt><trkpt lat="41.4640597" lon="13.1314635"><ele>185.0</ele><time>2026-04-02T13:46:51.051Z</time></trkpt><trkpt lat="41.4640454" lon="13.1313048"><ele>185.0</ele><time>2026-04-02T13:46:53.05Z</time></trkpt><trkpt lat="41.4640713" lon="13.1312277"><ele>185.0</ele><time>2026-04-02T13:46:54.052Z</time></trkpt><trkpt lat="41.4641129" lon="13.1311512"><ele>185.0</ele><time>2026-04-02T13:46:55.044Z</time></trkpt><trkpt lat="41.4641646" lon="13.1310781"><ele>185.0</ele><time>2026-04-02T13:46:56.048Z</time></trkpt><trkpt lat="41.4642218" lon="13.1309905"><ele>185.0</ele><time>2026-04-02T13:46:57.04Z</time></trkpt><trkpt lat="41.46428" lon="13.1309124"><ele>185.0</ele><time>2026-04-02T13:46:58.048Z</time></trkpt><trkpt lat="41.4643356" lon="13.1308497"><ele>185.0</ele><time>2026-04-02T13:46:59.046Z</time></trkpt><trkpt lat="41.4643974" lon="13.1308117"><ele>185.0</ele><time>2026-04-02T13:47:00.039Z</time></trkpt><trkpt lat="41.4644978" lon="13.130799"><ele>185.0</ele><time>2026-04-02T13:47:02.047Z</time></trkpt><trkpt lat="41.464563" lon="13.1308319"><ele>185.0</ele><time>2026-04-02T13:47:04.041Z</time></trkpt><trkpt lat="41.4644846" lon="13.1307832"><ele>185.0</ele><time>2026-04-02T13:47:10.046Z</time></trkpt><trkpt lat="41.4643763" lon="13.1308294"><ele>185.0</ele><time>2026-04-02T13:47:12.044Z</time></trkpt><trkpt lat="41.4643103" lon="13.1308791"><ele>185.0</ele><time>2026-04-02T13:47:13.046Z</time></trkpt><trkpt lat="41.46425" lon="13.1309332"><ele>185.0</ele><time>2026-04-02T13:47:14.047Z</time></trkpt><trkpt lat="41.464187" lon="13.130992"><ele>185.0</ele><time>2026-04-02T13:47:15.049Z</time></trkpt><trkpt lat="41.4641194" lon="13.131055"><ele>185.0</ele><time>2026-04-02T13:47:16.05Z</time></trkpt><trkpt lat="41.4640545" lon="13.1311163"><ele>185.0</ele><time>2026-04-02T13:47:17.061Z</time></trkpt><trkpt lat="41.4639875" lon="13.1311742"><ele>185.0</ele><time>2026-04-02T13:47:18.042Z</time></trkpt><trkpt lat="41.4639197" lon="13.1312336"><ele>185.0</ele><time>2026-04-02T13:47:19.052Z</time></trkpt><trkpt lat="41.4638513" lon="13.1312977"><ele>185.0</ele><time>2026-04-02T13:47:20.049Z</time></trkpt><trkpt lat="41.4637829" lon="13.1313714"><ele>185.0</ele><time>2026-04-02T13:47:21.062Z</time></trkpt><trkpt lat="41.4637139" lon="13.1314399"><ele>185.0</ele><time>2026-04-02T13:47:22.048Z</time></trkpt><trkpt lat="41.4636254" lon="13.1315028"><ele>185.0</ele><time>2026-04-02T13:47:23.041Z</time></trkpt><trkpt lat="41.4635328" lon="13.1315512"><ele>187.8</ele><time>2026-04-02T13:47:24.051Z</time></trkpt><trkpt lat="41.4634375" lon="13.1315972"><ele>190.6</ele><time>2026-04-02T13:47:25.046Z</time></trkpt><trkpt lat="41.4633529" lon="13.1316378"><ele>193.39999999999998</ele><time>2026-04-02T13:47:26.05Z</time></trkpt><trkpt lat="41.463265" lon="13.1316637"><ele>196.2</ele><time>2026-04-02T13:47:27.049Z</time></trkpt><trkpt lat="41.4631696" lon="13.1317151"><ele>199.0</ele><time>2026-04-02T13:47:28.06Z</time></trkpt><trkpt lat="41.4630671" lon="13.1317677"><ele>199.0</ele><time>2026-04-02T13:47:29.046Z</time></trkpt><trkpt lat="41.462976" lon="13.1318219"><ele>199.0</ele><time>2026-04-02T13:47:30.039Z</time></trkpt><trkpt lat="41.462883" lon="13.1318605"><ele>199.0</ele><time>2026-04-02T13:47:31.048Z</time></trkpt><trkpt lat="41.4627937" lon="13.1319025"><ele>199.0</ele><time>2026-04-02T13:47:32.046Z</time></trkpt><trkpt lat="41.4627078" lon="13.1319447"><ele>199.0</ele><time>2026-04-02T13:47:33.048Z</time></trkpt><trkpt lat="41.4626215" lon="13.1319794"><ele>202.0</ele><time>2026-04-02T13:47:34.048Z</time></trkpt><trkpt lat="41.4625312" lon="13.1320062"><ele>205.0</ele><time>2026-04-02T13:47:35.06Z</time></trkpt><trkpt lat="41.4624381" lon="13.1320198"><ele>207.99999999999997</ele><time>2026-04-02T13:47:36.05Z</time></trkpt><trkpt lat="41.4623414" lon="13.1320187"><ele>211.0</ele><time>2026-04-02T13:47:37.051Z</time></trkpt><trkpt lat="41.4622505" lon="13.1320174"><ele>214.0</ele><time>2026-04-02T13:47:38.041Z</time></trkpt><trkpt lat="41.4621575" lon="13.1320225"><ele>215.2</ele><time>2026-04-02T13:47:39.059Z</time></trkpt><trkpt lat="41.4620613" lon="13.1320254"><ele>216.39999999999998</ele><time>2026-04-02T13:47:40.046Z</time></trkpt><trkpt lat="41.4619652" lon="13.1320212"><ele>217.6</ele><time>2026-04-02T13:47:41.045Z</time></trkpt><trkpt lat="41.4618567" lon="13.1320104"><ele>218.8</ele><time>2026-04-02T13:47:42.047Z</time></trkpt><trkpt lat="41.4617531" lon="13.1320001"><ele>220.0</ele><time>2026-04-02T13:47:43.042Z</time></trkpt><trkpt lat="41.4616472" lon="13.1319964"><ele>219.99999999999997</ele><time>2026-04-02T13:47:44.042Z</time></trkpt><trkpt lat="41.4615495" lon="13.131988"><ele>220.0</ele><time>2026-04-02T13:47:45.044Z</time></trkpt><trkpt lat="41.4614523" lon="13.1319746"><ele>220.0</ele><time>2026-04-02T13:47:46.049Z</time></trkpt><trkpt lat="41.4613718" lon="13.1319737"><ele>220.0</ele><time>2026-04-02T13:47:47.04Z</time></trkpt><trkpt lat="41.4613089" lon="13.1319688"><ele>219.99999999999997</ele><time>2026-04-02T13:47:48.051Z</time></trkpt><trkpt lat="41.4612382" lon="13.1319916"><ele>220.0</ele><time>2026-04-02T13:47:50.053Z</time></trkpt><trkpt lat="41.4612021" lon="13.132089"><ele>220.6</ele><time>2026-04-02T13:47:52.052Z</time></trkpt><trkpt lat="41.461197" lon="13.132241"><ele>221.2</ele><time>2026-04-02T13:47:54.043Z</time></trkpt><trkpt lat="41.4612116" lon="13.1323481"><ele>221.8</ele><time>2026-04-02T13:47:55.053Z</time></trkpt><trkpt lat="41.4612295" lon="13.1324713"><ele>222.4</ele><time>2026-04-02T13:47:56.038Z</time></trkpt><trkpt lat="41.4612451" lon="13.1325955"><ele>223.0</ele><time>2026-04-02T13:47:57.04Z</time></trkpt><trkpt lat="41.4612435" lon="13.1327152"><ele>222.99999999999997</ele><time>2026-04-02T13:47:58.042Z</time></trkpt><trkpt lat="41.4612348" lon="13.1328147"><ele>223.0</ele><time>2026-04-02T13:47:59.042Z</time></trkpt><trkpt lat="41.4612277" lon="13.1329112"><ele>223.0</ele><time>2026-04-02T13:48:00.047Z</time></trkpt><trkpt lat="41.4611973" lon="13.1330095"><ele>223.0</ele><time>2026-04-02T13:48:01.043Z</time></trkpt><trkpt lat="41.4611639" lon="13.1331136"><ele>222.99999999999997</ele><time>2026-04-02T13:48:02.042Z</time></trkpt><trkpt lat="41.4611321" lon="13.1332037"><ele>223.0</ele><time>2026-04-02T13:48:03.061Z</time></trkpt><trkpt lat="41.4610975" lon="13.1332822"><ele>221.66666666666666</ele><time>2026-04-02T13:48:04.058Z</time></trkpt><trkpt lat="41.4610368" lon="13.1333784"><ele>220.33333333333331</ele><time>2026-04-02T13:48:06.06Z</time></trkpt><trkpt lat="41.4609738" lon="13.1333865"><ele>219.0</ele><time>2026-04-02T13:48:56.047Z</time></trkpt><trkpt lat="41.4609413" lon="13.1334868"><ele>217.66666666666669</ele><time>2026-04-02T13:49:24.077Z</time></trkpt><trkpt lat="41.4608727" lon="13.1335819"><ele>216.33333333333334</ele><time>2026-04-02T13:49:26.044Z</time></trkpt><trkpt lat="41.4608142" lon="13.1336479"><ele>215.0</ele><time>2026-04-02T13:49:27.039Z</time></trkpt><trkpt lat="41.4607322" lon="13.1337105"><ele>215.0</ele><time>2026-04-02T13:49:28.05Z</time></trkpt><trkpt lat="41.4606422" lon="13.1337858"><ele>215.0</ele><time>2026-04-02T13:49:29.045Z</time></trkpt><trkpt lat="41.4605405" lon="13.1338711"><ele>215.0</ele><time>2026-04-02T13:49:30.048Z</time></trkpt><trkpt lat="41.4604341" lon="13.13393"><ele>215.0</ele><time>2026-04-02T13:49:31.049Z</time></trkpt><trkpt lat="41.4603365" lon="13.1339732"><ele>215.0</ele><time>2026-04-02T13:49:32.058Z</time></trkpt><trkpt lat="41.4602579" lon="13.1340167"><ele>214.0</ele><time>2026-04-02T13:49:33.05Z</time></trkpt><trkpt lat="41.4601738" lon="13.1340526"><ele>213.0</ele><time>2026-04-02T13:49:34.052Z</time></trkpt><trkpt lat="41.4600621" lon="13.1340793"><ele>212.0</ele><time>2026-04-02T13:49:35.055Z</time></trkpt><trkpt lat="41.4599476" lon="13.1340896"><ele>211.0</ele><time>2026-04-02T13:49:36.047Z</time></trkpt><trkpt lat="41.4598338" lon="13.134102"><ele>210.0</ele><time>2026-04-02T13:49:37.044Z</time></trkpt><trkpt lat="41.4597228" lon="13.1341166"><ele>210.0</ele><time>2026-04-02T13:49:38.056Z</time></trkpt><trkpt lat="41.4596332" lon="13.1341242"><ele>210.0</ele><time>2026-04-02T13:49:39.037Z</time></trkpt><trkpt lat="41.4595471" lon="13.1341246"><ele>210.0</ele><time>2026-04-02T13:49:40.041Z</time></trkpt><trkpt lat="41.4594495" lon="13.1341243"><ele>210.0</ele><time>2026-04-02T13:49:41.046Z</time></trkpt><trkpt lat="41.4593444" lon="13.1341122"><ele>210.0</ele><time>2026-04-02T13:49:42.044Z</time></trkpt><trkpt lat="41.4592354" lon="13.1341012"><ele>209.75</ele><time>2026-04-02T13:49:43.05Z</time></trkpt><trkpt lat="41.4591175" lon="13.1340904"><ele>209.5</ele><time>2026-04-02T13:49:44.048Z</time></trkpt><trkpt lat="41.4589986" lon="13.1340892"><ele>209.25</ele><time>2026-04-02T13:49:45.052Z</time></trkpt><trkpt lat="41.458875" lon="13.1340849"><ele>209.0</ele><time>2026-04-02T13:49:46.049Z</time></trkpt><trkpt lat="41.4587719" lon="13.1340811"><ele>209.83333333333334</ele><time>2026-04-02T13:49:47.051Z</time></trkpt><trkpt lat="41.4586909" lon="13.134081"><ele>210.66666666666669</ele><time>2026-04-02T13:49:48.052Z</time></trkpt><trkpt lat="41.4586161" lon="13.1340994"><ele>211.5</ele><time>2026-04-02T13:49:49.05Z</time></trkpt><trkpt lat="41.4585397" lon="13.1341649"><ele>212.33333333333331</ele><time>2026-04-02T13:49:50.058Z</time></trkpt><trkpt lat="41.4584759" lon="13.1342562"><ele>213.16666666666666</ele><time>2026-04-02T13:49:51.043Z</time></trkpt><trkpt lat="41.4584038" lon="13.1343551"><ele>214.0</ele><time>2026-04-02T13:49:52.05Z</time></trkpt><trkpt lat="41.4583466" lon="13.1344542"><ele>214.0</ele><time>2026-04-02T13:49:53.056Z</time></trkpt><trkpt lat="41.4582951" lon="13.1345678"><ele>213.99999999999997</ele><time>2026-04-02T13:49:54.048Z</time></trkpt><trkpt lat="41.4582469" lon="13.1346964"><ele>213.99999999999997</ele><time>2026-04-02T13:49:55.041Z</time></trkpt><trkpt lat="41.4581949" lon="13.1348287"><ele>214.0</ele><time>2026-04-02T13:49:56.063Z</time></trkpt><trkpt lat="41.4581322" lon="13.1349662"><ele>214.0</ele><time>2026-04-02T13:49:57.039Z</time></trkpt><trkpt lat="41.4580662" lon="13.1351087"><ele>214.25</ele><time>2026-04-02T13:49:58.038Z</time></trkpt><trkpt lat="41.4579898" lon="13.1352627"><ele>214.5</ele><time>2026-04-02T13:49:59.036Z</time></trkpt><trkpt lat="41.4579232" lon="13.1354021"><ele>214.75</ele><time>2026-04-02T13:50:00.048Z</time></trkpt><trkpt lat="41.4578605" lon="13.1355358"><ele>215.0</ele><time>2026-04-02T13:50:01.047Z</time></trkpt><trkpt lat="41.4578045" lon="13.1356482"><ele>213.2</ele><time>2026-04-02T13:50:02.051Z</time></trkpt><trkpt lat="41.4577384" lon="13.1357545"><ele>211.4</ele><time>2026-04-02T13:50:03.041Z</time></trkpt><trkpt lat="41.4576576" lon="13.135848"><ele>209.60000000000002</ele><time>2026-04-02T13:50:04.05Z</time></trkpt><trkpt lat="41.4575843" lon="13.1359135"><ele>207.8</ele><time>2026-04-02T13:50:05.043Z</time></trkpt><trkpt lat="41.4575164" lon="13.1359801"><ele>206.0</ele><time>2026-04-02T13:50:06.042Z</time></trkpt><trkpt lat="41.4574356" lon="13.1360444"><ele>206.00000000000003</ele><time>2026-04-02T13:50:07.045Z</time></trkpt><trkpt lat="41.4573751" lon="13.1361427"><ele>206.0</ele><time>2026-04-02T13:50:08.042Z</time></trkpt><trkpt lat="41.4573405" lon="13.1362303"><ele>206.0</ele><time>2026-04-02T13:50:09.047Z</time></trkpt><trkpt lat="41.4573161" lon="13.1363369"><ele>206.0</ele><time>2026-04-02T13:50:10.043Z</time></trkpt><trkpt lat="41.457306" lon="13.1364559"><ele>206.00000000000003</ele><time>2026-04-02T13:50:11.054Z</time></trkpt><trkpt lat="41.4572893" lon="13.1365605"><ele>206.0</ele><time>2026-04-02T13:50:12.048Z</time></trkpt><trkpt lat="41.4572693" lon="13.1366522"><ele>204.66666666666669</ele><time>2026-04-02T13:50:13.043Z</time></trkpt><trkpt lat="41.4572337" lon="13.1367597"><ele>203.33333333333334</ele><time>2026-04-02T13:50:15.06Z</time></trkpt><trkpt lat="41.4572054" lon="13.1368376"><ele>202.0</ele><time>2026-04-02T13:50:18.046Z</time></trkpt><trkpt lat="41.4571526" lon="13.1369722"><ele>200.66666666666669</ele><time>2026-04-02T13:50:21.049Z</time></trkpt><trkpt lat="41.4571186" lon="13.1370612"><ele>199.33333333333334</ele><time>2026-04-02T13:50:22.052Z</time></trkpt><trkpt lat="41.4570765" lon="13.1371643"><ele>198.0</ele><time>2026-04-02T13:50:23.043Z</time></trkpt><trkpt lat="41.4570318" lon="13.137275"><ele>200.25</ele><time>2026-04-02T13:50:24.052Z</time></trkpt><trkpt lat="41.4569627" lon="13.1373927"><ele>202.5</ele><time>2026-04-02T13:50:25.046Z</time></trkpt><trkpt lat="41.456872" lon="13.1375108"><ele>204.75</ele><time>2026-04-02T13:50:26.045Z</time></trkpt><trkpt lat="41.4567787" lon="13.1376184"><ele>207.0</ele><time>2026-04-02T13:50:27.044Z</time></trkpt><trkpt lat="41.4566824" lon="13.1377174"><ele>207.0</ele><time>2026-04-02T13:50:28.05Z</time></trkpt><trkpt lat="41.4565908" lon="13.1378221"><ele>207.0</ele><time>2026-04-02T13:50:29.04Z</time></trkpt><trkpt lat="41.456504" lon="13.1379144"><ele>207.0</ele><time>2026-04-02T13:50:30.044Z</time></trkpt><trkpt lat="41.4564104" lon="13.1379739"><ele>207.0</ele><time>2026-04-02T13:50:31.049Z</time></trkpt><trkpt lat="41.456332" lon="13.1380207"><ele>207.0</ele><time>2026-04-02T13:50:32.036Z</time></trkpt><trkpt lat="41.4562434" lon="13.1380694"><ele>206.75</ele><time>2026-04-02T13:50:33.052Z</time></trkpt><trkpt lat="41.456137" lon="13.1380862"><ele>206.5</ele><time>2026-04-02T13:50:34.045Z</time></trkpt><trkpt lat="41.4560199" lon="13.1380929"><ele>206.25</ele><time>2026-04-02T13:50:35.05Z</time></trkpt><trkpt lat="41.4559049" lon="13.1380805"><ele>206.0</ele><time>2026-04-02T13:50:36.044Z</time></trkpt><trkpt lat="41.4557801" lon="13.138054"><ele>206.0</ele><time>2026-04-02T13:50:37.043Z</time></trkpt><trkpt lat="41.4556488" lon="13.1380289"><ele>206.0</ele><time>2026-04-02T13:50:38.042Z</time></trkpt><trkpt lat="41.4555193" lon="13.1380044"><ele>206.0</ele><time>2026-04-02T13:50:39.054Z</time></trkpt><trkpt lat="41.4553778" lon="13.1379684"><ele>206.0</ele><time>2026-04-02T13:50:40.047Z</time></trkpt><trkpt lat="41.4552479" lon="13.1379313"><ele>204.5</ele><time>2026-04-02T13:50:41.057Z</time></trkpt><trkpt lat="41.4551126" lon="13.1378972"><ele>203.0</ele><time>2026-04-02T13:50:42.045Z</time></trkpt><trkpt lat="41.4549808" lon="13.1378672"><ele>201.5</ele><time>2026-04-02T13:50:43.049Z</time></trkpt><trkpt lat="41.4548461" lon="13.1378421"><ele>200.0</ele><time>2026-04-02T13:50:44.045Z</time></trkpt><trkpt lat="41.454718" lon="13.1378387"><ele>199.25</ele><time>2026-04-02T13:50:45.061Z</time></trkpt><trkpt lat="41.4545875" lon="13.1378403"><ele>198.5</ele><time>2026-04-02T13:50:46.049Z</time></trkpt><trkpt lat="41.4544695" lon="13.1378443"><ele>197.75</ele><time>2026-04-02T13:50:47.051Z</time></trkpt><trkpt lat="41.4543591" lon="13.1378467"><ele>197.0</ele><time>2026-04-02T13:50:48.061Z</time></trkpt><trkpt lat="41.4542547" lon="13.1378506"><ele>197.0</ele><time>2026-04-02T13:50:49.047Z</time></trkpt><trkpt lat="41.4541519" lon="13.1378478"><ele>197.0</ele><time>2026-04-02T13:50:50.047Z</time></trkpt><trkpt lat="41.4540501" lon="13.1378338"><ele>197.0</ele><time>2026-04-02T13:50:51.047Z</time></trkpt><trkpt lat="41.4539465" lon="13.1378018"><ele>197.0</ele><time>2026-04-02T13:50:52.049Z</time></trkpt><trkpt lat="41.4538553" lon="13.1377516"><ele>197.0</ele><time>2026-04-02T13:50:53.062Z</time></trkpt><trkpt lat="41.4537626" lon="13.1376917"><ele>196.39999999999998</ele><time>2026-04-02T13:50:54.041Z</time></trkpt><trkpt lat="41.4536894" lon="13.1376208"><ele>195.79999999999998</ele><time>2026-04-02T13:50:55.052Z</time></trkpt><trkpt lat="41.4536189" lon="13.1375473"><ele>195.2</ele><time>2026-04-02T13:50:56.046Z</time></trkpt><trkpt lat="41.4535548" lon="13.1374653"><ele>194.6</ele><time>2026-04-02T13:50:57.051Z</time></trkpt><trkpt lat="41.4534948" lon="13.1373651"><ele>194.0</ele><time>2026-04-02T13:50:58.053Z</time></trkpt><trkpt lat="41.4534335" lon="13.1372683"><ele>194.0</ele><time>2026-04-02T13:50:59.049Z</time></trkpt><trkpt lat="41.453376" lon="13.1371625"><ele>194.0</ele><time>2026-04-02T13:51:00.047Z</time></trkpt><trkpt lat="41.4533199" lon="13.1370601"><ele>194.0</ele><time>2026-04-02T13:51:01.049Z</time></trkpt><trkpt lat="41.45327" lon="13.1369375"><ele>194.0</ele><time>2026-04-02T13:51:02.048Z</time></trkpt><trkpt lat="41.4532293" lon="13.136804"><ele>194.0</ele><time>2026-04-02T13:51:03.058Z</time></trkpt><trkpt lat="41.4531906" lon="13.1366685"><ele>194.0</ele><time>2026-04-02T13:51:04.05Z</time></trkpt><trkpt lat="41.4531652" lon="13.1365259"><ele>194.0</ele><time>2026-04-02T13:51:05.041Z</time></trkpt><trkpt lat="41.4531452" lon="13.1363958"><ele>194.0</ele><time>2026-04-02T13:51:06.046Z</time></trkpt><trkpt lat="41.4531319" lon="13.1362768"><ele>194.0</ele><time>2026-04-02T13:51:07.052Z</time></trkpt><trkpt lat="41.4531227" lon="13.1361444"><ele>194.0</ele><time>2026-04-02T13:51:08.05Z</time></trkpt><trkpt lat="41.4531329" lon="13.1360098"><ele>194.0</ele><time>2026-04-02T13:51:09.059Z</time></trkpt><trkpt lat="41.4531362" lon="13.1358672"><ele>194.0</ele><time>2026-04-02T13:51:10.042Z</time></trkpt><trkpt lat="41.4531302" lon="13.1357254"><ele>194.0</ele><time>2026-04-02T13:51:11.037Z</time></trkpt><trkpt lat="41.4531294" lon="13.1355975"><ele>194.0</ele><time>2026-04-02T13:51:12.063Z</time></trkpt><trkpt lat="41.4531395" lon="13.1354578"><ele>194.0</ele><time>2026-04-02T13:51:13.045Z</time></trkpt><trkpt lat="41.4531565" lon="13.1353153"><ele>194.0</ele><time>2026-04-02T13:51:14.048Z</time></trkpt><trkpt lat="41.4531812" lon="13.1351888"><ele>194.0</ele><time>2026-04-02T13:51:15.047Z</time></trkpt><trkpt lat="41.4532143" lon="13.1350838"><ele>194.0</ele><time>2026-04-02T13:51:16.054Z</time></trkpt><trkpt lat="41.4532621" lon="13.1349808"><ele>194.0</ele><time>2026-04-02T13:51:17.041Z</time></trkpt><trkpt lat="41.453319" lon="13.1348662"><ele>194.0</ele><time>2026-04-02T13:51:18.049Z</time></trkpt><trkpt lat="41.4533715" lon="13.1347426"><ele>192.0</ele><time>2026-04-02T13:51:19.049Z</time></trkpt><trkpt lat="41.4534137" lon="13.1346334"><ele>190.0</ele><time>2026-04-02T13:51:20.06Z</time></trkpt><trkpt lat="41.4534627" lon="13.1345397"><ele>188.0</ele><time>2026-04-02T13:51:21.05Z</time></trkpt><trkpt lat="41.4535185" lon="13.1344562"><ele>186.0</ele><time>2026-04-02T13:51:22.052Z</time></trkpt><trkpt lat="41.4535942" lon="13.1343819"><ele>184.0</ele><time>2026-04-02T13:51:23.039Z</time></trkpt><trkpt lat="41.4536849" lon="13.1343139"><ele>184.0</ele><time>2026-04-02T13:51:24.042Z</time></trkpt><trkpt lat="41.4537715" lon="13.1342515"><ele>184.0</ele><time>2026-04-02T13:51:25.048Z</time></trkpt><trkpt lat="41.453863" lon="13.1341976"><ele>184.0</ele><time>2026-04-02T13:51:26.044Z</time></trkpt><trkpt lat="41.4539459" lon="13.134142"><ele>184.0</ele><time>2026-04-02T13:51:27.045Z</time></trkpt><trkpt lat="41.4540165" lon="13.1341102"><ele>184.0</ele><time>2026-04-02T13:51:28.042Z</time></trkpt><trkpt lat="41.4540853" lon="13.1340895"><ele>184.0</ele><time>2026-04-02T13:51:29.046Z</time></trkpt><trkpt lat="41.4541635" lon="13.1340815"><ele>183.2</ele><time>2026-04-02T13:51:30.059Z</time></trkpt><trkpt lat="41.4542578" lon="13.1340794"><ele>182.39999999999998</ele><time>2026-04-02T13:51:31.034Z</time></trkpt><trkpt lat="41.4543515" lon="13.1340663"><ele>181.6</ele><time>2026-04-02T13:51:32.044Z</time></trkpt><trkpt lat="41.4544489" lon="13.1340428"><ele>180.8</ele><time>2026-04-02T13:51:33.047Z</time></trkpt><trkpt lat="41.4545397" lon="13.1340131"><ele>180.0</ele><time>2026-04-02T13:51:34.041Z</time></trkpt><trkpt lat="41.4546377" lon="13.1339955"><ele>182.0</ele><time>2026-04-02T13:51:35.041Z</time></trkpt><trkpt lat="41.4547357" lon="13.1339934"><ele>184.0</ele><time>2026-04-02T13:51:36.049Z</time></trkpt><trkpt lat="41.4548215" lon="13.1339901"><ele>186.0</ele><time>2026-04-02T13:51:37.044Z</time></trkpt><trkpt lat="41.4548973" lon="13.1339863"><ele>188.0</ele><time>2026-04-02T13:51:38.056Z</time></trkpt><trkpt lat="41.455025" lon="13.1339695"><ele>190.0</ele><time>2026-04-02T13:51:40.042Z</time></trkpt><trkpt lat="41.4550995" lon="13.1339348"><ele>190.0</ele><time>2026-04-02T13:51:41.062Z</time></trkpt><trkpt lat="41.4551445" lon="13.1338736"><ele>190.0</ele><time>2026-04-02T13:51:42.054Z</time></trkpt><trkpt lat="41.4551842" lon="13.1338057"><ele>190.0</ele><time>2026-04-02T13:51:43.045Z</time></trkpt><trkpt lat="41.4552055" lon="13.1337225"><ele>190.0</ele><time>2026-04-02T13:51:44.05Z</time></trkpt><trkpt lat="41.4552165" lon="13.1336309"><ele>190.0</ele><time>2026-04-02T13:51:45.055Z</time></trkpt><trkpt lat="41.4552472" lon="13.1334646"><ele>190.0</ele><time>2026-04-02T13:51:47.047Z</time></trkpt><trkpt lat="41.4552926" lon="13.1333113"><ele>190.0</ele><time>2026-04-02T13:51:49.054Z</time></trkpt><trkpt lat="41.4553271" lon="13.1332298"><ele>190.0</ele><time>2026-04-02T13:51:50.048Z</time></trkpt><trkpt lat="41.4553678" lon="13.1331522"><ele>190.0</ele><time>2026-04-02T13:51:51.045Z</time></trkpt><trkpt lat="41.455415" lon="13.1330702"><ele>190.0</ele><time>2026-04-02T13:51:52.052Z</time></trkpt><trkpt lat="41.4554665" lon="13.1329925"><ele>190.0</ele><time>2026-04-02T13:51:53.045Z</time></trkpt><trkpt lat="41.4555326" lon="13.1329118"><ele>190.0</ele><time>2026-04-02T13:51:54.042Z</time></trkpt><trkpt lat="41.4555945" lon="13.1328289"><ele>189.66666666666669</ele><time>2026-04-02T13:51:55.044Z</time></trkpt><trkpt lat="41.4556556" lon="13.13274"><ele>189.33333333333334</ele><time>2026-04-02T13:51:56.062Z</time></trkpt><trkpt lat="41.4557074" lon="13.1326553"><ele>189.0</ele><time>2026-04-02T13:51:57.045Z</time></trkpt><trkpt lat="41.4557581" lon="13.132572"><ele>188.66666666666666</ele><time>2026-04-02T13:51:58.044Z</time></trkpt><trkpt lat="41.4557999" lon="13.1324893"><ele>188.33333333333331</ele><time>2026-04-02T13:51:59.048Z</time></trkpt><trkpt lat="41.4558249" lon="13.1323971"><ele>188.0</ele><time>2026-04-02T13:52:00.042Z</time></trkpt><trkpt lat="41.4558401" lon="13.1322768"><ele>188.0</ele><time>2026-04-02T13:52:01.047Z</time></trkpt><trkpt lat="41.4558515" lon="13.1321721"><ele>188.0</ele><time>2026-04-02T13:52:02.047Z</time></trkpt><trkpt lat="41.4558627" lon="13.1320675"><ele>188.0</ele><time>2026-04-02T13:52:03.046Z</time></trkpt><trkpt lat="41.4558755" lon="13.131958"><ele>188.0</ele><time>2026-04-02T13:52:04.053Z</time></trkpt><trkpt lat="41.4558877" lon="13.1318457"><ele>188.0</ele><time>2026-04-02T13:52:05.048Z</time></trkpt><trkpt lat="41.4558916" lon="13.1317404"><ele>188.0</ele><time>2026-04-02T13:52:06.044Z</time></trkpt><trkpt lat="41.4558852" lon="13.131614"><ele>186.83333333333331</ele><time>2026-04-02T13:52:08.044Z</time></trkpt><trkpt lat="41.4558931" lon="13.1314852"><ele>185.66666666666666</ele><time>2026-04-02T13:52:10.045Z</time></trkpt><trkpt lat="41.4559036" lon="13.131401"><ele>184.5</ele><time>2026-04-02T13:52:11.048Z</time></trkpt><trkpt lat="41.4559167" lon="13.1313056"><ele>183.33333333333334</ele><time>2026-04-02T13:52:12.05Z</time></trkpt><trkpt lat="41.4559347" lon="13.1312061"><ele>182.16666666666669</ele><time>2026-04-02T13:52:13.046Z</time></trkpt><trkpt lat="41.4559651" lon="13.1311041"><ele>181.0</ele><time>2026-04-02T13:52:14.067Z</time></trkpt><trkpt lat="41.45599" lon="13.1310087"><ele>181.0</ele><time>2026-04-02T13:52:15.042Z</time></trkpt><trkpt lat="41.456022" lon="13.1308901"><ele>181.0</ele><time>2026-04-02T13:52:16.05Z</time></trkpt><trkpt lat="41.4560542" lon="13.1307907"><ele>181.0</ele><time>2026-04-02T13:52:17.047Z</time></trkpt><trkpt lat="41.4560881" lon="13.1307087"><ele>181.0</ele><time>2026-04-02T13:52:18.05Z</time></trkpt><trkpt lat="41.4561269" lon="13.130626"><ele>181.0</ele><time>2026-04-02T13:52:19.041Z</time></trkpt><trkpt lat="41.4561739" lon="13.1305501"><ele>181.0</ele><time>2026-04-02T13:52:20.053Z</time></trkpt><trkpt lat="41.4562285" lon="13.1304678"><ele>181.5</ele><time>2026-04-02T13:52:21.043Z</time></trkpt><trkpt lat="41.4562853" lon="13.1303836"><ele>182.0</ele><time>2026-04-02T13:52:22.047Z</time></trkpt><trkpt lat="41.4563469" lon="13.1302993"><ele>182.5</ele><time>2026-04-02T13:52:23.04Z</time></trkpt><trkpt lat="41.4564082" lon="13.1302121"><ele>183.0</ele><time>2026-04-02T13:52:24.041Z</time></trkpt><trkpt lat="41.456474" lon="13.1301305"><ele>183.5</ele><time>2026-04-02T13:52:25.064Z</time></trkpt><trkpt lat="41.4565416" lon="13.1300661"><ele>184.0</ele><time>2026-04-02T13:52:26.041Z</time></trkpt><trkpt lat="41.4566107" lon="13.1300019"><ele>184.0</ele><time>2026-04-02T13:52:27.038Z</time></trkpt><trkpt lat="41.4566771" lon="13.1299429"><ele>184.0</ele><time>2026-04-02T13:52:28.04Z</time></trkpt><trkpt lat="41.4567386" lon="13.1298951"><ele>184.0</ele><time>2026-04-02T13:52:29.054Z</time></trkpt><trkpt lat="41.4568098" lon="13.1298542"><ele>184.0</ele><time>2026-04-02T13:52:30.055Z</time></trkpt><trkpt lat="41.4568757" lon="13.1298328"><ele>184.0</ele><time>2026-04-02T13:52:31.044Z</time></trkpt><trkpt lat="41.4569428" lon="13.129834"><ele>184.0</ele><time>2026-04-02T13:52:32.052Z</time></trkpt><trkpt lat="41.457018" lon="13.129856"><ele>184.0</ele><time>2026-04-02T13:52:33.045Z</time></trkpt><trkpt lat="41.4570942" lon="13.1298961"><ele>184.66666666666669</ele><time>2026-04-02T13:52:34.048Z</time></trkpt><trkpt lat="41.4571769" lon="13.1299407"><ele>185.33333333333334</ele><time>2026-04-02T13:52:35.048Z</time></trkpt><trkpt lat="41.4572609" lon="13.129981"><ele>186.0</ele><time>2026-04-02T13:52:36.057Z</time></trkpt><trkpt lat="41.4573443" lon="13.1300234"><ele>186.66666666666666</ele><time>2026-04-02T13:52:37.048Z</time></trkpt><trkpt lat="41.4574285" lon="13.1300511"><ele>187.33333333333331</ele><time>2026-04-02T13:52:38.054Z</time></trkpt><trkpt lat="41.4575079" lon="13.1300775"><ele>188.0</ele><time>2026-04-02T13:52:39.043Z</time></trkpt><trkpt lat="41.4575838" lon="13.1300813"><ele>188.0</ele><time>2026-04-02T13:52:40.056Z</time></trkpt><trkpt lat="41.4576632" lon="13.1300525"><ele>188.0</ele><time>2026-04-02T13:52:41.049Z</time></trkpt><trkpt lat="41.4577481" lon="13.12999"><ele>188.0</ele><time>2026-04-02T13:52:42.058Z</time></trkpt><trkpt lat="41.4578266" lon="13.1299124"><ele>188.0</ele><time>2026-04-02T13:52:43.043Z</time></trkpt><trkpt lat="41.457896" lon="13.1298207"><ele>188.0</ele><time>2026-04-02T13:52:44.05Z</time></trkpt><trkpt lat="41.4579535" lon="13.12971"><ele>189.0</ele><time>2026-04-02T13:52:45.048Z</time></trkpt><trkpt lat="41.457994" lon="13.1295902"><ele>190.0</ele><time>2026-04-02T13:52:46.056Z</time></trkpt><trkpt lat="41.4580272" lon="13.129465"><ele>191.0</ele><time>2026-04-02T13:52:47.051Z</time></trkpt><trkpt lat="41.4580561" lon="13.1293342"><ele>192.0</ele><time>2026-04-02T13:52:48.041Z</time></trkpt><trkpt lat="41.4580775" lon="13.1292035"><ele>193.0</ele><time>2026-04-02T13:52:49.046Z</time></trkpt><trkpt lat="41.4580922" lon="13.1290748"><ele>191.99999999999997</ele><time>2026-04-02T13:52:50.045Z</time></trkpt><trkpt lat="41.4581012" lon="13.1289617"><ele>191.0</ele><time>2026-04-02T13:52:51.054Z</time></trkpt><trkpt lat="41.458109" lon="13.1288577"><ele>190.0</ele><time>2026-04-02T13:52:52.043Z</time></trkpt><trkpt lat="41.458107" lon="13.1287633"><ele>189.0</ele><time>2026-04-02T13:52:53.047Z</time></trkpt><trkpt lat="41.4581043" lon="13.1286748"><ele>188.0</ele><time>2026-04-02T13:52:54.049Z</time></trkpt><trkpt lat="41.4580846" lon="13.1285201"><ele>187.0</ele><time>2026-04-02T13:52:56.049Z</time></trkpt><trkpt lat="41.4580424" lon="13.1283966"><ele>187.0</ele><time>2026-04-02T13:52:58.041Z</time></trkpt><trkpt lat="41.4579758" lon="13.1282966"><ele>187.0</ele><time>2026-04-02T13:53:00.047Z</time></trkpt><trkpt lat="41.4579021" lon="13.1281861"><ele>187.0</ele><time>2026-04-02T13:53:02.048Z</time></trkpt><trkpt lat="41.4578322" lon="13.1280629"><ele>187.0</ele><time>2026-04-02T13:53:04.058Z</time></trkpt><trkpt lat="41.4577607" lon="13.1279581"><ele>187.0</ele><time>2026-04-02T13:53:06.053Z</time></trkpt><trkpt lat="41.4577118" lon="13.1278685"><ele>182.14285714285714</ele><time>2026-04-02T13:53:08.043Z</time></trkpt><trkpt lat="41.4576893" lon="13.1277832"><ele>177.2857142857143</ele><time>2026-04-02T13:53:10.051Z</time></trkpt><trkpt lat="41.4577094" lon="13.1276987"><ele>172.42857142857144</ele><time>2026-04-02T13:53:12.046Z</time></trkpt><trkpt lat="41.4577518" lon="13.1276093"><ele>167.57142857142856</ele><time>2026-04-02T13:53:14.059Z</time></trkpt><trkpt lat="41.4577938" lon="13.1275432"><ele>162.71428571428572</ele><time>2026-04-02T13:53:16.049Z</time></trkpt><trkpt lat="41.4578611" lon="13.127479"><ele>157.85714285714286</ele><time>2026-04-02T13:53:19.041Z</time></trkpt><trkpt lat="41.4579279" lon="13.1274171"><ele>153.0</ele><time>2026-04-02T13:53:21.052Z</time></trkpt><trkpt lat="41.4580114" lon="13.1273539"><ele>153.0</ele><time>2026-04-02T13:53:24.047Z</time></trkpt><trkpt lat="41.4580709" lon="13.1272847"><ele>153.0</ele><time>2026-04-02T13:53:26.048Z</time></trkpt><trkpt lat="41.4581408" lon="13.1272211"><ele>153.0</ele><time>2026-04-02T13:53:28.052Z</time></trkpt><trkpt lat="41.4582112" lon="13.1271498"><ele>153.0</ele><time>2026-04-02T13:53:30.044Z</time></trkpt><trkpt lat="41.4583014" lon="13.1270704"><ele>153.0</ele><time>2026-04-02T13:53:32.044Z</time></trkpt><trkpt lat="41.4583626" lon="13.1270235"><ele>153.0</ele><time>2026-04-02T13:53:33.047Z</time></trkpt><trkpt lat="41.4584607" lon="13.1269336"><ele>153.0</ele><time>2026-04-02T13:53:35.049Z</time></trkpt><trkpt lat="41.4585538" lon="13.1268644"><ele>153.0</ele><time>2026-04-02T13:53:37.07Z</time></trkpt><trkpt lat="41.4586373" lon="13.1268049"><ele>153.0</ele><time>2026-04-02T13:53:39.053Z</time></trkpt><trkpt lat="41.4587008" lon="13.126722"><ele>153.0</ele><time>2026-04-02T13:53:41.062Z</time></trkpt><trkpt lat="41.4587547" lon="13.1266455"><ele>153.0</ele><time>2026-04-02T13:53:43.054Z</time></trkpt><trkpt lat="41.4588005" lon="13.1265645"><ele>153.0</ele><time>2026-04-02T13:53:45.051Z</time></trkpt><trkpt lat="41.4588586" lon="13.1264879"><ele>153.33333333333334</ele><time>2026-04-02T13:53:47.051Z</time></trkpt><trkpt lat="41.4589299" lon="13.1264137"><ele>153.66666666666666</ele><time>2026-04-02T13:53:49.049Z</time></trkpt><trkpt lat="41.4589918" lon="13.1263679"><ele>154.0</ele><time>2026-04-02T13:53:52.042Z</time></trkpt><trkpt lat="41.4590688" lon="13.1263137"><ele>154.33333333333331</ele><time>2026-04-02T13:53:58.054Z</time></trkpt><trkpt lat="41.4591473" lon="13.1262695"><ele>154.66666666666666</ele><time>2026-04-02T13:57:13.048Z</time></trkpt><trkpt lat="41.4592151" lon="13.1262059"><ele>155.0</ele><time>2026-04-02T13:57:15.033Z</time></trkpt><trkpt lat="41.459297" lon="13.1261241"><ele>155.0</ele><time>2026-04-02T13:57:17.037Z</time></trkpt><trkpt lat="41.4593757" lon="13.126054"><ele>155.0</ele><time>2026-04-02T13:57:19.037Z</time></trkpt><trkpt lat="41.4594546" lon="13.1260045"><ele>155.0</ele><time>2026-04-02T13:57:21.035Z</time></trkpt><trkpt lat="41.4595295" lon="13.1259838"><ele>155.0</ele><time>2026-04-02T13:57:23.04Z</time></trkpt><trkpt lat="41.459601" lon="13.125995"><ele>155.0</ele><time>2026-04-02T13:57:25.054Z</time></trkpt><trkpt lat="41.4596716" lon="13.126045"><ele>155.0</ele><time>2026-04-02T13:57:27.036Z</time></trkpt><trkpt lat="41.459741" lon="13.1261275"><ele>158.2</ele><time>2026-04-02T13:57:29.046Z</time></trkpt><trkpt lat="41.4598033" lon="13.1262236"><ele>161.4</ele><time>2026-04-02T13:57:31.042Z</time></trkpt><trkpt lat="41.4598664" lon="13.1263307"><ele>164.60000000000002</ele><time>2026-04-02T13:57:33.036Z</time></trkpt><trkpt lat="41.4599301" lon="13.1264181"><ele>167.8</ele><time>2026-04-02T13:57:35.04Z</time></trkpt><trkpt lat="41.46001" lon="13.1265086"><ele>171.0</ele><time>2026-04-02T13:57:37.035Z</time></trkpt><trkpt lat="41.4600974" lon="13.1265782"><ele>174.60000000000002</ele><time>2026-04-02T13:57:39.036Z</time></trkpt><trkpt lat="41.4602014" lon="13.1266697"><ele>178.2</ele><time>2026-04-02T13:57:41.035Z</time></trkpt><trkpt lat="41.4603141" lon="13.1267449"><ele>181.8</ele><time>2026-04-02T13:57:43.039Z</time></trkpt><trkpt lat="41.4603754" lon="13.1267777"><ele>185.39999999999998</ele><time>2026-04-02T13:57:44.035Z</time></trkpt><trkpt lat="41.4604788" lon="13.1268442"><ele>189.0</ele><time>2026-04-02T13:57:46.035Z</time></trkpt><trkpt lat="41.4605512" lon="13.1268783"><ele>189.0</ele><time>2026-04-02T13:57:47.038Z</time></trkpt><trkpt lat="41.4606552" lon="13.1268982"><ele>189.0</ele><time>2026-04-02T13:57:49.041Z</time></trkpt><trkpt lat="41.4607229" lon="13.1268483"><ele>189.0</ele><time>2026-04-02T13:57:51.043Z</time></trkpt><trkpt lat="41.4607804" lon="13.126805"><ele>189.0</ele><time>2026-04-02T13:57:52.041Z</time></trkpt><trkpt lat="41.4608798" lon="13.1267451"><ele>189.0</ele><time>2026-04-02T13:57:54.042Z</time></trkpt><trkpt lat="41.4609999" lon="13.1267"><ele>189.0</ele><time>2026-04-02T13:57:56.038Z</time></trkpt><trkpt lat="41.4610886" lon="13.1266409"><ele>189.0</ele><time>2026-04-02T13:57:58.049Z</time></trkpt><trkpt lat="41.4611627" lon="13.1265596"><ele>189.0</ele><time>2026-04-02T13:58:00.045Z</time></trkpt><trkpt lat="41.4612505" lon="13.1264594"><ele>189.0</ele><time>2026-04-02T13:58:02.037Z</time></trkpt><trkpt lat="41.4613288" lon="13.1264173"><ele>189.0</ele><time>2026-04-02T13:58:04.038Z</time></trkpt><trkpt lat="41.4614054" lon="13.1263511"><ele>186.0</ele><time>2026-04-02T13:58:06.036Z</time></trkpt><trkpt lat="41.4615053" lon="13.12628"><ele>183.0</ele><time>2026-04-02T13:58:08.039Z</time></trkpt><trkpt lat="41.4616107" lon="13.1262285"><ele>180.0</ele><time>2026-04-02T13:58:10.04Z</time></trkpt><trkpt lat="41.4617077" lon="13.1262066"><ele>177.0</ele><time>2026-04-02T13:58:12.039Z</time></trkpt><trkpt lat="41.461811" lon="13.126205"><ele>174.0</ele><time>2026-04-02T13:58:14.036Z</time></trkpt><trkpt lat="41.4619075" lon="13.1261931"><ele>174.0</ele><time>2026-04-02T13:58:16.041Z</time></trkpt><trkpt lat="41.4619997" lon="13.1261797"><ele>174.0</ele><time>2026-04-02T13:58:18.045Z</time></trkpt><trkpt lat="41.462076" lon="13.1261658"><ele>174.0</ele><time>2026-04-02T13:58:20.039Z</time></trkpt><trkpt lat="41.462144" lon="13.1261691"><ele>174.0</ele><time>2026-04-02T13:58:22.04Z</time></trkpt><trkpt lat="41.4622275" lon="13.1261702"><ele>174.0</ele><time>2026-04-02T13:58:24.044Z</time></trkpt><trkpt lat="41.4623117" lon="13.1261411"><ele>174.0</ele><time>2026-04-02T13:58:26.057Z</time></trkpt><trkpt lat="41.4623773" lon="13.126106"><ele>175.0</ele><time>2026-04-02T13:58:28.05Z</time></trkpt><trkpt lat="41.4624682" lon="13.1260605"><ele>176.0</ele><time>2026-04-02T13:58:30.052Z</time></trkpt><trkpt lat="41.4625546" lon="13.1260306"><ele>177.0</ele><time>2026-04-02T13:58:32.045Z</time></trkpt><trkpt lat="41.4626385" lon="13.125997"><ele>178.0</ele><time>2026-04-02T13:58:34.044Z</time></trkpt><trkpt lat="41.4627533" lon="13.1259255"><ele>179.0</ele><time>2026-04-02T13:58:36.045Z</time></trkpt><trkpt lat="41.462815" lon="13.1258971"><ele>179.00000000000003</ele><time>2026-04-02T13:58:37.034Z</time></trkpt><trkpt lat="41.4628787" lon="13.1258761"><ele>179.0</ele><time>2026-04-02T13:58:38.044Z</time></trkpt><trkpt lat="41.4629439" lon="13.1258601"><ele>179.0</ele><time>2026-04-02T13:58:39.043Z</time></trkpt><trkpt lat="41.4630095" lon="13.1258359"><ele>179.0</ele><time>2026-04-02T13:58:40.049Z</time></trkpt><trkpt lat="41.4630848" lon="13.125802"><ele>179.0</ele><time>2026-04-02T13:58:41.04Z</time></trkpt><trkpt lat="41.463151" lon="13.1257706"><ele>179.00000000000003</ele><time>2026-04-02T13:58:42.032Z</time></trkpt><trkpt lat="41.4632185" lon="13.1257364"><ele>179.0</ele><time>2026-04-02T13:58:43.039Z</time></trkpt><trkpt lat="41.4632823" lon="13.125711"><ele>176.66666666666666</ele><time>2026-04-02T13:58:44.041Z</time></trkpt><trkpt lat="41.4633955" lon="13.1256885"><ele>174.33333333333331</ele><time>2026-04-02T13:58:46.04Z</time></trkpt><trkpt lat="41.4634792" lon="13.1256938"><ele>172.0</ele><time>2026-04-02T13:58:48.055Z</time></trkpt><trkpt lat="41.4635553" lon="13.125673"><ele>169.66666666666666</ele><time>2026-04-02T13:59:07.042Z</time></trkpt><trkpt lat="41.4636183" lon="13.1256514"><ele>167.33333333333334</ele><time>2026-04-02T13:59:31.041Z</time></trkpt><trkpt lat="41.4637182" lon="13.1256711"><ele>165.0</ele><time>2026-04-02T13:59:33.05Z</time></trkpt><trkpt lat="41.4638001" lon="13.1257297"><ele>165.0</ele><time>2026-04-02T13:59:34.042Z</time></trkpt><trkpt lat="41.4638885" lon="13.125781"><ele>165.0</ele><time>2026-04-02T13:59:35.039Z</time></trkpt><trkpt lat="41.4639925" lon="13.1258375"><ele>165.0</ele><time>2026-04-02T13:59:36.037Z</time></trkpt><trkpt lat="41.4641217" lon="13.1259008"><ele>165.0</ele><time>2026-04-02T13:59:37.038Z</time></trkpt><trkpt lat="41.4642628" lon="13.1259666"><ele>165.0</ele><time>2026-04-02T13:59:38.032Z</time></trkpt><trkpt lat="41.4643913" lon="13.1260354"><ele>165.0</ele><time>2026-04-02T13:59:39.037Z</time></trkpt><trkpt lat="41.4645042" lon="13.1260952"><ele>165.0</ele><time>2026-04-02T13:59:40.045Z</time></trkpt><trkpt lat="41.4645847" lon="13.1261706"><ele>165.0</ele><time>2026-04-02T13:59:41.042Z</time></trkpt><trkpt lat="41.4646665" lon="13.1262385"><ele>164.4</ele><time>2026-04-02T13:59:42.036Z</time></trkpt><trkpt lat="41.4647277" lon="13.1263142"><ele>163.8</ele><time>2026-04-02T13:59:43.052Z</time></trkpt><trkpt lat="41.4648194" lon="13.1264366"><ele>163.2</ele><time>2026-04-02T13:59:45.039Z</time></trkpt><trkpt lat="41.4648732" lon="13.1265151"><ele>162.6</ele><time>2026-04-02T13:59:46.041Z</time></trkpt><trkpt lat="41.464928" lon="13.1266071"><ele>162.0</ele><time>2026-04-02T13:59:47.039Z</time></trkpt><trkpt lat="41.4649883" lon="13.1267233"><ele>162.0</ele><time>2026-04-02T13:59:48.038Z</time></trkpt><trkpt lat="41.4650416" lon="13.1268417"><ele>162.0</ele><time>2026-04-02T13:59:49.036Z</time></trkpt><trkpt lat="41.4650954" lon="13.126977"><ele>162.0</ele><time>2026-04-02T13:59:50.048Z</time></trkpt><trkpt lat="41.4651471" lon="13.1271166"><ele>162.0</ele><time>2026-04-02T13:59:51.043Z</time></trkpt><trkpt lat="41.4652011" lon="13.127264"><ele>164.5</ele><time>2026-04-02T13:59:52.037Z</time></trkpt><trkpt lat="41.4652524" lon="13.1274149"><ele>167.0</ele><time>2026-04-02T13:59:53.051Z</time></trkpt><trkpt lat="41.4653006" lon="13.1275661"><ele>169.5</ele><time>2026-04-02T13:59:54.036Z</time></trkpt><trkpt lat="41.4653467" lon="13.1277188"><ele>172.0</ele><time>2026-04-02T13:59:55.035Z</time></trkpt><trkpt lat="41.4653793" lon="13.1278714"><ele>172.0</ele><time>2026-04-02T13:59:56.03Z</time></trkpt><trkpt lat="41.4653874" lon="13.1280179"><ele>172.0</ele><time>2026-04-02T13:59:57.053Z</time></trkpt><trkpt lat="41.4653709" lon="13.1281698"><ele>172.0</ele><time>2026-04-02T13:59:58.035Z</time></trkpt><trkpt lat="41.4653397" lon="13.1283298"><ele>172.0</ele><time>2026-04-02T13:59:59.036Z</time></trkpt><trkpt lat="41.465302" lon="13.1284993"><ele>173.25</ele><time>2026-04-02T14:00:00.034Z</time></trkpt><trkpt lat="41.4652653" lon="13.1286618"><ele>174.5</ele><time>2026-04-02T14:00:01.036Z</time></trkpt><trkpt lat="41.4652242" lon="13.1288282"><ele>175.75</ele><time>2026-04-02T14:00:02.039Z</time></trkpt><trkpt lat="41.4651725" lon="13.1290005"><ele>177.0</ele><time>2026-04-02T14:00:03.037Z</time></trkpt><trkpt lat="41.4651141" lon="13.129174"><ele>177.0</ele><time>2026-04-02T14:00:04.039Z</time></trkpt><trkpt lat="41.4650557" lon="13.1293469"><ele>177.0</ele><time>2026-04-02T14:00:05.047Z</time></trkpt><trkpt lat="41.4649894" lon="13.1295234"><ele>177.0</ele><time>2026-04-02T14:00:06.042Z</time></trkpt><trkpt lat="41.4649194" lon="13.1296981"><ele>177.0</ele><time>2026-04-02T14:00:07.038Z</time></trkpt><trkpt lat="41.4648489" lon="13.1298714"><ele>176.75</ele><time>2026-04-02T14:00:08.045Z</time></trkpt><trkpt lat="41.464781" lon="13.1300354"><ele>176.5</ele><time>2026-04-02T14:00:09.042Z</time></trkpt><trkpt lat="41.464719" lon="13.1301823"><ele>176.25</ele><time>2026-04-02T14:00:10.035Z</time></trkpt><trkpt lat="41.4646637" lon="13.1303085"><ele>176.0</ele><time>2026-04-02T14:00:11.044Z</time></trkpt><trkpt lat="41.4646113" lon="13.1304288"><ele>177.8</ele><time>2026-04-02T14:00:12.043Z</time></trkpt><trkpt lat="41.4645745" lon="13.130531"><ele>179.60000000000002</ele><time>2026-04-02T14:00:13.036Z</time></trkpt><trkpt lat="41.46456" lon="13.1306889"><ele>181.4</ele><time>2026-04-02T14:00:15.044Z</time></trkpt><trkpt lat="41.4645017" lon="13.1307844"><ele>183.2</ele><time>2026-04-02T14:00:17.039Z</time></trkpt><trkpt lat="41.4644171" lon="13.1307989"><ele>185.0</ele><time>2026-04-02T14:00:19.036Z</time></trkpt><trkpt lat="41.4643022" lon="13.1308379"><ele>185.0</ele><time>2026-04-02T14:00:21.043Z</time></trkpt><trkpt lat="41.4642036" lon="13.130954"><ele>185.0</ele><time>2026-04-02T14:00:23.038Z</time></trkpt><trkpt lat="41.4641579" lon="13.1310251"><ele>185.0</ele><time>2026-04-02T14:00:24.035Z</time></trkpt><trkpt lat="41.4641121" lon="13.1311007"><ele>185.0</ele><time>2026-04-02T14:00:25.039Z</time></trkpt><trkpt lat="41.4640688" lon="13.1311711"><ele>185.0</ele><time>2026-04-02T14:00:26.038Z</time></trkpt><trkpt lat="41.4640347" lon="13.1312505"><ele>185.0</ele><time>2026-04-02T14:00:27.038Z</time></trkpt><trkpt lat="41.4640427" lon="13.1314071"><ele>185.0</ele><time>2026-04-02T14:00:29.057Z</time></trkpt><trkpt lat="41.46408" lon="13.131478"><ele>185.0</ele><time>2026-04-02T14:00:30.042Z</time></trkpt><trkpt lat="41.4641706" lon="13.1315765"><ele>185.0</ele><time>2026-04-02T14:00:32.037Z</time></trkpt><trkpt lat="41.4642895" lon="13.1315885"><ele>185.0</ele><time>2026-04-02T14:00:34.044Z</time></trkpt><trkpt lat="41.464354" lon="13.1315493"><ele>185.0</ele><time>2026-04-02T14:00:35.034Z</time></trkpt><trkpt lat="41.4644114" lon="13.1315125"><ele>185.0</ele><time>2026-04-02T14:00:36.043Z</time></trkpt><trkpt lat="41.4644825" lon="13.1315258"><ele>185.33333333333331</ele><time>2026-04-02T14:00:38.036Z</time></trkpt><trkpt lat="41.4644619" lon="13.1316175"><ele>185.66666666666666</ele><time>2026-04-02T14:00:40.044Z</time></trkpt><trkpt lat="41.4643555" lon="13.1316994"><ele>186.0</ele><time>2026-04-02T14:00:42.036Z</time></trkpt><trkpt lat="41.464293" lon="13.1317548"><ele>186.33333333333334</ele><time>2026-04-02T14:00:43.051Z</time></trkpt><trkpt lat="41.464225" lon="13.1318271"><ele>186.66666666666669</ele><time>2026-04-02T14:00:44.035Z</time></trkpt><trkpt lat="41.4641544" lon="13.1319078"><ele>187.0</ele><time>2026-04-02T14:00:45.045Z</time></trkpt><trkpt lat="41.4640768" lon="13.1319957"><ele>187.0</ele><time>2026-04-02T14:00:46.042Z</time></trkpt><trkpt lat="41.4639948" lon="13.1320949"><ele>187.0</ele><time>2026-04-02T14:00:47.042Z</time></trkpt><trkpt lat="41.4638993" lon="13.1322101"><ele>187.0</ele><time>2026-04-02T14:00:48.041Z</time></trkpt><trkpt lat="41.4638177" lon="13.1323179"><ele>187.0</ele><time>2026-04-02T14:00:49.045Z</time></trkpt><trkpt lat="41.4637479" lon="13.1324506"><ele>188.0</ele><time>2026-04-02T14:00:50.043Z</time></trkpt><trkpt lat="41.4636892" lon="13.1325917"><ele>189.0</ele><time>2026-04-02T14:00:51.043Z</time></trkpt><trkpt lat="41.4636345" lon="13.1327479"><ele>190.0</ele><time>2026-04-02T14:00:52.042Z</time></trkpt><trkpt lat="41.4635922" lon="13.1329128"><ele>191.0</ele><time>2026-04-02T14:00:53.042Z</time></trkpt><trkpt lat="41.4635481" lon="13.1330835"><ele>191.75</ele><time>2026-04-02T14:00:54.037Z</time></trkpt><trkpt lat="41.4635019" lon="13.1332632"><ele>192.5</ele><time>2026-04-02T14:00:55.038Z</time></trkpt><trkpt lat="41.4634474" lon="13.1334434"><ele>193.25</ele><time>2026-04-02T14:00:56.035Z</time></trkpt><trkpt lat="41.4633899" lon="13.1336284"><ele>194.0</ele><time>2026-04-02T14:00:57.038Z</time></trkpt><trkpt lat="41.4633156" lon="13.1338144"><ele>194.0</ele><time>2026-04-02T14:00:58.049Z</time></trkpt><trkpt lat="41.4632391" lon="13.133999"><ele>194.0</ele><time>2026-04-02T14:00:59.069Z</time></trkpt><trkpt lat="41.4631586" lon="13.1341939"><ele>194.0</ele><time>2026-04-02T14:01:00.048Z</time></trkpt><trkpt lat="41.4630729" lon="13.1343929"><ele>197.0</ele><time>2026-04-02T14:01:01.04Z</time></trkpt><trkpt lat="41.4629907" lon="13.1345918"><ele>200.0</ele><time>2026-04-02T14:01:02.043Z</time></trkpt><trkpt lat="41.4629117" lon="13.1347918"><ele>203.0</ele><time>2026-04-02T14:01:03.034Z</time></trkpt><trkpt lat="41.4628295" lon="13.1349986"><ele>196.66666666666669</ele><time>2026-04-02T14:01:04.059Z</time></trkpt><trkpt lat="41.462744" lon="13.1352103"><ele>190.33333333333334</ele><time>2026-04-02T14:01:05.045Z</time></trkpt><trkpt lat="41.4626594" lon="13.1354245"><ele>184.0</ele><time>2026-04-02T14:01:06.037Z</time></trkpt><trkpt lat="41.4625736" lon="13.1356361"><ele>187.66666666666669</ele><time>2026-04-02T14:01:07.038Z</time></trkpt><trkpt lat="41.4624835" lon="13.1358388"><ele>191.33333333333334</ele><time>2026-04-02T14:01:08.032Z</time></trkpt><trkpt lat="41.4623816" lon="13.1360276"><ele>195.0</ele><time>2026-04-02T14:01:09.037Z</time></trkpt><trkpt lat="41.4622701" lon="13.1362121"><ele>195.0</ele><time>2026-04-02T14:01:10.036Z</time></trkpt><trkpt lat="41.4621509" lon="13.1363937"><ele>195.0</ele><time>2026-04-02T14:01:11.047Z</time></trkpt><trkpt lat="41.4620279" lon="13.1365736"><ele>195.0</ele><time>2026-04-02T14:01:12.037Z</time></trkpt><trkpt lat="41.4619045" lon="13.1367548"><ele>190.33333333333334</ele><time>2026-04-02T14:01:13.036Z</time></trkpt><trkpt lat="41.4617815" lon="13.136938"><ele>185.66666666666669</ele><time>2026-04-02T14:01:14.04Z</time></trkpt><trkpt lat="41.4616587" lon="13.1371227"><ele>181.0</ele><time>2026-04-02T14:01:15.037Z</time></trkpt><trkpt lat="41.4615343" lon="13.1373091"><ele>177.66666666666669</ele><time>2026-04-02T14:01:16.06Z</time></trkpt><trkpt lat="41.4614094" lon="13.1374981"><ele>174.33333333333334</ele><time>2026-04-02T14:01:17.036Z</time></trkpt><trkpt lat="41.4612857" lon="13.1376883"><ele>171.0</ele><time>2026-04-02T14:01:18.039Z</time></trkpt><trkpt lat="41.4611629" lon="13.1378801"><ele>171.0</ele><time>2026-04-02T14:01:19.035Z</time></trkpt><trkpt lat="41.4610434" lon="13.1380708"><ele>171.0</ele><time>2026-04-02T14:01:20.037Z</time></trkpt><trkpt lat="41.460928" lon="13.1382592"><ele>171.0</ele><time>2026-04-02T14:01:21.069Z</time></trkpt><trkpt lat="41.4608182" lon="13.1384471"><ele>176.33333333333334</ele><time>2026-04-02T14:01:22.04Z</time></trkpt><trkpt lat="41.4607087" lon="13.1386441"><ele>181.66666666666669</ele><time>2026-04-02T14:01:23.036Z</time></trkpt><trkpt lat="41.4606003" lon="13.1388446"><ele>187.0</ele><time>2026-04-02T14:01:24.036Z</time></trkpt><trkpt lat="41.4604921" lon="13.1390451"><ele>183.0</ele><time>2026-04-02T14:01:25.039Z</time></trkpt><trkpt lat="41.4603863" lon="13.1392464"><ele>179.0</ele><time>2026-04-02T14:01:26.047Z</time></trkpt><trkpt lat="41.4602816" lon="13.1394486"><ele>175.0</ele><time>2026-04-02T14:01:27.039Z</time></trkpt><trkpt lat="41.4601755" lon="13.1396506"><ele>175.0</ele><time>2026-04-02T14:01:28.052Z</time></trkpt><trkpt lat="41.4600694" lon="13.1398526"><ele>175.0</ele><time>2026-04-02T14:01:29.044Z</time></trkpt><trkpt lat="41.459963" lon="13.1400549"><ele>175.0</ele><time>2026-04-02T14:01:30.041Z</time></trkpt><trkpt lat="41.4598585" lon="13.1402591"><ele>173.33333333333334</ele><time>2026-04-02T14:01:31.039Z</time></trkpt><trkpt lat="41.4597551" lon="13.1404586"><ele>171.66666666666666</ele><time>2026-04-02T14:01:32.034Z</time></trkpt><trkpt lat="41.4596628" lon="13.1406759"><ele>170.0</ele><time>2026-04-02T14:01:33.068Z</time></trkpt><trkpt lat="41.459578" lon="13.1409005"><ele>170.0</ele><time>2026-04-02T14:01:34.039Z</time></trkpt><trkpt lat="41.4594952" lon="13.1411223"><ele>170.0</ele><time>2026-04-02T14:01:35.039Z</time></trkpt><trkpt lat="41.4594188" lon="13.1413518"><ele>170.0</ele><time>2026-04-02T14:01:36.04Z</time></trkpt><trkpt lat="41.4593518" lon="13.1415874"><ele>173.33333333333331</ele><time>2026-04-02T14:01:37.037Z</time></trkpt><trkpt lat="41.4592882" lon="13.1418191"><ele>176.66666666666666</ele><time>2026-04-02T14:01:38.076Z</time></trkpt><trkpt lat="41.459229" lon="13.1420479"><ele>180.0</ele><time>2026-04-02T14:01:39.035Z</time></trkpt><trkpt lat="41.4591769" lon="13.142284"><ele>183.66666666666666</ele><time>2026-04-02T14:01:40.04Z</time></trkpt><trkpt lat="41.4591239" lon="13.1425189"><ele>187.33333333333331</ele><time>2026-04-02T14:01:41.04Z</time></trkpt><trkpt lat="41.4590598" lon="13.1427562"><ele>191.0</ele><time>2026-04-02T14:01:42.036Z</time></trkpt><trkpt lat="41.4589998" lon="13.142985"><ele>193.66666666666666</ele><time>2026-04-02T14:01:43.034Z</time></trkpt><trkpt lat="41.4589304" lon="13.1432151"><ele>196.33333333333331</ele><time>2026-04-02T14:01:44.039Z</time></trkpt><trkpt lat="41.4588665" lon="13.1434399"><ele>199.0</ele><time>2026-04-02T14:01:45.04Z</time></trkpt><trkpt lat="41.4588038" lon="13.1436446"><ele>193.75</ele><time>2026-04-02T14:01:46.035Z</time></trkpt><trkpt lat="41.4587483" lon="13.1438327"><ele>188.5</ele><time>2026-04-02T14:01:47.04Z</time></trkpt><trkpt lat="41.4587005" lon="13.14401"><ele>183.25</ele><time>2026-04-02T14:01:48.038Z</time></trkpt><trkpt lat="41.4586596" lon="13.1441701"><ele>178.0</ele><time>2026-04-02T14:01:49.037Z</time></trkpt><trkpt lat="41.4586174" lon="13.1443139"><ele>178.0</ele><time>2026-04-02T14:01:50.043Z</time></trkpt><trkpt lat="41.4585761" lon="13.1444694"><ele>178.0</ele><time>2026-04-02T14:01:51.041Z</time></trkpt><trkpt lat="41.4584891" lon="13.1446001"><ele>178.0</ele><time>2026-04-02T14:01:52.04Z</time></trkpt><trkpt lat="41.4583894" lon="13.1447342"><ele>178.0</ele><time>2026-04-02T14:01:53.048Z</time></trkpt><trkpt lat="41.4582911" lon="13.1448759"><ele>182.0</ele><time>2026-04-02T14:01:54.048Z</time></trkpt><trkpt lat="41.4581869" lon="13.1450196"><ele>186.0</ele><time>2026-04-02T14:01:55.043Z</time></trkpt><trkpt lat="41.4580799" lon="13.1451708"><ele>190.0</ele><time>2026-04-02T14:01:56.04Z</time></trkpt><trkpt lat="41.4579773" lon="13.145324"><ele>187.0</ele><time>2026-04-02T14:01:57.036Z</time></trkpt><trkpt lat="41.4578717" lon="13.1454823"><ele>184.0</ele><time>2026-04-02T14:01:58.043Z</time></trkpt><trkpt lat="41.4577666" lon="13.1456391"><ele>181.0</ele><time>2026-04-02T14:01:59.037Z</time></trkpt><trkpt lat="41.4576572" lon="13.1457945"><ele>181.0</ele><time>2026-04-02T14:02:00.042Z</time></trkpt><trkpt lat="41.4575496" lon="13.14595"><ele>181.0</ele><time>2026-04-02T14:02:01.045Z</time></trkpt><trkpt lat="41.4574541" lon="13.1461111"><ele>181.0</ele><time>2026-04-02T14:02:02.058Z</time></trkpt><trkpt lat="41.4573672" lon="13.1462848"><ele>181.0</ele><time>2026-04-02T14:02:03.045Z</time></trkpt><trkpt lat="41.4572897" lon="13.1464646"><ele>181.0</ele><time>2026-04-02T14:02:04.047Z</time></trkpt><trkpt lat="41.457223" lon="13.146649"><ele>181.0</ele><time>2026-04-02T14:02:05.048Z</time></trkpt><trkpt lat="41.4571613" lon="13.1468335"><ele>177.33333333333334</ele><time>2026-04-02T14:02:06.04Z</time></trkpt><trkpt lat="41.4571061" lon="13.1470201"><ele>173.66666666666666</ele><time>2026-04-02T14:02:07.045Z</time></trkpt><trkpt lat="41.4570626" lon="13.1472127"><ele>170.0</ele><time>2026-04-02T14:02:08.046Z</time></trkpt><trkpt lat="41.4570253" lon="13.1474081"><ele>170.0</ele><time>2026-04-02T14:02:09.043Z</time></trkpt><trkpt lat="41.4569946" lon="13.1476181"><ele>170.0</ele><time>2026-04-02T14:02:10.052Z</time></trkpt><trkpt lat="41.456983" lon="13.1478387"><ele>170.0</ele><time>2026-04-02T14:02:11.049Z</time></trkpt><trkpt lat="41.4569569" lon="13.1480549"><ele>172.33333333333331</ele><time>2026-04-02T14:02:12.058Z</time></trkpt><trkpt lat="41.4569366" lon="13.1482835"><ele>174.66666666666666</ele><time>2026-04-02T14:02:13.063Z</time></trkpt><trkpt lat="41.4569086" lon="13.1485112"><ele>177.0</ele><time>2026-04-02T14:02:14.038Z</time></trkpt><trkpt lat="41.456889" lon="13.1487181"><ele>177.0</ele><time>2026-04-02T14:02:15.04Z</time></trkpt><trkpt lat="41.4568726" lon="13.1489035"><ele>177.0</ele><time>2026-04-02T14:02:16.044Z</time></trkpt><trkpt lat="41.4568484" lon="13.1490663"><ele>177.0</ele><time>2026-04-02T14:02:17.046Z</time></trkpt><trkpt lat="41.456818" lon="13.1492101"><ele>177.0</ele><time>2026-04-02T14:02:18.039Z</time></trkpt><trkpt lat="41.4567706" lon="13.1493288"><ele>178.2</ele><time>2026-04-02T14:02:19.037Z</time></trkpt><trkpt lat="41.4567029" lon="13.1494301"><ele>179.39999999999998</ele><time>2026-04-02T14:02:20.039Z</time></trkpt><trkpt lat="41.4566176" lon="13.1494936"><ele>180.60000000000002</ele><time>2026-04-02T14:02:21.04Z</time></trkpt><trkpt lat="41.4565283" lon="13.1495469"><ele>181.8</ele><time>2026-04-02T14:02:22.043Z</time></trkpt><trkpt lat="41.4564389" lon="13.149578"><ele>183.0</ele><time>2026-04-02T14:02:23.046Z</time></trkpt><trkpt lat="41.4563901" lon="13.149659"><ele>183.0</ele><time>2026-04-02T14:02:24.05Z</time></trkpt><trkpt lat="41.4563494" lon="13.1497471"><ele>183.0</ele><time>2026-04-02T14:02:25.046Z</time></trkpt><trkpt lat="41.4563734" lon="13.1498832"><ele>183.0</ele><time>2026-04-02T14:02:26.058Z</time></trkpt><trkpt lat="41.4563906" lon="13.1500104"><ele>183.0</ele><time>2026-04-02T14:02:27.05Z</time></trkpt><trkpt lat="41.456401" lon="13.1501611"><ele>183.0</ele><time>2026-04-02T14:02:28.04Z</time></trkpt><trkpt lat="41.4563931" lon="13.1503223"><ele>183.4</ele><time>2026-04-02T14:02:29.049Z</time></trkpt><trkpt lat="41.4563966" lon="13.1504679"><ele>183.8</ele><time>2026-04-02T14:02:30.054Z</time></trkpt><trkpt lat="41.4563948" lon="13.1506185"><ele>184.2</ele><time>2026-04-02T14:02:31.049Z</time></trkpt><trkpt lat="41.4563949" lon="13.1507691"><ele>184.6</ele><time>2026-04-02T14:02:32.05Z</time></trkpt><trkpt lat="41.4563983" lon="13.1509216"><ele>185.0</ele><time>2026-04-02T14:02:33.049Z</time></trkpt><trkpt lat="41.456406" lon="13.1510556"><ele>185.5</ele><time>2026-04-02T14:02:34.068Z</time></trkpt><trkpt lat="41.4564035" lon="13.1511599"><ele>186.0</ele><time>2026-04-02T14:02:35.038Z</time></trkpt><trkpt lat="41.4564067" lon="13.1513012"><ele>186.5</ele><time>2026-04-02T14:02:37.054Z</time></trkpt><trkpt lat="41.4564687" lon="13.1514424"><ele>187.0</ele><time>2026-04-02T14:02:39.047Z</time></trkpt><trkpt lat="41.4565249" lon="13.1514967"><ele>187.5</ele><time>2026-04-02T14:02:40.059Z</time></trkpt><trkpt lat="41.4565905" lon="13.1515336"><ele>188.0</ele><time>2026-04-02T14:02:41.046Z</time></trkpt><trkpt lat="41.4566753" lon="13.151615"><ele>188.75</ele><time>2026-04-02T14:02:43.055Z</time></trkpt><trkpt lat="41.4567276" lon="13.1517905"><ele>189.5</ele><time>2026-04-02T14:02:45.051Z</time></trkpt><trkpt lat="41.4567461" lon="13.1519332"><ele>190.25</ele><time>2026-04-02T14:02:46.055Z</time></trkpt><trkpt lat="41.4567786" lon="13.1520796"><ele>191.0</ele><time>2026-04-02T14:02:47.046Z</time></trkpt><trkpt lat="41.4568164" lon="13.1521873"><ele>191.0</ele><time>2026-04-02T14:02:48.045Z</time></trkpt><trkpt lat="41.4568662" lon="13.1522838"><ele>191.0</ele><time>2026-04-02T14:02:49.049Z</time></trkpt><trkpt lat="41.4568964" lon="13.1524424"><ele>191.0</ele><time>2026-04-02T14:02:50.053Z</time></trkpt><trkpt lat="41.4569257" lon="13.152607"><ele>191.0</ele><time>2026-04-02T14:02:51.057Z</time></trkpt><trkpt lat="41.4569569" lon="13.1527271"><ele>191.0</ele><time>2026-04-02T14:02:52.04Z</time></trkpt><trkpt lat="41.457001" lon="13.1528875"><ele>191.0</ele><time>2026-04-02T14:02:53.052Z</time></trkpt><trkpt lat="41.4570542" lon="13.153022"><ele>191.0</ele><time>2026-04-02T14:02:54.048Z</time></trkpt><trkpt lat="41.4571135" lon="13.1531343"><ele>191.0</ele><time>2026-04-02T14:02:55.039Z</time></trkpt><trkpt lat="41.4571601" lon="13.1532514"><ele>191.0</ele><time>2026-04-02T14:02:56.036Z</time></trkpt><trkpt lat="41.457214" lon="13.1533897"><ele>191.0</ele><time>2026-04-02T14:02:57.04Z</time></trkpt><trkpt lat="41.4572802" lon="13.1535312"><ele>191.0</ele><time>2026-04-02T14:02:58.044Z</time></trkpt><trkpt lat="41.457346" lon="13.1536197"><ele>191.0</ele><time>2026-04-02T14:02:59.04Z</time></trkpt><trkpt lat="41.4574036" lon="13.1536998"><ele>191.0</ele><time>2026-04-02T14:03:00.046Z</time></trkpt><trkpt lat="41.4574424" lon="13.1538447"><ele>191.0</ele><time>2026-04-02T14:03:04.051Z</time></trkpt><trkpt lat="41.4574265" lon="13.1539419"><ele>191.0</ele><time>2026-04-02T14:03:06.055Z</time></trkpt><trkpt lat="41.4574708" lon="13.1541034"><ele>189.60000000000002</ele><time>2026-04-02T14:03:08.054Z</time></trkpt><trkpt lat="41.457528" lon="13.1542575"><ele>188.2</ele><time>2026-04-02T14:03:10.052Z</time></trkpt><trkpt lat="41.4575509" lon="13.1543969"><ele>186.8</ele><time>2026-04-02T14:03:12.053Z</time></trkpt><trkpt lat="41.457526" lon="13.1544789"><ele>185.39999999999998</ele><time>2026-04-02T14:03:14.056Z</time></trkpt><trkpt lat="41.4574589" lon="13.1545676"><ele>184.0</ele><time>2026-04-02T14:03:16.045Z</time></trkpt><trkpt lat="41.4573778" lon="13.1546487"><ele>184.0</ele><time>2026-04-02T14:03:18.049Z</time></trkpt><trkpt lat="41.4573271" lon="13.1548134"><ele>184.0</ele><time>2026-04-02T14:03:20.047Z</time></trkpt><trkpt lat="41.4573529" lon="13.1549228"><ele>184.0</ele><time>2026-04-02T14:03:21.041Z</time></trkpt><trkpt lat="41.4573565" lon="13.1550296"><ele>184.0</ele><time>2026-04-02T14:03:22.045Z</time></trkpt><trkpt lat="41.4573662" lon="13.1551644"><ele>184.0</ele><time>2026-04-02T14:03:23.045Z</time></trkpt><trkpt lat="41.4573568" lon="13.1552659"><ele>184.0</ele><time>2026-04-02T14:03:24.057Z</time></trkpt><trkpt lat="41.4573388" lon="13.1553583"><ele>184.0</ele><time>2026-04-02T14:03:25.045Z</time></trkpt><trkpt lat="41.4572974" lon="13.1554484"><ele>184.0</ele><time>2026-04-02T14:03:26.058Z</time></trkpt><trkpt lat="41.4572496" lon="13.155576"><ele>184.0</ele><time>2026-04-02T14:03:27.049Z</time></trkpt><trkpt lat="41.4572172" lon="13.1557081"><ele>184.0</ele><time>2026-04-02T14:03:28.042Z</time></trkpt><trkpt lat="41.4571777" lon="13.1558085"><ele>184.0</ele><time>2026-04-02T14:03:29.052Z</time></trkpt><trkpt lat="41.4570894" lon="13.1558866"><ele>185.85714285714286</ele><time>2026-04-02T14:03:31.047Z</time></trkpt><trkpt lat="41.4570472" lon="13.1559558"><ele>187.7142857142857</ele><time>2026-04-02T14:03:32.048Z</time></trkpt><trkpt lat="41.4569835" lon="13.1560324"><ele>189.57142857142856</ele><time>2026-04-02T14:03:33.05Z</time></trkpt><trkpt lat="41.4569326" lon="13.1560849"><ele>191.42857142857144</ele><time>2026-04-02T14:03:34.04Z</time></trkpt><trkpt lat="41.4569035" lon="13.1561595"><ele>193.28571428571428</ele><time>2026-04-02T14:03:35.041Z</time></trkpt><trkpt lat="41.4568764" lon="13.1562369"><ele>195.14285714285714</ele><time>2026-04-02T14:03:36.065Z</time></trkpt><trkpt lat="41.4568678" lon="13.1563285"><ele>197.0</ele><time>2026-04-02T14:03:37.042Z</time></trkpt><trkpt lat="41.4568696" lon="13.1564601"><ele>196.8</ele><time>2026-04-02T14:03:38.046Z</time></trkpt><trkpt lat="41.4568841" lon="13.1565804"><ele>196.6</ele><time>2026-04-02T14:03:39.044Z</time></trkpt><trkpt lat="41.4568947" lon="13.1566898"><ele>196.4</ele><time>2026-04-02T14:03:40.049Z</time></trkpt><trkpt lat="41.4569144" lon="13.1567974"><ele>196.20000000000002</ele><time>2026-04-02T14:03:41.044Z</time></trkpt><trkpt lat="41.456929" lon="13.1568933"><ele>196.0</ele><time>2026-04-02T14:03:42.044Z</time></trkpt><trkpt lat="41.4569185" lon="13.1570672"><ele>196.0</ele><time>2026-04-02T14:03:44.052Z</time></trkpt><trkpt lat="41.4569486" lon="13.1571545"><ele>196.0</ele><time>2026-04-02T14:03:45.054Z</time></trkpt><trkpt lat="41.4569752" lon="13.1572587"><ele>196.0</ele><time>2026-04-02T14:03:46.048Z</time></trkpt><trkpt lat="41.4570261" lon="13.1573985"><ele>196.0</ele><time>2026-04-02T14:03:48.052Z</time></trkpt><trkpt lat="41.4571078" lon="13.1574856"><ele>196.0</ele><time>2026-04-02T14:03:50.067Z</time></trkpt><trkpt lat="41.4571694" lon="13.1575486"><ele>196.60000000000002</ele><time>2026-04-02T14:03:52.046Z</time></trkpt><trkpt lat="41.4571912" lon="13.1577011"><ele>197.2</ele><time>2026-04-02T14:03:56.045Z</time></trkpt><trkpt lat="41.4571476" lon="13.1578193"><ele>197.8</ele><time>2026-04-02T14:03:59.046Z</time></trkpt><trkpt lat="41.4570673" lon="13.1579037"><ele>198.39999999999998</ele><time>2026-04-02T14:04:01.047Z</time></trkpt><trkpt lat="41.4569751" lon="13.158013"><ele>199.0</ele><time>2026-04-02T14:04:03.044Z</time></trkpt><trkpt lat="41.4568928" lon="13.1581347"><ele>198.83333333333331</ele><time>2026-04-02T14:04:05.04Z</time></trkpt><trkpt lat="41.4568106" lon="13.1582354"><ele>198.66666666666666</ele><time>2026-04-02T14:04:07.045Z</time></trkpt><trkpt lat="41.4567545" lon="13.158294"><ele>198.5</ele><time>2026-04-02T14:04:08.044Z</time></trkpt><trkpt lat="41.456692" lon="13.1583493"><ele>198.33333333333331</ele><time>2026-04-02T14:04:09.046Z</time></trkpt><trkpt lat="41.4566306" lon="13.1584001"><ele>198.16666666666666</ele><time>2026-04-02T14:04:10.044Z</time></trkpt><trkpt lat="41.4565811" lon="13.158463"><ele>198.0</ele><time>2026-04-02T14:04:11.045Z</time></trkpt><trkpt lat="41.4565508" lon="13.1585447"><ele>198.0</ele><time>2026-04-02T14:04:12.044Z</time></trkpt><trkpt lat="41.4565351" lon="13.1586428"><ele>198.0</ele><time>2026-04-02T14:04:13.054Z</time></trkpt><trkpt lat="41.4565221" lon="13.1587347"><ele>198.0</ele><time>2026-04-02T14:04:14.051Z</time></trkpt><trkpt lat="41.4564928" lon="13.1588133"><ele>198.0</ele><time>2026-04-02T14:04:15.039Z</time></trkpt><trkpt lat="41.4564418" lon="13.1588801"><ele>198.0</ele><time>2026-04-02T14:04:16.044Z</time></trkpt><trkpt lat="41.4563955" lon="13.1589418"><ele>198.0</ele><time>2026-04-02T14:04:17.056Z</time></trkpt><trkpt lat="41.4563483" lon="13.1590083"><ele>198.0</ele><time>2026-04-02T14:04:18.04Z</time></trkpt><trkpt lat="41.4563093" lon="13.1591324"><ele>198.66666666666666</ele><time>2026-04-02T14:04:20.047Z</time></trkpt><trkpt lat="41.4562934" lon="13.159239"><ele>199.33333333333331</ele><time>2026-04-02T14:04:23.054Z</time></trkpt><trkpt lat="41.4562879" lon="13.1593346"><ele>200.0</ele><time>2026-04-02T14:04:25.045Z</time></trkpt><trkpt lat="41.4562811" lon="13.1594351"><ele>200.66666666666666</ele><time>2026-04-02T14:04:27.054Z</time></trkpt><trkpt lat="41.4562802" lon="13.1595565"><ele>201.33333333333331</ele><time>2026-04-02T14:04:29.053Z</time></trkpt><trkpt lat="41.4562582" lon="13.1597066"><ele>202.0</ele><time>2026-04-02T14:04:31.044Z</time></trkpt><trkpt lat="41.4562494" lon="13.1597914"><ele>202.33333333333331</ele><time>2026-04-02T14:04:32.055Z</time></trkpt><trkpt lat="41.4562344" lon="13.1599306"><ele>202.66666666666666</ele><time>2026-04-02T14:04:34.054Z</time></trkpt><trkpt lat="41.4562226" lon="13.1600193"><ele>203.0</ele><time>2026-04-02T14:04:35.048Z</time></trkpt><trkpt lat="41.4562149" lon="13.1601168"><ele>203.33333333333331</ele><time>2026-04-02T14:04:37.045Z</time></trkpt><trkpt lat="41.4562154" lon="13.1602345"><ele>203.66666666666666</ele><time>2026-04-02T14:04:40.049Z</time></trkpt><trkpt lat="41.4562031" lon="13.160341"><ele>204.0</ele><time>2026-04-02T14:04:43.052Z</time></trkpt><trkpt lat="41.4561799" lon="13.1604889"><ele>204.0</ele><time>2026-04-02T14:04:45.054Z</time></trkpt><trkpt lat="41.4561598" lon="13.1605893"><ele>204.0</ele><time>2026-04-02T14:04:46.044Z</time></trkpt><trkpt lat="41.4561372" lon="13.1606931"><ele>204.0</ele><time>2026-04-02T14:04:47.044Z</time></trkpt><trkpt lat="41.4561165" lon="13.1607986"><ele>204.0</ele><time>2026-04-02T14:04:48.045Z</time></trkpt><trkpt lat="41.4560964" lon="13.1608858"><ele>204.0</ele><time>2026-04-02T14:04:49.05Z</time></trkpt><trkpt lat="41.4560752" lon="13.1609676"><ele>204.0</ele><time>2026-04-02T14:04:50.045Z</time></trkpt><trkpt lat="41.4559798" lon="13.1610827"><ele>203.33333333333334</ele><time>2026-04-02T14:04:52.04Z</time></trkpt><trkpt lat="41.4559196" lon="13.1611374"><ele>202.66666666666669</ele><time>2026-04-02T14:04:53.047Z</time></trkpt><trkpt lat="41.455869" lon="13.1611928"><ele>202.0</ele><time>2026-04-02T14:04:54.044Z</time></trkpt><trkpt lat="41.4558048" lon="13.1612325"><ele>201.33333333333334</ele><time>2026-04-02T14:04:56.052Z</time></trkpt><trkpt lat="41.4557079" lon="13.1611964"><ele>200.66666666666669</ele><time>2026-04-02T14:04:59.044Z</time></trkpt><trkpt lat="41.4556539" lon="13.1611264"><ele>200.0</ele><time>2026-04-02T14:05:00.043Z</time></trkpt><trkpt lat="41.4555921" lon="13.1610395"><ele>200.0</ele><time>2026-04-02T14:05:01.046Z</time></trkpt><trkpt lat="41.4555247" lon="13.1609508"><ele>200.0</ele><time>2026-04-02T14:05:02.046Z</time></trkpt><trkpt lat="41.4554586" lon="13.160865"><ele>200.0</ele><time>2026-04-02T14:05:03.042Z</time></trkpt><trkpt lat="41.4553736" lon="13.1607822"><ele>200.0</ele><time>2026-04-02T14:05:04.043Z</time></trkpt><trkpt lat="41.4552842" lon="13.160738"><ele>200.0</ele><time>2026-04-02T14:05:05.054Z</time></trkpt><trkpt lat="41.4551929" lon="13.1607311"><ele>201.2</ele><time>2026-04-02T14:05:06.043Z</time></trkpt><trkpt lat="41.4551005" lon="13.1607218"><ele>202.4</ele><time>2026-04-02T14:05:07.046Z</time></trkpt><trkpt lat="41.4550119" lon="13.1606981"><ele>203.60000000000002</ele><time>2026-04-02T14:05:08.036Z</time></trkpt><trkpt lat="41.4549134" lon="13.1606766"><ele>204.8</ele><time>2026-04-02T14:05:09.047Z</time></trkpt><trkpt lat="41.4548237" lon="13.1606618"><ele>206.0</ele><time>2026-04-02T14:05:10.045Z</time></trkpt><trkpt lat="41.4547392" lon="13.1606505"><ele>207.4</ele><time>2026-04-02T14:05:11.043Z</time></trkpt><trkpt lat="41.4546457" lon="13.1606341"><ele>208.8</ele><time>2026-04-02T14:05:12.049Z</time></trkpt><trkpt lat="41.4545626" lon="13.1606202"><ele>210.20000000000002</ele><time>2026-04-02T14:05:13.042Z</time></trkpt><trkpt lat="41.4544717" lon="13.1606033"><ele>211.60000000000002</ele><time>2026-04-02T14:05:14.047Z</time></trkpt><trkpt lat="41.4543809" lon="13.1605903"><ele>213.0</ele><time>2026-04-02T14:05:15.041Z</time></trkpt><trkpt lat="41.4542848" lon="13.1605777"><ele>213.4</ele><time>2026-04-02T14:05:16.04Z</time></trkpt><trkpt lat="41.4541862" lon="13.1605589"><ele>213.8</ele><time>2026-04-02T14:05:17.046Z</time></trkpt><trkpt lat="41.4540892" lon="13.1605359"><ele>214.2</ele><time>2026-04-02T14:05:18.042Z</time></trkpt><trkpt lat="41.4539944" lon="13.1605162"><ele>214.6</ele><time>2026-04-02T14:05:19.047Z</time></trkpt><trkpt lat="41.4539098" lon="13.1604993"><ele>215.0</ele><time>2026-04-02T14:05:20.045Z</time></trkpt><trkpt lat="41.4538231" lon="13.1604775"><ele>214.16666666666669</ele><time>2026-04-02T14:05:21.038Z</time></trkpt><trkpt lat="41.4537315" lon="13.1604545"><ele>213.33333333333334</ele><time>2026-04-02T14:05:22.043Z</time></trkpt><trkpt lat="41.4536419" lon="13.1604319"><ele>212.5</ele><time>2026-04-02T14:05:23.043Z</time></trkpt><trkpt lat="41.4535628" lon="13.1604167"><ele>211.66666666666669</ele><time>2026-04-02T14:05:24.044Z</time></trkpt><trkpt lat="41.4534729" lon="13.1604077"><ele>210.83333333333334</ele><time>2026-04-02T14:05:25.056Z</time></trkpt><trkpt lat="41.4533836" lon="13.1604181"><ele>210.0</ele><time>2026-04-02T14:05:26.036Z</time></trkpt><trkpt lat="41.453309" lon="13.1604492"><ele>210.0</ele><time>2026-04-02T14:05:27.042Z</time></trkpt><trkpt lat="41.4532374" lon="13.1604798"><ele>210.0</ele><time>2026-04-02T14:05:28.052Z</time></trkpt><trkpt lat="41.453177" lon="13.160508"><ele>210.0</ele><time>2026-04-02T14:05:29.047Z</time></trkpt><trkpt lat="41.4530814" lon="13.1605417"><ele>210.0</ele><time>2026-04-02T14:05:31.049Z</time></trkpt><trkpt lat="41.4529656" lon="13.1605655"><ele>210.0</ele><time>2026-04-02T14:05:33.039Z</time></trkpt><trkpt lat="41.4529121" lon="13.1606224"><ele>210.0</ele><time>2026-04-02T14:05:35.049Z</time></trkpt><trkpt lat="41.4529613" lon="13.1607143"><ele>209.0</ele><time>2026-04-02T14:05:37.052Z</time></trkpt><trkpt lat="41.4530463" lon="13.1608369"><ele>208.0</ele><time>2026-04-02T14:05:39.062Z</time></trkpt><trkpt lat="41.4530844" lon="13.1609181"><ele>207.0</ele><time>2026-04-02T14:05:40.053Z</time></trkpt><trkpt lat="41.4531221" lon="13.1610086"><ele>206.0</ele><time>2026-04-02T14:05:41.045Z</time></trkpt><trkpt lat="41.4531521" lon="13.1611119"><ele>205.0</ele><time>2026-04-02T14:05:42.039Z</time></trkpt><trkpt lat="41.4531768" lon="13.1612112"><ele>204.0</ele><time>2026-04-02T14:05:43.039Z</time></trkpt><trkpt lat="41.4531831" lon="13.1613215"><ele>204.0</ele><time>2026-04-02T14:05:44.047Z</time></trkpt><trkpt lat="41.453184" lon="13.161434"><ele>204.0</ele><time>2026-04-02T14:05:45.056Z</time></trkpt><trkpt lat="41.4531942" lon="13.1615536"><ele>204.0</ele><time>2026-04-02T14:05:46.045Z</time></trkpt><trkpt lat="41.4532169" lon="13.161668"><ele>204.0</ele><time>2026-04-02T14:05:47.055Z</time></trkpt><trkpt lat="41.4532512" lon="13.1617734"><ele>204.0</ele><time>2026-04-02T14:05:48.051Z</time></trkpt><trkpt lat="41.4532978" lon="13.1618705"><ele>204.0</ele><time>2026-04-02T14:05:49.041Z</time></trkpt><trkpt lat="41.4533511" lon="13.1619654"><ele>202.83333333333334</ele><time>2026-04-02T14:05:50.042Z</time></trkpt><trkpt lat="41.4534041" lon="13.1620631"><ele>201.66666666666669</ele><time>2026-04-02T14:05:51.047Z</time></trkpt><trkpt lat="41.4534504" lon="13.1621698"><ele>200.5</ele><time>2026-04-02T14:05:52.05Z</time></trkpt><trkpt lat="41.4534872" lon="13.1622712"><ele>199.33333333333334</ele><time>2026-04-02T14:05:53.038Z</time></trkpt><trkpt lat="41.4535129" lon="13.1623528"><ele>198.16666666666669</ele><time>2026-04-02T14:05:54.039Z</time></trkpt><trkpt lat="41.4535341" lon="13.1624607"><ele>197.0</ele><time>2026-04-02T14:05:56.051Z</time></trkpt><trkpt lat="41.4535431" lon="13.1625442"><ele>195.8</ele><time>2026-04-02T14:05:58.056Z</time></trkpt><trkpt lat="41.4536133" lon="13.1626747"><ele>194.6</ele><time>2026-04-02T14:06:00.05Z</time></trkpt><trkpt lat="41.4536751" lon="13.1627504"><ele>193.4</ele><time>2026-04-02T14:06:01.052Z</time></trkpt><trkpt lat="41.453753" lon="13.1628197"><ele>192.20000000000002</ele><time>2026-04-02T14:06:02.04Z</time></trkpt><trkpt lat="41.4538284" lon="13.1628819"><ele>191.0</ele><time>2026-04-02T14:06:03.04Z</time></trkpt><trkpt lat="41.4539175" lon="13.1629076"><ele>189.25</ele><time>2026-04-02T14:06:04.054Z</time></trkpt><trkpt lat="41.4540236" lon="13.1629209"><ele>187.5</ele><time>2026-04-02T14:06:05.046Z</time></trkpt><trkpt lat="41.4541393" lon="13.1629352"><ele>185.75</ele><time>2026-04-02T14:06:06.055Z</time></trkpt><trkpt lat="41.4542603" lon="13.1629506"><ele>184.0</ele><time>2026-04-02T14:06:07.05Z</time></trkpt><trkpt lat="41.4543889" lon="13.1629802"><ele>184.0</ele><time>2026-04-02T14:06:08.041Z</time></trkpt><trkpt lat="41.4545222" lon="13.1630329"><ele>184.0</ele><time>2026-04-02T14:06:09.058Z</time></trkpt><trkpt lat="41.4546571" lon="13.1630854"><ele>184.0</ele><time>2026-04-02T14:06:10.046Z</time></trkpt><trkpt lat="41.4548011" lon="13.163129"><ele>184.0</ele><time>2026-04-02T14:06:11.04Z</time></trkpt><trkpt lat="41.4549477" lon="13.1631598"><ele>184.66666666666669</ele><time>2026-04-02T14:06:12.039Z</time></trkpt><trkpt lat="41.4551034" lon="13.1631831"><ele>185.33333333333334</ele><time>2026-04-02T14:06:13.048Z</time></trkpt><trkpt lat="41.4552624" lon="13.1631963"><ele>186.0</ele><time>2026-04-02T14:06:14.041Z</time></trkpt><trkpt lat="41.4554186" lon="13.163198"><ele>186.66666666666666</ele><time>2026-04-02T14:06:15.041Z</time></trkpt><trkpt lat="41.4555741" lon="13.1631958"><ele>187.33333333333331</ele><time>2026-04-02T14:06:16.044Z</time></trkpt><trkpt lat="41.4557337" lon="13.1631924"><ele>188.0</ele><time>2026-04-02T14:06:17.041Z</time></trkpt><trkpt lat="41.4559004" lon="13.1631986"><ele>188.0</ele><time>2026-04-02T14:06:18.049Z</time></trkpt><trkpt lat="41.4560596" lon="13.1632154"><ele>188.0</ele><time>2026-04-02T14:06:19.046Z</time></trkpt><trkpt lat="41.4562079" lon="13.1632357"><ele>188.0</ele><time>2026-04-02T14:06:20.036Z</time></trkpt><trkpt lat="41.4563494" lon="13.163286"><ele>185.33333333333331</ele><time>2026-04-02T14:06:21.041Z</time></trkpt><trkpt lat="41.4565062" lon="13.1633539"><ele>182.66666666666666</ele><time>2026-04-02T14:06:22.044Z</time></trkpt><trkpt lat="41.4566714" lon="13.1634196"><ele>180.0</ele><time>2026-04-02T14:06:23.04Z</time></trkpt><trkpt lat="41.4568274" lon="13.1634879"><ele>180.0</ele><time>2026-04-02T14:06:24.047Z</time></trkpt><trkpt lat="41.4569713" lon="13.1635548"><ele>180.0</ele><time>2026-04-02T14:06:25.039Z</time></trkpt><trkpt lat="41.4570867" lon="13.1636363"><ele>180.0</ele><time>2026-04-02T14:06:26.048Z</time></trkpt><trkpt lat="41.4571885" lon="13.163719"><ele>180.0</ele><time>2026-04-02T14:06:27.052Z</time></trkpt><trkpt lat="41.4572631" lon="13.163851"><ele>180.25</ele><time>2026-04-02T14:06:28.042Z</time></trkpt><trkpt lat="41.4573373" lon="13.1639931"><ele>180.5</ele><time>2026-04-02T14:06:29.046Z</time></trkpt><trkpt lat="41.4574014" lon="13.1641476"><ele>180.75</ele><time>2026-04-02T14:06:30.039Z</time></trkpt><trkpt lat="41.4574606" lon="13.1642984"><ele>181.0</ele><time>2026-04-02T14:06:31.045Z</time></trkpt><trkpt lat="41.4575107" lon="13.164468"><ele>181.0</ele><time>2026-04-02T14:06:32.039Z</time></trkpt><trkpt lat="41.4575769" lon="13.1646357"><ele>181.0</ele><time>2026-04-02T14:06:33.043Z</time></trkpt><trkpt lat="41.4576365" lon="13.1648125"><ele>181.0</ele><time>2026-04-02T14:06:34.049Z</time></trkpt><trkpt lat="41.4577081" lon="13.164991"><ele>181.0</ele><time>2026-04-02T14:06:35.052Z</time></trkpt><trkpt lat="41.4577767" lon="13.1651695"><ele>181.25</ele><time>2026-04-02T14:06:36.044Z</time></trkpt><trkpt lat="41.4578493" lon="13.1653482"><ele>181.5</ele><time>2026-04-02T14:06:37.043Z</time></trkpt><trkpt lat="41.457911" lon="13.1655169"><ele>181.75</ele><time>2026-04-02T14:06:38.047Z</time></trkpt><trkpt lat="41.4579791" lon="13.1656898"><ele>182.0</ele><time>2026-04-02T14:06:39.041Z</time></trkpt><trkpt lat="41.4580465" lon="13.1658586"><ele>180.2</ele><time>2026-04-02T14:06:40.048Z</time></trkpt><trkpt lat="41.4581044" lon="13.1660078"><ele>178.39999999999998</ele><time>2026-04-02T14:06:41.044Z</time></trkpt><trkpt lat="41.4581555" lon="13.1661254"><ele>176.60000000000002</ele><time>2026-04-02T14:06:42.045Z</time></trkpt><trkpt lat="41.4581975" lon="13.1662325"><ele>174.8</ele><time>2026-04-02T14:06:43.047Z</time></trkpt><trkpt lat="41.4582337" lon="13.1663204"><ele>173.0</ele><time>2026-04-02T14:06:44.045Z</time></trkpt><trkpt lat="41.4582695" lon="13.1664521"><ele>173.2</ele><time>2026-04-02T14:06:46.044Z</time></trkpt><trkpt lat="41.4582108" lon="13.166549"><ele>173.4</ele><time>2026-04-02T14:06:48.049Z</time></trkpt><trkpt lat="41.4581428" lon="13.1665795"><ele>173.6</ele><time>2026-04-02T14:06:49.068Z</time></trkpt><trkpt lat="41.4580556" lon="13.1665807"><ele>173.79999999999998</ele><time>2026-04-02T14:06:50.046Z</time></trkpt><trkpt lat="41.4579523" lon="13.1665754"><ele>174.0</ele><time>2026-04-02T14:06:51.046Z</time></trkpt><trkpt lat="41.4578454" lon="13.1665787"><ele>174.75</ele><time>2026-04-02T14:06:52.048Z</time></trkpt><trkpt lat="41.4577225" lon="13.1665979"><ele>175.5</ele><time>2026-04-02T14:06:53.049Z</time></trkpt><trkpt lat="41.457593" lon="13.1666165"><ele>176.25</ele><time>2026-04-02T14:06:54.043Z</time></trkpt><trkpt lat="41.4574585" lon="13.1666321"><ele>177.0</ele><time>2026-04-02T14:06:55.042Z</time></trkpt><trkpt lat="41.4573194" lon="13.1666467"><ele>177.0</ele><time>2026-04-02T14:06:56.049Z</time></trkpt><trkpt lat="41.4571812" lon="13.1666551"><ele>177.0</ele><time>2026-04-02T14:06:57.049Z</time></trkpt><trkpt lat="41.4570394" lon="13.166667"><ele>177.0</ele><time>2026-04-02T14:06:58.05Z</time></trkpt><trkpt lat="41.4568981" lon="13.1666903"><ele>177.0</ele><time>2026-04-02T14:06:59.042Z</time></trkpt><trkpt lat="41.4567726" lon="13.1667487"><ele>179.5</ele><time>2026-04-02T14:07:00.049Z</time></trkpt><trkpt lat="41.4566489" lon="13.1668195"><ele>182.0</ele><time>2026-04-02T14:07:01.064Z</time></trkpt><trkpt lat="41.4565181" lon="13.1668786"><ele>184.5</ele><time>2026-04-02T14:07:02.044Z</time></trkpt><trkpt lat="41.4563836" lon="13.1669034"><ele>187.0</ele><time>2026-04-02T14:07:03.05Z</time></trkpt><trkpt lat="41.456258" lon="13.166919"><ele>189.0</ele><time>2026-04-02T14:07:04.045Z</time></trkpt><trkpt lat="41.4561346" lon="13.1669264"><ele>191.0</ele><time>2026-04-02T14:07:05.047Z</time></trkpt><trkpt lat="41.4560127" lon="13.1669119"><ele>193.0</ele><time>2026-04-02T14:07:06.047Z</time></trkpt><trkpt lat="41.4558791" lon="13.1668811"><ele>195.0</ele><time>2026-04-02T14:07:07.044Z</time></trkpt><trkpt lat="41.4557507" lon="13.166888"><ele>195.0</ele><time>2026-04-02T14:07:08.047Z</time></trkpt><trkpt lat="41.4556243" lon="13.1669288"><ele>195.0</ele><time>2026-04-02T14:07:09.041Z</time></trkpt><trkpt lat="41.4554961" lon="13.1669868"><ele>195.0</ele><time>2026-04-02T14:07:10.04Z</time></trkpt><trkpt lat="41.4553746" lon="13.1670601"><ele>195.0</ele><time>2026-04-02T14:07:11.046Z</time></trkpt><trkpt lat="41.4552505" lon="13.1671398"><ele>196.5</ele><time>2026-04-02T14:07:12.047Z</time></trkpt><trkpt lat="41.4551199" lon="13.1671839"><ele>198.0</ele><time>2026-04-02T14:07:13.057Z</time></trkpt><trkpt lat="41.4549874" lon="13.1672435"><ele>199.5</ele><time>2026-04-02T14:07:14.049Z</time></trkpt><trkpt lat="41.454856" lon="13.1672961"><ele>201.0</ele><time>2026-04-02T14:07:15.052Z</time></trkpt><trkpt lat="41.4547342" lon="13.1673615"><ele>201.60000000000002</ele><time>2026-04-02T14:07:16.041Z</time></trkpt><trkpt lat="41.454634" lon="13.1674393"><ele>202.2</ele><time>2026-04-02T14:07:17.049Z</time></trkpt><trkpt lat="41.4545451" lon="13.1675262"><ele>202.8</ele><time>2026-04-02T14:07:18.042Z</time></trkpt><trkpt lat="41.4544744" lon="13.1675921"><ele>203.39999999999998</ele><time>2026-04-02T14:07:19.037Z</time></trkpt><trkpt lat="41.4543891" lon="13.1676463"><ele>204.0</ele><time>2026-04-02T14:07:21.044Z</time></trkpt><trkpt lat="41.4543568" lon="13.1677492"><ele>205.0</ele><time>2026-04-02T14:07:24.059Z</time></trkpt><trkpt lat="41.4543913" lon="13.1678836"><ele>206.0</ele><time>2026-04-02T14:07:28.05Z</time></trkpt><trkpt lat="41.4544475" lon="13.1679253"><ele>207.0</ele><time>2026-04-02T14:07:30.053Z</time></trkpt><trkpt lat="41.4544888" lon="13.1680094"><ele>208.0</ele><time>2026-04-02T14:07:32.047Z</time></trkpt><trkpt lat="41.4545132" lon="13.1681187"><ele>209.0</ele><time>2026-04-02T14:07:34.052Z</time></trkpt><trkpt lat="41.4545051" lon="13.1682372"><ele>210.0</ele><time>2026-04-02T14:07:37.052Z</time></trkpt><trkpt lat="41.4544968" lon="13.1683481"><ele>210.0</ele><time>2026-04-02T14:07:39.051Z</time></trkpt><trkpt lat="41.4545256" lon="13.1684461"><ele>210.0</ele><time>2026-04-02T14:07:41.056Z</time></trkpt><trkpt lat="41.4545667" lon="13.1685402"><ele>210.0</ele><time>2026-04-02T14:07:43.057Z</time></trkpt><trkpt lat="41.4546509" lon="13.1686212"><ele>210.0</ele><time>2026-04-02T14:07:46.042Z</time></trkpt><trkpt lat="41.4547605" lon="13.1686689"><ele>210.0</ele><time>2026-04-02T14:07:50.048Z</time></trkpt><trkpt lat="41.4548237" lon="13.1687475"><ele>209.16666666666666</ele><time>2026-04-02T14:07:52.051Z</time></trkpt><trkpt lat="41.4548858" lon="13.1688354"><ele>208.33333333333331</ele><time>2026-04-02T14:07:54.056Z</time></trkpt><trkpt lat="41.4549347" lon="13.1688903"><ele>207.5</ele><time>2026-04-02T14:07:56.047Z</time></trkpt><trkpt lat="41.45495" lon="13.1689997"><ele>206.66666666666666</ele><time>2026-04-02T14:07:59.039Z</time></trkpt><trkpt lat="41.455002" lon="13.1690827"><ele>205.83333333333331</ele><time>2026-04-02T14:08:03.04Z</time></trkpt><trkpt lat="41.455064" lon="13.1691219"><ele>205.0</ele><time>2026-04-02T14:08:05.044Z</time></trkpt><trkpt lat="41.4551666" lon="13.1691904"><ele>205.0</ele><time>2026-04-02T14:08:07.041Z</time></trkpt><trkpt lat="41.4552719" lon="13.16927"><ele>205.0</ele><time>2026-04-02T14:08:09.042Z</time></trkpt><trkpt lat="41.4553598" lon="13.1693698"><ele>205.0</ele><time>2026-04-02T14:08:11.042Z</time></trkpt><trkpt lat="41.4554288" lon="13.1694514"><ele>205.0</ele><time>2026-04-02T14:08:13.062Z</time></trkpt><trkpt lat="41.4554886" lon="13.1694805"><ele>205.0</ele><time>2026-04-02T14:08:15.048Z</time></trkpt><trkpt lat="41.4556061" lon="13.1695423"><ele>204.25</ele><time>2026-04-02T14:08:17.049Z</time></trkpt><trkpt lat="41.455779" lon="13.1695997"><ele>203.5</ele><time>2026-04-02T14:08:24.052Z</time></trkpt><trkpt lat="41.4558292" lon="13.1697134"><ele>202.75</ele><time>2026-04-02T14:08:26.044Z</time></trkpt><trkpt lat="41.45591" lon="13.1698426"><ele>202.0</ele><time>2026-04-02T14:08:28.041Z</time></trkpt><trkpt lat="41.4559605" lon="13.1699127"><ele>201.99999999999997</ele><time>2026-04-02T14:08:29.061Z</time></trkpt><trkpt lat="41.4560246" lon="13.1699814"><ele>202.0</ele><time>2026-04-02T14:08:30.045Z</time></trkpt><trkpt lat="41.4560705" lon="13.1700437"><ele>202.0</ele><time>2026-04-02T14:08:31.047Z</time></trkpt><trkpt lat="41.4561228" lon="13.1701898"><ele>202.0</ele><time>2026-04-02T14:08:33.059Z</time></trkpt><trkpt lat="41.4561334" lon="13.1702776"><ele>201.99999999999997</ele><time>2026-04-02T14:08:34.046Z</time></trkpt><trkpt lat="41.4561745" lon="13.1704192"><ele>202.0</ele><time>2026-04-02T14:08:36.04Z</time></trkpt><trkpt lat="41.4562322" lon="13.1705205"><ele>201.99999999999997</ele><time>2026-04-02T14:08:38.04Z</time></trkpt><trkpt lat="41.4562652" lon="13.1706173"><ele>202.0</ele><time>2026-04-02T14:08:40.042Z</time></trkpt><trkpt lat="41.4563048" lon="13.1707164"><ele>202.0</ele><time>2026-04-02T14:08:42.037Z</time></trkpt><trkpt lat="41.4563233" lon="13.170826"><ele>202.0</ele><time>2026-04-02T14:08:44.041Z</time></trkpt><trkpt lat="41.4563593" lon="13.1709273"><ele>201.99999999999997</ele><time>2026-04-02T14:08:46.036Z</time></trkpt><trkpt lat="41.456421" lon="13.1710116"><ele>202.0</ele><time>2026-04-02T14:08:48.051Z</time></trkpt><trkpt lat="41.456484" lon="13.171059"><ele>199.83333333333331</ele><time>2026-04-02T14:08:50.044Z</time></trkpt><trkpt lat="41.4565565" lon="13.1711443"><ele>197.66666666666666</ele><time>2026-04-02T14:08:53.043Z</time></trkpt><trkpt lat="41.4566279" lon="13.1712022"><ele>195.5</ele><time>2026-04-02T14:08:56.049Z</time></trkpt><trkpt lat="41.4567022" lon="13.1712515"><ele>193.33333333333331</ele><time>2026-04-02T14:08:59.044Z</time></trkpt><trkpt lat="41.4567533" lon="13.1713181"><ele>191.16666666666666</ele><time>2026-04-02T14:09:02.041Z</time></trkpt><trkpt lat="41.4567895" lon="13.1714337"><ele>189.0</ele><time>2026-04-02T14:09:05.047Z</time></trkpt><trkpt lat="41.4568061" lon="13.1715209"><ele>187.33333333333334</ele><time>2026-04-02T14:09:08.042Z</time></trkpt><trkpt lat="41.4568627" lon="13.1715683"><ele>185.66666666666666</ele><time>2026-04-02T14:09:11.06Z</time></trkpt><trkpt lat="41.4569402" lon="13.1715684"><ele>184.0</ele><time>2026-04-02T14:09:15.046Z</time></trkpt><trkpt lat="41.4570127" lon="13.1715789"><ele>182.33333333333331</ele><time>2026-04-02T14:09:18.043Z</time></trkpt><trkpt lat="41.4570898" lon="13.1716289"><ele>180.66666666666666</ele><time>2026-04-02T14:09:21.04Z</time></trkpt><trkpt lat="41.4571489" lon="13.1716832"><ele>179.0</ele><time>2026-04-02T14:09:23.043Z</time></trkpt><trkpt lat="41.4572079" lon="13.1717495"><ele>176.0</ele><time>2026-04-02T14:09:26.042Z</time></trkpt><trkpt lat="41.4573002" lon="13.1717942"><ele>173.0</ele><time>2026-04-02T14:09:29.045Z</time></trkpt><trkpt lat="41.4573686" lon="13.1718545"><ele>170.0</ele><time>2026-04-02T14:09:31.047Z</time></trkpt><trkpt lat="41.4574483" lon="13.1719281"><ele>167.0</ele><time>2026-04-02T14:09:33.041Z</time></trkpt><trkpt lat="41.4575391" lon="13.1720092"><ele>164.0</ele><time>2026-04-02T14:09:35.045Z</time></trkpt><trkpt lat="41.4576241" lon="13.1720959"><ele>164.0</ele><time>2026-04-02T14:09:37.046Z</time></trkpt><trkpt lat="41.4576997" lon="13.1721762"><ele>164.0</ele><time>2026-04-02T14:09:39.046Z</time></trkpt><trkpt lat="41.4577679" lon="13.1722464"><ele>164.0</ele><time>2026-04-02T14:09:41.046Z</time></trkpt><trkpt lat="41.4578206" lon="13.1723264"><ele>164.0</ele><time>2026-04-02T14:09:43.042Z</time></trkpt><trkpt lat="41.4578678" lon="13.1723954"><ele>164.0</ele><time>2026-04-02T14:09:45.05Z</time></trkpt><trkpt lat="41.4579023" lon="13.1724869"><ele>164.0</ele><time>2026-04-02T14:09:48.043Z</time></trkpt><trkpt lat="41.4578603" lon="13.1725542"><ele>163.16666666666666</ele><time>2026-04-02T14:09:51.048Z</time></trkpt><trkpt lat="41.4578162" lon="13.172661"><ele>162.33333333333331</ele><time>2026-04-02T14:09:54.039Z</time></trkpt><trkpt lat="41.4577732" lon="13.1727236"><ele>161.5</ele><time>2026-04-02T14:09:56.041Z</time></trkpt><trkpt lat="41.4577157" lon="13.1727892"><ele>160.66666666666666</ele><time>2026-04-02T14:09:59.046Z</time></trkpt><trkpt lat="41.4576394" lon="13.1728273"><ele>159.83333333333334</ele><time>2026-04-02T14:10:01.043Z</time></trkpt><trkpt lat="41.4575719" lon="13.1728508"><ele>159.0</ele><time>2026-04-02T14:10:03.042Z</time></trkpt><trkpt lat="41.4574775" lon="13.1728695"><ele>159.0</ele><time>2026-04-02T14:10:06.045Z</time></trkpt><trkpt lat="41.4574522" lon="13.1729522"><ele>159.0</ele><time>2026-04-02T14:10:08.042Z</time></trkpt><trkpt lat="41.4574632" lon="13.1730587"><ele>159.0</ele><time>2026-04-02T14:10:10.049Z</time></trkpt><trkpt lat="41.4574919" lon="13.1731529"><ele>159.0</ele><time>2026-04-02T14:10:12.044Z</time></trkpt><trkpt lat="41.4575436" lon="13.1732739"><ele>159.0</ele><time>2026-04-02T14:10:14.046Z</time></trkpt><trkpt lat="41.4575712" lon="13.1734121"><ele>159.0</ele><time>2026-04-02T14:10:16.037Z</time></trkpt><trkpt lat="41.4575565" lon="13.1735014"><ele>157.8</ele><time>2026-04-02T14:10:18.038Z</time></trkpt><trkpt lat="41.4575238" lon="13.1736164"><ele>156.60000000000002</ele><time>2026-04-02T14:10:20.058Z</time></trkpt><trkpt lat="41.4575182" lon="13.1737293"><ele>155.4</ele><time>2026-04-02T14:10:22.048Z</time></trkpt><trkpt lat="41.4574968" lon="13.173843"><ele>154.20000000000002</ele><time>2026-04-02T14:10:24.049Z</time></trkpt><trkpt lat="41.4574449" lon="13.1739674"><ele>153.0</ele><time>2026-04-02T14:10:26.061Z</time></trkpt><trkpt lat="41.4574173" lon="13.1741262"><ele>152.33333333333334</ele><time>2026-04-02T14:10:28.047Z</time></trkpt><trkpt lat="41.4574061" lon="13.1742821"><ele>151.66666666666666</ele><time>2026-04-02T14:10:30.046Z</time></trkpt><trkpt lat="41.4573965" lon="13.1743737"><ele>151.0</ele><time>2026-04-02T14:10:31.058Z</time></trkpt><trkpt lat="41.4573728" lon="13.1744863"><ele>150.33333333333331</ele><time>2026-04-02T14:10:32.043Z</time></trkpt><trkpt lat="41.457345" lon="13.1745931"><ele>149.66666666666666</ele><time>2026-04-02T14:10:33.04Z</time></trkpt><trkpt lat="41.4573106" lon="13.1746849"><ele>149.0</ele><time>2026-04-02T14:10:34.047Z</time></trkpt><trkpt lat="41.4572757" lon="13.1747562"><ele>149.0</ele><time>2026-04-02T14:10:35.041Z</time></trkpt><trkpt lat="41.4571889" lon="13.1748441"><ele>149.0</ele><time>2026-04-02T14:10:37.038Z</time></trkpt><trkpt lat="41.457129" lon="13.1749554"><ele>149.0</ele><time>2026-04-02T14:10:39.06Z</time></trkpt><trkpt lat="41.4570688" lon="13.1750573"><ele>149.0</ele><time>2026-04-02T14:10:41.05Z</time></trkpt><trkpt lat="41.4569938" lon="13.1751474"><ele>149.0</ele><time>2026-04-02T14:10:43.044Z</time></trkpt><trkpt lat="41.4569361" lon="13.1751959"><ele>147.5</ele><time>2026-04-02T14:10:45.043Z</time></trkpt><trkpt lat="41.4569411" lon="13.1752892"><ele>146.0</ele><time>2026-04-02T14:10:48.043Z</time></trkpt><trkpt lat="41.4570153" lon="13.1753467"><ele>144.5</ele><time>2026-04-02T14:10:51.053Z</time></trkpt><trkpt lat="41.4570796" lon="13.1753924"><ele>143.0</ele><time>2026-04-02T14:10:53.049Z</time></trkpt><trkpt lat="41.4571708" lon="13.1754269"><ele>141.5</ele><time>2026-04-02T14:10:55.041Z</time></trkpt><trkpt lat="41.4572815" lon="13.1754767"><ele>140.0</ele><time>2026-04-02T14:10:57.039Z</time></trkpt><trkpt lat="41.4573466" lon="13.1754975"><ele>140.0</ele><time>2026-04-02T14:10:58.046Z</time></trkpt><trkpt lat="41.4574187" lon="13.1755081"><ele>140.0</ele><time>2026-04-02T14:10:59.04Z</time></trkpt><trkpt lat="41.4574886" lon="13.1755275"><ele>140.0</ele><time>2026-04-02T14:11:00.041Z</time></trkpt><trkpt lat="41.4575534" lon="13.1755455"><ele>140.0</ele><time>2026-04-02T14:11:01.041Z</time></trkpt><trkpt lat="41.4576137" lon="13.1755757"><ele>140.0</ele><time>2026-04-02T14:11:02.046Z</time></trkpt><trkpt lat="41.4576779" lon="13.1756091"><ele>140.0</ele><time>2026-04-02T14:11:03.054Z</time></trkpt><trkpt lat="41.4577454" lon="13.1756544"><ele>140.0</ele><time>2026-04-02T14:11:04.037Z</time></trkpt><trkpt lat="41.457818" lon="13.1756932"><ele>137.66666666666666</ele><time>2026-04-02T14:11:05.041Z</time></trkpt><trkpt lat="41.457899" lon="13.1757099"><ele>135.33333333333331</ele><time>2026-04-02T14:11:06.038Z</time></trkpt><trkpt lat="41.4579693" lon="13.1757137"><ele>133.0</ele><time>2026-04-02T14:11:07.042Z</time></trkpt><trkpt lat="41.4580757" lon="13.1757164"><ele>130.66666666666666</ele><time>2026-04-02T14:11:09.06Z</time></trkpt><trkpt lat="41.4581816" lon="13.175763"><ele>128.33333333333334</ele><time>2026-04-02T14:11:11.047Z</time></trkpt><trkpt lat="41.4582376" lon="13.17581"><ele>126.0</ele><time>2026-04-02T14:11:12.044Z</time></trkpt><trkpt lat="41.458295" lon="13.1758769"><ele>125.33333333333333</ele><time>2026-04-02T14:11:13.041Z</time></trkpt><trkpt lat="41.4583451" lon="13.1759546"><ele>124.66666666666666</ele><time>2026-04-02T14:11:14.052Z</time></trkpt><trkpt lat="41.4583858" lon="13.1760356"><ele>124.0</ele><time>2026-04-02T14:11:15.042Z</time></trkpt><trkpt lat="41.4584128" lon="13.1761121"><ele>123.33333333333333</ele><time>2026-04-02T14:11:16.052Z</time></trkpt><trkpt lat="41.4584301" lon="13.1762881"><ele>122.66666666666666</ele><time>2026-04-02T14:11:18.044Z</time></trkpt><trkpt lat="41.4584445" lon="13.176392"><ele>122.0</ele><time>2026-04-02T14:11:19.04Z</time></trkpt><trkpt lat="41.4584638" lon="13.1764928"><ele>120.99999999999999</ele><time>2026-04-02T14:11:20.058Z</time></trkpt><trkpt lat="41.4584814" lon="13.1765831"><ele>120.0</ele><time>2026-04-02T14:11:21.046Z</time></trkpt><trkpt lat="41.4584937" lon="13.1766731"><ele>119.0</ele><time>2026-04-02T14:11:22.043Z</time></trkpt><trkpt lat="41.4584975" lon="13.1767768"><ele>118.0</ele><time>2026-04-02T14:11:23.042Z</time></trkpt><trkpt lat="41.4585111" lon="13.1768814"><ele>116.99999999999999</ele><time>2026-04-02T14:11:24.036Z</time></trkpt><trkpt lat="41.4585254" lon="13.1769877"><ele>116.0</ele><time>2026-04-02T14:11:25.042Z</time></trkpt><trkpt lat="41.4585324" lon="13.1770963"><ele>115.99999999999999</ele><time>2026-04-02T14:11:26.035Z</time></trkpt><trkpt lat="41.4585338" lon="13.177206"><ele>116.0</ele><time>2026-04-02T14:11:27.039Z</time></trkpt><trkpt lat="41.4585269" lon="13.1773186"><ele>116.0</ele><time>2026-04-02T14:11:28.039Z</time></trkpt><trkpt lat="41.4585158" lon="13.1774242"><ele>116.0</ele><time>2026-04-02T14:11:29.042Z</time></trkpt><trkpt lat="41.458498" lon="13.1775339"><ele>115.99999999999999</ele><time>2026-04-02T14:11:30.043Z</time></trkpt><trkpt lat="41.4584751" lon="13.1776395"><ele>116.0</ele><time>2026-04-02T14:11:31.038Z</time></trkpt><trkpt lat="41.4584522" lon="13.1777466"><ele>115.99999999999999</ele><time>2026-04-02T14:11:32.041Z</time></trkpt><trkpt lat="41.4584335" lon="13.1778612"><ele>116.0</ele><time>2026-04-02T14:11:33.045Z</time></trkpt><trkpt lat="41.4584128" lon="13.1779761"><ele>116.0</ele><time>2026-04-02T14:11:34.042Z</time></trkpt><trkpt lat="41.4583877" lon="13.1780906"><ele>116.0</ele><time>2026-04-02T14:11:35.042Z</time></trkpt><trkpt lat="41.458366" lon="13.1782075"><ele>115.99999999999999</ele><time>2026-04-02T14:11:36.043Z</time></trkpt><trkpt lat="41.4583505" lon="13.1783283"><ele>116.0</ele><time>2026-04-02T14:11:37.047Z</time></trkpt><trkpt lat="41.4583305" lon="13.1784495"><ele>116.0</ele><time>2026-04-02T14:11:38.042Z</time></trkpt><trkpt lat="41.4582992" lon="13.1785681"><ele>116.0</ele><time>2026-04-02T14:11:39.042Z</time></trkpt><trkpt lat="41.4582653" lon="13.178689"><ele>116.0</ele><time>2026-04-02T14:11:40.042Z</time></trkpt><trkpt lat="41.4582314" lon="13.1788116"><ele>116.0</ele><time>2026-04-02T14:11:41.048Z</time></trkpt><trkpt lat="41.4581959" lon="13.1789344"><ele>116.0</ele><time>2026-04-02T14:11:42.042Z</time></trkpt><trkpt lat="41.4581571" lon="13.1790479"><ele>116.49999999999999</ele><time>2026-04-02T14:11:43.046Z</time></trkpt><trkpt lat="41.4581121" lon="13.1791528"><ele>117.0</ele><time>2026-04-02T14:11:44.041Z</time></trkpt><trkpt lat="41.4580634" lon="13.1792563"><ele>117.5</ele><time>2026-04-02T14:11:45.05Z</time></trkpt><trkpt lat="41.4580143" lon="13.1793596"><ele>118.0</ele><time>2026-04-02T14:11:46.036Z</time></trkpt><trkpt lat="41.4579744" lon="13.1794526"><ele>118.49999999999999</ele><time>2026-04-02T14:11:47.042Z</time></trkpt><trkpt lat="41.4579525" lon="13.1795453"><ele>119.0</ele><time>2026-04-02T14:11:48.041Z</time></trkpt><trkpt lat="41.4579556" lon="13.1796415"><ele>118.99999999999999</ele><time>2026-04-02T14:11:49.04Z</time></trkpt><trkpt lat="41.4579759" lon="13.1797428"><ele>119.0</ele><time>2026-04-02T14:11:50.038Z</time></trkpt><trkpt lat="41.4580027" lon="13.1798487"><ele>119.0</ele><time>2026-04-02T14:11:51.041Z</time></trkpt><trkpt lat="41.4580258" lon="13.1799601"><ele>119.0</ele><time>2026-04-02T14:11:52.042Z</time></trkpt><trkpt lat="41.4580355" lon="13.1800758"><ele>118.99999999999999</ele><time>2026-04-02T14:11:53.052Z</time></trkpt><trkpt lat="41.4580271" lon="13.1801899"><ele>119.0</ele><time>2026-04-02T14:11:54.038Z</time></trkpt><trkpt lat="41.4580187" lon="13.1803039"><ele>119.4</ele><time>2026-04-02T14:11:55.043Z</time></trkpt><trkpt lat="41.4579842" lon="13.1804133"><ele>119.80000000000001</ele><time>2026-04-02T14:11:56.04Z</time></trkpt><trkpt lat="41.4579448" lon="13.180519"><ele>120.19999999999999</ele><time>2026-04-02T14:11:57.042Z</time></trkpt><trkpt lat="41.4579054" lon="13.1806284"><ele>120.6</ele><time>2026-04-02T14:11:58.049Z</time></trkpt><trkpt lat="41.4578668" lon="13.1807373"><ele>121.0</ele><time>2026-04-02T14:11:59.044Z</time></trkpt><trkpt lat="41.4578294" lon="13.1808489"><ele>119.19999999999999</ele><time>2026-04-02T14:12:00.043Z</time></trkpt><trkpt lat="41.4577928" lon="13.1809564"><ele>117.39999999999999</ele><time>2026-04-02T14:12:01.043Z</time></trkpt><trkpt lat="41.4577459" lon="13.1810531"><ele>115.6</ele><time>2026-04-02T14:12:02.044Z</time></trkpt><trkpt lat="41.4576858" lon="13.1811408"><ele>113.8</ele><time>2026-04-02T14:12:03.044Z</time></trkpt><trkpt lat="41.4576178" lon="13.1812285"><ele>112.0</ele><time>2026-04-02T14:12:04.044Z</time></trkpt><trkpt lat="41.4575465" lon="13.1813132"><ele>112.0</ele><time>2026-04-02T14:12:05.04Z</time></trkpt><trkpt lat="41.4574712" lon="13.1813922"><ele>111.99999999999999</ele><time>2026-04-02T14:12:06.043Z</time></trkpt><trkpt lat="41.4573912" lon="13.1814688"><ele>111.99999999999999</ele><time>2026-04-02T14:12:07.042Z</time></trkpt><trkpt lat="41.4573081" lon="13.1815428"><ele>112.0</ele><time>2026-04-02T14:12:08.041Z</time></trkpt><trkpt lat="41.4572229" lon="13.1816127"><ele>112.0</ele><time>2026-04-02T14:12:09.044Z</time></trkpt><trkpt lat="41.4571325" lon="13.1816724"><ele>111.8</ele><time>2026-04-02T14:12:10.041Z</time></trkpt><trkpt lat="41.4570365" lon="13.1817147"><ele>111.6</ele><time>2026-04-02T14:12:11.038Z</time></trkpt><trkpt lat="41.4569406" lon="13.1817466"><ele>111.39999999999999</ele><time>2026-04-02T14:12:12.036Z</time></trkpt><trkpt lat="41.4568499" lon="13.1817674"><ele>111.19999999999999</ele><time>2026-04-02T14:12:13.051Z</time></trkpt><trkpt lat="41.4567618" lon="13.1817697"><ele>111.0</ele><time>2026-04-02T14:12:14.042Z</time></trkpt><trkpt lat="41.4566781" lon="13.181761"><ele>111.0</ele><time>2026-04-02T14:12:15.039Z</time></trkpt><trkpt lat="41.4566077" lon="13.1817437"><ele>111.0</ele><time>2026-04-02T14:12:16.041Z</time></trkpt><trkpt lat="41.4564965" lon="13.1816858"><ele>111.0</ele><time>2026-04-02T14:12:18.04Z</time></trkpt><trkpt lat="41.4564015" lon="13.1816255"><ele>111.0</ele><time>2026-04-02T14:12:20.043Z</time></trkpt><trkpt lat="41.456316" lon="13.1815838"><ele>111.0</ele><time>2026-04-02T14:12:22.038Z</time></trkpt><trkpt lat="41.4562244" lon="13.1815261"><ele>113.0</ele><time>2026-04-02T14:12:24.042Z</time></trkpt><trkpt lat="41.4561118" lon="13.1814501"><ele>115.0</ele><time>2026-04-02T14:12:26.044Z</time></trkpt><trkpt lat="41.4560109" lon="13.1813955"><ele>117.0</ele><time>2026-04-02T14:12:28.043Z</time></trkpt><trkpt lat="41.4559048" lon="13.1813587"><ele>119.0</ele><time>2026-04-02T14:12:30.042Z</time></trkpt><trkpt lat="41.4557929" lon="13.1813196"><ele>119.0</ele><time>2026-04-02T14:12:32.049Z</time></trkpt><trkpt lat="41.4556737" lon="13.1812784"><ele>119.0</ele><time>2026-04-02T14:12:34.046Z</time></trkpt><trkpt lat="41.4556105" lon="13.1812594"><ele>119.0</ele><time>2026-04-02T14:12:35.046Z</time></trkpt><trkpt lat="41.4554854" lon="13.1812394"><ele>119.0</ele><time>2026-04-02T14:12:37.039Z</time></trkpt><trkpt lat="41.4553648" lon="13.1812659"><ele>119.0</ele><time>2026-04-02T14:12:39.042Z</time></trkpt><trkpt lat="41.4552442" lon="13.1813024"><ele>120.66666666666666</ele><time>2026-04-02T14:12:41.049Z</time></trkpt><trkpt lat="41.4551789" lon="13.181327"><ele>122.33333333333333</ele><time>2026-04-02T14:12:42.049Z</time></trkpt><trkpt lat="41.4551122" lon="13.1813555"><ele>124.0</ele><time>2026-04-02T14:12:43.064Z</time></trkpt><trkpt lat="41.4550428" lon="13.1813764"><ele>125.66666666666666</ele><time>2026-04-02T14:12:44.041Z</time></trkpt><trkpt lat="41.454971" lon="13.1813973"><ele>127.33333333333333</ele><time>2026-04-02T14:12:45.047Z</time></trkpt><trkpt lat="41.4548867" lon="13.1814164"><ele>129.0</ele><time>2026-04-02T14:12:46.046Z</time></trkpt><trkpt lat="41.4548047" lon="13.1814372"><ele>129.0</ele><time>2026-04-02T14:12:47.048Z</time></trkpt><trkpt lat="41.4547127" lon="13.1814577"><ele>129.0</ele><time>2026-04-02T14:12:48.038Z</time></trkpt><trkpt lat="41.4546169" lon="13.1814809"><ele>129.0</ele><time>2026-04-02T14:12:49.051Z</time></trkpt><trkpt lat="41.4545287" lon="13.1815321"><ele>129.0</ele><time>2026-04-02T14:12:50.044Z</time></trkpt><trkpt lat="41.4544503" lon="13.1816278"><ele>129.0</ele><time>2026-04-02T14:12:51.04Z</time></trkpt><trkpt lat="41.4543709" lon="13.1817213"><ele>130.2</ele><time>2026-04-02T14:12:52.045Z</time></trkpt><trkpt lat="41.4542904" lon="13.1818054"><ele>131.4</ele><time>2026-04-02T14:12:53.048Z</time></trkpt><trkpt lat="41.4542062" lon="13.1818942"><ele>132.6</ele><time>2026-04-02T14:12:54.048Z</time></trkpt><trkpt lat="41.4541271" lon="13.1819815"><ele>133.8</ele><time>2026-04-02T14:12:55.037Z</time></trkpt><trkpt lat="41.4540534" lon="13.1820602"><ele>135.0</ele><time>2026-04-02T14:12:56.035Z</time></trkpt><trkpt lat="41.4539837" lon="13.1821298"><ele>135.0</ele><time>2026-04-02T14:12:57.038Z</time></trkpt><trkpt lat="41.4539126" lon="13.1821878"><ele>135.0</ele><time>2026-04-02T14:12:58.041Z</time></trkpt><trkpt lat="41.4538419" lon="13.1822356"><ele>135.0</ele><time>2026-04-02T14:12:59.054Z</time></trkpt><trkpt lat="41.4537461" lon="13.1822682"><ele>135.0</ele><time>2026-04-02T14:13:00.05Z</time></trkpt><trkpt lat="41.453658" lon="13.1822907"><ele>135.0</ele><time>2026-04-02T14:13:01.045Z</time></trkpt><trkpt lat="41.4535923" lon="13.1823022"><ele>135.0</ele><time>2026-04-02T14:13:02.048Z</time></trkpt><trkpt lat="41.4534888" lon="13.1822915"><ele>136.0</ele><time>2026-04-02T14:13:04.05Z</time></trkpt><trkpt lat="41.4534315" lon="13.1822306"><ele>137.0</ele><time>2026-04-02T14:13:05.045Z</time></trkpt><trkpt lat="41.4533458" lon="13.182183"><ele>138.0</ele><time>2026-04-02T14:13:06.047Z</time></trkpt><trkpt lat="41.4532464" lon="13.182128"><ele>139.0</ele><time>2026-04-02T14:13:07.042Z</time></trkpt><trkpt lat="41.4531408" lon="13.1820693"><ele>140.0</ele><time>2026-04-02T14:13:08.039Z</time></trkpt><trkpt lat="41.4530294" lon="13.181997"><ele>137.25</ele><time>2026-04-02T14:13:09.041Z</time></trkpt><trkpt lat="41.4529263" lon="13.1819291"><ele>134.5</ele><time>2026-04-02T14:13:10.038Z</time></trkpt><trkpt lat="41.4528279" lon="13.1818573"><ele>131.75</ele><time>2026-04-02T14:13:11.048Z</time></trkpt><trkpt lat="41.4527366" lon="13.1817638"><ele>129.0</ele><time>2026-04-02T14:13:12.039Z</time></trkpt><trkpt lat="41.452644" lon="13.1816495"><ele>129.0</ele><time>2026-04-02T14:13:13.04Z</time></trkpt><trkpt lat="41.452558" lon="13.1815347"><ele>129.0</ele><time>2026-04-02T14:13:14.042Z</time></trkpt><trkpt lat="41.452461" lon="13.1814225"><ele>129.0</ele><time>2026-04-02T14:13:15.044Z</time></trkpt><trkpt lat="41.4523723" lon="13.1813221"><ele>129.0</ele><time>2026-04-02T14:13:16.041Z</time></trkpt><trkpt lat="41.4522826" lon="13.1812486"><ele>131.6</ele><time>2026-04-02T14:13:17.046Z</time></trkpt><trkpt lat="41.4522069" lon="13.1812046"><ele>134.2</ele><time>2026-04-02T14:13:18.043Z</time></trkpt><trkpt lat="41.4521266" lon="13.1812026"><ele>136.79999999999998</ele><time>2026-04-02T14:13:19.039Z</time></trkpt><trkpt lat="41.4520319" lon="13.1812417"><ele>139.4</ele><time>2026-04-02T14:13:20.052Z</time></trkpt><trkpt lat="41.4519287" lon="13.1813004"><ele>142.0</ele><time>2026-04-02T14:13:21.058Z</time></trkpt><trkpt lat="41.451825" lon="13.1813644"><ele>142.6</ele><time>2026-04-02T14:13:22.046Z</time></trkpt><trkpt lat="41.4517355" lon="13.1814274"><ele>143.2</ele><time>2026-04-02T14:13:23.052Z</time></trkpt><trkpt lat="41.4516458" lon="13.18147"><ele>143.8</ele><time>2026-04-02T14:13:25.043Z</time></trkpt><trkpt lat="41.4515215" lon="13.1814075"><ele>144.4</ele><time>2026-04-02T14:13:27.039Z</time></trkpt><trkpt lat="41.4514319" lon="13.1813934"><ele>145.0</ele><time>2026-04-02T14:13:28.037Z</time></trkpt><trkpt lat="41.451351" lon="13.1813948"><ele>143.33333333333334</ele><time>2026-04-02T14:13:29.039Z</time></trkpt><trkpt lat="41.4512845" lon="13.1814079"><ele>141.66666666666669</ele><time>2026-04-02T14:13:30.048Z</time></trkpt><trkpt lat="41.4512168" lon="13.1814352"><ele>140.0</ele><time>2026-04-02T14:13:31.044Z</time></trkpt><trkpt lat="41.4511476" lon="13.1814788"><ele>138.33333333333334</ele><time>2026-04-02T14:13:32.053Z</time></trkpt><trkpt lat="41.4510751" lon="13.1815376"><ele>136.66666666666666</ele><time>2026-04-02T14:13:33.047Z</time></trkpt><trkpt lat="41.4510178" lon="13.1815946"><ele>135.0</ele><time>2026-04-02T14:13:34.057Z</time></trkpt><trkpt lat="41.4509476" lon="13.181694"><ele>133.66666666666666</ele><time>2026-04-02T14:13:36.047Z</time></trkpt><trkpt lat="41.4509086" lon="13.1817682"><ele>132.33333333333334</ele><time>2026-04-02T14:13:37.042Z</time></trkpt><trkpt lat="41.4508806" lon="13.1818554"><ele>131.0</ele><time>2026-04-02T14:13:38.051Z</time></trkpt><trkpt lat="41.4508699" lon="13.1819385"><ele>129.66666666666669</ele><time>2026-04-02T14:13:39.057Z</time></trkpt><trkpt lat="41.4508353" lon="13.1820558"><ele>128.33333333333334</ele><time>2026-04-02T14:13:41.044Z</time></trkpt><trkpt lat="41.450746" lon="13.1821009"><ele>127.0</ele><time>2026-04-02T14:13:43.047Z</time></trkpt><trkpt lat="41.4506817" lon="13.182116"><ele>127.00000000000001</ele><time>2026-04-02T14:13:44.046Z</time></trkpt><trkpt lat="41.4506009" lon="13.1821434"><ele>127.0</ele><time>2026-04-02T14:13:45.046Z</time></trkpt><trkpt lat="41.4505169" lon="13.182176"><ele>127.0</ele><time>2026-04-02T14:13:46.043Z</time></trkpt><trkpt lat="41.4504356" lon="13.1822048"><ele>127.0</ele><time>2026-04-02T14:13:47.039Z</time></trkpt><trkpt lat="41.4503501" lon="13.1822199"><ele>127.00000000000001</ele><time>2026-04-02T14:13:48.065Z</time></trkpt><trkpt lat="41.4502556" lon="13.1822125"><ele>127.0</ele><time>2026-04-02T14:13:49.044Z</time></trkpt><trkpt lat="41.4501626" lon="13.1821778"><ele>124.8</ele><time>2026-04-02T14:13:50.051Z</time></trkpt><trkpt lat="41.4500741" lon="13.1821126"><ele>122.6</ele><time>2026-04-02T14:13:51.042Z</time></trkpt><trkpt lat="41.4499871" lon="13.1820479"><ele>120.39999999999999</ele><time>2026-04-02T14:13:52.048Z</time></trkpt><trkpt lat="41.4499012" lon="13.1819772"><ele>118.19999999999999</ele><time>2026-04-02T14:13:53.052Z</time></trkpt><trkpt lat="41.4498205" lon="13.1818877"><ele>116.0</ele><time>2026-04-02T14:13:54.046Z</time></trkpt><trkpt lat="41.4497415" lon="13.18176"><ele>116.0</ele><time>2026-04-02T14:13:55.048Z</time></trkpt><trkpt lat="41.4496623" lon="13.1816238"><ele>116.0</ele><time>2026-04-02T14:13:56.042Z</time></trkpt><trkpt lat="41.4495826" lon="13.1814821"><ele>116.0</ele><time>2026-04-02T14:13:57.046Z</time></trkpt><trkpt lat="41.4495091" lon="13.1813249"><ele>116.0</ele><time>2026-04-02T14:13:58.045Z</time></trkpt><trkpt lat="41.4494384" lon="13.1811707"><ele>115.5</ele><time>2026-04-02T14:13:59.044Z</time></trkpt><trkpt lat="41.4493592" lon="13.1810156"><ele>115.0</ele><time>2026-04-02T14:14:00.049Z</time></trkpt><trkpt lat="41.4492785" lon="13.1808582"><ele>114.5</ele><time>2026-04-02T14:14:01.045Z</time></trkpt><trkpt lat="41.4491925" lon="13.180702"><ele>114.0</ele><time>2026-04-02T14:14:02.053Z</time></trkpt><trkpt lat="41.4491001" lon="13.1805529"><ele>114.0</ele><time>2026-04-02T14:14:03.043Z</time></trkpt><trkpt lat="41.4490099" lon="13.1804164"><ele>114.0</ele><time>2026-04-02T14:14:04.049Z</time></trkpt><trkpt lat="41.4489303" lon="13.1802916"><ele>114.0</ele><time>2026-04-02T14:14:05.046Z</time></trkpt><trkpt lat="41.4488521" lon="13.1801821"><ele>114.0</ele><time>2026-04-02T14:14:06.05Z</time></trkpt><trkpt lat="41.4487738" lon="13.1800781"><ele>113.0</ele><time>2026-04-02T14:14:07.055Z</time></trkpt><trkpt lat="41.4486845" lon="13.1799901"><ele>112.0</ele><time>2026-04-02T14:14:08.042Z</time></trkpt><trkpt lat="41.4485926" lon="13.1799111"><ele>111.0</ele><time>2026-04-02T14:14:09.041Z</time></trkpt><trkpt lat="41.4484932" lon="13.1798502"><ele>110.0</ele><time>2026-04-02T14:14:10.038Z</time></trkpt><trkpt lat="41.4483867" lon="13.1798131"><ele>109.0</ele><time>2026-04-02T14:14:11.041Z</time></trkpt><trkpt lat="41.4482736" lon="13.1798048"><ele>109.0</ele><time>2026-04-02T14:14:12.04Z</time></trkpt><trkpt lat="41.4481669" lon="13.1798244"><ele>109.0</ele><time>2026-04-02T14:14:13.045Z</time></trkpt><trkpt lat="41.4480606" lon="13.1798707"><ele>109.0</ele><time>2026-04-02T14:14:14.042Z</time></trkpt><trkpt lat="41.4479533" lon="13.1799422"><ele>109.0</ele><time>2026-04-02T14:14:15.054Z</time></trkpt><trkpt lat="41.4478551" lon="13.1800358"><ele>107.33333333333334</ele><time>2026-04-02T14:14:16.046Z</time></trkpt><trkpt lat="41.4477628" lon="13.1801254"><ele>105.66666666666667</ele><time>2026-04-02T14:14:17.051Z</time></trkpt><trkpt lat="41.447691" lon="13.1802157"><ele>104.0</ele><time>2026-04-02T14:14:18.042Z</time></trkpt><trkpt lat="41.4476265" lon="13.1802989"><ele>102.33333333333334</ele><time>2026-04-02T14:14:19.04Z</time></trkpt><trkpt lat="41.4475656" lon="13.1803424"><ele>100.66666666666667</ele><time>2026-04-02T14:14:20.041Z</time></trkpt><trkpt lat="41.4474991" lon="13.1803558"><ele>99.0</ele><time>2026-04-02T14:14:21.037Z</time></trkpt><trkpt lat="41.4474345" lon="13.1803647"><ele>99.0</ele><time>2026-04-02T14:14:22.043Z</time></trkpt><trkpt lat="41.4473679" lon="13.1803323"><ele>99.0</ele><time>2026-04-02T14:14:23.037Z</time></trkpt><trkpt lat="41.4472964" lon="13.1803231"><ele>99.0</ele><time>2026-04-02T14:14:24.048Z</time></trkpt><trkpt lat="41.4472128" lon="13.1803529"><ele>99.0</ele><time>2026-04-02T14:14:25.051Z</time></trkpt><trkpt lat="41.4471285" lon="13.1804014"><ele>99.0</ele><time>2026-04-02T14:14:26.043Z</time></trkpt><trkpt lat="41.4470534" lon="13.1804589"><ele>99.0</ele><time>2026-04-02T14:14:27.045Z</time></trkpt><trkpt lat="41.4469868" lon="13.1805247"><ele>98.66666666666667</ele><time>2026-04-02T14:14:28.042Z</time></trkpt><trkpt lat="41.4469243" lon="13.1805878"><ele>98.33333333333334</ele><time>2026-04-02T14:14:29.049Z</time></trkpt><trkpt lat="41.4468764" lon="13.1806505"><ele>98.0</ele><time>2026-04-02T14:14:30.044Z</time></trkpt><trkpt lat="41.4468507" lon="13.1807358"><ele>97.66666666666667</ele><time>2026-04-02T14:14:32.046Z</time></trkpt><trkpt lat="41.4467669" lon="13.1808068"><ele>97.33333333333334</ele><time>2026-04-02T14:14:35.049Z</time></trkpt><trkpt lat="41.4466864" lon="13.1808616"><ele>97.0</ele><time>2026-04-02T14:14:37.047Z</time></trkpt><trkpt lat="41.4466391" lon="13.1809711"><ele>97.6</ele><time>2026-04-02T14:14:40.043Z</time></trkpt><trkpt lat="41.4466233" lon="13.1811398"><ele>98.19999999999999</ele><time>2026-04-02T14:14:42.044Z</time></trkpt><trkpt lat="41.4466005" lon="13.1812368"><ele>98.8</ele><time>2026-04-02T14:14:43.052Z</time></trkpt><trkpt lat="41.4465741" lon="13.1813352"><ele>99.4</ele><time>2026-04-02T14:14:44.039Z</time></trkpt><trkpt lat="41.4465135" lon="13.1814356"><ele>100.0</ele><time>2026-04-02T14:14:45.041Z</time></trkpt><trkpt lat="41.4464442" lon="13.1815398"><ele>100.0</ele><time>2026-04-02T14:14:46.036Z</time></trkpt><trkpt lat="41.4463828" lon="13.1816304"><ele>100.0</ele><time>2026-04-02T14:14:47.04Z</time></trkpt><trkpt lat="41.4463342" lon="13.1817"><ele>100.0</ele><time>2026-04-02T14:14:48.039Z</time></trkpt><trkpt lat="41.4463161" lon="13.1818044"><ele>100.0</ele><time>2026-04-02T14:14:50.037Z</time></trkpt><trkpt lat="41.4463619" lon="13.1818977"><ele>100.0</ele><time>2026-04-02T14:14:52.071Z</time></trkpt><trkpt lat="41.4464618" lon="13.1820181"><ele>100.0</ele><time>2026-04-02T14:14:54.05Z</time></trkpt><trkpt lat="41.4465289" lon="13.1820846"><ele>100.0</ele><time>2026-04-02T14:14:55.04Z</time></trkpt><trkpt lat="41.4466096" lon="13.1821679"><ele>100.0</ele><time>2026-04-02T14:14:56.05Z</time></trkpt><trkpt lat="41.4466938" lon="13.1822519"><ele>100.0</ele><time>2026-04-02T14:14:57.04Z</time></trkpt><trkpt lat="41.4467826" lon="13.18234"><ele>100.0</ele><time>2026-04-02T14:14:58.05Z</time></trkpt><trkpt lat="41.4468712" lon="13.1824285"><ele>99.50000000000001</ele><time>2026-04-02T14:14:59.047Z</time></trkpt><trkpt lat="41.4469418" lon="13.1825026"><ele>99.0</ele><time>2026-04-02T14:15:00.039Z</time></trkpt><trkpt lat="41.4469954" lon="13.1825591"><ele>98.5</ele><time>2026-04-02T14:15:01.042Z</time></trkpt><trkpt lat="41.4470564" lon="13.1826232"><ele>98.0</ele><time>2026-04-02T14:15:03.055Z</time></trkpt><trkpt lat="41.447037" lon="13.1827279"><ele>97.50000000000001</ele><time>2026-04-02T14:15:07.053Z</time></trkpt><trkpt lat="41.44702" lon="13.1828285"><ele>97.0</ele><time>2026-04-02T14:15:08.046Z</time></trkpt><trkpt lat="41.4469969" lon="13.1829381"><ele>97.00000000000001</ele><time>2026-04-02T14:15:09.056Z</time></trkpt><trkpt lat="41.446956" lon="13.1830414"><ele>97.0</ele><time>2026-04-02T14:15:10.041Z</time></trkpt><trkpt lat="41.4469238" lon="13.1831423"><ele>97.0</ele><time>2026-04-02T14:15:11.043Z</time></trkpt><trkpt lat="41.4469191" lon="13.1832519"><ele>97.0</ele><time>2026-04-02T14:15:12.048Z</time></trkpt><trkpt lat="41.4469242" lon="13.183352"><ele>97.00000000000001</ele><time>2026-04-02T14:15:13.041Z</time></trkpt><trkpt lat="41.4469239" lon="13.18345"><ele>97.0</ele><time>2026-04-02T14:15:14.04Z</time></trkpt><trkpt lat="41.4469252" lon="13.1835585"><ele>96.66666666666667</ele><time>2026-04-02T14:15:15.042Z</time></trkpt><trkpt lat="41.4469325" lon="13.1836874"><ele>96.33333333333334</ele><time>2026-04-02T14:15:16.045Z</time></trkpt><trkpt lat="41.446942" lon="13.1838016"><ele>96.0</ele><time>2026-04-02T14:15:17.046Z</time></trkpt><trkpt lat="41.4469427" lon="13.183912"><ele>95.66666666666667</ele><time>2026-04-02T14:15:18.043Z</time></trkpt><trkpt lat="41.4469438" lon="13.1840063"><ele>95.33333333333334</ele><time>2026-04-02T14:15:19.061Z</time></trkpt><trkpt lat="41.4469321" lon="13.1841127"><ele>95.0</ele><time>2026-04-02T14:15:21.048Z</time></trkpt><trkpt lat="41.44687" lon="13.1842408"><ele>95.0</ele><time>2026-04-02T14:15:24.038Z</time></trkpt><trkpt lat="41.4468677" lon="13.1843997"><ele>95.0</ele><time>2026-04-02T14:15:26.045Z</time></trkpt><trkpt lat="41.4469037" lon="13.1845295"><ele>95.0</ele><time>2026-04-02T14:15:28.041Z</time></trkpt><trkpt lat="41.4469137" lon="13.1846498"><ele>95.0</ele><time>2026-04-02T14:15:30.046Z</time></trkpt><trkpt lat="41.4469227" lon="13.1847504"><ele>95.0</ele><time>2026-04-02T14:15:32.037Z</time></trkpt><trkpt lat="41.4469485" lon="13.1848277"><ele>94.2</ele><time>2026-04-02T14:15:34.041Z</time></trkpt><trkpt lat="41.4469124" lon="13.1849589"><ele>93.4</ele><time>2026-04-02T14:15:36.045Z</time></trkpt><trkpt lat="41.4468968" lon="13.185095"><ele>92.6</ele><time>2026-04-02T14:15:38.037Z</time></trkpt><trkpt lat="41.4468531" lon="13.1852544"><ele>91.8</ele><time>2026-04-02T14:15:40.036Z</time></trkpt><trkpt lat="41.4468163" lon="13.1853395"><ele>91.0</ele><time>2026-04-02T14:15:41.037Z</time></trkpt><trkpt lat="41.4467589" lon="13.1854394"><ele>91.0</ele><time>2026-04-02T14:15:43.044Z</time></trkpt><trkpt lat="41.4466496" lon="13.185526"><ele>91.0</ele><time>2026-04-02T14:15:45.052Z</time></trkpt><trkpt lat="41.4466042" lon="13.1856004"><ele>91.0</ele><time>2026-04-02T14:15:46.046Z</time></trkpt><trkpt lat="41.4465553" lon="13.1856536"><ele>91.0</ele><time>2026-04-02T14:15:47.081Z</time></trkpt><trkpt lat="41.4464531" lon="13.1857078"><ele>91.0</ele><time>2026-04-02T14:15:49.046Z</time></trkpt><trkpt lat="41.4463546" lon="13.1857455"><ele>90.0</ele><time>2026-04-02T14:15:51.056Z</time></trkpt><trkpt lat="41.4463173" lon="13.1859229"><ele>89.0</ele><time>2026-04-02T14:15:53.045Z</time></trkpt><trkpt lat="41.4462896" lon="13.1860329"><ele>88.0</ele><time>2026-04-02T14:15:54.048Z</time></trkpt><trkpt lat="41.4462569" lon="13.1861246"><ele>87.0</ele><time>2026-04-02T14:15:55.036Z</time></trkpt><trkpt lat="41.4462247" lon="13.1861999"><ele>86.0</ele><time>2026-04-02T14:15:56.042Z</time></trkpt><trkpt lat="41.4461862" lon="13.1862855"><ele>85.0</ele><time>2026-04-02T14:15:57.042Z</time></trkpt><trkpt lat="41.4461535" lon="13.1863636"><ele>85.0</ele><time>2026-04-02T14:15:58.043Z</time></trkpt><trkpt lat="41.4461178" lon="13.1864568"><ele>85.0</ele><time>2026-04-02T14:15:59.043Z</time></trkpt><trkpt lat="41.4460847" lon="13.1865507"><ele>85.0</ele><time>2026-04-02T14:16:00.04Z</time></trkpt><trkpt lat="41.4460524" lon="13.1866447"><ele>85.0</ele><time>2026-04-02T14:16:01.043Z</time></trkpt><trkpt lat="41.4460219" lon="13.1867446"><ele>85.0</ele><time>2026-04-02T14:16:02.041Z</time></trkpt><trkpt lat="41.4460113" lon="13.1868483"><ele>85.0</ele><time>2026-04-02T14:16:03.039Z</time></trkpt><trkpt lat="41.4460046" lon="13.1869564"><ele>83.57142857142857</ele><time>2026-04-02T14:16:04.043Z</time></trkpt><trkpt lat="41.4459935" lon="13.1870474"><ele>82.14285714285714</ele><time>2026-04-02T14:16:05.048Z</time></trkpt><trkpt lat="41.4459714" lon="13.18713"><ele>80.71428571428571</ele><time>2026-04-02T14:16:06.04Z</time></trkpt><trkpt lat="41.445919" lon="13.1871908"><ele>79.28571428571428</ele><time>2026-04-02T14:16:07.044Z</time></trkpt><trkpt lat="41.4458647" lon="13.1872666"><ele>77.85714285714286</ele><time>2026-04-02T14:16:08.051Z</time></trkpt><trkpt lat="41.4458113" lon="13.1873419"><ele>76.42857142857142</ele><time>2026-04-02T14:16:09.045Z</time></trkpt><trkpt lat="41.4457587" lon="13.1874062"><ele>75.0</ele><time>2026-04-02T14:16:10.039Z</time></trkpt><trkpt lat="41.445646" lon="13.187498"><ele>73.2</ele><time>2026-04-02T14:16:12.045Z</time></trkpt><trkpt lat="41.4455637" lon="13.1875045"><ele>71.4</ele><time>2026-04-02T14:16:13.043Z</time></trkpt><trkpt lat="41.4454744" lon="13.1874665"><ele>69.6</ele><time>2026-04-02T14:16:14.049Z</time></trkpt><trkpt lat="41.4453852" lon="13.1874404"><ele>67.8</ele><time>2026-04-02T14:16:15.045Z</time></trkpt><trkpt lat="41.4452882" lon="13.1874512"><ele>66.0</ele><time>2026-04-02T14:16:16.049Z</time></trkpt><trkpt lat="41.445193" lon="13.1874619"><ele>66.0</ele><time>2026-04-02T14:16:17.041Z</time></trkpt><trkpt lat="41.4451238" lon="13.1874606"><ele>66.0</ele><time>2026-04-02T14:16:18.043Z</time></trkpt><trkpt lat="41.4450478" lon="13.1874515"><ele>66.0</ele><time>2026-04-02T14:16:19.039Z</time></trkpt><trkpt lat="41.4449643" lon="13.1874836"><ele>66.0</ele><time>2026-04-02T14:16:20.044Z</time></trkpt><trkpt lat="41.4448666" lon="13.1875253"><ele>66.0</ele><time>2026-04-02T14:16:21.044Z</time></trkpt><trkpt lat="41.4447697" lon="13.1875735"><ele>66.0</ele><time>2026-04-02T14:16:22.048Z</time></trkpt><trkpt lat="41.4446765" lon="13.1876177"><ele>66.0</ele><time>2026-04-02T14:16:23.041Z</time></trkpt><trkpt lat="41.4445629" lon="13.1876649"><ele>66.0</ele><time>2026-04-02T14:16:24.043Z</time></trkpt><trkpt lat="41.4444471" lon="13.1877175"><ele>66.0</ele><time>2026-04-02T14:16:25.042Z</time></trkpt><trkpt lat="41.4443323" lon="13.1877638"><ele>66.0</ele><time>2026-04-02T14:16:26.042Z</time></trkpt><trkpt lat="41.4442169" lon="13.1878103"><ele>66.0</ele><time>2026-04-02T14:16:27.045Z</time></trkpt><trkpt lat="41.4440984" lon="13.1878356"><ele>66.0</ele><time>2026-04-02T14:16:28.039Z</time></trkpt><trkpt lat="41.4439969" lon="13.1878311"><ele>66.0</ele><time>2026-04-02T14:16:29.036Z</time></trkpt><trkpt lat="41.4439089" lon="13.1878203"><ele>66.0</ele><time>2026-04-02T14:16:30.04Z</time></trkpt><trkpt lat="41.4438234" lon="13.1878107"><ele>66.0</ele><time>2026-04-02T14:16:31.038Z</time></trkpt><trkpt lat="41.443732" lon="13.1878285"><ele>65.5</ele><time>2026-04-02T14:16:33.048Z</time></trkpt><trkpt lat="41.4436595" lon="13.187862"><ele>65.0</ele><time>2026-04-02T14:16:35.054Z</time></trkpt><trkpt lat="41.4435704" lon="13.187913"><ele>64.5</ele><time>2026-04-02T14:16:37.038Z</time></trkpt><trkpt lat="41.4435026" lon="13.187952"><ele>64.0</ele><time>2026-04-02T14:16:38.043Z</time></trkpt><trkpt lat="41.4434259" lon="13.1879803"><ele>63.5</ele><time>2026-04-02T14:16:39.039Z</time></trkpt><trkpt lat="41.4433491" lon="13.1880197"><ele>63.0</ele><time>2026-04-02T14:16:40.039Z</time></trkpt><trkpt lat="41.4432632" lon="13.1880761"><ele>63.0</ele><time>2026-04-02T14:16:41.042Z</time></trkpt><trkpt lat="41.4431472" lon="13.1881295"><ele>63.0</ele><time>2026-04-02T14:16:42.039Z</time></trkpt><trkpt lat="41.4430213" lon="13.1881795"><ele>63.0</ele><time>2026-04-02T14:16:43.044Z</time></trkpt><trkpt lat="41.4428841" lon="13.1882356"><ele>63.0</ele><time>2026-04-02T14:16:44.038Z</time></trkpt><trkpt lat="41.4427663" lon="13.1882938"><ele>61.599999999999994</ele><time>2026-04-02T14:16:45.046Z</time></trkpt><trkpt lat="41.4426645" lon="13.18834"><ele>60.199999999999996</ele><time>2026-04-02T14:16:46.037Z</time></trkpt><trkpt lat="41.4425782" lon="13.1883786"><ele>58.8</ele><time>2026-04-02T14:16:47.053Z</time></trkpt><trkpt lat="41.4424877" lon="13.1883953"><ele>57.4</ele><time>2026-04-02T14:16:48.042Z</time></trkpt><trkpt lat="41.4423805" lon="13.1884103"><ele>56.0</ele><time>2026-04-02T14:16:49.037Z</time></trkpt><trkpt lat="41.4422865" lon="13.1884462"><ele>56.00000000000001</ele><time>2026-04-02T14:16:50.043Z</time></trkpt><trkpt lat="41.4422023" lon="13.1884728"><ele>56.0</ele><time>2026-04-02T14:16:51.034Z</time></trkpt><trkpt lat="41.4421156" lon="13.1885074"><ele>56.0</ele><time>2026-04-02T14:16:52.038Z</time></trkpt><trkpt lat="41.4420357" lon="13.1885485"><ele>56.0</ele><time>2026-04-02T14:16:53.053Z</time></trkpt><trkpt lat="41.4419632" lon="13.1885976"><ele>56.00000000000001</ele><time>2026-04-02T14:16:54.036Z</time></trkpt><trkpt lat="41.441893" lon="13.1886594"><ele>56.0</ele><time>2026-04-02T14:16:55.049Z</time></trkpt><trkpt lat="41.4418144" lon="13.1887308"><ele>55.66666666666667</ele><time>2026-04-02T14:16:56.038Z</time></trkpt><trkpt lat="41.4417275" lon="13.1887914"><ele>55.333333333333336</ele><time>2026-04-02T14:16:57.037Z</time></trkpt><trkpt lat="41.441635" lon="13.1888606"><ele>55.0</ele><time>2026-04-02T14:16:58.042Z</time></trkpt><trkpt lat="41.4415689" lon="13.1889133"><ele>54.66666666666667</ele><time>2026-04-02T14:16:59.036Z</time></trkpt><trkpt lat="41.4415127" lon="13.1889609"><ele>54.333333333333336</ele><time>2026-04-02T14:17:00.042Z</time></trkpt><trkpt lat="41.4414311" lon="13.1890308"><ele>54.0</ele><time>2026-04-02T14:17:02.054Z</time></trkpt><trkpt lat="41.4413782" lon="13.1890865"><ele>53.6</ele><time>2026-04-02T14:17:04.052Z</time></trkpt><trkpt lat="41.4413678" lon="13.1891829"><ele>53.2</ele><time>2026-04-02T14:17:06.045Z</time></trkpt><trkpt lat="41.4413848" lon="13.1892885"><ele>52.800000000000004</ele><time>2026-04-02T14:17:08.042Z</time></trkpt><trkpt lat="41.4413167" lon="13.1893679"><ele>52.400000000000006</ele><time>2026-04-02T14:17:11.054Z</time></trkpt><trkpt lat="41.441182" lon="13.1894316"><ele>52.0</ele><time>2026-04-02T14:17:13.041Z</time></trkpt><trkpt lat="41.4410841" lon="13.1894764"><ele>52.0</ele><time>2026-04-02T14:17:14.037Z</time></trkpt><trkpt lat="41.4409669" lon="13.1895343"><ele>52.0</ele><time>2026-04-02T14:17:15.05Z</time></trkpt><trkpt lat="41.4408449" lon="13.1895989"><ele>52.0</ele><time>2026-04-02T14:17:16.04Z</time></trkpt><trkpt lat="41.4407093" lon="13.1896505"><ele>52.0</ele><time>2026-04-02T14:17:17.035Z</time></trkpt><trkpt lat="41.4405648" lon="13.1897135"><ele>52.25</ele><time>2026-04-02T14:17:18.035Z</time></trkpt><trkpt lat="41.4404297" lon="13.1897778"><ele>52.5</ele><time>2026-04-02T14:17:19.036Z</time></trkpt><trkpt lat="41.4402899" lon="13.1898297"><ele>52.75</ele><time>2026-04-02T14:17:20.038Z</time></trkpt><trkpt lat="41.4401568" lon="13.1898817"><ele>53.0</ele><time>2026-04-02T14:17:21.036Z</time></trkpt><trkpt lat="41.4400283" lon="13.1899399"><ele>52.0</ele><time>2026-04-02T14:17:22.044Z</time></trkpt><trkpt lat="41.4399034" lon="13.1899876"><ele>51.0</ele><time>2026-04-02T14:17:23.038Z</time></trkpt><trkpt lat="41.4397645" lon="13.190042"><ele>50.0</ele><time>2026-04-02T14:17:24.038Z</time></trkpt><trkpt lat="41.4396223" lon="13.1900945"><ele>49.0</ele><time>2026-04-02T14:17:25.043Z</time></trkpt><trkpt lat="41.4394843" lon="13.1901456"><ele>48.5</ele><time>2026-04-02T14:17:26.034Z</time></trkpt><trkpt lat="41.4393448" lon="13.1902022"><ele>48.0</ele><time>2026-04-02T14:17:27.04Z</time></trkpt><trkpt lat="41.4392144" lon="13.1902592"><ele>47.5</ele><time>2026-04-02T14:17:28.044Z</time></trkpt><trkpt lat="41.4390993" lon="13.1903115"><ele>47.0</ele><time>2026-04-02T14:17:29.05Z</time></trkpt><trkpt lat="41.4389808" lon="13.1903654"><ele>47.0</ele><time>2026-04-02T14:17:30.038Z</time></trkpt><trkpt lat="41.4388591" lon="13.1904233"><ele>47.0</ele><time>2026-04-02T14:17:31.045Z</time></trkpt><trkpt lat="41.4387319" lon="13.1904814"><ele>47.0</ele><time>2026-04-02T14:17:32.04Z</time></trkpt><trkpt lat="41.4386082" lon="13.190539"><ele>47.0</ele><time>2026-04-02T14:17:33.057Z</time></trkpt><trkpt lat="41.4384916" lon="13.1905939"><ele>46.25</ele><time>2026-04-02T14:17:34.038Z</time></trkpt><trkpt lat="41.4383685" lon="13.1906461"><ele>45.5</ele><time>2026-04-02T14:17:35.043Z</time></trkpt><trkpt lat="41.4382165" lon="13.1906921"><ele>44.75</ele><time>2026-04-02T14:17:36.044Z</time></trkpt><trkpt lat="41.4380844" lon="13.1907606"><ele>44.0</ele><time>2026-04-02T14:17:37.037Z</time></trkpt><trkpt lat="41.4379627" lon="13.1908539"><ele>42.0</ele><time>2026-04-02T14:17:38.043Z</time></trkpt><trkpt lat="41.4378287" lon="13.1909458"><ele>40.0</ele><time>2026-04-02T14:17:39.038Z</time></trkpt><trkpt lat="41.4376979" lon="13.1910318"><ele>38.0</ele><time>2026-04-02T14:17:40.042Z</time></trkpt><trkpt lat="41.4375763" lon="13.19111"><ele>36.0</ele><time>2026-04-02T14:17:41.037Z</time></trkpt><trkpt lat="41.4374488" lon="13.1911836"><ele>36.0</ele><time>2026-04-02T14:17:42.055Z</time></trkpt><trkpt lat="41.4373333" lon="13.1912644"><ele>36.0</ele><time>2026-04-02T14:17:43.038Z</time></trkpt><trkpt lat="41.4372171" lon="13.1913257"><ele>36.0</ele><time>2026-04-02T14:17:44.041Z</time></trkpt><trkpt lat="41.4370924" lon="13.1913912"><ele>36.0</ele><time>2026-04-02T14:17:45.048Z</time></trkpt><trkpt lat="41.4369664" lon="13.1914464"><ele>35.6</ele><time>2026-04-02T14:17:46.04Z</time></trkpt><trkpt lat="41.4368512" lon="13.1914967"><ele>35.2</ele><time>2026-04-02T14:17:47.047Z</time></trkpt><trkpt lat="41.4367575" lon="13.1915365"><ele>34.8</ele><time>2026-04-02T14:17:48.044Z</time></trkpt><trkpt lat="41.4366762" lon="13.1915563"><ele>34.4</ele><time>2026-04-02T14:17:49.048Z</time></trkpt><trkpt lat="41.4366104" lon="13.1915889"><ele>34.0</ele><time>2026-04-02T14:17:50.045Z</time></trkpt><trkpt lat="41.4365199" lon="13.1916215"><ele>33.4</ele><time>2026-04-02T14:17:52.043Z</time></trkpt><trkpt lat="41.4364264" lon="13.1916384"><ele>32.8</ele><time>2026-04-02T14:17:54.049Z</time></trkpt><trkpt lat="41.4363362" lon="13.1915485"><ele>32.2</ele><time>2026-04-02T14:17:56.048Z</time></trkpt><trkpt lat="41.4362645" lon="13.1914695"><ele>31.6</ele><time>2026-04-02T14:17:57.047Z</time></trkpt><trkpt lat="41.4361782" lon="13.1913885"><ele>31.0</ele><time>2026-04-02T14:17:58.052Z</time></trkpt><trkpt lat="41.4360817" lon="13.1913138"><ele>31.0</ele><time>2026-04-02T14:17:59.04Z</time></trkpt><trkpt lat="41.4359743" lon="13.1912338"><ele>31.0</ele><time>2026-04-02T14:18:00.041Z</time></trkpt><trkpt lat="41.4358646" lon="13.1911547"><ele>31.0</ele><time>2026-04-02T14:18:01.044Z</time></trkpt><trkpt lat="41.4357435" lon="13.1910611"><ele>31.0</ele><time>2026-04-02T14:18:02.051Z</time></trkpt><trkpt lat="41.4356268" lon="13.1909707"><ele>31.0</ele><time>2026-04-02T14:18:03.049Z</time></trkpt><trkpt lat="41.4355052" lon="13.1908823"><ele>31.0</ele><time>2026-04-02T14:18:04.055Z</time></trkpt><trkpt lat="41.435382" lon="13.1907902"><ele>31.0</ele><time>2026-04-02T14:18:05.041Z</time></trkpt><trkpt lat="41.4352508" lon="13.1906921"><ele>31.0</ele><time>2026-04-02T14:18:06.045Z</time></trkpt><trkpt lat="41.4351127" lon="13.190596"><ele>31.666666666666668</ele><time>2026-04-02T14:18:07.039Z</time></trkpt><trkpt lat="41.4349624" lon="13.1904923"><ele>32.333333333333336</ele><time>2026-04-02T14:18:08.052Z</time></trkpt><trkpt lat="41.4348071" lon="13.1903856"><ele>33.0</ele><time>2026-04-02T14:18:09.045Z</time></trkpt><trkpt lat="41.4346464" lon="13.19027"><ele>28.333333333333332</ele><time>2026-04-02T14:18:10.041Z</time></trkpt><trkpt lat="41.4344858" lon="13.1901481"><ele>23.666666666666664</ele><time>2026-04-02T14:18:11.051Z</time></trkpt><trkpt lat="41.4343228" lon="13.1900289"><ele>19.0</ele><time>2026-04-02T14:18:12.045Z</time></trkpt><trkpt lat="41.4341599" lon="13.1899048"><ele>18.666666666666664</ele><time>2026-04-02T14:18:13.053Z</time></trkpt><trkpt lat="41.4339937" lon="13.1897738"><ele>18.333333333333332</ele><time>2026-04-02T14:18:14.045Z</time></trkpt><trkpt lat="41.4338258" lon="13.189642"><ele>18.0</ele><time>2026-04-02T14:18:15.043Z</time></trkpt><trkpt lat="41.433658" lon="13.1895084"><ele>18.0</ele><time>2026-04-02T14:18:16.047Z</time></trkpt><trkpt lat="41.4334873" lon="13.1893824"><ele>18.0</ele><time>2026-04-02T14:18:17.062Z</time></trkpt><trkpt lat="41.4333134" lon="13.1892526"><ele>18.0</ele><time>2026-04-02T14:18:18.044Z</time></trkpt><trkpt lat="41.4331441" lon="13.1891204"><ele>17.0</ele><time>2026-04-02T14:18:19.048Z</time></trkpt><trkpt lat="41.4329741" lon="13.1889894"><ele>16.0</ele><time>2026-04-02T14:18:20.041Z</time></trkpt><trkpt lat="41.4328017" lon="13.1888598"><ele>15.0</ele><time>2026-04-02T14:18:21.061Z</time></trkpt><trkpt lat="41.4326285" lon="13.1887344"><ele>15.0</ele><time>2026-04-02T14:18:22.042Z</time></trkpt><trkpt lat="41.4324576" lon="13.1886077"><ele>15.0</ele><time>2026-04-02T14:18:23.045Z</time></trkpt><trkpt lat="41.4322871" lon="13.1884851"><ele>15.0</ele><time>2026-04-02T14:18:24.044Z</time></trkpt><trkpt lat="41.4321143" lon="13.1883766"><ele>15.0</ele><time>2026-04-02T14:18:25.046Z</time></trkpt><trkpt lat="41.4319325" lon="13.1882878"><ele>15.0</ele><time>2026-04-02T14:18:26.051Z</time></trkpt><trkpt lat="41.4317456" lon="13.188222"><ele>15.0</ele><time>2026-04-02T14:18:27.047Z</time></trkpt><trkpt lat="41.431556" lon="13.1881716"><ele>15.0</ele><time>2026-04-02T14:18:28.05Z</time></trkpt><trkpt lat="41.4313656" lon="13.1881388"><ele>15.0</ele><time>2026-04-02T14:18:29.046Z</time></trkpt><trkpt lat="41.4311748" lon="13.1881202"><ele>15.0</ele><time>2026-04-02T14:18:30.047Z</time></trkpt><trkpt lat="41.4309812" lon="13.1881043"><ele>15.0</ele><time>2026-04-02T14:18:31.046Z</time></trkpt><trkpt lat="41.4307868" lon="13.1880826"><ele>15.0</ele><time>2026-04-02T14:18:32.046Z</time></trkpt><trkpt lat="41.4305936" lon="13.1880577"><ele>15.0</ele><time>2026-04-02T14:18:33.046Z</time></trkpt><trkpt lat="41.4304004" lon="13.1880293"><ele>15.0</ele><time>2026-04-02T14:18:34.044Z</time></trkpt><trkpt lat="41.4302062" lon="13.1879929"><ele>15.0</ele><time>2026-04-02T14:18:35.044Z</time></trkpt><trkpt lat="41.4300176" lon="13.1879337"><ele>15.0</ele><time>2026-04-02T14:18:36.049Z</time></trkpt><trkpt lat="41.4298362" lon="13.1878477"><ele>15.0</ele><time>2026-04-02T14:18:37.045Z</time></trkpt><trkpt lat="41.4296605" lon="13.187746"><ele>15.0</ele><time>2026-04-02T14:18:38.043Z</time></trkpt><trkpt lat="41.4294887" lon="13.1876371"><ele>15.0</ele><time>2026-04-02T14:18:39.046Z</time></trkpt><trkpt lat="41.4293207" lon="13.1875227"><ele>15.0</ele><time>2026-04-02T14:18:40.048Z</time></trkpt><trkpt lat="41.4291656" lon="13.1874053"><ele>15.0</ele><time>2026-04-02T14:18:41.042Z</time></trkpt><trkpt lat="41.4290242" lon="13.1872889"><ele>15.0</ele><time>2026-04-02T14:18:42.039Z</time></trkpt><trkpt lat="41.4288882" lon="13.1871768"><ele>15.75</ele><time>2026-04-02T14:18:43.041Z</time></trkpt><trkpt lat="41.4287639" lon="13.1870706"><ele>16.5</ele><time>2026-04-02T14:18:44.047Z</time></trkpt><trkpt lat="41.4286384" lon="13.1869696"><ele>17.25</ele><time>2026-04-02T14:18:45.041Z</time></trkpt><trkpt lat="41.4285142" lon="13.1868595"><ele>18.0</ele><time>2026-04-02T14:18:46.043Z</time></trkpt><trkpt lat="41.4283916" lon="13.1867513"><ele>18.0</ele><time>2026-04-02T14:18:47.042Z</time></trkpt><trkpt lat="41.4282755" lon="13.1866359"><ele>18.0</ele><time>2026-04-02T14:18:48.046Z</time></trkpt><trkpt lat="41.4281593" lon="13.1865273"><ele>18.0</ele><time>2026-04-02T14:18:49.045Z</time></trkpt><trkpt lat="41.4280418" lon="13.1864115"><ele>18.0</ele><time>2026-04-02T14:18:50.04Z</time></trkpt><trkpt lat="41.427919" lon="13.1863026"><ele>17.333333333333332</ele><time>2026-04-02T14:18:51.056Z</time></trkpt><trkpt lat="41.4277824" lon="13.1861929"><ele>16.666666666666664</ele><time>2026-04-02T14:18:52.047Z</time></trkpt><trkpt lat="41.4276579" lon="13.1860816"><ele>16.0</ele><time>2026-04-02T14:18:53.045Z</time></trkpt><trkpt lat="41.4275274" lon="13.1859713"><ele>16.0</ele><time>2026-04-02T14:18:54.045Z</time></trkpt><trkpt lat="41.4273956" lon="13.1858576"><ele>16.0</ele><time>2026-04-02T14:18:55.044Z</time></trkpt><trkpt lat="41.4272784" lon="13.1857319"><ele>16.0</ele><time>2026-04-02T14:18:56.043Z</time></trkpt><trkpt lat="41.4271612" lon="13.1856292"><ele>16.0</ele><time>2026-04-02T14:18:57.05Z</time></trkpt><trkpt lat="41.4270591" lon="13.1855167"><ele>15.25</ele><time>2026-04-02T14:18:58.042Z</time></trkpt><trkpt lat="41.4269472" lon="13.1854057"><ele>14.5</ele><time>2026-04-02T14:18:59.044Z</time></trkpt><trkpt lat="41.4268348" lon="13.185309"><ele>13.75</ele><time>2026-04-02T14:19:00.061Z</time></trkpt><trkpt lat="41.4267226" lon="13.185203"><ele>13.0</ele><time>2026-04-02T14:19:01.046Z</time></trkpt><trkpt lat="41.4266167" lon="13.1851055"><ele>13.0</ele><time>2026-04-02T14:19:02.048Z</time></trkpt><trkpt lat="41.4265126" lon="13.1850102"><ele>13.0</ele><time>2026-04-02T14:19:03.061Z</time></trkpt><trkpt lat="41.4264099" lon="13.1849128"><ele>13.0</ele><time>2026-04-02T14:19:04.052Z</time></trkpt><trkpt lat="41.4263085" lon="13.1848175"><ele>13.0</ele><time>2026-04-02T14:19:05.045Z</time></trkpt><trkpt lat="41.4262042" lon="13.184717"><ele>13.25</ele><time>2026-04-02T14:19:06.044Z</time></trkpt><trkpt lat="41.4261021" lon="13.1846211"><ele>13.5</ele><time>2026-04-02T14:19:07.047Z</time></trkpt><trkpt lat="41.4260031" lon="13.184531"><ele>13.75</ele><time>2026-04-02T14:19:08.049Z</time></trkpt><trkpt lat="41.4259033" lon="13.1844407"><ele>14.0</ele><time>2026-04-02T14:19:09.044Z</time></trkpt><trkpt lat="41.4258043" lon="13.1843456"><ele>14.0</ele><time>2026-04-02T14:19:10.04Z</time></trkpt><trkpt lat="41.4257086" lon="13.1842537"><ele>13.999999999999998</ele><time>2026-04-02T14:19:11.049Z</time></trkpt><trkpt lat="41.4256156" lon="13.1841666"><ele>13.999999999999998</ele><time>2026-04-02T14:19:12.044Z</time></trkpt><trkpt lat="41.4255273" lon="13.1840845"><ele>14.0</ele><time>2026-04-02T14:19:13.046Z</time></trkpt><trkpt lat="41.4254411" lon="13.1840043"><ele>14.0</ele><time>2026-04-02T14:19:14.046Z</time></trkpt><trkpt lat="41.42537" lon="13.1839318"><ele>14.2</ele><time>2026-04-02T14:19:15.06Z</time></trkpt><trkpt lat="41.425301" lon="13.1838671"><ele>14.399999999999999</ele><time>2026-04-02T14:19:16.046Z</time></trkpt><trkpt lat="41.4252419" lon="13.1838026"><ele>14.6</ele><time>2026-04-02T14:19:17.047Z</time></trkpt><trkpt lat="41.4251885" lon="13.1837453"><ele>14.8</ele><time>2026-04-02T14:19:18.044Z</time></trkpt><trkpt lat="41.4250833" lon="13.183676"><ele>15.0</ele><time>2026-04-02T14:19:20.047Z</time></trkpt><trkpt lat="41.4249777" lon="13.1836595"><ele>15.0</ele><time>2026-04-02T14:19:22.058Z</time></trkpt><trkpt lat="41.4248927" lon="13.1836112"><ele>15.0</ele><time>2026-04-02T14:19:24.047Z</time></trkpt><trkpt lat="41.4248265" lon="13.1836134"><ele>15.0</ele><time>2026-04-02T14:19:26.048Z</time></trkpt><trkpt lat="41.4248611" lon="13.183528"><ele>15.0</ele><time>2026-04-02T14:21:42.051Z</time></trkpt><trkpt lat="41.4249174" lon="13.1834865"><ele>15.0</ele><time>2026-04-02T14:21:46.048Z</time></trkpt><trkpt lat="41.4249149" lon="13.1833776"><ele>15.0</ele><time>2026-04-02T14:21:49.05Z</time></trkpt><trkpt lat="41.4248592" lon="13.1832776"><ele>15.0</ele><time>2026-04-02T14:21:51.046Z</time></trkpt><trkpt lat="41.4247773" lon="13.1831471"><ele>15.0</ele><time>2026-04-02T14:21:53.055Z</time></trkpt><trkpt lat="41.4247239" lon="13.1830422"><ele>15.0</ele><time>2026-04-02T14:21:54.049Z</time></trkpt><trkpt lat="41.4246634" lon="13.1829209"><ele>15.0</ele><time>2026-04-02T14:21:55.063Z</time></trkpt><trkpt lat="41.4245951" lon="13.1827952"><ele>15.0</ele><time>2026-04-02T14:21:56.05Z</time></trkpt><trkpt lat="41.424522" lon="13.1826622"><ele>14.5</ele><time>2026-04-02T14:21:57.046Z</time></trkpt><trkpt lat="41.4244353" lon="13.1825184"><ele>14.0</ele><time>2026-04-02T14:21:58.049Z</time></trkpt><trkpt lat="41.424344" lon="13.1823754"><ele>13.5</ele><time>2026-04-02T14:21:59.038Z</time></trkpt><trkpt lat="41.4242428" lon="13.18224"><ele>13.0</ele><time>2026-04-02T14:22:00.052Z</time></trkpt><trkpt lat="41.4241274" lon="13.1821143"><ele>12.75</ele><time>2026-04-02T14:22:01.051Z</time></trkpt><trkpt lat="41.4240035" lon="13.1820037"><ele>12.5</ele><time>2026-04-02T14:22:02.064Z</time></trkpt><trkpt lat="41.4238766" lon="13.1819058"><ele>12.25</ele><time>2026-04-02T14:22:03.041Z</time></trkpt><trkpt lat="41.4237588" lon="13.181815"><ele>12.0</ele><time>2026-04-02T14:22:04.044Z</time></trkpt><trkpt lat="41.4236524" lon="13.181739"><ele>12.399999999999999</ele><time>2026-04-02T14:22:05.043Z</time></trkpt><trkpt lat="41.4235619" lon="13.1816753"><ele>12.799999999999999</ele><time>2026-04-02T14:22:06.057Z</time></trkpt><trkpt lat="41.4234763" lon="13.1816192"><ele>13.2</ele><time>2026-04-02T14:22:07.041Z</time></trkpt><trkpt lat="41.4234044" lon="13.1815685"><ele>13.6</ele><time>2026-04-02T14:22:08.048Z</time></trkpt><trkpt lat="41.4232982" lon="13.1815644"><ele>14.0</ele><time>2026-04-02T14:22:10.054Z</time></trkpt><trkpt lat="41.4232272" lon="13.1816938"><ele>14.0</ele><time>2026-04-02T14:22:12.048Z</time></trkpt><trkpt lat="41.4231898" lon="13.1817937"><ele>13.999999999999998</ele><time>2026-04-02T14:22:13.052Z</time></trkpt><trkpt lat="41.4231533" lon="13.1819295"><ele>13.999999999999998</ele><time>2026-04-02T14:22:14.056Z</time></trkpt><trkpt lat="41.423103" lon="13.1820619"><ele>14.0</ele><time>2026-04-02T14:22:15.043Z</time></trkpt><trkpt lat="41.4230387" lon="13.1822045"><ele>14.0</ele><time>2026-04-02T14:22:16.05Z</time></trkpt><trkpt lat="41.4229627" lon="13.1823568"><ele>13.0</ele><time>2026-04-02T14:22:17.052Z</time></trkpt><trkpt lat="41.4228745" lon="13.1825071"><ele>12.0</ele><time>2026-04-02T14:22:18.043Z</time></trkpt><trkpt lat="41.4227758" lon="13.1826592"><ele>11.0</ele><time>2026-04-02T14:22:19.054Z</time></trkpt><trkpt lat="41.4226672" lon="13.1828192"><ele>11.0</ele><time>2026-04-02T14:22:20.042Z</time></trkpt><trkpt lat="41.4225497" lon="13.1829855"><ele>11.0</ele><time>2026-04-02T14:22:21.042Z</time></trkpt><trkpt lat="41.4224334" lon="13.1831487"><ele>11.0</ele><time>2026-04-02T14:22:22.043Z</time></trkpt><trkpt lat="41.4223161" lon="13.1833147"><ele>11.0</ele><time>2026-04-02T14:22:23.046Z</time></trkpt><trkpt lat="41.4221948" lon="13.1834853"><ele>11.0</ele><time>2026-04-02T14:22:24.048Z</time></trkpt><trkpt lat="41.4220702" lon="13.1836593"><ele>11.0</ele><time>2026-04-02T14:22:25.043Z</time></trkpt><trkpt lat="41.4219435" lon="13.183838"><ele>10.666666666666666</ele><time>2026-04-02T14:22:26.055Z</time></trkpt><trkpt lat="41.4218154" lon="13.1840209"><ele>10.333333333333334</ele><time>2026-04-02T14:22:27.052Z</time></trkpt><trkpt lat="41.4216872" lon="13.1842084"><ele>10.0</ele><time>2026-04-02T14:22:28.061Z</time></trkpt><trkpt lat="41.4215527" lon="13.1843946"><ele>10.0</ele><time>2026-04-02T14:22:29.05Z</time></trkpt><trkpt lat="41.4214223" lon="13.1845759"><ele>10.0</ele><time>2026-04-02T14:22:30.051Z</time></trkpt><trkpt lat="41.4212851" lon="13.1847644"><ele>10.0</ele><time>2026-04-02T14:22:31.053Z</time></trkpt><trkpt lat="41.4211479" lon="13.184954"><ele>10.0</ele><time>2026-04-02T14:22:32.061Z</time></trkpt><trkpt lat="41.4210118" lon="13.1851463"><ele>10.0</ele><time>2026-04-02T14:22:33.047Z</time></trkpt><trkpt lat="41.4208742" lon="13.1853317"><ele>10.0</ele><time>2026-04-02T14:22:34.042Z</time></trkpt><trkpt lat="41.4207358" lon="13.1855222"><ele>9.666666666666668</ele><time>2026-04-02T14:22:35.047Z</time></trkpt><trkpt lat="41.4206009" lon="13.1857139"><ele>9.333333333333334</ele><time>2026-04-02T14:22:36.047Z</time></trkpt><trkpt lat="41.4204642" lon="13.1859033"><ele>9.0</ele><time>2026-04-02T14:22:37.037Z</time></trkpt><trkpt lat="41.4203352" lon="13.186095"><ele>9.333333333333334</ele><time>2026-04-02T14:22:38.045Z</time></trkpt><trkpt lat="41.4202045" lon="13.1862726"><ele>9.666666666666668</ele><time>2026-04-02T14:22:39.05Z</time></trkpt><trkpt lat="41.4200709" lon="13.18646"><ele>10.0</ele><time>2026-04-02T14:22:40.053Z</time></trkpt><trkpt lat="41.4199385" lon="13.1866468"><ele>10.0</ele><time>2026-04-02T14:22:41.055Z</time></trkpt><trkpt lat="41.4198062" lon="13.1868332"><ele>10.0</ele><time>2026-04-02T14:22:42.046Z</time></trkpt><trkpt lat="41.4196723" lon="13.1870167"><ele>10.0</ele><time>2026-04-02T14:22:43.044Z</time></trkpt><trkpt lat="41.4195406" lon="13.1871993"><ele>10.0</ele><time>2026-04-02T14:22:44.053Z</time></trkpt><trkpt lat="41.419411" lon="13.1873792"><ele>10.0</ele><time>2026-04-02T14:22:45.052Z</time></trkpt><trkpt lat="41.4192892" lon="13.1875462"><ele>10.0</ele><time>2026-04-02T14:22:46.04Z</time></trkpt><trkpt lat="41.4191779" lon="13.1877008"><ele>10.0</ele><time>2026-04-02T14:22:47.047Z</time></trkpt><trkpt lat="41.419073" lon="13.1878468"><ele>10.0</ele><time>2026-04-02T14:22:48.043Z</time></trkpt><trkpt lat="41.418978" lon="13.1879843"><ele>10.0</ele><time>2026-04-02T14:22:49.049Z</time></trkpt><trkpt lat="41.4188849" lon="13.1881235"><ele>10.0</ele><time>2026-04-02T14:22:50.047Z</time></trkpt><trkpt lat="41.4187924" lon="13.1882719"><ele>10.5</ele><time>2026-04-02T14:22:51.057Z</time></trkpt><trkpt lat="41.4186959" lon="13.1884188"><ele>11.0</ele><time>2026-04-02T14:22:52.049Z</time></trkpt><trkpt lat="41.4185969" lon="13.1885595"><ele>11.5</ele><time>2026-04-02T14:22:53.045Z</time></trkpt><trkpt lat="41.4184993" lon="13.1886891"><ele>12.0</ele><time>2026-04-02T14:22:54.048Z</time></trkpt><trkpt lat="41.4184082" lon="13.1888014"><ele>12.0</ele><time>2026-04-02T14:22:55.046Z</time></trkpt><trkpt lat="41.4183275" lon="13.1889019"><ele>12.0</ele><time>2026-04-02T14:22:56.05Z</time></trkpt><trkpt lat="41.4182596" lon="13.1889967"><ele>12.0</ele><time>2026-04-02T14:22:57.045Z</time></trkpt><trkpt lat="41.4182004" lon="13.1890861"><ele>12.0</ele><time>2026-04-02T14:22:58.041Z</time></trkpt><trkpt lat="41.4181473" lon="13.1891605"><ele>12.0</ele><time>2026-04-02T14:22:59.056Z</time></trkpt><trkpt lat="41.418096" lon="13.1892115"><ele>12.0</ele><time>2026-04-02T14:23:00.049Z</time></trkpt><trkpt lat="41.4179603" lon="13.1892194"><ele>11.75</ele><time>2026-04-02T14:23:02.048Z</time></trkpt><trkpt lat="41.4178619" lon="13.1891455"><ele>11.5</ele><time>2026-04-02T14:23:03.045Z</time></trkpt><trkpt lat="41.417743" lon="13.189051"><ele>11.25</ele><time>2026-04-02T14:23:04.047Z</time></trkpt><trkpt lat="41.4176114" lon="13.1889535"><ele>11.0</ele><time>2026-04-02T14:23:05.046Z</time></trkpt><trkpt lat="41.4174727" lon="13.1888481"><ele>11.0</ele><time>2026-04-02T14:23:06.047Z</time></trkpt><trkpt lat="41.4173316" lon="13.1887558"><ele>11.0</ele><time>2026-04-02T14:23:07.047Z</time></trkpt><trkpt lat="41.4171907" lon="13.1886531"><ele>11.0</ele><time>2026-04-02T14:23:08.057Z</time></trkpt><trkpt lat="41.4170438" lon="13.1885493"><ele>10.333333333333332</ele><time>2026-04-02T14:23:09.051Z</time></trkpt><trkpt lat="41.416891" lon="13.1884408"><ele>9.666666666666666</ele><time>2026-04-02T14:23:10.048Z</time></trkpt><trkpt lat="41.4167365" lon="13.1883448"><ele>9.0</ele><time>2026-04-02T14:23:11.049Z</time></trkpt><trkpt lat="41.4165745" lon="13.1882649"><ele>9.0</ele><time>2026-04-02T14:23:12.042Z</time></trkpt><trkpt lat="41.4164029" lon="13.1882077"><ele>9.0</ele><time>2026-04-02T14:23:13.058Z</time></trkpt><trkpt lat="41.4162237" lon="13.188171"><ele>9.0</ele><time>2026-04-02T14:23:14.056Z</time></trkpt><trkpt lat="41.4160421" lon="13.1881574"><ele>9.0</ele><time>2026-04-02T14:23:15.072Z</time></trkpt><trkpt lat="41.4158621" lon="13.1881684"><ele>9.0</ele><time>2026-04-02T14:23:16.061Z</time></trkpt><trkpt lat="41.4156966" lon="13.1882029"><ele>9.0</ele><time>2026-04-02T14:23:17.046Z</time></trkpt><trkpt lat="41.4155482" lon="13.1882556"><ele>9.5</ele><time>2026-04-02T14:23:18.08Z</time></trkpt><trkpt lat="41.4154167" lon="13.188324"><ele>10.0</ele><time>2026-04-02T14:23:19.059Z</time></trkpt><trkpt lat="41.4153011" lon="13.1883981"><ele>10.5</ele><time>2026-04-02T14:23:20.058Z</time></trkpt><trkpt lat="41.4151981" lon="13.1884731"><ele>11.0</ele><time>2026-04-02T14:23:21.104Z</time></trkpt><trkpt lat="41.4151023" lon="13.1885473"><ele>11.0</ele><time>2026-04-02T14:23:22.046Z</time></trkpt><trkpt lat="41.4150098" lon="13.1886139"><ele>11.0</ele><time>2026-04-02T14:23:23.049Z</time></trkpt><trkpt lat="41.414923" lon="13.1886709"><ele>11.0</ele><time>2026-04-02T14:23:24.063Z</time></trkpt><trkpt lat="41.4148424" lon="13.1887209"><ele>11.0</ele><time>2026-04-02T14:23:25.059Z</time></trkpt><trkpt lat="41.4147656" lon="13.1887745"><ele>11.0</ele><time>2026-04-02T14:23:26.079Z</time></trkpt><trkpt lat="41.4146881" lon="13.1888291"><ele>11.0</ele><time>2026-04-02T14:23:27.046Z</time></trkpt><trkpt lat="41.4146083" lon="13.1888855"><ele>11.0</ele><time>2026-04-02T14:23:28.05Z</time></trkpt><trkpt lat="41.4145203" lon="13.1889421"><ele>11.0</ele><time>2026-04-02T14:23:29.047Z</time></trkpt><trkpt lat="41.4144224" lon="13.1890047"><ele>11.0</ele><time>2026-04-02T14:23:30.062Z</time></trkpt><trkpt lat="41.4143155" lon="13.1890745"><ele>11.0</ele><time>2026-04-02T14:23:31.052Z</time></trkpt><trkpt lat="41.4142006" lon="13.1891518"><ele>10.75</ele><time>2026-04-02T14:23:32.048Z</time></trkpt><trkpt lat="41.4140803" lon="13.1892341"><ele>10.5</ele><time>2026-04-02T14:23:33.059Z</time></trkpt><trkpt lat="41.4139535" lon="13.1893201"><ele>10.25</ele><time>2026-04-02T14:23:34.044Z</time></trkpt><trkpt lat="41.413823" lon="13.18941"><ele>10.0</ele><time>2026-04-02T14:23:35.049Z</time></trkpt><trkpt lat="41.4136921" lon="13.1894999"><ele>10.75</ele><time>2026-04-02T14:23:36.047Z</time></trkpt><trkpt lat="41.4135681" lon="13.1895857"><ele>11.5</ele><time>2026-04-02T14:23:37.05Z</time></trkpt><trkpt lat="41.4134466" lon="13.1896675"><ele>12.25</ele><time>2026-04-02T14:23:38.05Z</time></trkpt><trkpt lat="41.413319" lon="13.1897453"><ele>13.0</ele><time>2026-04-02T14:23:39.056Z</time></trkpt><trkpt lat="41.4131833" lon="13.1898179"><ele>12.666666666666666</ele><time>2026-04-02T14:23:40.05Z</time></trkpt><trkpt lat="41.4130381" lon="13.1898891"><ele>12.333333333333332</ele><time>2026-04-02T14:23:41.05Z</time></trkpt><trkpt lat="41.4128848" lon="13.1899624"><ele>12.0</ele><time>2026-04-02T14:23:42.051Z</time></trkpt><trkpt lat="41.4127273" lon="13.1900356"><ele>12.0</ele><time>2026-04-02T14:23:43.052Z</time></trkpt><trkpt lat="41.4125672" lon="13.1901127"><ele>12.0</ele><time>2026-04-02T14:23:44.06Z</time></trkpt><trkpt lat="41.4124037" lon="13.1902011"><ele>12.0</ele><time>2026-04-02T14:23:45.055Z</time></trkpt><trkpt lat="41.4122393" lon="13.1902992"><ele>12.0</ele><time>2026-04-02T14:23:46.052Z</time></trkpt><trkpt lat="41.4120717" lon="13.1903987"><ele>12.0</ele><time>2026-04-02T14:23:47.048Z</time></trkpt><trkpt lat="41.4118992" lon="13.1905019"><ele>12.0</ele><time>2026-04-02T14:23:48.052Z</time></trkpt><trkpt lat="41.4117219" lon="13.1906103"><ele>12.0</ele><time>2026-04-02T14:23:49.445Z</time></trkpt><trkpt lat="41.4113531" lon="13.1908403"><ele>12.0</ele><time>2026-04-02T14:23:51.05Z</time></trkpt><trkpt lat="41.4111739" lon="13.1909517"><ele>12.0</ele><time>2026-04-02T14:23:52.049Z</time></trkpt><trkpt lat="41.4109955" lon="13.1910624"><ele>12.0</ele><time>2026-04-02T14:23:53.062Z</time></trkpt><trkpt lat="41.4108173" lon="13.191174"><ele>12.0</ele><time>2026-04-02T14:23:54.055Z</time></trkpt><trkpt lat="41.4106372" lon="13.1912854"><ele>12.0</ele><time>2026-04-02T14:23:55.057Z</time></trkpt><trkpt lat="41.4104547" lon="13.191393"><ele>12.0</ele><time>2026-04-02T14:23:56.061Z</time></trkpt><trkpt lat="41.4102644" lon="13.1914935"><ele>12.0</ele><time>2026-04-02T14:23:57.061Z</time></trkpt><trkpt lat="41.4100671" lon="13.1915888"><ele>11.666666666666666</ele><time>2026-04-02T14:23:58.078Z</time></trkpt><trkpt lat="41.4098657" lon="13.1916834"><ele>11.333333333333332</ele><time>2026-04-02T14:23:59.068Z</time></trkpt><trkpt lat="41.4096634" lon="13.1917818"><ele>11.0</ele><time>2026-04-02T14:24:00.058Z</time></trkpt><trkpt lat="41.40946" lon="13.191882"><ele>11.0</ele><time>2026-04-02T14:24:01.049Z</time></trkpt><trkpt lat="41.4092519" lon="13.191982"><ele>11.0</ele><time>2026-04-02T14:24:02.066Z</time></trkpt><trkpt lat="41.4090413" lon="13.192084"><ele>11.0</ele><time>2026-04-02T14:24:03.053Z</time></trkpt><trkpt lat="41.4088311" lon="13.1921838"><ele>10.333333333333332</ele><time>2026-04-02T14:24:04.048Z</time></trkpt><trkpt lat="41.4086212" lon="13.1922829"><ele>9.666666666666666</ele><time>2026-04-02T14:24:05.052Z</time></trkpt><trkpt lat="41.4084102" lon="13.1923832"><ele>9.0</ele><time>2026-04-02T14:24:06.053Z</time></trkpt><trkpt lat="41.4081974" lon="13.1924859"><ele>9.0</ele><time>2026-04-02T14:24:07.05Z</time></trkpt><trkpt lat="41.4079786" lon="13.1925934"><ele>9.0</ele><time>2026-04-02T14:24:08.046Z</time></trkpt><trkpt lat="41.4077687" lon="13.192696"><ele>9.0</ele><time>2026-04-02T14:24:09.048Z</time></trkpt><trkpt lat="41.4075728" lon="13.1927873"><ele>9.0</ele><time>2026-04-02T14:24:10.046Z</time></trkpt><trkpt lat="41.4073808" lon="13.1928703"><ele>9.0</ele><time>2026-04-02T14:24:11.046Z</time></trkpt><trkpt lat="41.407187" lon="13.1929382"><ele>9.0</ele><time>2026-04-02T14:24:12.058Z</time></trkpt><trkpt lat="41.4069991" lon="13.1929834"><ele>9.0</ele><time>2026-04-02T14:24:13.052Z</time></trkpt><trkpt lat="41.4068112" lon="13.1930098"><ele>9.0</ele><time>2026-04-02T14:24:14.046Z</time></trkpt><trkpt lat="41.4066276" lon="13.1930219"><ele>9.0</ele><time>2026-04-02T14:24:15.048Z</time></trkpt><trkpt lat="41.4064573" lon="13.1930297"><ele>9.0</ele><time>2026-04-02T14:24:16.052Z</time></trkpt><trkpt lat="41.406293" lon="13.1930298"><ele>9.0</ele><time>2026-04-02T14:24:17.057Z</time></trkpt><trkpt lat="41.4061303" lon="13.1930144"><ele>9.333333333333334</ele><time>2026-04-02T14:24:18.056Z</time></trkpt><trkpt lat="41.4059663" lon="13.1929775"><ele>9.666666666666668</ele><time>2026-04-02T14:24:19.048Z</time></trkpt><trkpt lat="41.4058002" lon="13.1929171"><ele>10.0</ele><time>2026-04-02T14:24:20.047Z</time></trkpt><trkpt lat="41.4056324" lon="13.1928344"><ele>9.333333333333334</ele><time>2026-04-02T14:24:21.049Z</time></trkpt><trkpt lat="41.4054618" lon="13.1927425"><ele>8.666666666666666</ele><time>2026-04-02T14:24:22.063Z</time></trkpt><trkpt lat="41.4052877" lon="13.1926475"><ele>8.0</ele><time>2026-04-02T14:24:23.047Z</time></trkpt><trkpt lat="41.4051103" lon="13.1925498"><ele>8.0</ele><time>2026-04-02T14:24:24.051Z</time></trkpt><trkpt lat="41.4049268" lon="13.19245"><ele>8.0</ele><time>2026-04-02T14:24:25.054Z</time></trkpt><trkpt lat="41.4047397" lon="13.1923501"><ele>8.0</ele><time>2026-04-02T14:24:26.052Z</time></trkpt><trkpt lat="41.4045487" lon="13.1922471"><ele>8.333333333333332</ele><time>2026-04-02T14:24:27.047Z</time></trkpt><trkpt lat="41.4043543" lon="13.1921407"><ele>8.666666666666666</ele><time>2026-04-02T14:24:28.045Z</time></trkpt><trkpt lat="41.4041579" lon="13.1920334"><ele>9.0</ele><time>2026-04-02T14:24:29.048Z</time></trkpt><trkpt lat="41.4039599" lon="13.1919244"><ele>9.0</ele><time>2026-04-02T14:24:30.053Z</time></trkpt><trkpt lat="41.4037602" lon="13.1918136"><ele>9.0</ele><time>2026-04-02T14:24:31.05Z</time></trkpt><trkpt lat="41.4035598" lon="13.1917031"><ele>9.0</ele><time>2026-04-02T14:24:32.05Z</time></trkpt><trkpt lat="41.4033588" lon="13.1915956"><ele>9.0</ele><time>2026-04-02T14:24:33.047Z</time></trkpt><trkpt lat="41.4031577" lon="13.1914935"><ele>9.0</ele><time>2026-04-02T14:24:34.057Z</time></trkpt><trkpt lat="41.4029565" lon="13.1913991"><ele>9.0</ele><time>2026-04-02T14:24:35.048Z</time></trkpt><trkpt lat="41.4027544" lon="13.1913083"><ele>9.0</ele><time>2026-04-02T14:24:36.048Z</time></trkpt><trkpt lat="41.4025481" lon="13.1912167"><ele>9.0</ele><time>2026-04-02T14:24:37.043Z</time></trkpt><trkpt lat="41.402336" lon="13.1911232"><ele>9.0</ele><time>2026-04-02T14:24:38.05Z</time></trkpt><trkpt lat="41.4021251" lon="13.1910328"><ele>9.0</ele><time>2026-04-02T14:24:39.057Z</time></trkpt><trkpt lat="41.4019288" lon="13.1909494"><ele>9.0</ele><time>2026-04-02T14:24:40.048Z</time></trkpt><trkpt lat="41.4017432" lon="13.1908709"><ele>9.0</ele><time>2026-04-02T14:24:41.043Z</time></trkpt><trkpt lat="41.401561" lon="13.1907945"><ele>9.0</ele><time>2026-04-02T14:24:42.042Z</time></trkpt><trkpt lat="41.4013981" lon="13.1907255"><ele>9.0</ele><time>2026-04-02T14:24:43.046Z</time></trkpt><trkpt lat="41.4012535" lon="13.1906628"><ele>9.0</ele><time>2026-04-02T14:24:44.049Z</time></trkpt><trkpt lat="41.4011263" lon="13.1906078"><ele>9.2</ele><time>2026-04-02T14:24:45.046Z</time></trkpt><trkpt lat="41.401018" lon="13.1905617"><ele>9.4</ele><time>2026-04-02T14:24:46.064Z</time></trkpt><trkpt lat="41.4009336" lon="13.1905229"><ele>9.6</ele><time>2026-04-02T14:24:47.051Z</time></trkpt><trkpt lat="41.4008797" lon="13.1904778"><ele>9.8</ele><time>2026-04-02T14:24:48.043Z</time></trkpt><trkpt lat="41.4008419" lon="13.1903474"><ele>10.0</ele><time>2026-04-02T14:24:50.048Z</time></trkpt><trkpt lat="41.4008925" lon="13.1901958"><ele>10.0</ele><time>2026-04-02T14:24:52.047Z</time></trkpt><trkpt lat="41.4009372" lon="13.1901236"><ele>10.0</ele><time>2026-04-02T14:24:53.047Z</time></trkpt><trkpt lat="41.4009778" lon="13.1900582"><ele>10.0</ele><time>2026-04-02T14:24:54.048Z</time></trkpt><trkpt lat="41.4010375" lon="13.1899648"><ele>10.0</ele><time>2026-04-02T14:24:56.043Z</time></trkpt><trkpt lat="41.4010884" lon="13.1898896"><ele>10.0</ele><time>2026-04-02T14:24:58.048Z</time></trkpt><trkpt lat="41.4010902" lon="13.1898032"><ele>10.0</ele><time>2026-04-02T14:25:07.045Z</time></trkpt><trkpt lat="41.4011599" lon="13.1896712"><ele>10.0</ele><time>2026-04-02T14:25:09.044Z</time></trkpt><trkpt lat="41.4012173" lon="13.1895961"><ele>10.0</ele><time>2026-04-02T14:25:10.052Z</time></trkpt><trkpt lat="41.4012804" lon="13.1895076"><ele>10.0</ele><time>2026-04-02T14:25:11.045Z</time></trkpt><trkpt lat="41.4013341" lon="13.189429"><ele>10.0</ele><time>2026-04-02T14:25:12.051Z</time></trkpt><trkpt lat="41.4013952" lon="13.1893382"><ele>10.0</ele><time>2026-04-02T14:25:14.057Z</time></trkpt><trkpt lat="41.4013314" lon="13.1893024"><ele>10.0</ele><time>2026-04-02T14:25:18.047Z</time></trkpt><trkpt lat="41.4012548" lon="13.1894206"><ele>10.0</ele><time>2026-04-02T14:25:20.045Z</time></trkpt><trkpt lat="41.4012079" lon="13.1894904"><ele>10.0</ele><time>2026-04-02T14:25:21.049Z</time></trkpt><trkpt lat="41.40115" lon="13.1895737"><ele>10.0</ele><time>2026-04-02T14:25:22.047Z</time></trkpt><trkpt lat="41.4010832" lon="13.1896568"><ele>10.0</ele><time>2026-04-02T14:25:23.048Z</time></trkpt><trkpt lat="41.4010133" lon="13.1897169"><ele>10.0</ele><time>2026-04-02T14:25:24.042Z</time></trkpt><trkpt lat="41.4009567" lon="13.1897682"><ele>10.0</ele><time>2026-04-02T14:25:25.048Z</time></trkpt><trkpt lat="41.4008825" lon="13.1898571"><ele>10.0</ele><time>2026-04-02T14:25:27.041Z</time></trkpt><trkpt lat="41.4008339" lon="13.1899221"><ele>10.0</ele><time>2026-04-02T14:25:29.048Z</time></trkpt><trkpt lat="41.4007666" lon="13.1900093"><ele>10.0</ele><time>2026-04-02T14:25:31.046Z</time></trkpt><trkpt lat="41.4007188" lon="13.1900783"><ele>10.0</ele><time>2026-04-02T14:25:33.045Z</time></trkpt><trkpt lat="41.4006624" lon="13.190157"><ele>10.0</ele><time>2026-04-02T14:25:36.058Z</time></trkpt><trkpt lat="41.4005884" lon="13.1902476"><ele>10.0</ele><time>2026-04-02T14:25:38.045Z</time></trkpt><trkpt lat="41.4005283" lon="13.1902927"><ele>9.833333333333334</ele><time>2026-04-02T14:25:39.042Z</time></trkpt><trkpt lat="41.4004625" lon="13.1903085"><ele>9.666666666666668</ele><time>2026-04-02T14:25:40.047Z</time></trkpt><trkpt lat="41.4003867" lon="13.1902909"><ele>9.5</ele><time>2026-04-02T14:25:41.042Z</time></trkpt><trkpt lat="41.4002991" lon="13.1902503"><ele>9.333333333333334</ele><time>2026-04-02T14:25:42.053Z</time></trkpt><trkpt lat="41.4002198" lon="13.1902115"><ele>9.166666666666666</ele><time>2026-04-02T14:25:43.042Z</time></trkpt><trkpt lat="41.400158" lon="13.190188"><ele>9.0</ele><time>2026-04-02T14:25:44.051Z</time></trkpt><trkpt lat="41.4000604" lon="13.190146"><ele>9.0</ele><time>2026-04-02T14:26:02.053Z</time></trkpt><trkpt lat="41.3999885" lon="13.1901222"><ele>9.0</ele><time>2026-04-02T14:26:03.055Z</time></trkpt><trkpt lat="41.3999072" lon="13.190088"><ele>9.0</ele><time>2026-04-02T14:26:04.055Z</time></trkpt><trkpt lat="41.3998156" lon="13.1900488"><ele>9.0</ele><time>2026-04-02T14:26:05.051Z</time></trkpt><trkpt lat="41.3997241" lon="13.1900122"><ele>9.0</ele><time>2026-04-02T14:26:06.049Z</time></trkpt><trkpt lat="41.3996475" lon="13.1899815"><ele>9.0</ele><time>2026-04-02T14:26:07.047Z</time></trkpt><trkpt lat="41.3995544" lon="13.1899397"><ele>9.0</ele><time>2026-04-02T14:26:09.049Z</time></trkpt><trkpt lat="41.3994525" lon="13.189895"><ele>9.0</ele><time>2026-04-02T14:26:12.05Z</time></trkpt><trkpt lat="41.3993889" lon="13.1898691"><ele>9.0</ele><time>2026-04-02T14:26:13.045Z</time></trkpt><trkpt lat="41.3992864" lon="13.1898282"><ele>9.0</ele><time>2026-04-02T14:26:15.054Z</time></trkpt><trkpt lat="41.3991614" lon="13.1897803"><ele>9.0</ele><time>2026-04-02T14:26:17.05Z</time></trkpt><trkpt lat="41.39908" lon="13.1897492"><ele>9.0</ele><time>2026-04-02T14:26:18.044Z</time></trkpt><trkpt lat="41.3990006" lon="13.1897203"><ele>9.0</ele><time>2026-04-02T14:26:19.046Z</time></trkpt><trkpt lat="41.3989265" lon="13.1896946"><ele>9.0</ele><time>2026-04-02T14:26:20.048Z</time></trkpt><trkpt lat="41.3988544" lon="13.1896679"><ele>9.0</ele><time>2026-04-02T14:26:21.05Z</time></trkpt><trkpt lat="41.3987788" lon="13.1896383"><ele>9.0</ele><time>2026-04-02T14:26:22.044Z</time></trkpt><trkpt lat="41.3987034" lon="13.1896075"><ele>9.0</ele><time>2026-04-02T14:26:23.047Z</time></trkpt><trkpt lat="41.3986234" lon="13.1895764"><ele>8.8</ele><time>2026-04-02T14:26:24.05Z</time></trkpt><trkpt lat="41.3985538" lon="13.1895454"><ele>8.600000000000001</ele><time>2026-04-02T14:26:25.064Z</time></trkpt><trkpt lat="41.3984698" lon="13.189512"><ele>8.4</ele><time>2026-04-02T14:26:27.048Z</time></trkpt><trkpt lat="41.3983484" lon="13.1894655"><ele>8.200000000000001</ele><time>2026-04-02T14:27:47.043Z</time></trkpt><trkpt lat="41.3982647" lon="13.1894322"><ele>8.0</ele><time>2026-04-02T14:27:48.055Z</time></trkpt><trkpt lat="41.3981709" lon="13.1893986"><ele>8.0</ele><time>2026-04-02T14:27:49.056Z</time></trkpt><trkpt lat="41.3980723" lon="13.1893604"><ele>8.0</ele><time>2026-04-02T14:27:50.049Z</time></trkpt><trkpt lat="41.3979788" lon="13.1893232"><ele>8.0</ele><time>2026-04-02T14:27:51.053Z</time></trkpt><trkpt lat="41.3978866" lon="13.1892865"><ele>8.0</ele><time>2026-04-02T14:27:52.061Z</time></trkpt><trkpt lat="41.3977925" lon="13.1892488"><ele>8.0</ele><time>2026-04-02T14:27:53.062Z</time></trkpt><trkpt lat="41.3976958" lon="13.18921"><ele>8.4</ele><time>2026-04-02T14:27:54.046Z</time></trkpt><trkpt lat="41.397596" lon="13.1891697"><ele>8.8</ele><time>2026-04-02T14:27:55.054Z</time></trkpt><trkpt lat="41.3974973" lon="13.1891309"><ele>9.2</ele><time>2026-04-02T14:27:56.051Z</time></trkpt><trkpt lat="41.3974044" lon="13.1890913"><ele>9.6</ele><time>2026-04-02T14:27:57.047Z</time></trkpt><trkpt lat="41.3973072" lon="13.1890515"><ele>10.0</ele><time>2026-04-02T14:27:58.046Z</time></trkpt><trkpt lat="41.3972095" lon="13.1890126"><ele>9.5</ele><time>2026-04-02T14:27:59.049Z</time></trkpt><trkpt lat="41.3971085" lon="13.1889723"><ele>9.0</ele><time>2026-04-02T14:28:00.053Z</time></trkpt><trkpt lat="41.3969968" lon="13.1889268"><ele>8.5</ele><time>2026-04-02T14:28:01.048Z</time></trkpt><trkpt lat="41.3968752" lon="13.1888805"><ele>8.0</ele><time>2026-04-02T14:28:02.052Z</time></trkpt><trkpt lat="41.3967509" lon="13.1888335"><ele>8.0</ele><time>2026-04-02T14:28:03.065Z</time></trkpt><trkpt lat="41.3966188" lon="13.1887827"><ele>8.0</ele><time>2026-04-02T14:28:04.049Z</time></trkpt><trkpt lat="41.3964858" lon="13.1887307"><ele>8.0</ele><time>2026-04-02T14:28:05.052Z</time></trkpt><trkpt lat="41.3963474" lon="13.1886769"><ele>8.0</ele><time>2026-04-02T14:28:06.061Z</time></trkpt><trkpt lat="41.3962073" lon="13.1886227"><ele>8.25</ele><time>2026-04-02T14:28:07.049Z</time></trkpt><trkpt lat="41.3960698" lon="13.1885697"><ele>8.5</ele><time>2026-04-02T14:28:08.048Z</time></trkpt><trkpt lat="41.3959303" lon="13.1885161"><ele>8.75</ele><time>2026-04-02T14:28:09.045Z</time></trkpt><trkpt lat="41.3957904" lon="13.1884677"><ele>9.0</ele><time>2026-04-02T14:28:10.044Z</time></trkpt><trkpt lat="41.395648" lon="13.1884158"><ele>9.0</ele><time>2026-04-02T14:28:11.041Z</time></trkpt><trkpt lat="41.3955045" lon="13.188359"><ele>9.0</ele><time>2026-04-02T14:28:12.049Z</time></trkpt><trkpt lat="41.3953619" lon="13.1883074"><ele>9.0</ele><time>2026-04-02T14:28:13.055Z</time></trkpt><trkpt lat="41.3952172" lon="13.1882495"><ele>9.0</ele><time>2026-04-02T14:28:14.048Z</time></trkpt><trkpt lat="41.3950732" lon="13.1881932"><ele>9.0</ele><time>2026-04-02T14:28:15.042Z</time></trkpt><trkpt lat="41.3949351" lon="13.1881373"><ele>9.0</ele><time>2026-04-02T14:28:16.044Z</time></trkpt><trkpt lat="41.3948048" lon="13.1880836"><ele>9.0</ele><time>2026-04-02T14:28:17.047Z</time></trkpt><trkpt lat="41.3946765" lon="13.188029"><ele>9.0</ele><time>2026-04-02T14:28:18.042Z</time></trkpt><trkpt lat="41.394538" lon="13.1879675"><ele>8.75</ele><time>2026-04-02T14:28:19.045Z</time></trkpt><trkpt lat="41.3943967" lon="13.1879015"><ele>8.5</ele><time>2026-04-02T14:28:20.048Z</time></trkpt><trkpt lat="41.394253" lon="13.1878402"><ele>8.25</ele><time>2026-04-02T14:28:21.047Z</time></trkpt><trkpt lat="41.3941098" lon="13.1877898"><ele>8.0</ele><time>2026-04-02T14:28:22.048Z</time></trkpt><trkpt lat="41.3939661" lon="13.1877422"><ele>8.0</ele><time>2026-04-02T14:28:23.042Z</time></trkpt><trkpt lat="41.3938234" lon="13.1876805"><ele>8.0</ele><time>2026-04-02T14:28:24.043Z</time></trkpt><trkpt lat="41.3936719" lon="13.1876273"><ele>8.0</ele><time>2026-04-02T14:28:25.043Z</time></trkpt><trkpt lat="41.3935229" lon="13.1875627"><ele>8.0</ele><time>2026-04-02T14:28:26.043Z</time></trkpt><trkpt lat="41.3933742" lon="13.1875171"><ele>8.0</ele><time>2026-04-02T14:28:27.046Z</time></trkpt><trkpt lat="41.3932271" lon="13.1874777"><ele>8.0</ele><time>2026-04-02T14:28:28.043Z</time></trkpt><trkpt lat="41.3930757" lon="13.1874348"><ele>7.75</ele><time>2026-04-02T14:28:29.049Z</time></trkpt><trkpt lat="41.3929287" lon="13.1873851"><ele>7.5</ele><time>2026-04-02T14:28:30.048Z</time></trkpt><trkpt lat="41.3927884" lon="13.187342"><ele>7.25</ele><time>2026-04-02T14:28:31.048Z</time></trkpt><trkpt lat="41.3926576" lon="13.1873021"><ele>7.0</ele><time>2026-04-02T14:28:32.044Z</time></trkpt><trkpt lat="41.3925296" lon="13.187262"><ele>6.75</ele><time>2026-04-02T14:28:33.051Z</time></trkpt><trkpt lat="41.3923927" lon="13.1872142"><ele>6.5</ele><time>2026-04-02T14:28:34.046Z</time></trkpt><trkpt lat="41.392251" lon="13.1871632"><ele>6.25</ele><time>2026-04-02T14:28:35.045Z</time></trkpt><trkpt lat="41.3921187" lon="13.1871211"><ele>6.0</ele><time>2026-04-02T14:28:36.045Z</time></trkpt><trkpt lat="41.392004" lon="13.1870796"><ele>6.0</ele><time>2026-04-02T14:28:37.046Z</time></trkpt><trkpt lat="41.3918991" lon="13.1870458"><ele>6.0</ele><time>2026-04-02T14:28:38.044Z</time></trkpt><trkpt lat="41.391816" lon="13.1870118"><ele>6.0</ele><time>2026-04-02T14:28:39.052Z</time></trkpt><trkpt lat="41.3917452" lon="13.1869755"><ele>6.0</ele><time>2026-04-02T14:28:40.045Z</time></trkpt><trkpt lat="41.3916845" lon="13.1869381"><ele>6.0</ele><time>2026-04-02T14:28:41.051Z</time></trkpt><trkpt lat="41.3916141" lon="13.1868961"><ele>6.0</ele><time>2026-04-02T14:28:42.047Z</time></trkpt><trkpt lat="41.3915325" lon="13.1868545"><ele>6.0</ele><time>2026-04-02T14:28:43.043Z</time></trkpt><trkpt lat="41.3914316" lon="13.1868078"><ele>6.0</ele><time>2026-04-02T14:28:44.049Z</time></trkpt><trkpt lat="41.3913222" lon="13.1867529"><ele>6.0</ele><time>2026-04-02T14:28:45.046Z</time></trkpt><trkpt lat="41.3911987" lon="13.1867039"><ele>6.0</ele><time>2026-04-02T14:28:46.05Z</time></trkpt><trkpt lat="41.3910566" lon="13.1866491"><ele>6.333333333333334</ele><time>2026-04-02T14:28:47.056Z</time></trkpt><trkpt lat="41.390918" lon="13.1865902"><ele>6.666666666666667</ele><time>2026-04-02T14:28:48.048Z</time></trkpt><trkpt lat="41.3907564" lon="13.1865266"><ele>7.0</ele><time>2026-04-02T14:28:49.048Z</time></trkpt><trkpt lat="41.3905824" lon="13.1864584"><ele>7.333333333333334</ele><time>2026-04-02T14:28:50.047Z</time></trkpt><trkpt lat="41.3904006" lon="13.1863876"><ele>7.666666666666666</ele><time>2026-04-02T14:28:51.052Z</time></trkpt><trkpt lat="41.3902131" lon="13.1863139"><ele>8.0</ele><time>2026-04-02T14:28:52.049Z</time></trkpt><trkpt lat="41.3900184" lon="13.1862355"><ele>8.0</ele><time>2026-04-02T14:28:53.062Z</time></trkpt><trkpt lat="41.389814" lon="13.1861502"><ele>8.0</ele><time>2026-04-02T14:28:54.047Z</time></trkpt><trkpt lat="41.3896045" lon="13.1860597"><ele>8.0</ele><time>2026-04-02T14:28:55.053Z</time></trkpt><trkpt lat="41.389399" lon="13.185973"><ele>7.333333333333333</ele><time>2026-04-02T14:28:56.047Z</time></trkpt><trkpt lat="41.3892004" lon="13.185892"><ele>6.666666666666666</ele><time>2026-04-02T14:28:57.053Z</time></trkpt><trkpt lat="41.3890039" lon="13.1858113"><ele>6.0</ele><time>2026-04-02T14:28:58.046Z</time></trkpt><trkpt lat="41.3888091" lon="13.1857265"><ele>6.0</ele><time>2026-04-02T14:28:59.048Z</time></trkpt><trkpt lat="41.3886108" lon="13.1856416"><ele>6.0</ele><time>2026-04-02T14:29:00.046Z</time></trkpt><trkpt lat="41.3884097" lon="13.185558"><ele>6.0</ele><time>2026-04-02T14:29:01.047Z</time></trkpt><trkpt lat="41.3882069" lon="13.1854731"><ele>5.666666666666667</ele><time>2026-04-02T14:29:02.057Z</time></trkpt><trkpt lat="41.3880034" lon="13.1853942"><ele>5.333333333333334</ele><time>2026-04-02T14:29:03.047Z</time></trkpt><trkpt lat="41.387799" lon="13.1853075"><ele>5.0</ele><time>2026-04-02T14:29:04.049Z</time></trkpt><trkpt lat="41.3870111" lon="13.1849984"><ele>5.0</ele><time>2026-04-02T14:29:08.062Z</time></trkpt><trkpt lat="41.3868289" lon="13.1849352"><ele>5.0</ele><time>2026-04-02T14:29:09.095Z</time></trkpt><trkpt lat="41.3866472" lon="13.1848693"><ele>5.0</ele><time>2026-04-02T14:29:10.048Z</time></trkpt><trkpt lat="41.3864629" lon="13.1848122"><ele>6.0</ele><time>2026-04-02T14:29:11.049Z</time></trkpt><trkpt lat="41.3862721" lon="13.1847458"><ele>7.0</ele><time>2026-04-02T14:29:12.047Z</time></trkpt><trkpt lat="41.3860904" lon="13.1846812"><ele>8.0</ele><time>2026-04-02T14:29:13.043Z</time></trkpt><trkpt lat="41.3859065" lon="13.1846154"><ele>8.0</ele><time>2026-04-02T14:29:14.049Z</time></trkpt><trkpt lat="41.3857242" lon="13.1845502"><ele>8.0</ele><time>2026-04-02T14:29:15.053Z</time></trkpt><trkpt lat="41.3855438" lon="13.1844903"><ele>8.0</ele><time>2026-04-02T14:29:16.051Z</time></trkpt><trkpt lat="41.3853598" lon="13.1844362"><ele>7.666666666666666</ele><time>2026-04-02T14:29:17.053Z</time></trkpt><trkpt lat="41.3851764" lon="13.1843855"><ele>7.333333333333334</ele><time>2026-04-02T14:29:18.048Z</time></trkpt><trkpt lat="41.3850029" lon="13.1843342"><ele>7.0</ele><time>2026-04-02T14:29:19.059Z</time></trkpt><trkpt lat="41.3848254" lon="13.184268"><ele>6.666666666666667</ele><time>2026-04-02T14:29:20.059Z</time></trkpt><trkpt lat="41.3846512" lon="13.1842064"><ele>6.333333333333334</ele><time>2026-04-02T14:29:21.049Z</time></trkpt><trkpt lat="41.3844713" lon="13.1841562"><ele>6.0</ele><time>2026-04-02T14:29:22.052Z</time></trkpt><trkpt lat="41.3843008" lon="13.1840992"><ele>6.0</ele><time>2026-04-02T14:29:23.051Z</time></trkpt><trkpt lat="41.3841248" lon="13.1840458"><ele>6.0</ele><time>2026-04-02T14:29:24.049Z</time></trkpt><trkpt lat="41.3839429" lon="13.1839951"><ele>6.0</ele><time>2026-04-02T14:29:25.053Z</time></trkpt><trkpt lat="41.3837644" lon="13.1839369"><ele>6.333333333333334</ele><time>2026-04-02T14:29:26.048Z</time></trkpt><trkpt lat="41.3835929" lon="13.1838769"><ele>6.666666666666667</ele><time>2026-04-02T14:29:27.06Z</time></trkpt><trkpt lat="41.3834167" lon="13.1838224"><ele>7.0</ele><time>2026-04-02T14:29:28.051Z</time></trkpt><trkpt lat="41.3832446" lon="13.1837552"><ele>7.0</ele><time>2026-04-02T14:29:29.054Z</time></trkpt><trkpt lat="41.3830803" lon="13.183696"><ele>7.0</ele><time>2026-04-02T14:29:30.05Z</time></trkpt><trkpt lat="41.3829328" lon="13.1836453"><ele>7.0</ele><time>2026-04-02T14:29:31.05Z</time></trkpt><trkpt lat="41.3828059" lon="13.1835913"><ele>6.5</ele><time>2026-04-02T14:29:32.053Z</time></trkpt><trkpt lat="41.3826792" lon="13.1835409"><ele>6.0</ele><time>2026-04-02T14:29:33.05Z</time></trkpt><trkpt lat="41.3825642" lon="13.1835077"><ele>5.5</ele><time>2026-04-02T14:29:34.045Z</time></trkpt><trkpt lat="41.3824392" lon="13.1834775"><ele>5.0</ele><time>2026-04-02T14:29:35.057Z</time></trkpt><trkpt lat="41.3823077" lon="13.1834373"><ele>5.25</ele><time>2026-04-02T14:29:36.049Z</time></trkpt><trkpt lat="41.3821679" lon="13.1833938"><ele>5.5</ele><time>2026-04-02T14:29:37.06Z</time></trkpt><trkpt lat="41.3820331" lon="13.1833418"><ele>5.75</ele><time>2026-04-02T14:29:38.049Z</time></trkpt><trkpt lat="41.3818853" lon="13.1832921"><ele>6.0</ele><time>2026-04-02T14:29:39.05Z</time></trkpt><trkpt lat="41.3817352" lon="13.1832464"><ele>6.0</ele><time>2026-04-02T14:29:40.056Z</time></trkpt><trkpt lat="41.3815827" lon="13.1831919"><ele>6.0</ele><time>2026-04-02T14:29:41.048Z</time></trkpt><trkpt lat="41.3814242" lon="13.1831299"><ele>6.0</ele><time>2026-04-02T14:29:42.057Z</time></trkpt><trkpt lat="41.3812593" lon="13.1830747"><ele>5.333333333333333</ele><time>2026-04-02T14:29:43.061Z</time></trkpt><trkpt lat="41.3811071" lon="13.1830255"><ele>4.666666666666666</ele><time>2026-04-02T14:29:44.049Z</time></trkpt><trkpt lat="41.3809535" lon="13.1829719"><ele>4.0</ele><time>2026-04-02T14:29:45.049Z</time></trkpt><trkpt lat="41.3808002" lon="13.1829202"><ele>4.0</ele><time>2026-04-02T14:29:46.055Z</time></trkpt><trkpt lat="41.3806408" lon="13.1828642"><ele>4.0</ele><time>2026-04-02T14:29:47.052Z</time></trkpt><trkpt lat="41.38048" lon="13.1828064"><ele>4.0</ele><time>2026-04-02T14:29:48.048Z</time></trkpt><trkpt lat="41.3803253" lon="13.182753"><ele>3.6666666666666665</ele><time>2026-04-02T14:29:49.05Z</time></trkpt><trkpt lat="41.3801637" lon="13.1827014"><ele>3.333333333333333</ele><time>2026-04-02T14:29:50.055Z</time></trkpt><trkpt lat="41.3800042" lon="13.1826427"><ele>3.0</ele><time>2026-04-02T14:29:51.052Z</time></trkpt><trkpt lat="41.3798406" lon="13.1825828"><ele>3.666666666666667</ele><time>2026-04-02T14:29:52.052Z</time></trkpt><trkpt lat="41.3796759" lon="13.182519"><ele>4.333333333333334</ele><time>2026-04-02T14:29:53.054Z</time></trkpt><trkpt lat="41.3795066" lon="13.1824593"><ele>5.0</ele><time>2026-04-02T14:29:54.059Z</time></trkpt><trkpt lat="41.3793349" lon="13.1824015"><ele>5.0</ele><time>2026-04-02T14:29:55.055Z</time></trkpt><trkpt lat="41.3791608" lon="13.1823427"><ele>5.0</ele><time>2026-04-02T14:29:56.05Z</time></trkpt><trkpt lat="41.3789849" lon="13.1822855"><ele>5.0</ele><time>2026-04-02T14:29:57.053Z</time></trkpt><trkpt lat="41.3788065" lon="13.1822315"><ele>5.333333333333334</ele><time>2026-04-02T14:29:58.059Z</time></trkpt><trkpt lat="41.3786287" lon="13.1821839"><ele>5.666666666666667</ele><time>2026-04-02T14:29:59.045Z</time></trkpt><trkpt lat="41.3784525" lon="13.1821502"><ele>6.0</ele><time>2026-04-02T14:30:00.047Z</time></trkpt><trkpt lat="41.3782906" lon="13.1821266"><ele>6.0</ele><time>2026-04-02T14:30:01.049Z</time></trkpt><trkpt lat="41.3781364" lon="13.1820989"><ele>6.0</ele><time>2026-04-02T14:30:02.066Z</time></trkpt><trkpt lat="41.3779971" lon="13.1820611"><ele>6.0</ele><time>2026-04-02T14:30:03.048Z</time></trkpt><trkpt lat="41.3778729" lon="13.1820076"><ele>6.0</ele><time>2026-04-02T14:30:04.055Z</time></trkpt><trkpt lat="41.377757" lon="13.1819276"><ele>5.75</ele><time>2026-04-02T14:30:05.055Z</time></trkpt><trkpt lat="41.3776357" lon="13.1818461"><ele>5.5</ele><time>2026-04-02T14:30:06.054Z</time></trkpt><trkpt lat="41.3775398" lon="13.1817161"><ele>5.25</ele><time>2026-04-02T14:30:07.062Z</time></trkpt><trkpt lat="41.3774442" lon="13.1815693"><ele>5.0</ele><time>2026-04-02T14:30:08.048Z</time></trkpt><trkpt lat="41.3773335" lon="13.1814308"><ele>5.0</ele><time>2026-04-02T14:30:09.055Z</time></trkpt><trkpt lat="41.3772189" lon="13.1812901"><ele>5.0</ele><time>2026-04-02T14:30:10.054Z</time></trkpt><trkpt lat="41.3771016" lon="13.1811385"><ele>5.0</ele><time>2026-04-02T14:30:11.048Z</time></trkpt><trkpt lat="41.3769778" lon="13.1809806"><ele>5.0</ele><time>2026-04-02T14:30:12.067Z</time></trkpt><trkpt lat="41.3768524" lon="13.1808191"><ele>5.0</ele><time>2026-04-02T14:30:13.061Z</time></trkpt><trkpt lat="41.3767247" lon="13.1806505"><ele>5.0</ele><time>2026-04-02T14:30:14.057Z</time></trkpt><trkpt lat="41.3765998" lon="13.1804879"><ele>5.0</ele><time>2026-04-02T14:30:15.049Z</time></trkpt><trkpt lat="41.3764746" lon="13.1803205"><ele>5.0</ele><time>2026-04-02T14:30:16.056Z</time></trkpt><trkpt lat="41.3763501" lon="13.1801541"><ele>5.0</ele><time>2026-04-02T14:30:17.055Z</time></trkpt><trkpt lat="41.3762251" lon="13.1799876"><ele>4.666666666666667</ele><time>2026-04-02T14:30:18.057Z</time></trkpt><trkpt lat="41.3761063" lon="13.1798264"><ele>4.333333333333333</ele><time>2026-04-02T14:30:19.057Z</time></trkpt><trkpt lat="41.3759919" lon="13.1796719"><ele>4.0</ele><time>2026-04-02T14:30:20.055Z</time></trkpt><trkpt lat="41.3758757" lon="13.1795198"><ele>4.0</ele><time>2026-04-02T14:30:21.069Z</time></trkpt><trkpt lat="41.3757625" lon="13.1793737"><ele>4.0</ele><time>2026-04-02T14:30:22.058Z</time></trkpt><trkpt lat="41.3756537" lon="13.1792218"><ele>4.0</ele><time>2026-04-02T14:30:23.056Z</time></trkpt><trkpt lat="41.3755436" lon="13.1790628"><ele>3.333333333333333</ele><time>2026-04-02T14:30:24.056Z</time></trkpt><trkpt lat="41.3754221" lon="13.1789025"><ele>2.6666666666666665</ele><time>2026-04-02T14:30:25.055Z</time></trkpt><trkpt lat="41.375298" lon="13.1787418"><ele>2.0</ele><time>2026-04-02T14:30:26.055Z</time></trkpt><trkpt lat="41.3751758" lon="13.1785804"><ele>2.0</ele><time>2026-04-02T14:30:27.047Z</time></trkpt><trkpt lat="41.3750498" lon="13.1784163"><ele>2.0</ele><time>2026-04-02T14:30:28.058Z</time></trkpt><trkpt lat="41.374927" lon="13.1782518"><ele>2.0</ele><time>2026-04-02T14:30:29.051Z</time></trkpt><trkpt lat="41.3748" lon="13.1780868"><ele>2.6666666666666665</ele><time>2026-04-02T14:30:30.049Z</time></trkpt><trkpt lat="41.3746762" lon="13.1779205"><ele>3.333333333333333</ele><time>2026-04-02T14:30:31.076Z</time></trkpt><trkpt lat="41.3745509" lon="13.1777551"><ele>4.0</ele><time>2026-04-02T14:30:32.049Z</time></trkpt><trkpt lat="41.3744271" lon="13.1775926"><ele>4.0</ele><time>2026-04-02T14:30:33.056Z</time></trkpt><trkpt lat="41.3743041" lon="13.1774285"><ele>4.0</ele><time>2026-04-02T14:30:34.049Z</time></trkpt><trkpt lat="41.3741801" lon="13.1772609"><ele>4.0</ele><time>2026-04-02T14:30:35.061Z</time></trkpt><trkpt lat="41.3740568" lon="13.1770893"><ele>4.0</ele><time>2026-04-02T14:30:36.05Z</time></trkpt><trkpt lat="41.3739327" lon="13.1769136"><ele>4.0</ele><time>2026-04-02T14:30:37.05Z</time></trkpt><trkpt lat="41.3738096" lon="13.1767339"><ele>4.0</ele><time>2026-04-02T14:30:38.055Z</time></trkpt><trkpt lat="41.3736843" lon="13.1765548"><ele>3.6666666666666665</ele><time>2026-04-02T14:30:39.052Z</time></trkpt><trkpt lat="41.3735531" lon="13.1763802"><ele>3.333333333333333</ele><time>2026-04-02T14:30:40.058Z</time></trkpt><trkpt lat="41.3734191" lon="13.1762098"><ele>3.0</ele><time>2026-04-02T14:30:41.054Z</time></trkpt><trkpt lat="41.3732893" lon="13.1760407"><ele>3.0</ele><time>2026-04-02T14:30:42.049Z</time></trkpt><trkpt lat="41.3731578" lon="13.175872"><ele>3.0</ele><time>2026-04-02T14:30:43.051Z</time></trkpt><trkpt lat="41.3730255" lon="13.1757037"><ele>3.0</ele><time>2026-04-02T14:30:44.048Z</time></trkpt><trkpt lat="41.3728938" lon="13.1755336"><ele>3.333333333333333</ele><time>2026-04-02T14:30:45.065Z</time></trkpt><trkpt lat="41.3727608" lon="13.1753639"><ele>3.6666666666666665</ele><time>2026-04-02T14:30:46.054Z</time></trkpt><trkpt lat="41.372628" lon="13.1751966"><ele>4.0</ele><time>2026-04-02T14:30:47.057Z</time></trkpt><trkpt lat="41.3724919" lon="13.1750285"><ele>4.0</ele><time>2026-04-02T14:30:48.057Z</time></trkpt><trkpt lat="41.372357" lon="13.174865"><ele>4.0</ele><time>2026-04-02T14:30:49.048Z</time></trkpt><trkpt lat="41.3722204" lon="13.1747004"><ele>4.0</ele><time>2026-04-02T14:30:50.054Z</time></trkpt><trkpt lat="41.3720815" lon="13.1745357"><ele>4.0</ele><time>2026-04-02T14:30:51.055Z</time></trkpt><trkpt lat="41.3719455" lon="13.1743762"><ele>4.0</ele><time>2026-04-02T14:30:52.048Z</time></trkpt><trkpt lat="41.3718108" lon="13.1742222"><ele>4.0</ele><time>2026-04-02T14:30:53.053Z</time></trkpt><trkpt lat="41.3716699" lon="13.1740643"><ele>4.333333333333333</ele><time>2026-04-02T14:30:54.052Z</time></trkpt><trkpt lat="41.3715264" lon="13.1739082"><ele>4.666666666666667</ele><time>2026-04-02T14:30:55.05Z</time></trkpt><trkpt lat="41.3713817" lon="13.1737563"><ele>5.0</ele><time>2026-04-02T14:30:56.052Z</time></trkpt><trkpt lat="41.3712406" lon="13.1736174"><ele>5.25</ele><time>2026-04-02T14:30:57.052Z</time></trkpt><trkpt lat="41.3711136" lon="13.173493"><ele>5.5</ele><time>2026-04-02T14:30:58.05Z</time></trkpt><trkpt lat="41.3709986" lon="13.1733803"><ele>5.75</ele><time>2026-04-02T14:30:59.057Z</time></trkpt><trkpt lat="41.3709065" lon="13.173288"><ele>6.0</ele><time>2026-04-02T14:31:00.057Z</time></trkpt><trkpt lat="41.3708377" lon="13.1732219"><ele>6.0</ele><time>2026-04-02T14:31:01.052Z</time></trkpt><trkpt lat="41.3707524" lon="13.1731461"><ele>6.0</ele><time>2026-04-02T14:31:03.054Z</time></trkpt><trkpt lat="41.3706811" lon="13.1730839"><ele>6.0</ele><time>2026-04-02T14:31:05.044Z</time></trkpt><trkpt lat="41.3706146" lon="13.1730263"><ele>6.0</ele><time>2026-04-02T14:31:07.055Z</time></trkpt><trkpt lat="41.3705389" lon="13.1729637"><ele>6.0</ele><time>2026-04-02T14:31:09.049Z</time></trkpt><trkpt lat="41.3704627" lon="13.1728991"><ele>6.0</ele><time>2026-04-02T14:31:11.064Z</time></trkpt><trkpt lat="41.370387" lon="13.172833"><ele>5.6</ele><time>2026-04-02T14:31:13.071Z</time></trkpt><trkpt lat="41.3703008" lon="13.1727603"><ele>5.199999999999999</ele><time>2026-04-02T14:31:15.054Z</time></trkpt><trkpt lat="41.3702028" lon="13.1726766"><ele>4.800000000000001</ele><time>2026-04-02T14:31:17.063Z</time></trkpt><trkpt lat="41.370099" lon="13.1725912"><ele>4.4</ele><time>2026-04-02T14:31:19.045Z</time></trkpt><trkpt lat="41.3700106" lon="13.1725167"><ele>4.0</ele><time>2026-04-02T14:31:21.054Z</time></trkpt><trkpt lat="41.3699097" lon="13.1724444"><ele>3.9999999999999996</ele><time>2026-04-02T14:31:32.072Z</time></trkpt><trkpt lat="41.3698372" lon="13.1723907"><ele>4.0</ele><time>2026-04-02T14:31:35.047Z</time></trkpt><trkpt lat="41.3697695" lon="13.1723296"><ele>4.0</ele><time>2026-04-02T14:31:39.052Z</time></trkpt><trkpt lat="41.3696909" lon="13.1722655"><ele>4.0</ele><time>2026-04-02T14:31:42.052Z</time></trkpt><trkpt lat="41.3696349" lon="13.1722232"><ele>3.9999999999999996</ele><time>2026-04-02T14:31:44.055Z</time></trkpt><trkpt lat="41.3695621" lon="13.172163"><ele>4.0</ele><time>2026-04-02T14:31:47.05Z</time></trkpt><trkpt lat="41.3694795" lon="13.1721037"><ele>3.8571428571428568</ele><time>2026-04-02T14:31:50.056Z</time></trkpt><trkpt lat="41.3694205" lon="13.1720615"><ele>3.714285714285714</ele><time>2026-04-02T14:31:52.054Z</time></trkpt><trkpt lat="41.3693639" lon="13.1720178"><ele>3.571428571428571</ele><time>2026-04-02T14:31:54.053Z</time></trkpt><trkpt lat="41.3692984" lon="13.1719744"><ele>3.4285714285714284</ele><time>2026-04-02T14:31:56.057Z</time></trkpt><trkpt lat="41.3692374" lon="13.1719299"><ele>3.2857142857142856</ele><time>2026-04-02T14:31:58.05Z</time></trkpt><trkpt lat="41.3691748" lon="13.1718981"><ele>3.1428571428571423</ele><time>2026-04-02T14:32:00.047Z</time></trkpt><trkpt lat="41.3690903" lon="13.1718319"><ele>3.0</ele><time>2026-04-02T14:32:02.052Z</time></trkpt><trkpt lat="41.3690326" lon="13.1717921"><ele>3.0</ele><time>2026-04-02T14:32:03.057Z</time></trkpt><trkpt lat="41.3689692" lon="13.1717477"><ele>3.0</ele><time>2026-04-02T14:32:04.051Z</time></trkpt><trkpt lat="41.3688989" lon="13.1716988"><ele>3.0</ele><time>2026-04-02T14:32:05.051Z</time></trkpt><trkpt lat="41.3688279" lon="13.1716376"><ele>3.0</ele><time>2026-04-02T14:32:06.053Z</time></trkpt><trkpt lat="41.368763" lon="13.1715646"><ele>3.0</ele><time>2026-04-02T14:32:07.058Z</time></trkpt><trkpt lat="41.3686984" lon="13.1714728"><ele>3.0</ele><time>2026-04-02T14:32:08.06Z</time></trkpt><trkpt lat="41.3686302" lon="13.171368"><ele>2.75</ele><time>2026-04-02T14:32:09.047Z</time></trkpt><trkpt lat="41.3685557" lon="13.1712549"><ele>2.5</ele><time>2026-04-02T14:32:10.066Z</time></trkpt><trkpt lat="41.3684789" lon="13.1711418"><ele>2.25</ele><time>2026-04-02T14:32:11.06Z</time></trkpt><trkpt lat="41.3684004" lon="13.1710288"><ele>2.0</ele><time>2026-04-02T14:32:12.069Z</time></trkpt><trkpt lat="41.3683218" lon="13.1709131"><ele>2.0</ele><time>2026-04-02T14:32:13.061Z</time></trkpt><trkpt lat="41.3682424" lon="13.170796"><ele>2.0</ele><time>2026-04-02T14:32:14.065Z</time></trkpt><trkpt lat="41.3681639" lon="13.1706756"><ele>2.0</ele><time>2026-04-02T14:32:15.06Z</time></trkpt><trkpt lat="41.3680819" lon="13.1705568"><ele>2.0</ele><time>2026-04-02T14:32:16.059Z</time></trkpt><trkpt lat="41.3679974" lon="13.1704368"><ele>2.25</ele><time>2026-04-02T14:32:17.05Z</time></trkpt><trkpt lat="41.3679148" lon="13.1703163"><ele>2.5</ele><time>2026-04-02T14:32:18.056Z</time></trkpt><trkpt lat="41.3678309" lon="13.1702009"><ele>2.75</ele><time>2026-04-02T14:32:19.054Z</time></trkpt><trkpt lat="41.3677471" lon="13.1700865"><ele>3.0</ele><time>2026-04-02T14:32:20.072Z</time></trkpt><trkpt lat="41.3676496" lon="13.1699889"><ele>3.0</ele><time>2026-04-02T14:32:21.052Z</time></trkpt><trkpt lat="41.3675439" lon="13.1699052"><ele>3.0</ele><time>2026-04-02T14:32:22.054Z</time></trkpt><trkpt lat="41.3674401" lon="13.1698431"><ele>3.0</ele><time>2026-04-02T14:32:23.065Z</time></trkpt><trkpt lat="41.367334" lon="13.1697984"><ele>3.0</ele><time>2026-04-02T14:32:24.059Z</time></trkpt><trkpt lat="41.3672286" lon="13.1697445"><ele>3.0</ele><time>2026-04-02T14:32:25.057Z</time></trkpt><trkpt lat="41.3671251" lon="13.1696929"><ele>3.0</ele><time>2026-04-02T14:32:26.061Z</time></trkpt><trkpt lat="41.3670189" lon="13.1696411"><ele>3.0</ele><time>2026-04-02T14:32:27.056Z</time></trkpt><trkpt lat="41.3669122" lon="13.1695902"><ele>3.0</ele><time>2026-04-02T14:32:28.059Z</time></trkpt><trkpt lat="41.3668067" lon="13.1695383"><ele>3.0</ele><time>2026-04-02T14:32:29.056Z</time></trkpt><trkpt lat="41.3667003" lon="13.1694887"><ele>3.0</ele><time>2026-04-02T14:32:30.053Z</time></trkpt><trkpt lat="41.3665935" lon="13.1694377"><ele>3.0</ele><time>2026-04-02T14:32:31.061Z</time></trkpt><trkpt lat="41.366488" lon="13.1693878"><ele>3.0</ele><time>2026-04-02T14:32:32.059Z</time></trkpt><trkpt lat="41.3663824" lon="13.1693407"><ele>3.0</ele><time>2026-04-02T14:32:33.05Z</time></trkpt><trkpt lat="41.366279" lon="13.1693033"><ele>3.0</ele><time>2026-04-02T14:32:34.053Z</time></trkpt><trkpt lat="41.3661788" lon="13.1692784"><ele>2.8</ele><time>2026-04-02T14:32:35.055Z</time></trkpt><trkpt lat="41.3660836" lon="13.1692705"><ele>2.5999999999999996</ele><time>2026-04-02T14:32:36.083Z</time></trkpt><trkpt lat="41.3659846" lon="13.1692751"><ele>2.4000000000000004</ele><time>2026-04-02T14:32:37.053Z</time></trkpt><trkpt lat="41.3658854" lon="13.1692941"><ele>2.2</ele><time>2026-04-02T14:32:38.06Z</time></trkpt><trkpt lat="41.365783" lon="13.1693188"><ele>2.0</ele><time>2026-04-02T14:32:39.05Z</time></trkpt><trkpt lat="41.3656809" lon="13.1693523"><ele>2.0</ele><time>2026-04-02T14:32:40.052Z</time></trkpt><trkpt lat="41.3655718" lon="13.1693952"><ele>2.0</ele><time>2026-04-02T14:32:41.065Z</time></trkpt><trkpt lat="41.3654648" lon="13.1694344"><ele>2.0</ele><time>2026-04-02T14:32:42.051Z</time></trkpt><trkpt lat="41.3653588" lon="13.1694738"><ele>2.0</ele><time>2026-04-02T14:32:43.053Z</time></trkpt><trkpt lat="41.3652563" lon="13.1695105"><ele>2.0</ele><time>2026-04-02T14:32:44.063Z</time></trkpt><trkpt lat="41.3651637" lon="13.1695424"><ele>2.0</ele><time>2026-04-02T14:32:45.064Z</time></trkpt><trkpt lat="41.3650774" lon="13.1695743"><ele>2.0</ele><time>2026-04-02T14:32:46.057Z</time></trkpt><trkpt lat="41.3649956" lon="13.169607"><ele>2.0</ele><time>2026-04-02T14:32:47.05Z</time></trkpt><trkpt lat="41.3649269" lon="13.1696344"><ele>2.0</ele><time>2026-04-02T14:32:48.057Z</time></trkpt><trkpt lat="41.36481" lon="13.1696599"><ele>2.0</ele><time>2026-04-02T14:32:50.056Z</time></trkpt><trkpt lat="41.3646907" lon="13.1696292"><ele>1.8</ele><time>2026-04-02T14:32:52.059Z</time></trkpt><trkpt lat="41.3646104" lon="13.1695996"><ele>1.6</ele><time>2026-04-02T14:32:53.055Z</time></trkpt><trkpt lat="41.3645273" lon="13.1695663"><ele>1.4000000000000001</ele><time>2026-04-02T14:32:54.063Z</time></trkpt><trkpt lat="41.3644405" lon="13.1695201"><ele>1.2000000000000002</ele><time>2026-04-02T14:32:55.056Z</time></trkpt><trkpt lat="41.3643571" lon="13.1694655"><ele>1.0</ele><time>2026-04-02T14:32:56.063Z</time></trkpt><trkpt lat="41.3642695" lon="13.1694122"><ele>1.0</ele><time>2026-04-02T14:32:57.051Z</time></trkpt><trkpt lat="41.3641697" lon="13.1693722"><ele>1.0</ele><time>2026-04-02T14:32:58.057Z</time></trkpt><trkpt lat="41.3640635" lon="13.1693541"><ele>1.0</ele><time>2026-04-02T14:32:59.055Z</time></trkpt><trkpt lat="41.3639624" lon="13.1693366"><ele>1.0</ele><time>2026-04-02T14:33:00.05Z</time></trkpt><trkpt lat="41.3638569" lon="13.1693288"><ele>1.0</ele><time>2026-04-02T14:33:01.066Z</time></trkpt><trkpt lat="41.3637444" lon="13.1693157"><ele>1.5</ele><time>2026-04-02T14:33:02.053Z</time></trkpt><trkpt lat="41.3636262" lon="13.1692957"><ele>2.0</ele><time>2026-04-02T14:33:03.059Z</time></trkpt><trkpt lat="41.3635067" lon="13.1692762"><ele>2.5</ele><time>2026-04-02T14:33:04.055Z</time></trkpt><trkpt lat="41.3633745" lon="13.1692524"><ele>3.0</ele><time>2026-04-02T14:33:05.058Z</time></trkpt><trkpt lat="41.363231" lon="13.1692245"><ele>3.0</ele><time>2026-04-02T14:33:06.059Z</time></trkpt><trkpt lat="41.3630891" lon="13.1691978"><ele>3.0</ele><time>2026-04-02T14:33:07.063Z</time></trkpt><trkpt lat="41.362932" lon="13.1691736"><ele>3.0</ele><time>2026-04-02T14:33:08.064Z</time></trkpt><trkpt lat="41.362767" lon="13.1691507"><ele>3.0</ele><time>2026-04-02T14:33:09.055Z</time></trkpt><trkpt lat="41.3626001" lon="13.1691277"><ele>3.0</ele><time>2026-04-02T14:33:10.058Z</time></trkpt><trkpt lat="41.3624365" lon="13.1691082"><ele>3.0</ele><time>2026-04-02T14:33:11.071Z</time></trkpt><trkpt lat="41.3622785" lon="13.1690928"><ele>3.0</ele><time>2026-04-02T14:33:12.06Z</time></trkpt><trkpt lat="41.3621265" lon="13.1690819"><ele>3.0</ele><time>2026-04-02T14:33:13.063Z</time></trkpt><trkpt lat="41.3619761" lon="13.1690736"><ele>3.0</ele><time>2026-04-02T14:33:14.059Z</time></trkpt><trkpt lat="41.3618237" lon="13.1690672"><ele>3.0</ele><time>2026-04-02T14:33:15.056Z</time></trkpt><trkpt lat="41.3616607" lon="13.1690594"><ele>3.0</ele><time>2026-04-02T14:33:16.071Z</time></trkpt><trkpt lat="41.3614905" lon="13.1690495"><ele>3.0</ele><time>2026-04-02T14:33:17.047Z</time></trkpt><trkpt lat="41.3613158" lon="13.1690451"><ele>3.0</ele><time>2026-04-02T14:33:18.049Z</time></trkpt><trkpt lat="41.3611559" lon="13.1690473"><ele>3.0</ele><time>2026-04-02T14:33:19.062Z</time></trkpt><trkpt lat="41.3610121" lon="13.1690533"><ele>3.0</ele><time>2026-04-02T14:33:20.067Z</time></trkpt><trkpt lat="41.3608824" lon="13.1690582"><ele>3.0</ele><time>2026-04-02T14:33:21.058Z</time></trkpt><trkpt lat="41.3607653" lon="13.1690632"><ele>3.0</ele><time>2026-04-02T14:33:22.062Z</time></trkpt><trkpt lat="41.3606696" lon="13.1690667"><ele>3.0</ele><time>2026-04-02T14:33:23.065Z</time></trkpt><trkpt lat="41.3605955" lon="13.1690628"><ele>3.0</ele><time>2026-04-02T14:33:24.057Z</time></trkpt><trkpt lat="41.3604992" lon="13.1690029"><ele>4.0</ele><time>2026-04-02T14:33:26.063Z</time></trkpt><trkpt lat="41.3604736" lon="13.1689059"><ele>4.0</ele><time>2026-04-02T14:33:28.061Z</time></trkpt></trkseg></trk></gpx>